# Wetter Temperatur Luftdruck Luftfeuchtigkeit Sichtweite Windgeschwindigkeit Windrichtung Zeit
1 Clear 9 1029 27 10000 5.1 90 11:19 08.04.2020
2 Clear 9 1030 32 10000 3.1 80 10:55 08.04.2020
3 Clear 9 1030 32 10000 3.1 80 10:37 08.04.2020
4 Clear 8 1030 45 10000 2.6 110 10:18 08.04.2020
5 Clear 6 1030 42 10000 3.08 58 09:42 08.04.2020
6 Clear 2 1030 60 10000 1 0 09:20 08.04.2020
7 Clear 2 1030 60 10000 1 0 08:59 08.04.2020
8 Clear 1 1030 64 10000 1.5 90 08:40 08.04.2020
9 Clear 0 1030 48 10000 1.5 90 08:21 08.04.2020
10 Clear -1 1030 48 10000 1.5 130 07:43 08.04.2020
11 Clear -2 1030 74 10000 1.5 140 07:22 08.04.2020
12 Clear -1 1030 74 10000 2.1 100 06:41 08.04.2020
13 Clear -3 1030 74 10000 1 100 05:30 08.04.2020
14 Clear -2 1030 59 10000 2.1 130 03:21 08.04.2020
15 Clear -1 1030 59 10000 1 0 02:38 08.04.2020
16 Clear -1 1031 44 10000 1.31 10 02:18 08.04.2020
17 Clear -1 1031 51 10000 0.5 0 01:28 08.04.2020
18 Clear -1 1031 55 10000 3.6 110 00:50 08.04.2020
19 Clear 1 1031 55 10000 3.6 110 00:32 08.04.2020
20 Clear 0 1031 48 10000 2.1 100 23:57 07.04.2020
21 Clear 0 1031 41 10000 3.1 150 23:38 07.04.2020
22 Clear 1 1031 41 10000 2.1 140 23:19 07.04.2020
23 Clear 0 1031 41 10000 2.1 140 23:19 07.04.2020
24 Clear 1 1031 41 10000 2.1 140 22:56 07.04.2020
25 Clear 1 1031 39 10000 3.1 0 22:38 07.04.2020
26 Clear 2 1031 39 10000 2.6 190 22:18 07.04.2020
27 Clear 2 1031 36 10000 2.6 70 21:43 07.04.2020
28 Clear 2 1031 34 10000 4.6 60 21:22 07.04.2020
29 Clear 2 1030 34 10000 4.6 50 20:59 07.04.2020
30 Clear 3 1030 34 10000 4.6 50 20:41 07.04.2020
31 Clear 3 1030 31 10000 4.6 50 20:21 07.04.2020
32 Clear 2 1030 31 10000 4.6 50 19:58 07.04.2020
33 Clear 3 1030 31 10000 4.6 50 19:38 07.04.2020
34 Clear 3 1030 31 10000 4.6 50 19:38 07.04.2020
35 Clear 4 1030 29 10000 6.2 50 19:20 07.04.2020
36 Clear 5 1030 29 10000 6.2 50 18:59 07.04.2020
37 Clear 3 1030 29 10000 6.2 50 18:40 07.04.2020
38 Clear 3 1030 29 10000 6.2 50 18:40 07.04.2020
39 Clear 9 1030 25 10000 6.7 40 18:21 07.04.2020
40 Clear 0 1024 48 0 0.45 95 17:47 07.04.2020
41 Clear 8 1029 26 10000 6.7 40 17:24 07.04.2020
42 Clear 8 1029 26 10000 6.7 40 16:58 07.04.2020
43 Clear 8 1029 26 10000 6.7 40 16:40 07.04.2020
44 Clear 8 1029 26 10000 6.2 40 16:22 07.04.2020
45 Clear 8 1030 26 10000 6.2 40 15:43 07.04.2020
46 Clear 8 1030 24 10000 5.1 90 15:24 07.04.2020
47 Clear 8 1031 24 10000 6.2 70 14:43 07.04.2020
48 Clear 8 1031 24 10000 6.2 70 14:23 07.04.2020
49 Clear 8 1031 28 10000 4.1 50 13:58 07.04.2020
50 Clear 10 1031 30 10000 4.1 100 13:39 07.04.2020
51 Clear 9 1031 27 10000 4.1 50 13:19 07.04.2020
52 Clear 9 1031 27 10000 4.1 50 12:56 07.04.2020
53 Clear 9 1032 25 10000 3.6 60 12:37 07.04.2020
54 Clear 8 1032 27 10000 5.1 110 12:18 07.04.2020
55 Clear 8 1032 25 10000 5.1 120 11:45 07.04.2020
56 Clear 8 1032 25 10000 5.1 120 11:27 07.04.2020
57 Clear 8 1032 25 10000 5.1 130 10:59 07.04.2020
58 Clear 7 1032 31 10000 5.7 120 10:39 07.04.2020
59 Clear 7 1033 33 10000 6.2 100 10:19 07.04.2020
60 Clear 6 1033 52 10000 4.6 100 09:46 07.04.2020
61 Clear 2 1033 60 10000 5.1 100 09:20 07.04.2020
62 Clear 3 1033 60 10000 5.1 100 08:59 07.04.2020
63 Clear 2 1033 74 10000 3.6 110 08:39 07.04.2020
64 Clear -1 1033 55 10000 3.1 120 08:19 07.04.2020
65 Clear -2 1033 80 10000 3.1 100 07:44 07.04.2020
66 Clear -3 1032 86 10000 2.6 110 07:26 07.04.2020
67 Clear -3 1032 86 10000 2.1 120 06:52 07.04.2020
68 Clear -3 1032 86 10000 2.1 120 06:25 07.04.2020
69 Clear -3 1032 79 10000 2.1 130 05:48 07.04.2020
70 Clear -3 1032 79 10000 2.1 130 05:23 07.04.2020
71 Clear -1 1031 64 10000 1 170 03:34 07.04.2020
72 Clear 0 1031 64 10000 1.84 29 02:59 07.04.2020
73 Clear 0 1031 69 10000 1 0 02:33 07.04.2020
74 Clouds 0 1031 69 10000 1.5 60 01:33 07.04.2020
75 Clouds -1 1031 64 10000 1.5 90 00:44 07.04.2020
76 Clouds 1 1031 64 10000 1.5 90 00:25 07.04.2020
77 Clouds 0 1031 60 10000 2.6 80 23:39 06.04.2020
78 Clouds 2 1030 60 10000 2.6 80 23:20 06.04.2020
79 Clouds 2 1030 55 10000 2.6 110 22:41 06.04.2020
80 Clouds 1 1030 48 10000 2.1 140 22:22 06.04.2020
81 Clouds 1 1030 48 10000 2.1 140 21:59 06.04.2020
82 Clouds 1 1030 45 10000 4.1 100 21:40 06.04.2020
83 Clouds 2 1029 39 10000 5.7 60 21:19 06.04.2020
84 Clouds 2 1029 39 10000 5.7 60 20:56 06.04.2020
85 Clouds 2 1029 39 10000 5.7 60 20:38 06.04.2020
86 Clouds 2 1029 37 10000 6.2 60 20:19 06.04.2020
87 Clouds 2 1029 37 10000 6.2 60 19:54 06.04.2020
88 Clouds 2 1029 37 10000 6.2 60 19:36 06.04.2020
89 Clouds 4 1029 37 10000 5.7 60 19:18 06.04.2020
90 Clouds 3 1028 34 10000 6.7 60 18:41 06.04.2020
91 Clouds 3 1028 34 10000 6.7 60 18:41 06.04.2020
92 Clouds 8 1028 32 10000 7.7 60 18:23 06.04.2020
93 Clouds 8 1028 34 10000 9.3 50 17:55 06.04.2020
94 Clouds 8 1028 34 10000 9.3 50 17:55 06.04.2020
95 Clouds 9 1028 34 10000 9.3 50 17:36 06.04.2020
96 Clouds 8 1028 34 10000 7.7 50 17:18 06.04.2020
97 Clouds 8 1028 34 10000 7.7 50 17:18 06.04.2020
98 Clouds 8 1029 34 10000 6.7 60 16:45 06.04.2020
99 Clouds 8 1029 34 10000 6.7 60 16:27 06.04.2020
100 Clouds 7 1029 30 10000 7.7 50 14:46 06.04.2020
101 Clouds 7 1029 30 10000 7.7 50 14:46 06.04.2020
102 Clouds 7 1029 30 10000 7.7 50 14:46 06.04.2020
103 Clouds 7 1029 30 10000 7.7 50 14:46 06.04.2020
104 Clouds 9 1029 37 10000 6.7 50 13:44 06.04.2020
105 Clouds 8 1029 32 10000 7.2 40 13:21 06.04.2020
106 Clouds 8 1029 32 10000 6.7 60 12:40 06.04.2020
107 Clouds 6 1029 32 10000 6.7 60 12:18 06.04.2020
108 Clouds 6 1030 32 10000 6.7 60 12:18 06.04.2020
109 Clouds 11 1030 34 10000 7.2 60 11:40 06.04.2020
110 Clouds 11 1030 34 10000 7.2 60 11:40 06.04.2020
111 Clouds 6 1030 34 10000 7.2 60 11:40 06.04.2020
112 Clouds 11 1030 34 10000 7.2 60 11:40 06.04.2020
113 Clouds 4 1030 31 10000 5.7 80 10:53 06.04.2020
114 Clouds 4 1030 31 10000 5.7 80 10:53 06.04.2020
115 Clouds 7 1030 31 10000 5.7 80 10:53 06.04.2020
116 Clouds 4 1030 31 10000 5.7 80 10:53 06.04.2020
117 Clouds 7 1030 29 10000 7.7 70 10:23 06.04.2020
118 Clouds 6 1030 29 10000 7.7 70 10:23 06.04.2020
119 Clouds 6 1030 29 10000 7.7 70 10:23 06.04.2020
120 Clouds 6 1030 29 10000 7.7 70 10:23 06.04.2020
121 Clouds 6 1030 29 10000 7.7 70 10:23 06.04.2020
122 Clouds 6 1030 34 10000 8.2 80 09:59 06.04.2020
123 Clouds 6 1030 34 10000 8.2 80 09:57 06.04.2020
124 Clouds 6 1030 34 10000 8.2 80 09:57 06.04.2020
125 Clouds 6 1030 34 10000 8.2 80 09:57 06.04.2020
126 Clouds 6 1030 34 10000 8.2 80 09:57 06.04.2020
127 Clear 5 1029 31 10000 9.3 90 09:26 06.04.2020
128 Clouds 3 1029 39 10000 6.2 100 08:55 06.04.2020
129 Clouds 3 1029 39 10000 6.2 100 08:55 06.04.2020
130 Clouds 2 1029 48 10000 3.1 130 08:36 06.04.2020
131 Clouds 2 1029 48 10000 3.1 130 08:36 06.04.2020
132 Clouds 2 1029 48 10000 3.1 130 08:36 06.04.2020
133 Clouds 1 1029 52 10000 2.6 130 07:55 06.04.2020
134 Clouds -1 1029 74 10000 2.6 130 07:18 06.04.2020
135 Clouds -1 1028 74 10000 3.1 120 06:25 06.04.2020
136 Clouds 0 1027 69 10000 3.6 130 05:26 06.04.2020
137 Clouds 0 1027 69 10000 3.6 130 05:26 06.04.2020
138 Clouds 0 1027 69 10000 3.6 130 05:26 06.04.2020
139 Clouds 2 1026 59 10000 3.1 90 03:28 06.04.2020
140 Clouds 1 1026 51 10000 3.6 130 02:48 06.04.2020
141 Clouds -1 1026 39 10000 5.7 90 01:52 06.04.2020
142 Clouds 3 1027 39 10000 7.2 90 00:49 06.04.2020
143 Clouds 3 1026 45 10000 6.2 90 00:26 06.04.2020
144 Clouds 4 1026 70 10000 3.1 130 23:48 05.04.2020
145 Clouds 4 1026 75 10000 2.6 100 23:30 05.04.2020
146 Clouds 3 1026 70 10000 2.1 130 22:56 05.04.2020
147 Clouds 3 1026 70 10000 3.1 90 22:38 05.04.2020
148 Clouds 5 1026 70 10000 3.1 90 22:19 05.04.2020
149 Clouds 5 1025 81 10000 1 0 21:57 05.04.2020
150 Clouds 5 1025 75 10000 1 0 21:39 05.04.2020
151 Clouds 5 1025 75 10000 1 0 21:21 05.04.2020
152 Clouds 5 1025 75 10000 1 0 21:21 05.04.2020
153 Clouds 5 1025 75 10000 1 0 21:21 05.04.2020
154 Clouds 5 1025 75 10000 1 0 21:20 05.04.2020
155 Clouds 5 1025 75 10000 1 0 21:20 05.04.2020
156 Clouds 5 1024 75 10000 1.5 200 20:20 05.04.2020
157 Clouds 5 1024 75 10000 1.5 200 20:20 05.04.2020
158 Clouds 5 1024 75 10000 1.5 200 20:20 05.04.2020
159 Clouds 6 1023 65 10000 4.1 65 19:40 05.04.2020
160 Clouds 6 1023 65 10000 4.1 65 19:22 05.04.2020
161 Clouds 6 1023 65 10000 4.1 65 19:22 05.04.2020
162 Clouds 6 1023 65 10000 2.6 240 18:45 05.04.2020
163 Clouds 6 1023 65 10000 2.6 230 17:58 05.04.2020
164 Clouds 6 1023 65 10000 2.6 230 17:58 05.04.2020
165 Clouds 6 1023 65 10000 2.1 190 17:39 05.04.2020
166 Clouds 6 1023 65 10000 2.1 190 17:39 05.04.2020
167 Clouds 6 1023 65 10000 2.1 190 17:39 05.04.2020
168 Clouds 6 1023 65 10000 2.1 190 17:39 05.04.2020
169 Clouds 6 1023 65 10000 2.1 190 17:20 05.04.2020
170 Clouds 6 1023 65 10000 2.1 190 17:20 05.04.2020
171 Clouds 4 1023 65 10000 3.1 100 16:21 05.04.2020
172 Clouds 5 1023 65 10000 5.1 90 15:59 05.04.2020
173 Clouds 5 1023 61 10000 5.7 50 15:41 05.04.2020
174 Clouds 5 1023 61 10000 5.7 50 15:22 05.04.2020
175 Clouds 6 1023 61 10000 6.2 60 14:47 05.04.2020
176 Clouds 6 1023 61 10000 6.2 60 14:47 05.04.2020
177 Clouds 6 1023 65 10000 3.1 130 13:44 05.04.2020
178 Clouds 5 1023 70 10000 4.6 110 12:55 05.04.2020
179 Clouds 5 1023 70 10000 4.6 110 12:55 05.04.2020
180 Clouds 5 1023 70 10000 4.6 110 12:55 05.04.2020
181 Clouds 5 1023 70 10000 4.6 110 12:55 05.04.2020
182 Clouds 5 1023 70 10000 4.6 110 12:55 05.04.2020
183 Clouds 6 1022 70 10000 8.2 90 11:44 05.04.2020
184 Clouds 5 1022 70 10000 8.2 90 11:21 05.04.2020
185 Clouds 5 1022 70 10000 8.2 90 10:59 05.04.2020
186 Clouds 4 1022 75 10000 7.7 100 10:41 05.04.2020
187 Clouds 4 1022 75 10000 7.7 100 10:18 05.04.2020
188 Clouds 4 1022 75 10000 6.2 90 09:43 05.04.2020
189 Rain 4 1021 81 10000 6.2 110 09:24 05.04.2020
190 Rain 4 1021 81 10000 6.2 110 09:24 05.04.2020
191 Rain 4 1021 81 10000 6.2 110 09:24 05.04.2020
192 Rain 4 1021 81 10000 6.2 110 09:24 05.04.2020
193 Rain 4 1021 81 10000 6.2 110 09:24 05.04.2020
194 Rain 3 1020 93 10000 1 0 07:42 05.04.2020
195 Rain 3 1018 93 10000 1.5 240 04:40 05.04.2020
196 Rain 3 1019 93 10000 2.1 230 03:33 05.04.2020
197 Rain 4 1019 93 10000 1.5 230 02:52 05.04.2020
198 Rain 3 1019 93 10000 1 310 01:48 05.04.2020
199 Rain 3 1019 93 10000 0.5 0 01:28 05.04.2020
200 Rain 3 1019 93 10000 2.6 150 00:44 05.04.2020
201 Rain 2 1019 93 10000 2.6 150 00:21 05.04.2020
202 Rain 3 1019 87 10000 4.6 140 23:55 04.04.2020
203 Rain 3 1019 87 10000 4.6 140 23:55 04.04.2020
204 Rain 3 1019 87 10000 4.6 140 23:37 04.04.2020
205 Rain 3 1019 87 10000 4.6 140 23:19 04.04.2020
206 Rain 3 1019 93 10000 4.1 140 22:41 04.04.2020
207 Rain 3 1019 93 10000 4.1 140 22:22 04.04.2020
208 Rain 3 1019 93 10000 4.1 130 21:59 04.04.2020
209 Rain 3 1019 93 10000 4.1 130 21:59 04.04.2020
210 Rain 3 1018 93 9000 4.1 130 21:40 04.04.2020
211 Rain 3 1018 87 10000 4.1 130 21:20 04.04.2020
212 Rain 3 1018 87 10000 4.1 130 20:59 04.04.2020
213 Rain 3 1018 93 8000 4.1 130 20:40 04.04.2020
214 Rain 4 1018 93 8000 4.1 130 20:21 04.04.2020
215 Rain 4 1017 93 8000 4.6 130 19:57 04.04.2020
216 Rain 4 1017 93 7000 2.1 120 19:37 04.04.2020
217 Rain 4 1017 93 7000 2.1 120 19:19 04.04.2020
218 Rain 4 1017 93 6000 1.5 140 18:56 04.04.2020
219 Rain 4 1017 93 8000 2.6 140 18:37 04.04.2020
220 Rain 4 1017 93 8000 2.6 140 18:19 04.04.2020
221 Rain 5 1017 81 8000 2.6 150 17:41 04.04.2020
222 Rain 5 1017 81 8000 2.6 150 17:41 04.04.2020
223 Rain 5 1017 81 8000 2.6 150 17:20 04.04.2020
224 Rain 5 1017 81 10000 4.1 140 16:56 04.04.2020
225 Rain 4 1017 81 8000 4.6 130 16:38 04.04.2020
226 Rain 5 1017 81 8000 4.6 130 16:19 04.04.2020
227 Clouds 5 1017 81 10000 4.6 120 15:41 04.04.2020
228 Clouds 5 1017 81 10000 4.6 120 15:23 04.04.2020
229 Clouds 5 1017 75 10000 4.6 130 14:59 04.04.2020
230 Clouds 5 1017 81 10000 4.6 140 14:40 04.04.2020
231 Clouds 5 1017 81 10000 4.6 140 14:22 04.04.2020
232 Clouds 5 1017 81 10000 5.1 140 13:55 04.04.2020
233 Clouds 5 1017 81 10000 5.1 130 13:37 04.04.2020
234 Clouds 5 1017 81 10000 5.1 130 13:19 04.04.2020
235 Clouds 4 1017 81 10000 5.1 130 12:44 04.04.2020
236 Clouds 4 1017 81 10000 5.1 130 12:44 04.04.2020
237 Rain 5 1017 87 8000 6.7 120 12:23 04.04.2020
238 Rain 5 1017 87 8000 6.7 120 11:58 04.04.2020
239 Rain 4 1017 87 8000 6.2 130 11:38 04.04.2020
240 Rain 3 1017 87 8000 6.2 130 11:19 04.04.2020
241 Rain 5 1017 87 8000 6.2 130 10:55 04.04.2020
242 Rain 4 1017 81 6000 3.1 150 10:37 04.04.2020
243 Rain 3 1017 81 6000 3.1 150 10:18 04.04.2020
244 Rain 4 1016 93 5000 2.1 130 09:54 04.04.2020
245 Rain 4 1016 87 7000 2.1 90 09:36 04.04.2020
246 Rain 3 1016 87 7000 2.1 90 09:18 04.04.2020
247 Rain 4 1015 87 10000 2.6 150 08:38 04.04.2020
248 Rain 4 1015 87 10000 2.6 150 08:20 04.04.2020
249 Clouds 4 1015 87 10000 3.1 150 07:44 04.04.2020
250 Clouds 4 1015 87 10000 3.1 100 07:26 04.04.2020
251 Rain 2 1015 87 10000 4.6 90 06:47 04.04.2020
252 Clouds 3 1015 86 10000 3.1 120 06:18 04.04.2020
253 Clouds 3 1015 93 10000 3.1 100 05:41 04.04.2020
254 Clouds 3 1015 93 10000 3.1 100 05:23 04.04.2020
255 Clouds 2 1015 81 10000 2.1 110 04:27 04.04.2020
256 Clouds 2 1015 81 10000 2.1 130 03:49 04.04.2020
257 Clouds 2 1015 81 10000 2.6 110 02:50 04.04.2020
258 Clouds 3 1015 81 10000 2.6 110 02:32 04.04.2020
259 Clouds 3 1015 81 10000 2.1 100 01:53 04.04.2020
260 Clouds 3 1015 81 10000 1 130 01:24 04.04.2020
261 Clouds 3 1015 75 10000 2.1 150 00:48 04.04.2020
262 Clouds 3 1015 81 10000 2.6 150 00:28 04.04.2020
263 Clouds 3 1015 81 10000 3.6 100 23:39 03.04.2020
264 Clouds 3 1015 75 10000 4.6 90 23:21 03.04.2020
265 Clouds 3 1015 75 10000 4.6 90 22:56 03.04.2020
266 Clouds 3 1015 81 10000 3.6 110 22:38 03.04.2020
267 Clouds 3 1015 81 10000 3.6 110 22:18 03.04.2020
268 Clouds 3 1014 75 10000 3.6 120 21:43 03.04.2020
269 Clouds 3 1014 75 10000 3.6 120 21:24 03.04.2020
270 Clouds 3 1014 75 10000 2.6 130 20:56 03.04.2020
271 Clouds 3 1014 75 10000 3.1 140 20:37 03.04.2020
272 Clouds 3 1014 75 10000 3.1 140 20:19 03.04.2020
273 Clouds 4 1013 65 10000 4.1 110 19:56 03.04.2020
274 Clouds 4 1013 66 10000 3.6 110 19:38 03.04.2020
275 Clouds 4 1013 66 10000 3.6 110 19:20 03.04.2020
276 Clouds 5 1013 57 10000 3.1 120 18:58 03.04.2020
277 Clouds 6 1013 50 10000 1.5 160 18:40 03.04.2020
278 Clouds 8 1013 50 10000 1.5 160 18:22 03.04.2020
279 Clouds 8 1013 54 10000 1 0 17:43 03.04.2020
280 Clouds 9 1013 54 10000 1 0 17:21 03.04.2020
281 Clouds 9 1012 50 10000 2.1 0 16:58 03.04.2020
282 Clouds 7 1013 54 10000 1.5 0 16:40 03.04.2020
283 Clouds 7 1013 54 10000 1.5 0 16:21 03.04.2020
284 Clouds 9 1013 57 10000 1 0 15:57 03.04.2020
285 Clouds 7 1013 61 10000 0.59 165 15:38 03.04.2020
286 Clouds 7 1013 61 10000 1.22 200 15:19 03.04.2020
287 Clouds 7 1013 61 10000 1.22 200 15:19 03.04.2020
288 Clouds 5 1013 47 0 0.45 136 14:41 03.04.2020
289 Clouds 5 1013 47 0 0.45 136 14:41 03.04.2020
290 Clouds 5 1015 70 10000 0.5 0 14:22 03.04.2020
291 Clouds 5 1015 70 10000 0.5 0 13:57 03.04.2020
292 Clouds 5 1015 70 10000 0.5 0 13:38 03.04.2020
293 Clouds 6 1015 70 10000 0.5 0 13:20 03.04.2020
294 Clouds 5 1015 60 10000 1 0 12:43 03.04.2020
295 Clear 4 1015 60 10000 1 0 12:20 03.04.2020
296 Clear 4 1015 58 10000 1.53 193 11:56 03.04.2020
297 Clear 2 1015 74 7000 0.5 0 11:37 03.04.2020
298 Clear 2 1015 74 7000 0.5 0 11:18 03.04.2020
299 Mist 1 1015 58 4000 1 100 10:57 03.04.2020
300 Mist 0 1015 92 1200 1.5 80 10:38 03.04.2020
301 Mist 0 1015 92 1200 1.5 80 10:20 03.04.2020
302 Fog 0 1016 100 200 1 0 09:57 03.04.2020
303 Fog 0 1015 92 150 0.5 0 09:39 03.04.2020
304 Fog 0 1015 92 150 0.5 0 09:39 03.04.2020
305 Fog 0 1015 92 150 0.5 0 09:21 03.04.2020
306 Fog 0 1015 92 150 1.5 60 08:55 03.04.2020
307 Fog -2 1015 92 200 0.5 0 08:36 03.04.2020
308 Fog -2 1015 92 200 0.5 0 08:18 03.04.2020
309 Fog -3 1015 100 150 1.36 200 07:41 03.04.2020
310 Fog -3 1015 100 150 1.36 200 07:41 03.04.2020
311 Fog -3 1015 100 150 1.36 200 07:23 03.04.2020
312 Fog -4 1014 100 250 1 0 06:34 03.04.2020
313 Fog -3 1014 92 300 2.1 130 05:43 03.04.2020
314 Fog -3 1014 92 300 2.1 130 05:21 03.04.2020
315 Mist -4 1014 92 2000 1 110 03:37 03.04.2020
316 Mist -3 1014 100 3000 1 0 02:47 03.04.2020
317 Mist -3 1015 100 5000 1 320 01:30 03.04.2020
318 Mist -3 1015 100 5000 0.5 0 00:56 03.04.2020
319 Mist -3 1015 92 5000 0.5 0 00:33 03.04.2020
320 Mist -2 1015 92 5000 0.5 0 23:57 02.04.2020
321 Mist -2 1015 92 5000 1 0 23:38 02.04.2020
322 Mist -2 1015 92 5000 1 0 23:19 02.04.2020
323 Clouds -2 1015 92 7000 1 140 22:42 02.04.2020
324 Clouds -2 1015 92 7000 1 140 22:42 02.04.2020
325 Clouds -2 1015 92 7000 1 140 22:23 02.04.2020
326 Clouds -2 1015 71 6000 0.74 159 21:59 02.04.2020
327 Clouds -2 1015 71 8000 0.5 0 21:37 02.04.2020
328 Clouds 0 1015 71 8000 0.5 0 21:19 02.04.2020
329 Clouds 0 1014 71 10000 1 0 20:45 02.04.2020
330 Clouds 0 1014 71 10000 1.5 120 20:25 02.04.2020
331 Clouds 2 1014 74 10000 2.6 130 19:59 02.04.2020
332 Clouds 2 1014 74 10000 2.6 130 19:59 02.04.2020
333 Clouds 2 1014 74 10000 2.6 120 19:40 02.04.2020
334 Clouds 2 1014 74 10000 2.6 120 19:20 02.04.2020
335 Clouds 2 1014 74 10000 2.1 110 18:56 02.04.2020
336 Clouds 3 1014 69 10000 2.1 90 18:37 02.04.2020
337 Clouds 3 1014 74 10000 1.5 100 18:18 02.04.2020
338 Clouds 3 1014 69 10000 0.5 0 17:43 02.04.2020
339 Clouds 3 1014 69 10000 0.5 0 17:24 02.04.2020
340 Clouds 4 1014 64 10000 1 0 16:58 02.04.2020
341 Clouds 3 1014 69 10000 1 0 16:40 02.04.2020
342 Clouds 3 1014 69 10000 1 0 16:21 02.04.2020
343 Clouds 3 1014 64 10000 1 140 15:57 02.04.2020
344 Clouds 4 1014 60 10000 1 0 15:39 02.04.2020
345 Clouds 4 1014 60 10000 1 0 15:18 02.04.2020
346 Clouds 4 1014 60 10000 1 0 15:18 02.04.2020
347 Clouds 4 1015 64 10000 2.54 38 14:57 02.04.2020
348 Clouds 4 1015 64 10000 2.54 38 14:38 02.04.2020
349 Clouds 3 1015 64 10000 2.54 38 14:18 02.04.2020
350 Clouds 3 1015 69 10000 2.26 29 13:54 02.04.2020
351 Clouds 3 1015 64 10000 1 0 13:36 02.04.2020
352 Clouds 3 1015 64 10000 1 0 13:18 02.04.2020
353 Clouds 2 1015 69 10000 1.5 300 12:41 02.04.2020
354 Clouds 2 1015 69 10000 1.5 300 12:19 02.04.2020
355 Clouds 2 1015 69 10000 1 0 11:57 02.04.2020
356 Clouds 1 1015 74 10000 2.1 320 11:38 02.04.2020
357 Clouds 1 1015 74 10000 2.1 320 11:19 02.04.2020
358 Clouds 1 1015 80 10000 2.6 310 10:55 02.04.2020
359 Clouds 0 1015 59 10000 3.1 300 10:37 02.04.2020
360 Clouds 0 1015 59 10000 2.1 320 10:19 02.04.2020
361 Clouds 0 1015 59 10000 2.1 320 09:56 02.04.2020
362 Clouds 0 1015 59 10000 0.5 0 09:38 02.04.2020
363 Clouds -2 1015 72 10000 0.5 0 09:19 02.04.2020
364 Clouds -2 1015 76 10000 1.5 50 08:46 02.04.2020
365 Snow -3 1015 92 10000 1 0 08:26 02.04.2020
366 Snow -3 1014 92 10000 0.5 0 07:45 02.04.2020
367 Clouds -3 1014 92 10000 0.5 0 07:21 02.04.2020
368 Clouds -3 1014 92 10000 1 0 06:58 02.04.2020
369 Snow -3 1014 92 7000 1.94 20 06:22 02.04.2020
370 Snow -3 1014 92 8000 2.1 230 05:45 02.04.2020
371 Snow -3 1014 92 5000 2.1 170 04:46 02.04.2020
372 Snow -2 1015 92 1100 2.1 140 01:54 02.04.2020
373 Snow -2 1015 92 2000 2.1 130 00:51 02.04.2020
374 Snow -2 1015 92 1900 1.5 160 00:29 02.04.2020
375 Snow -2 1015 92 1900 1.5 170 23:57 01.04.2020
376 Snow -2 1015 92 2100 0.5 200 23:37 01.04.2020
377 Snow -2 1015 92 2100 0.5 200 23:18 01.04.2020
378 Snow -2 1015 92 10000 0.5 200 22:41 01.04.2020
379 Snow -2 1015 92 10000 0.5 200 22:22 01.04.2020
380 Snow -2 1015 92 4000 2.1 150 21:57 01.04.2020
381 Snow -2 1015 92 2500 2.6 140 21:39 01.04.2020
382 Snow -2 1015 92 2500 2.6 140 21:18 01.04.2020
383 Snow -2 1015 92 4000 2.6 140 20:55 01.04.2020
384 Snow -2 1015 92 5000 3.1 130 20:37 01.04.2020
385 Snow -2 1015 92 5000 3.1 130 20:18 01.04.2020
386 Snow -2 1015 92 3000 3.6 120 19:43 01.04.2020
387 Snow -2 1015 92 3000 3.6 120 19:22 01.04.2020
388 Snow -2 1015 92 1100 3.1 120 18:56 01.04.2020
389 Snow -2 1015 92 1100 3.1 120 18:56 01.04.2020
390 Snow -2 1015 92 800 3.6 110 18:38 01.04.2020
391 Snow -2 1015 92 800 3.6 110 18:38 01.04.2020
392 Snow -1 1015 92 800 3.6 110 18:20 01.04.2020
393 Snow -1 1015 92 1100 3.1 90 17:55 01.04.2020
394 Snow -1 1015 92 1600 2.1 70 17:36 01.04.2020
395 Snow -1 1015 92 1600 2.1 70 17:18 01.04.2020
396 Snow 0 1015 69 5000 4.6 120 16:42 01.04.2020
397 Snow 0 1015 69 5000 4.6 120 16:42 01.04.2020
398 Snow -1 1015 69 5000 4.6 120 16:24 01.04.2020
399 Snow -1 1015 69 4000 4.6 120 15:58 01.04.2020
400 Snow -1 1016 69 10000 4.6 120 15:40 01.04.2020
401 Snow 0 1016 67 10000 4.6 120 15:21 01.04.2020
402 Snow 0 1016 67 10000 4.6 110 14:57 01.04.2020
403 Snow 0 1016 67 8000 4.6 120 14:38 01.04.2020
404 Snow 0 1016 67 4500 4.6 130 14:19 01.04.2020
405 Snow 0 1016 67 4500 4.6 130 13:58 01.04.2020
406 Clouds 0 1017 67 10000 5.7 130 13:37 01.04.2020
407 Clouds 0 1017 67 10000 5.7 130 13:19 01.04.2020
408 Clouds 0 1017 67 10000 7.2 140 12:54 01.04.2020
409 Snow -1 1017 92 3000 7.7 130 12:36 01.04.2020
410 Snow -1 1017 92 3000 7.7 130 12:18 01.04.2020
411 Snow -1 1017 92 1800 5.7 130 11:42 01.04.2020
412 Snow -1 1017 92 1800 5.7 130 11:23 01.04.2020
413 Snow -1 1017 92 3500 5.7 120 10:58 01.04.2020
414 Snow -1 1017 92 2300 5.1 110 10:37 01.04.2020
415 Snow -1 1017 92 2300 5.1 110 10:18 01.04.2020
416 Snow -1 1017 92 1000 6.2 110 09:55 01.04.2020
417 Snow -2 1017 92 1700 6.7 120 09:37 01.04.2020
418 Snow -2 1017 92 1700 6.7 120 09:18 01.04.2020
419 Snow -2 1016 92 10000 6.2 110 08:40 01.04.2020
420 Snow -2 1016 92 10000 6.2 110 08:18 01.04.2020
421 Snow -3 1016 100 6000 3.6 130 07:43 01.04.2020
422 Snow -3 1016 100 6000 3.6 130 07:20 01.04.2020
423 Snow -3 1016 100 8000 3.6 140 06:47 01.04.2020
424 Snow -2 1016 100 8000 3.6 140 06:23 01.04.2020
425 Snow -2 1016 100 8000 3.6 130 05:55 01.04.2020
426 Snow -2 1017 92 2800 2.1 120 04:30 01.04.2020
427 Snow -2 1017 92 2600 1.5 140 03:28 01.04.2020
428 Snow -2 1017 92 2700 0.5 40 02:49 01.04.2020
429 Snow -2 1018 92 3500 2.17 35 01:54 01.04.2020
430 Snow -2 1018 92 2500 1 0 01:29 01.04.2020
431 Snow -2 1018 100 2600 1.5 320 00:58 01.04.2020
432 Snow -2 1018 100 2000 2.1 320 00:40 01.04.2020
433 Snow -2 1018 100 2000 2.1 320 00:18 01.04.2020
434 Snow -2 1018 71 1800 2.1 340 23:41 31.03.2020
435 Snow -2 1018 71 1800 2.1 340 23:41 31.03.2020
436 Snow -2 1018 71 1800 2.1 340 23:23 31.03.2020
437 Snow -2 1018 71 1800 2.1 340 23:23 31.03.2020
438 Snow -1 1018 71 1400 3.6 10 22:43 31.03.2020
439 Snow -1 1018 71 1400 3.6 10 22:23 31.03.2020
440 Snow -1 1018 71 1400 3.6 10 22:23 31.03.2020
441 Snow 0 1018 71 2300 4.1 300 21:59 31.03.2020
442 Snow 0 1018 71 2300 4.1 300 21:59 31.03.2020
443 Snow 0 1018 71 2300 4.1 300 21:59 31.03.2020
444 Clouds 0 1018 86 8000 4.1 280 21:41 31.03.2020
445 Clouds 0 1018 86 8000 4.1 280 21:22 31.03.2020
446 Clouds 1 1018 86 8000 4.1 280 20:58 31.03.2020
447 Clouds 1 1017 80 10000 5.7 270 20:38 31.03.2020
448 Clouds 2 1016 60 10000 3.1 320 20:20 31.03.2020
449 Clouds 3 1016 60 10000 3.1 320 19:59 31.03.2020
450 Clouds 3 1016 60 10000 3.6 330 19:40 31.03.2020
451 Clouds 3 1016 60 10000 3.6 330 19:21 31.03.2020
452 Clouds 2 1015 56 10000 2.1 340 18:54 31.03.2020
453 Clouds 3 1015 52 10000 3.6 360 18:36 31.03.2020
454 Clouds 4 1015 52 10000 3.6 360 18:18 31.03.2020
455 Clouds 3 1015 52 10000 3.1 10 17:54 31.03.2020
456 Clouds 4 1015 48 10000 4.1 20 17:36 31.03.2020
457 Clouds 4 1015 48 10000 4.1 20 17:36 31.03.2020
458 Clouds 5 1015 48 10000 4.6 20 17:18 31.03.2020
459 Clouds 4 1015 42 10000 2.1 300 16:37 31.03.2020
460 Clouds 4 1015 42 10000 2.1 300 16:18 31.03.2020
461 Clouds 4 1015 52 10000 3.1 310 15:56 31.03.2020
462 Clouds 4 1015 63 10000 4.6 310 15:37 31.03.2020
463 Clouds 9 1015 48 10000 4.6 310 15:19 31.03.2020
464 Clouds 5 1015 49 10000 3.6 290 14:56 31.03.2020
465 Clouds 9 1015 48 10000 2.6 290 14:38 31.03.2020
466 Clouds 10 1015 48 10000 2.6 290 14:18 31.03.2020
467 Clouds 8 1016 52 10000 3.1 270 13:41 31.03.2020
468 Clouds 8 1016 52 10000 3.1 270 13:19 31.03.2020
469 Clouds 8 1016 47 10000 3.1 260 12:54 31.03.2020
470 Clouds 8 1016 52 10000 4.1 250 12:36 31.03.2020
471 Clouds 9 1017 56 10000 4.6 260 12:18 31.03.2020
472 Clouds 8 1017 56 10000 5.1 280 11:38 31.03.2020
473 Clouds 7 1017 65 10000 5.1 270 11:19 31.03.2020
474 Clouds 7 1017 65 10000 5.1 270 10:56 31.03.2020
475 Clouds 6 1017 69 10000 5.7 270 10:38 31.03.2020
476 Clouds 4 1017 69 10000 5.7 270 10:20 31.03.2020
477 Clouds 6 1017 60 10000 5.7 280 09:45 31.03.2020
478 Clouds 5 1017 69 10000 6.2 280 09:27 31.03.2020
479 -273 0 0 0 0 0 08:59 31.03.2020
480 Clouds 2 1017 69 10000 6.2 280 08:59 31.03.2020
481 Clouds 1 1017 69 10000 6.2 290 08:41 31.03.2020
482 Clouds 1 1017 69 10000 6.2 290 08:21 31.03.2020
483 Clouds 0 1017 74 10000 5.7 290 07:59 31.03.2020
484 Clouds 0 1017 74 8000 6.7 280 07:41 31.03.2020
485 Clouds 0 1017 74 8000 6.7 280 07:22 31.03.2020
486 Clouds 0 1017 74 8000 6.7 280 06:53 31.03.2020
487 Clouds 0 1016 74 10000 6.7 280 06:35 31.03.2020
488 Clouds 1 1016 69 10000 6.2 280 05:41 31.03.2020
489 Clouds 1 1016 74 10000 8.2 280 04:33 31.03.2020
490 Clouds 1 1015 74 9000 8.2 280 02:30 31.03.2020
491 Clouds 2 1015 68 10000 7.7 280 01:46 31.03.2020
492 Clouds 2 1015 68 10000 7.2 280 00:53 31.03.2020
493 Clouds 2 1015 65 10000 7.7 280 00:25 31.03.2020
494 Clouds 2 1015 64 10000 6.7 280 23:59 30.03.2020
495 Clouds 3 1015 60 10000 7.7 280 23:38 30.03.2020
496 Clouds 4 1015 60 10000 7.7 280 23:19 30.03.2020
497 Clouds 4 1015 60 10000 6.7 280 22:57 30.03.2020
498 Clouds 5 1014 56 10000 7.2 270 22:38 30.03.2020
499 Clouds 5 1014 56 10000 6.7 280 22:18 30.03.2020
500 Clouds 5 1014 56 10000 6.7 280 21:57 30.03.2020
501 Clouds 5 1013 49 10000 6.7 270 21:37 30.03.2020
502 Clouds 6 1013 49 10000 6.7 270 21:19 30.03.2020
503 Clouds 6 1013 43 10000 6.2 280 20:55 30.03.2020
504 Clouds 7 1012 43 10000 6.2 290 20:36 30.03.2020
505 Clouds 7 1012 43 10000 6.2 290 20:18 30.03.2020
506 Clouds 9 1011 62 10000 2.1 330 19:40 30.03.2020
507 Clouds 9 1011 62 10000 2.1 330 19:22 30.03.2020
508 Clouds 9 1011 62 10000 3.6 320 18:57 30.03.2020
509 Clouds 10 1011 62 10000 3.6 310 18:38 30.03.2020
510 Clouds 10 1011 48 10000 3.6 310 18:20 30.03.2020
511 Clouds 10 1010 48 10000 3.6 310 17:57 30.03.2020
512 Clouds 10 1010 33 10000 3.6 290 17:38 30.03.2020
513 Clouds 10 1010 33 10000 3.6 290 17:38 30.03.2020
514 Clouds 10 1011 48 10000 4.6 290 17:19 30.03.2020
515 Clouds 10 1011 48 10000 4.6 290 16:55 30.03.2020
516 Clouds 10 1011 35 10000 3.6 280 16:36 30.03.2020
517 Clouds 10 1011 35 10000 3.6 280 16:18 30.03.2020
518 -273 0 0 0 0 0 15:54 30.03.2020
519 Clouds 11 1011 38 10000 4.6 320 15:36 30.03.2020
520 Clouds 11 1011 38 10000 4.6 320 15:18 30.03.2020
521 Clouds 10 1011 40 10000 3.6 290 14:39 30.03.2020
522 Clouds 11 1011 37 10000 3.6 290 14:19 30.03.2020
523 Clouds 11 1011 40 10000 3.6 290 14:19 30.03.2020
524 Clouds 11 1012 38 10000 4.1 260 13:59 30.03.2020
525 Clouds 10 1012 41 10000 3.6 290 13:40 30.03.2020
526 Clouds 10 1012 41 10000 3.6 290 13:20 30.03.2020
527 Clouds 10 1012 44 10000 4.1 280 12:54 30.03.2020
528 Clouds 12 1012 44 10000 4.1 280 12:54 30.03.2020
529 Clouds 10 1012 41 10000 4.6 290 12:36 30.03.2020
530 Clear 10 1012 41 10000 4.6 290 12:18 30.03.2020
531 Clear 9 1012 46 10000 5.1 300 11:42 30.03.2020
532 -273 0 0 0 0 0 11:23 30.03.2020
533 Clear 9 1013 46 10000 6.2 300 10:57 30.03.2020
534 Clear 8 1013 50 10000 6.2 300 10:38 30.03.2020
535 Clear 8 1013 50 10000 6.2 300 10:20 30.03.2020
536 Clear 7 1013 70 10000 1 0 09:41 30.03.2020
537 Clear 4 1013 70 10000 1 0 09:20 30.03.2020
538 Clear 4 1012 75 10000 1.2 265 08:58 30.03.2020
539 Clear 4 1012 86 10000 1.5 150 08:38 30.03.2020
540 Clear 3 1012 86 10000 1.5 150 08:20 30.03.2020
541 Clear 2 1012 59 8000 1 0 07:44 30.03.2020
542 Clear -1 1012 59 8000 1 110 07:23 30.03.2020
543 Clear -1 1012 59 8000 0.5 0 06:47 30.03.2020
544 Clear -1 1012 59 8000 0.5 0 06:25 30.03.2020
545 Clear -1 1012 86 10000 1 0 05:44 30.03.2020
546 Clear 0 1012 86 8000 1.5 130 04:37 30.03.2020
547 Clear 0 1012 86 8000 1.5 130 04:18 30.03.2020
548 Clear 1 1012 63 8000 1 90 02:45 30.03.2020
549 Clear 0 1012 63 10000 1.5 120 01:58 30.03.2020
550 Clear 1 1012 63 10000 1.5 60 01:18 30.03.2020
551 Clear 2 1011 70 10000 2.1 310 00:29 30.03.2020
552 Clouds 2 1011 60 10000 2.6 290 23:56 29.03.2020
553 Clouds 2 1011 70 10000 3.6 270 23:37 29.03.2020
554 Clouds 2 1011 70 10000 3.6 270 23:19 29.03.2020
555 Clouds 4 1011 60 10000 3.1 280 22:41 29.03.2020
556 Clouds 4 1011 60 10000 3.1 280 22:20 29.03.2020
557 Clouds 4 1011 60 10000 2.6 280 21:59 29.03.2020
558 Clouds 6 1011 61 10000 3.6 280 21:38 29.03.2020
559 Rain 6 1011 61 10000 3.6 280 21:20 29.03.2020
560 Clouds 7 1010 59 10000 2.6 290 20:55 29.03.2020
561 Clouds 7 1010 50 10000 2.6 290 20:37 29.03.2020
562 Clouds 7 1010 50 10000 2.6 290 20:37 29.03.2020
563 Clouds 8 1010 50 10000 2.6 290 20:19 29.03.2020
564 Rain 8 1010 50 10000 2.6 290 19:57 29.03.2020
565 Rain 8 1010 50 10000 2.6 290 19:57 29.03.2020
566 Clouds 8 1009 59 10000 2.6 300 19:39 29.03.2020
567 Clouds 9 1009 43 10000 3.6 320 19:21 29.03.2020
568 Clouds 9 1009 43 10000 3.6 320 18:57 29.03.2020
569 Clouds 10 1009 35 10000 5.7 320 18:38 29.03.2020
570 Clouds 10 1009 44 10000 2.6 290 18:18 29.03.2020
571 Clouds 11 1009 44 10000 2.6 290 17:55 29.03.2020
572 Clouds 10 1008 38 10000 3.1 280 17:36 29.03.2020
573 Clouds 10 1008 38 10000 3.1 280 17:18 29.03.2020
574 Clouds 9 1008 41 10000 3.1 280 16:55 29.03.2020
575 Clouds 10 1008 33 10000 3.6 280 16:36 29.03.2020
576 Clouds 10 1009 33 10000 5.1 290 16:18 29.03.2020
577 Clouds 12 1009 44 10000 3.1 320 15:41 29.03.2020
578 Clouds 12 1009 44 10000 3.1 320 15:23 29.03.2020
579 Clouds 12 1009 44 10000 3.1 320 15:23 29.03.2020
580 Clouds 10 1009 33 10000 3.6 320 14:57 29.03.2020
581 Clouds 10 1009 33 10000 1.5 310 14:39 29.03.2020
582 Clouds 10 1009 33 10000 1.5 310 14:19 29.03.2020
583 Clouds 12 1009 38 10000 4.6 280 13:56 29.03.2020
584 Clouds 10 1009 38 10000 2.6 310 13:38 29.03.2020
585 Clouds 10 1009 38 10000 2.6 310 13:19 29.03.2020
586 Clouds 9 1010 44 10000 3.6 260 12:55 29.03.2020
587 Clouds 10 1010 46 10000 2.1 250 12:37 29.03.2020
588 Clouds 8 1010 57 10000 1.5 310 12:18 29.03.2020
589 Clouds 7 1010 57 10000 1.5 310 12:18 29.03.2020
590 Clouds 7 1010 57 10000 1.5 310 12:18 29.03.2020
591 Clouds 6 1011 61 10000 1.5 310 11:39 29.03.2020
592 Clouds 6 1011 61 10000 1.5 310 11:21 29.03.2020
593 Clouds 6 1011 61 10000 2.1 300 10:59 29.03.2020
594 Clouds 5 1011 65 10000 1.5 0 10:37 29.03.2020
595 Clouds 5 1011 65 10000 1.5 0 10:18 29.03.2020
596 Clouds 5 1011 80 10000 1 0 09:39 29.03.2020
597 Clouds 3 1011 80 10000 1 0 09:19 29.03.2020
598 Clouds 2 1011 61 10000 1 0 08:53 29.03.2020
599 Clouds 1 1011 61 9000 1 0 08:28 29.03.2020
600 Clouds 1 1011 61 9000 1 100 07:58 29.03.2020
601 Clouds 0 1011 86 9000 1 360 07:39 29.03.2020
602 Clouds 0 1011 86 9000 1 360 07:39 29.03.2020
603 Clouds 1 1011 86 9000 1 360 07:20 29.03.2020
604 Clouds 0 1011 86 10000 1.5 330 04:59 29.03.2020
605 Clouds 0 1011 86 10000 1.5 330 04:59 29.03.2020
606 Clouds 1 1011 67 9000 2.1 300 03:48 29.03.2020
607 Clouds 1 1011 67 9000 2.1 290 03:26 29.03.2020
608 Clouds 1 1011 67 9000 1.5 280 01:50 29.03.2020
609 Clouds 1 1011 67 9000 1 0 01:23 29.03.2020
610 Clouds 1 1011 67 8000 2.1 360 00:53 29.03.2020
611 Clouds 1 1011 67 8000 2.1 320 00:30 29.03.2020
612 Clouds 1 1011 67 10000 2.1 260 23:42 28.03.2020
613 Clouds 1 1011 67 10000 2.1 260 23:23 28.03.2020
614 Clouds 2 1011 75 8000 1 260 22:57 28.03.2020
615 Clouds 2 1011 81 7000 0.5 0 22:37 28.03.2020
616 Clouds 2 1011 81 7000 0.5 0 22:19 28.03.2020
617 Clouds 3 1011 70 7000 2.1 200 21:42 28.03.2020
618 Clouds 3 1011 70 7000 2.1 200 21:24 28.03.2020
619 Clouds 5 1011 75 7000 0.5 0 20:58 28.03.2020
620 Clouds 5 1011 70 10000 1 0 20:39 28.03.2020
621 Clouds 5 1011 70 10000 1 0 20:21 28.03.2020
622 Clouds 6 1011 65 10000 1 20 19:56 28.03.2020
623 Clouds 6 1011 61 10000 1 0 19:37 28.03.2020
624 Clouds 6 1011 61 10000 1 0 19:37 28.03.2020
625 Clouds 6 1011 61 10000 1 0 19:19 28.03.2020
626 Clouds 7 1011 57 10000 1.5 110 18:55 28.03.2020
627 Clouds 6 1010 57 10000 1 10 18:36 28.03.2020
628 Clouds 6 1010 57 10000 2.6 40 18:18 28.03.2020
629 Clouds 7 1010 53 10000 3.1 40 17:38 28.03.2020
630 Clouds 8 1010 53 10000 3.1 40 17:19 28.03.2020
631 Clouds 8 1010 54 10000 4.6 40 16:42 28.03.2020
632 Clouds 8 1010 54 10000 4.6 40 16:20 28.03.2020
633 Clouds 8 1011 50 10000 4.1 20 15:56 28.03.2020
634 Clouds 8 1011 54 10000 4.1 360 15:37 28.03.2020
635 Clouds 8 1011 54 10000 4.1 360 15:18 28.03.2020
636 Clouds 8 1011 50 10000 3.6 10 14:42 28.03.2020
637 Clouds 8 1011 50 10000 3.6 10 14:22 28.03.2020
638 Clouds 9 1011 47 8000 3.6 20 13:56 28.03.2020
639 Clouds 8 1011 46 8000 3.6 10 13:37 28.03.2020
640 Clouds 8 1011 46 8000 3.6 10 13:18 28.03.2020
641 Clouds 8 1011 46 8000 3.6 10 13:18 28.03.2020
642 Clouds 7 1012 46 8000 2.1 0 12:38 28.03.2020
643 Clouds 7 1012 46 8000 2.1 0 12:19 28.03.2020
644 Clouds 7 1013 53 8000 2.1 280 11:42 28.03.2020
645 Clouds 9 1013 53 8000 2.1 280 11:21 28.03.2020
646 Clouds 8 1013 61 8000 1.5 0 10:43 28.03.2020
647 Clouds 8 1013 61 8000 1.5 0 10:24 28.03.2020
648 Clouds 8 1013 61 7000 2.1 290 09:59 28.03.2020
649 Clouds 7 1014 65 7000 1.5 290 09:39 28.03.2020
650 Clouds 5 1014 65 7000 1.5 290 09:21 28.03.2020
651 Clouds 6 1014 70 7000 2.1 290 08:42 28.03.2020
652 Clouds 6 1014 70 7000 2.1 290 08:42 28.03.2020
653 Clouds 3 1014 70 7000 2.1 290 08:24 28.03.2020
654 Clouds 2 1014 75 6000 3.1 270 07:52 28.03.2020
655 Clouds 1 1014 80 6000 2.1 290 07:34 28.03.2020
656 Mist 2 1014 80 5000 0.5 0 06:52 28.03.2020
657 Clouds 1 1014 65 8000 2.6 310 06:23 28.03.2020
658 Clouds 0 1014 65 8000 2.1 300 05:26 28.03.2020
659 Clouds 0 1014 86 8000 2.1 310 04:53 28.03.2020
660 Clouds 0 1014 86 8000 2.1 300 04:35 28.03.2020
661 Mist 1 1014 86 5000 2.1 260 02:50 28.03.2020
662 Mist 1 1015 93 5000 1.5 0 01:47 28.03.2020
663 Clouds 1 1015 86 7000 1 230 01:23 28.03.2020
664 Clouds 1 1015 93 7000 1 60 00:47 28.03.2020
665 Clouds 1 1015 93 7000 1.5 70 00:21 28.03.2020
666 Clouds 0 1015 86 8000 2.6 100 23:43 27.03.2020
667 Clouds 0 1015 86 8000 2.6 100 23:24 27.03.2020
668 Clouds 1 1015 86 8000 1.5 90 22:56 27.03.2020
669 Clouds 1 1015 86 8000 1.5 90 22:56 27.03.2020
670 Clouds 0 1016 86 8000 2.1 150 22:38 27.03.2020
671 Clouds 2 1016 86 8000 2.1 150 22:20 27.03.2020
672 Clouds 2 1016 86 8000 3.1 110 21:55 27.03.2020
673 Clouds 3 1016 80 8000 2.1 100 21:37 27.03.2020
674 Clouds 3 1016 80 8000 2.1 100 21:19 27.03.2020
675 Clouds 4 1016 70 9000 3.1 160 20:42 27.03.2020
676 Clouds 5 1016 70 9000 3.1 160 20:21 27.03.2020
677 Clouds 4 1016 81 9000 3.1 180 19:59 27.03.2020
678 Clouds 5 1016 75 8000 3.1 150 19:40 27.03.2020
679 Clouds 5 1016 75 9000 3.1 130 19:22 27.03.2020
680 Clouds 5 1016 75 9000 3.1 130 18:56 27.03.2020
681 Clouds 5 1015 70 10000 2.1 110 18:38 27.03.2020
682 Clouds 5 1015 70 10000 2.1 110 18:19 27.03.2020
683 Clouds 4 1015 70 9000 4.6 50 17:40 27.03.2020
684 Clouds 5 1015 70 9000 4.6 50 17:20 27.03.2020
685 Clouds 6 1015 70 8000 5.1 40 16:45 27.03.2020
686 Clouds 6 1015 70 8000 5.1 40 16:27 27.03.2020
687 Clouds 9 1015 66 10000 5.1 30 15:57 27.03.2020
688 Clouds 9 1015 66 10000 5.1 40 15:39 27.03.2020
689 Clouds 5 1015 66 10000 5.1 40 15:39 27.03.2020
690 Clouds 9 1015 66 10000 5.1 40 15:21 27.03.2020
691 Clouds 10 1015 61 10000 3.6 50 14:45 27.03.2020
692 Clouds 10 1015 57 8000 4.1 110 14:24 27.03.2020
693 Clouds 10 1015 61 9000 4.6 100 13:56 27.03.2020
694 Clouds 10 1016 61 10000 5.1 120 13:37 27.03.2020
695 Clouds 10 1016 61 10000 5.1 120 13:18 27.03.2020
696 Clouds 9 1016 61 10000 6.2 110 12:45 27.03.2020
697 Clouds 9 1016 61 10000 6.2 110 12:20 27.03.2020
698 Clouds 9 1016 61 10000 5.1 100 11:59 27.03.2020
699 Clouds 9 1016 61 10000 5.1 100 11:59 27.03.2020
700 Clouds 9 1016 61 10000 5.1 100 11:59 27.03.2020
701 Clouds 9 1016 61 10000 5.1 100 11:59 27.03.2020
702 Clouds 9 1017 66 10000 1.5 0 11:40 27.03.2020
703 Clouds 9 1017 66 10000 1.5 0 11:22 27.03.2020
704 Clouds 7 1017 65 10000 2.6 90 10:54 27.03.2020
705 Clouds 7 1017 65 10000 1 0 10:36 27.03.2020
706 Clouds 7 1017 70 10000 1 0 10:18 27.03.2020
707 Clouds 7 1017 70 10000 1 0 09:54 27.03.2020
708 Clouds 6 1017 63 10000 1 0 09:36 27.03.2020
709 Clouds 6 1017 63 10000 1 0 09:18 27.03.2020
710 Clouds 5 1017 75 10000 1.5 90 08:54 27.03.2020
711 Clouds 4 1017 63 10000 2.6 130 08:36 27.03.2020
712 Clouds 4 1017 69 10000 2.6 130 08:18 27.03.2020
713 Clouds 3 1017 69 10000 2.1 90 07:41 27.03.2020
714 Clouds 3 1017 69 10000 2.1 90 07:21 27.03.2020
715 Clouds 1 1017 86 7000 1.5 120 06:41 27.03.2020
716 Clouds 0 1017 69 6000 1.5 130 05:57 27.03.2020
717 Clouds 1 1018 71 10000 3.6 120 03:34 27.03.2020
718 Clouds 2 1019 93 10000 2.1 100 01:56 27.03.2020
719 Clouds 3 1019 86 10000 3.6 100 01:19 27.03.2020
720 Clouds 3 1019 86 10000 2.6 60 00:43 27.03.2020
721 Clouds 3 1019 86 10000 2.6 60 00:19 27.03.2020
722 Clouds 3 1020 86 10000 3.6 90 23:40 26.03.2020
723 Clouds 3 1020 86 10000 3.6 90 23:18 26.03.2020
724 Clouds 3 1020 86 10000 3.6 90 22:57 26.03.2020
725 Clouds 3 1020 86 10000 3.6 90 22:36 26.03.2020
726 Clouds 3 1020 86 10000 3.6 90 22:18 26.03.2020
727 Clouds 3 1020 86 10000 3.6 140 21:40 26.03.2020
728 Clouds 3 1020 86 10000 3.6 140 21:21 26.03.2020
729 Clouds 3 1020 86 10000 3.1 160 20:59 26.03.2020
730 Clouds 3 1020 86 10000 3.6 160 20:39 26.03.2020
731 Clouds 3 1020 86 10000 3.6 160 20:21 26.03.2020
732 Clouds 3 1020 86 10000 3.1 150 19:58 26.03.2020
733 Clouds 3 1020 86 10000 2.6 140 19:39 26.03.2020
734 Clouds 3 1020 86 10000 2.6 140 19:21 26.03.2020
735 Clouds 3 1020 86 10000 3.6 150 18:58 26.03.2020
736 Clouds 3 1020 72 10000 3.1 130 18:40 26.03.2020
737 Clouds 3 1020 72 10000 3.1 130 18:21 26.03.2020
738 Clouds 3 1020 86 10000 3.6 100 17:44 26.03.2020
739 Clouds 4 1020 80 10000 4.1 120 17:19 26.03.2020
740 Clouds 4 1020 80 10000 4.1 120 16:55 26.03.2020
741 Clouds 4 1020 80 10000 4.1 120 16:55 26.03.2020
742 Clouds 4 1020 80 10000 5.7 110 16:37 26.03.2020
743 Clouds 4 1020 80 10000 5.7 110 16:18 26.03.2020
744 Clouds 4 1020 80 10000 4.6 110 15:41 26.03.2020
745 Clouds 4 1020 80 10000 4.6 110 15:22 26.03.2020
746 Clouds 4 1020 80 10000 5.1 120 14:58 26.03.2020
747 Clouds 4 1020 80 10000 5.7 110 14:39 26.03.2020
748 Clouds 4 1020 80 10000 5.7 110 14:19 26.03.2020
749 Clouds 4 1020 80 10000 5.7 120 13:44 26.03.2020
750 Clouds 3 1020 86 10000 5.1 110 13:24 26.03.2020
751 Clouds 3 1020 67 10000 5.7 140 12:58 26.03.2020
752 Clouds 3 1021 67 10000 6.7 140 12:38 26.03.2020
753 Clouds 3 1021 67 10000 6.7 140 12:20 26.03.2020
754 Clouds 3 1021 67 10000 5.1 140 11:45 26.03.2020
755 Clouds 3 1021 86 10000 2.6 120 11:22 26.03.2020
756 Clouds 3 1021 86 10000 2.6 120 10:56 26.03.2020
757 Rain 3 1021 68 10000 3.6 140 10:37 26.03.2020
758 Rain 3 1021 68 10000 3.6 140 10:19 26.03.2020
759 Clouds 2 1021 80 10000 4.6 130 09:43 26.03.2020
760 Clouds 2 1021 80 10000 4.6 130 09:20 26.03.2020
761 Clouds 2 1021 80 10000 4.6 140 08:55 26.03.2020
762 Clouds 2 1021 80 10000 5.7 140 08:37 26.03.2020
763 Clouds 2 1021 80 10000 5.7 140 08:18 26.03.2020
764 Clouds 1 1020 86 10000 5.1 130 07:41 26.03.2020
765 Clouds 1 1020 86 10000 5.1 130 07:20 26.03.2020
766 Snow 1 1020 86 9000 4.1 120 06:48 26.03.2020
767 Clouds 1 1021 86 10000 6.7 110 05:54 26.03.2020
768 Clouds 1 1021 86 10000 6.2 120 03:59 26.03.2020
769 Clouds 1 1021 86 10000 5.1 110 03:36 26.03.2020
770 Clouds 1 1021 86 10000 6.2 120 02:54 26.03.2020
771 Clouds 1 1021 86 10000 5.7 110 01:50 26.03.2020
772 Clouds 1 1022 71 10000 5.7 120 00:45 26.03.2020
773 Clouds 1 1023 86 10000 6.2 110 23:47 25.03.2020
774 Clouds 1 1023 86 10000 6.2 110 23:28 25.03.2020
775 Clouds 1 1023 86 10000 4.6 110 22:58 25.03.2020
776 Rain 1 1024 86 10000 5.1 110 22:38 25.03.2020
777 Rain 1 1024 86 10000 5.1 110 22:19 25.03.2020
778 Rain 1 1024 86 10000 5.7 110 21:55 25.03.2020
779 Rain 1 1024 86 10000 6.2 110 21:37 25.03.2020
780 Rain 1 1024 86 10000 6.2 110 21:18 25.03.2020
781 Rain 1 1024 86 10000 6.2 110 21:18 25.03.2020
782 Clouds 1 1024 86 10000 5.1 110 20:40 25.03.2020
783 Clouds 1 1024 86 10000 5.1 110 20:20 25.03.2020
784 Clouds 1 1024 86 10000 5.1 120 19:58 25.03.2020
785 Clouds 1 1024 86 10000 5.1 120 19:39 25.03.2020
786 Clouds 1 1024 86 10000 5.1 120 19:21 25.03.2020
787 Clouds 1 1024 86 10000 6.2 120 18:54 25.03.2020
788 Clouds 1 1024 86 10000 5.7 110 18:36 25.03.2020
789 Clouds 1 1024 86 10000 6.2 100 18:18 25.03.2020
790 Clouds 1 1024 86 10000 7.2 120 17:41 25.03.2020
791 Clouds 1 1024 86 10000 7.2 120 17:23 25.03.2020
792 Clouds 1 1024 86 10000 7.2 130 16:59 25.03.2020
793 Clouds 1 1024 86 10000 7.2 130 16:39 25.03.2020
794 Clouds 1 1024 86 10000 7.2 130 16:21 25.03.2020
795 Clouds 1 1024 86 10000 7.2 130 16:21 25.03.2020
796 Clouds 2 1023 80 10000 8.2 130 15:44 25.03.2020
797 Clouds 2 1023 80 10000 8.2 130 15:21 25.03.2020
798 Clouds 2 1023 80 10000 8.2 130 14:59 25.03.2020
799 Clouds 2 1023 80 10000 7.7 130 14:40 25.03.2020
800 Clouds 2 1023 80 10000 7.7 130 14:20 25.03.2020
801 Clouds 2 1023 80 10000 6.7 120 13:45 25.03.2020
802 Clouds 2 1023 80 10000 7.7 130 13:25 25.03.2020
803 Clouds 2 1024 74 10000 8.2 130 12:40 25.03.2020
804 Clouds 2 1024 80 10000 7.2 130 12:21 25.03.2020
805 Clouds 2 1024 80 10000 7.2 130 11:59 25.03.2020
806 Clouds 2 1024 74 10000 6.7 130 11:41 25.03.2020
807 Clouds 2 1024 74 10000 6.7 130 11:21 25.03.2020
808 Clouds 2 1024 74 10000 6.7 130 11:21 25.03.2020
809 Clouds 2 1024 74 10000 7.2 130 10:58 25.03.2020
810 Clouds 2 1024 80 10000 7.2 130 10:40 25.03.2020
811 Clouds 2 1024 80 10000 7.2 130 10:19 25.03.2020
812 Clouds 1 1024 86 10000 5.7 120 09:56 25.03.2020
813 Clouds 1 1024 80 10000 5.7 110 09:38 25.03.2020
814 Clouds 1 1024 80 10000 5.7 110 09:20 25.03.2020
815 Clouds 0 1023 67 10000 6.7 110 08:42 25.03.2020
816 Clouds 0 1023 67 10000 6.7 110 08:24 25.03.2020
817 Clouds 0 1023 78 10000 6.2 110 07:56 25.03.2020
818 Clouds 0 1023 78 10000 5.7 110 07:37 25.03.2020
819 Clouds 0 1023 78 10000 5.1 110 07:18 25.03.2020
820 Clouds 0 1022 78 10000 5.7 110 06:41 25.03.2020
821 Clouds 0 1022 78 10000 5.7 110 06:23 25.03.2020
822 Clouds 0 1022 78 10000 5.7 120 05:47 25.03.2020
823 Clouds 0 1022 83 10000 6.2 120 04:42 25.03.2020
824 Clouds 0 1021 83 10000 7.2 110 03:57 25.03.2020
825 Clouds 0 1022 83 10000 5.1 100 03:32 25.03.2020
826 Snow -1 1022 92 10000 6.2 110 01:40 25.03.2020
827 Snow -1 1022 92 10000 7.2 110 00:50 25.03.2020
828 Snow -1 1022 92 10000 6.2 100 00:27 25.03.2020
829 Snow -1 1022 92 10000 6.2 110 23:55 24.03.2020
830 Snow -1 1022 92 10000 6.7 100 23:28 24.03.2020
831 Snow -1 1022 92 10000 6.2 100 22:58 24.03.2020
832 Snow -1 1022 92 8000 7.2 100 22:38 24.03.2020
833 Snow -1 1022 92 8000 7.2 100 22:38 24.03.2020
834 Snow -1 1022 92 8000 7.2 100 22:20 24.03.2020
835 Snow -1 1022 86 10000 6.2 100 21:58 24.03.2020
836 Snow -1 1022 86 10000 6.7 110 21:40 24.03.2020
837 Snow -1 1022 86 10000 6.7 110 21:19 24.03.2020
838 Snow -1 1022 86 10000 6.7 110 20:58 24.03.2020
839 Snow -1 1022 86 10000 6.2 110 20:39 24.03.2020
840 Snow -1 1022 86 10000 6.2 110 20:21 24.03.2020
841 Snow 0 1021 75 10000 5.1 110 19:47 24.03.2020
842 Snow -1 1021 86 5000 5.1 90 19:22 24.03.2020
843 Snow 0 1021 75 5000 6.2 90 18:58 24.03.2020
844 Snow 0 1020 75 10000 4.6 90 18:38 24.03.2020
845 Snow 0 1020 75 10000 4.6 90 18:20 24.03.2020
846 Snow -1 1020 86 10000 3.6 80 17:56 24.03.2020
847 Clouds 0 1019 75 10000 7.7 90 17:56 24.03.2020
848 Clouds 0 1019 75 10000 7.7 90 17:38 24.03.2020
849 Clouds 0 1019 70 10000 7.7 90 17:20 24.03.2020
850 Clouds 0 1019 97 10000 7.7 90 16:56 24.03.2020
851 Snow 0 1019 97 8000 7.7 90 16:37 24.03.2020
852 Snow 0 1019 97 8000 7.2 90 16:19 24.03.2020
853 Snow 0 1019 97 8000 4.6 100 15:42 24.03.2020
854 Snow 0 1019 97 8000 4.6 100 15:23 24.03.2020
855 Snow 1 1019 74 8000 5.1 80 14:44 24.03.2020
856 Snow 1 1018 74 10000 5.1 80 14:22 24.03.2020
857 Snow 1 1018 74 10000 5.1 80 13:58 24.03.2020
858 Snow 1 1018 74 10000 6.2 80 13:40 24.03.2020
859 Snow 1 1018 74 10000 6.2 80 13:21 24.03.2020
860 Snow 0 1018 67 10000 6.7 80 12:42 24.03.2020
861 Snow 0 1018 67 10000 6.7 80 12:42 24.03.2020
862 Snow 0 1018 67 10000 6.7 80 12:24 24.03.2020
863 Snow 0 1018 67 10000 5.7 80 11:41 24.03.2020
864 Snow 0 1018 96 10000 5.7 80 11:21 24.03.2020
865 Snow 0 1018 96 10000 4.6 80 10:59 24.03.2020
866 Snow 0 1018 96 10000 3.6 70 10:40 24.03.2020
867 Snow 0 1018 96 10000 3.6 70 10:18 24.03.2020
868 Clouds 0 1018 100 10000 3.1 70 09:46 24.03.2020
869 Clouds 0 1018 100 10000 3.1 70 09:46 24.03.2020
870 Clouds 0 1017 100 10000 2.6 70 09:26 24.03.2020
871 Snow 0 1017 100 10000 3.6 90 08:57 24.03.2020
872 Snow 0 1017 100 10000 3.1 120 08:37 24.03.2020
873 Snow 0 1017 100 10000 3.1 120 08:18 24.03.2020
874 Snow 0 1017 92 5000 3.1 140 07:44 24.03.2020
875 Snow -2 1017 92 5000 3.1 140 07:22 24.03.2020
876 Snow -3 1017 100 4500 4.1 130 06:40 24.03.2020
877 Snow -3 1017 100 4500 4.1 130 06:18 24.03.2020
878 Snow -2 1016 100 3500 2.6 140 04:51 24.03.2020
879 Snow -2 1017 100 2600 1.5 140 03:22 24.03.2020
880 Snow -2 1017 100 2700 1 140 02:41 24.03.2020
881 Snow -2 1017 100 2700 2.1 37 00:54 24.03.2020
882 Snow -2 1018 92 2200 1 120 00:27 24.03.2020
883 Snow -2 1018 92 2600 0.5 0 23:56 23.03.2020
884 Snow -2 1018 100 2500 1 0 23:37 23.03.2020
885 Snow -2 1018 100 4200 0.5 0 23:19 23.03.2020
886 Snow -2 1018 100 2100 2.14 31 22:44 23.03.2020
887 Snow -2 1018 100 2100 2.14 31 22:23 23.03.2020
888 Snow -2 1018 100 2700 1 0 21:55 23.03.2020
889 Snow -2 1018 100 2300 1 0 21:37 23.03.2020
890 Snow -2 1018 100 2300 1 0 21:18 23.03.2020
891 Snow -2 1019 100 2100 1 0 20:42 23.03.2020
892 Snow -2 1019 100 2100 1 0 20:24 23.03.2020
893 Snow -3 1019 100 2000 1 330 19:56 23.03.2020
894 Snow -3 1019 100 2100 2.1 290 19:37 23.03.2020
895 Snow -2 1019 100 2100 2.1 290 19:19 23.03.2020
896 Snow -2 1018 100 2000 3.1 290 18:44 23.03.2020
897 Snow -3 1018 100 2000 3.1 290 18:25 23.03.2020
898 Snow -3 1018 100 2000 3.1 280 17:59 23.03.2020
899 Snow -3 1018 100 2000 3.1 280 17:41 23.03.2020
900 Snow -1 1018 100 1500 3.1 280 17:19 23.03.2020
901 Snow -2 1018 100 1300 3.6 280 16:44 23.03.2020
902 Snow -1 1018 100 1300 3.6 280 16:25 23.03.2020
903 Snow -1 1018 100 2100 3.6 290 15:58 23.03.2020
904 Snow -1 1019 100 3500 4.1 280 15:39 23.03.2020
905 Snow -1 1019 100 3500 4.1 280 15:18 23.03.2020
906 Snow -1 1019 100 5000 4.6 280 14:37 23.03.2020
907 Snow -1 1019 100 5000 4.6 280 14:37 23.03.2020
908 Snow -1 1019 100 5000 4.6 280 14:19 23.03.2020
909 Snow -2 1019 92 5000 5.1 280 13:57 23.03.2020
910 Snow -2 1019 100 4000 5.1 280 13:38 23.03.2020
911 Snow -1 1019 92 4000 5.1 280 13:20 23.03.2020
912 Snow -1 1019 100 2500 4.6 280 12:43 23.03.2020
913 Snow -1 1019 100 3000 5.7 280 12:23 23.03.2020
914 Snow -2 1019 100 3000 5.7 280 11:56 23.03.2020
915 Snow -2 1019 92 3000 5.7 280 11:37 23.03.2020
916 Snow -1 1019 92 5000 5.1 280 11:19 23.03.2020
917 Snow -1 1019 92 4000 5.1 280 10:42 23.03.2020
918 Snow -2 1019 92 4000 5.1 280 10:23 23.03.2020
919 Snow -1 1019 92 5000 6.2 280 09:59 23.03.2020
920 Snow -1 1019 92 5000 5.1 280 09:41 23.03.2020
921 Snow -1 1019 92 5000 5.1 280 09:19 23.03.2020
922 Snow -2 1019 100 2100 5.1 280 08:38 23.03.2020
923 Snow -2 1019 100 2100 5.1 280 08:20 23.03.2020
924 Snow -2 1019 100 4000 4.6 280 07:52 23.03.2020
925 Snow -2 1019 100 5000 4.6 280 07:33 23.03.2020
926 Snow -2 1019 100 4600 5.1 280 06:56 23.03.2020
927 Snow -2 1019 100 1300 5.1 280 06:34 23.03.2020
928 Snow -2 1019 100 1400 4.6 280 05:44 23.03.2020
929 Snow -2 1019 100 2100 4.6 280 03:54 23.03.2020
930 Snow -1 1019 97 2400 4.1 290 02:45 23.03.2020
931 Snow -1 1019 97 2100 3.6 280 01:50 23.03.2020
932 Snow -2 1019 97 1600 4.6 280 00:47 23.03.2020
933 Snow -2 1019 97 1600 4.6 280 00:27 23.03.2020
934 Snow -1 1019 97 4000 4.1 290 23:42 22.03.2020
935 Snow -1 1019 97 4000 4.1 290 23:24 22.03.2020
936 Rain 0 1019 86 8000 4.1 300 22:42 22.03.2020
937 Rain 0 1019 86 8000 4.1 300 22:21 22.03.2020
938 Rain 1 1018 80 10000 4.6 290 21:41 22.03.2020
939 Rain 1 1018 80 10000 4.6 290 21:23 22.03.2020
940 Clouds 1 1018 80 10000 4.6 290 20:59 22.03.2020
941 Clouds 1 1018 80 10000 4.6 290 20:40 22.03.2020
942 Clouds 2 1018 80 10000 4.6 290 20:22 22.03.2020
943 Clouds 1 1018 80 10000 5.1 290 19:56 22.03.2020
944 Clouds 2 1018 75 10000 5.7 300 19:38 22.03.2020
945 Clouds 2 1018 75 10000 5.7 300 19:19 22.03.2020
946 Clouds 3 1017 70 10000 5.7 290 18:57 22.03.2020
947 Rain 3 1017 70 10000 6.2 290 18:39 22.03.2020
948 Rain 3 1017 70 10000 6.2 290 18:19 22.03.2020
949 Clouds 5 1016 65 10000 6.7 280 17:56 22.03.2020
950 Rain 6 1016 87 10000 6.2 280 17:37 22.03.2020
951 Rain 6 1016 75 10000 6.2 280 17:19 22.03.2020
952 Clouds 7 1016 75 10000 5.1 280 16:55 22.03.2020
953 Clouds 7 1015 53 10000 5.7 290 16:37 22.03.2020
954 Clouds 8 1015 53 10000 5.7 290 16:19 22.03.2020
955 Clouds 5 1015 53 10000 7.7 270 15:40 22.03.2020
956 Clouds 5 1015 53 10000 7.7 270 15:19 22.03.2020
957 Clouds 8 1015 54 10000 7.2 290 14:46 22.03.2020
958 Clouds 10 1015 54 10000 7.2 290 14:18 22.03.2020
959 Clouds 10 1015 54 10000 6.2 280 13:42 22.03.2020
960 Clouds 11 1015 54 10000 6.2 280 13:20 22.03.2020
961 Clouds 11 1015 54 10000 7.2 270 12:47 22.03.2020
962 Clouds 10 1015 58 10000 7.2 260 12:23 22.03.2020
963 Clouds 10 1015 58 10000 7.2 260 12:23 22.03.2020
964 Clouds 8 1016 57 10000 7.7 280 11:59 22.03.2020
965 Clouds 10 1016 57 10000 7.7 280 11:41 22.03.2020
966 Clouds 10 1016 57 10000 7.7 280 11:23 22.03.2020
967 Clouds 10 1016 66 10000 7.7 280 10:57 22.03.2020
968 Clouds 10 1016 66 10000 7.7 280 10:39 22.03.2020
969 Clouds 10 1016 66 10000 7.7 280 10:20 22.03.2020
970 Clouds 10 1015 66 10000 7.7 280 09:42 22.03.2020
971 Clouds 9 1015 66 10000 7.7 280 09:22 22.03.2020
972 Clouds 9 1015 66 10000 6.2 280 08:44 22.03.2020
973 Clouds 8 1015 70 10000 6.2 280 08:24 22.03.2020
974 Clouds 8 1015 66 10000 4.1 300 07:52 22.03.2020
975 Clouds 6 1015 81 10000 1 0 07:26 22.03.2020
976 Clouds 3 1015 93 8000 1.86 332 06:35 22.03.2020
977 Clouds 3 1014 86 8000 0.5 0 05:35 22.03.2020
978 Clouds 5 1014 86 10000 1 60 03:30 22.03.2020
979 Clouds 5 1014 81 10000 1 180 01:28 22.03.2020
980 Clouds 5 1014 70 10000 1 0 00:48 22.03.2020
981 Clouds 5 1014 65 10000 2.6 30 00:28 22.03.2020
982 Clouds 6 1013 62 10000 1.5 210 23:43 21.03.2020
983 Clouds 6 1013 70 10000 3.6 200 23:19 21.03.2020
984 Clouds 6 1013 70 10000 3.6 200 22:55 21.03.2020
985 Clouds 7 1013 66 10000 1.5 260 22:37 21.03.2020
986 Clouds 7 1013 66 10000 1.5 260 22:18 21.03.2020
987 Clouds 8 1012 62 10000 2.1 100 21:42 21.03.2020
988 Clouds 8 1012 62 10000 2.1 100 21:23 21.03.2020
989 Clouds 7 1012 66 10000 3.1 100 20:59 21.03.2020
990 Clouds 8 1012 54 10000 3.1 90 20:41 21.03.2020
991 Clouds 10 1012 36 10000 2.6 0 20:19 21.03.2020
992 Clouds 10 1012 75 10000 3.6 220 19:44 21.03.2020
993 Clouds 10 1012 75 10000 3.6 220 19:25 21.03.2020
994 Clouds 11 1011 29 10000 3.1 270 18:57 21.03.2020
995 Clouds 10 1011 24 10000 2.6 300 18:38 21.03.2020
996 Clouds 12 1011 24 10000 2.6 300 18:20 21.03.2020
997 Clouds 12 1011 24 10000 2.6 300 18:20 21.03.2020
998 Clouds 12 1011 25 10000 2.6 310 17:55 21.03.2020
999 Clouds 12 1011 75 10000 1 0 17:37 21.03.2020
1000 Clear 15 1011 26 10000 1.5 330 17:18 21.03.2020
1001 Clear 15 1011 26 10000 1.5 330 17:18 21.03.2020
1002 Clear 16 1011 24 10000 3.1 0 16:41 21.03.2020
1003 Clear 17 1011 24 10000 3.1 0 16:20 21.03.2020
1004 Clear 17 1011 45 10000 3.1 80 15:56 21.03.2020
1005 Clear 18 1011 24 10000 1 0 15:37 21.03.2020
1006 Clear 17 1012 45 10000 2.1 20 15:18 21.03.2020
1007 Clear 17 1012 45 10000 2.1 20 14:54 21.03.2020
1008 Clear 17 1013 26 10000 2.1 0 14:36 21.03.2020
1009 Clear 17 1013 26 10000 2.1 0 14:18 21.03.2020
1010 Clear 17 1013 28 10000 2.6 290 13:56 21.03.2020
1011 Clear 16 1013 30 10000 1 0 13:38 21.03.2020
1012 Clear 16 1013 30 10000 1 0 13:19 21.03.2020
1013 Clear 15 1015 34 10000 1.5 0 12:39 21.03.2020
1014 Clear 15 1015 34 10000 1.5 0 12:19 21.03.2020
1015 Clear 14 1015 36 10000 1.5 0 11:58 21.03.2020
1016 Clear 13 1016 41 10000 1.5 290 11:39 21.03.2020
1017 Clear 13 1016 41 10000 1.5 290 11:19 21.03.2020
1018 Clear 12 1016 47 10000 1 0 10:57 21.03.2020
1019 Clear 12 1016 47 10000 1 0 10:57 21.03.2020
1020 Clear 12 1017 50 10000 1 0 10:39 21.03.2020
1021 Clear 12 1017 50 10000 1 0 10:20 21.03.2020
1022 Clear 11 1017 50 10000 0.5 0 09:57 21.03.2020
1023 Clear 11 1018 57 10000 1 0 09:37 21.03.2020
1024 Clear 11 1018 57 10000 1 0 09:37 21.03.2020
1025 Clear 11 1018 57 10000 1 0 09:19 21.03.2020
1026 Clear 10 1018 57 10000 1 0 08:45 21.03.2020
1027 Clear 9 1018 65 10000 1 0 08:25 21.03.2020
1028 Clouds 7 1018 75 10000 1 0 07:52 21.03.2020
1029 Clouds 6 1018 75 8000 2.1 290 07:32 21.03.2020
1030 Clouds 4 1018 72 8000 1.5 320 06:48 21.03.2020
1031 Clouds 3 1018 72 8000 0.5 0 06:29 21.03.2020
1032 Clouds 3 1018 80 8000 1.11 203 05:48 21.03.2020
1033 Clouds 3 1018 78 10000 0.5 340 05:18 21.03.2020
1034 Clouds 3 1018 80 10000 1.3 193 03:26 21.03.2020
1035 Clouds 4 1019 70 10000 1 0 02:34 21.03.2020
1036 Clouds 4 1019 70 10000 3.1 150 01:38 21.03.2020
1037 Clouds 4 1019 70 10000 3.1 150 01:18 21.03.2020
1038 Clear 4 1019 70 10000 3.6 140 00:38 21.03.2020
1039 Clear 5 1020 70 10000 3.6 150 23:58 20.03.2020
1040 Clear 5 1020 65 10000 3.1 150 23:40 20.03.2020
1041 Clear 5 1020 61 10000 3.6 150 23:18 20.03.2020
1042 Clear 5 1020 61 10000 3.6 150 22:41 20.03.2020
1043 Clear 6 1020 61 10000 3.6 150 22:22 20.03.2020
1044 Clear 6 1020 57 10000 3.6 130 21:56 20.03.2020
1045 Clear 6 1020 57 10000 3.6 140 21:38 20.03.2020
1046 Clear 7 1020 57 10000 3.6 140 21:18 20.03.2020
1047 Clear 7 1020 57 10000 3.1 140 20:57 20.03.2020
1048 Clear 7 1020 53 10000 4.6 130 20:38 20.03.2020
1049 Clear 7 1020 53 10000 4.6 130 20:18 20.03.2020
1050 Clear 8 1019 53 10000 2.6 120 19:45 20.03.2020
1051 Clear 8 1019 50 10000 3.1 140 19:19 20.03.2020
1052 Clear 8 1019 50 10000 3.1 140 19:19 20.03.2020
1053 Clear 8 1019 54 10000 2.1 150 18:55 20.03.2020
1054 Clear 8 1019 38 10000 1 20 18:37 20.03.2020
1055 Clear 10 1019 31 10000 1 70 18:19 20.03.2020
1056 Clear 11 1019 34 10000 1.5 90 17:39 20.03.2020
1057 Clear 14 1019 34 10000 1.5 90 17:21 20.03.2020
1058 Clear 15 1019 32 10000 1.5 100 16:58 20.03.2020
1059 Clear 15 1019 32 10000 1.5 100 16:58 20.03.2020
1060 Clear 14 1019 29 10000 2.6 80 16:40 20.03.2020
1061 Clear 15 1019 29 10000 2.6 80 16:18 20.03.2020
1062 Clear 14 1019 50 10000 1 0 15:42 20.03.2020
1063 Clear 15 1019 50 10000 1 0 15:22 20.03.2020
1064 Clear 15 1020 29 10000 2.6 90 14:56 20.03.2020
1065 Clear 14 1020 32 10000 2.6 0 14:37 20.03.2020
1066 Clear 16 1021 32 10000 2.1 120 14:18 20.03.2020
1067 Clear 16 1021 31 10000 3.1 90 13:43 20.03.2020
1068 Clear 13 1021 31 10000 3.6 140 13:19 20.03.2020
1069 Clear 13 1022 33 10000 2.1 0 12:41 20.03.2020
1070 Clear 15 1022 33 10000 2.1 0 12:23 20.03.2020
1071 Clear 14 1022 36 10000 1 0 11:58 20.03.2020
1072 Clear 13 1023 41 10000 1.5 300 11:38 20.03.2020
1073 Clear 11 1023 41 10000 1.5 300 11:19 20.03.2020
1074 Clear 8 1024 40 10000 1 0 10:42 20.03.2020
1075 Clear 9 1024 40 10000 1 0 10:21 20.03.2020
1076 Clear 10 1024 43 10000 1 0 09:58 20.03.2020
1077 Clear 9 1024 52 10000 1 0 09:39 20.03.2020
1078 Clear 9 1024 52 10000 1 0 09:19 20.03.2020
1079 Clear 6 1024 56 10000 1 0 08:42 20.03.2020
1080 Clear 6 1024 56 10000 1 0 08:22 20.03.2020
1081 Clear 4 1024 64 10000 1 0 07:54 20.03.2020
1082 Clear 3 1024 74 10000 1 60 07:36 20.03.2020
1083 Clear 2 1024 74 10000 1 60 07:18 20.03.2020
1084 Clear 0 1024 80 10000 1.5 110 06:41 20.03.2020
1085 Clear 0 1024 80 10000 1.5 110 06:41 20.03.2020
1086 Clear -1 1023 80 10000 1.5 130 04:51 20.03.2020
1087 Clear 0 1023 80 10000 1 100 03:22 20.03.2020
1088 Clouds 0 1023 74 10000 1 0 01:58 20.03.2020
1089 Clouds 1 1023 64 10000 1 0 00:59 20.03.2020
1090 Clouds 1 1023 60 10000 1 0 00:30 20.03.2020
1091 Clouds 1 1023 60 10000 2.1 300 23:47 19.03.2020
1092 Clouds 2 1023 60 10000 2.1 300 23:28 19.03.2020
1093 Clouds 1 1023 64 10000 2.1 240 22:56 19.03.2020
1094 Clouds 2 1023 48 10000 1 0 22:38 19.03.2020
1095 Clouds 2 1023 48 10000 1 0 22:19 19.03.2020
1096 Clouds 3 1023 45 10000 4.6 200 21:42 19.03.2020
1097 Clouds 3 1023 45 10000 4.1 200 21:20 19.03.2020
1098 Clouds 3 1023 45 10000 4.1 200 20:59 19.03.2020
1099 Clouds 4 1023 42 10000 2.6 210 20:41 19.03.2020
1100 Clouds 4 1023 42 10000 2.6 210 20:22 19.03.2020
1101 Clouds 5 1023 37 10000 2.1 190 19:55 19.03.2020
1102 Clouds 4 1023 45 10000 1.5 160 19:37 19.03.2020
1103 Clouds 4 1023 45 10000 1.5 160 19:19 19.03.2020
1104 Clouds 4 1022 32 10000 2.1 80 18:42 19.03.2020
1105 Clouds 6 1022 32 10000 2.1 80 18:22 19.03.2020
1106 Clouds 4 1022 37 10000 2.6 90 17:58 19.03.2020
1107 Clouds 5 1022 37 10000 2.6 90 17:40 19.03.2020
1108 Clear 10 1022 28 10000 3.6 30 17:19 19.03.2020
1109 Clear 10 1022 29 10000 4.1 60 16:43 19.03.2020
1110 Clear 11 1022 29 10000 4.1 60 16:23 19.03.2020
1111 Clear 11 1022 25 10000 2.6 100 15:45 19.03.2020
1112 Clear 10 1022 26 10000 2.1 0 15:27 19.03.2020
1113 Clear 11 1023 25 10000 1.5 0 14:55 19.03.2020
1114 Clear 10 1023 28 10000 2.6 240 14:37 19.03.2020
1115 Clear 9 1024 30 10000 3.1 240 14:19 19.03.2020
1116 Clear 10 1024 35 10000 3.6 240 13:39 19.03.2020
1117 Clear 10 1024 35 10000 3.6 240 13:19 19.03.2020
1118 Clear 10 1024 35 10000 3.6 240 13:19 19.03.2020
1119 Clear 9 1025 37 10000 3.1 260 12:55 19.03.2020
1120 Clear 8 1025 37 10000 2.6 290 12:37 19.03.2020
1121 Clear 8 1026 37 10000 2.1 230 12:18 19.03.2020
1122 Clear 9 1026 40 10000 2.6 250 11:41 19.03.2020
1123 Clear 6 1027 43 10000 2.6 260 11:23 19.03.2020
1124 Clear 7 1027 43 10000 2.6 260 10:56 19.03.2020
1125 Clear 6 1027 49 10000 2.1 270 10:36 19.03.2020
1126 Clear 8 1027 49 10000 2.1 270 10:18 19.03.2020
1127 Clear 6 1028 60 10000 1.5 310 09:42 19.03.2020
1128 Clear 5 1028 60 10000 1.5 310 09:24 19.03.2020
1129 Clear 5 1028 64 10000 1 0 08:48 19.03.2020
1130 Clear 1 1028 69 10000 1 0 08:23 19.03.2020
1131 Clear 1 1028 74 10000 1 0 07:57 19.03.2020
1132 Clear -1 1028 86 10000 1 0 07:38 19.03.2020
1133 Clear -1 1028 86 10000 1 0 07:18 19.03.2020
1134 Clear -3 1028 86 10000 1.5 160 06:23 19.03.2020
1135 Clear -4 1028 92 9000 2.1 110 05:24 19.03.2020
1136 Clear -4 1028 86 10000 1.5 120 04:46 19.03.2020
1137 Clear -4 1028 86 9000 1.5 120 03:44 19.03.2020
1138 Clear -3 1028 86 10000 0.5 0 01:45 19.03.2020
1139 Clear -3 1028 78 9000 1.5 170 00:39 19.03.2020
1140 Clear -3 1028 78 9000 1.5 170 00:18 19.03.2020
1141 Clear -2 1029 74 10000 1 0 23:41 18.03.2020
1142 Clear -2 1029 74 10000 2.1 110 23:21 18.03.2020
1143 Clear -2 1029 69 10000 2.1 100 22:42 18.03.2020
1144 Clear -2 1029 69 10000 2.1 100 22:22 18.03.2020
1145 Clear -1 1029 69 10000 2.1 100 21:55 18.03.2020
1146 Clear -1 1029 64 10000 1.5 170 21:37 18.03.2020
1147 Clear -1 1029 64 10000 1.5 170 21:19 18.03.2020
1148 Clear 1 1029 64 10000 1.5 140 20:54 18.03.2020
1149 Clear 1 1028 64 10000 1.5 150 20:36 18.03.2020
1150 Clear 2 1028 52 10000 1.5 190 20:18 18.03.2020
1151 Clear 2 1028 56 10000 2.1 100 19:40 18.03.2020
1152 Clear 3 1028 48 10000 1.5 60 19:21 18.03.2020
1153 Clear 4 1028 48 10000 1.5 60 18:56 18.03.2020
1154 Clear 5 1028 45 10000 4.1 40 18:38 18.03.2020
1155 Clear 5 1028 45 10000 4.1 40 18:19 18.03.2020
1156 Clear 5 1027 42 10000 4.6 60 17:54 18.03.2020
1157 Clear 5 1027 39 10000 5.7 50 17:36 18.03.2020
1158 Clouds 6 1027 39 10000 6.2 50 17:18 18.03.2020
1159 Clouds 7 1027 37 10000 5.1 50 16:42 18.03.2020
1160 Clouds 8 1027 37 10000 5.1 50 16:20 18.03.2020
1161 Clouds 8 1027 37 10000 5.1 50 16:20 18.03.2020
1162 Clouds 7 1027 37 10000 4.6 40 15:56 18.03.2020
1163 Clouds 7 1027 32 10000 4.6 40 15:37 18.03.2020
1164 Clouds 8 1027 32 10000 4.6 40 15:19 18.03.2020
1165 Clouds 8 1027 30 10000 6.2 60 14:42 18.03.2020
1166 Clouds 9 1027 30 10000 6.2 60 14:21 18.03.2020
1167 Clouds 9 1027 34 10000 4.1 50 13:41 18.03.2020
1168 Clouds 7 1027 32 10000 4.1 70 13:19 18.03.2020
1169 Clouds 9 1027 30 10000 5.1 70 12:44 18.03.2020
1170 Clouds 7 1027 30 10000 5.1 70 12:21 18.03.2020
1171 Clouds 7 1027 27 10000 5.7 70 11:59 18.03.2020
1172 Clouds 7 1027 27 10000 6.2 50 11:37 18.03.2020
1173 Clouds 7 1027 27 10000 6.2 50 11:37 18.03.2020
1174 Clouds 7 1027 30 10000 3.1 100 11:18 18.03.2020
1175 Clouds 8 1027 30 10000 3.1 100 10:56 18.03.2020
1176 Clouds 8 1027 30 10000 3.1 100 10:56 18.03.2020
1177 Clouds 8 1027 40 10000 2.1 0 10:36 18.03.2020
1178 Clouds 6 1027 46 10000 1.5 320 10:18 18.03.2020
1179 Clouds 5 1027 54 10000 1.5 90 09:42 18.03.2020
1180 Clouds 5 1027 54 10000 1.5 90 09:23 18.03.2020
1181 Clouds 7 1027 54 10000 0.5 0 08:54 18.03.2020
1182 Clouds 4 1027 54 10000 1 0 08:36 18.03.2020
1183 Clouds 3 1027 74 10000 1 0 08:18 18.03.2020
1184 Clouds 2 1026 80 10000 2.1 90 07:39 18.03.2020
1185 Clouds 0 1026 80 10000 2.1 90 07:21 18.03.2020
1186 Clouds -2 1026 86 10000 2.6 110 06:42 18.03.2020
1187 Clouds -2 1026 86 10000 1.5 70 05:43 18.03.2020
1188 Clear -2 1025 86 10000 1 0 04:58 18.03.2020
1189 Clear -2 1025 83 8000 3.1 290 03:21 18.03.2020
1190 Clear -2 1025 83 10000 1.5 290 02:37 18.03.2020
1191 Clear -2 1025 83 10000 1.5 290 02:37 18.03.2020
1192 Clear -2 1025 83 10000 1.5 290 02:37 18.03.2020
1193 Clear -1 1025 76 10000 1.5 140 01:45 18.03.2020
1194 Clear -1 1025 80 10000 2.1 170 01:19 18.03.2020
1195 Clear -1 1025 80 10000 2.1 170 00:22 18.03.2020
1196 Clear 0 1025 74 10000 1.5 110 23:43 17.03.2020
1197 Clear 0 1025 64 10000 1.5 80 23:22 17.03.2020
1198 Clear 2 1025 52 10000 2.6 310 22:47 17.03.2020
1199 Clear 2 1025 52 10000 2.6 310 22:28 17.03.2020
1200 Clear 2 1025 48 10000 2.6 300 21:57 17.03.2020
1201 Clear 2 1025 48 10000 3.1 310 21:36 17.03.2020
1202 Clear 3 1025 48 10000 3.1 310 21:18 17.03.2020
1203 Clear 2 1025 60 10000 1.5 360 20:38 17.03.2020
1204 Clear 3 1025 60 10000 1.5 360 20:19 17.03.2020
1205 Clear 4 1024 39 10000 2.6 300 19:42 17.03.2020
1206 Clear 5 1024 39 10000 2.6 300 19:21 17.03.2020
1207 Clear 5 1024 32 10000 3.6 310 18:59 17.03.2020
1208 Clear 5 1024 32 10000 3.6 290 18:40 17.03.2020
1209 Clear 6 1024 24 10000 3.6 300 18:22 17.03.2020
1210 Clear 7 1024 24 10000 3.6 300 17:56 17.03.2020
1211 Clear 7 1024 22 10000 3.6 290 17:38 17.03.2020
1212 Clear 10 1024 23 10000 2.1 250 17:19 17.03.2020
1213 Clear 10 1024 21 10000 1.5 240 16:42 17.03.2020
1214 Clear 11 1024 21 10000 1.5 240 16:19 17.03.2020
1215 Clear 12 1025 23 10000 3.6 280 15:48 17.03.2020
1216 Clear 11 1025 24 10000 3.1 280 15:23 17.03.2020
1217 Clear 11 1025 26 10000 3.1 290 14:49 17.03.2020
1218 Clear 10 1026 24 10000 3.1 290 14:30 17.03.2020
1219 Clear 10 1026 28 10000 1.5 0 13:58 17.03.2020
1220 Clear 9 1027 34 10000 1.5 0 13:40 17.03.2020
1221 Clear 8 1027 37 10000 1 0 13:22 17.03.2020
1222 Clear 10 1027 37 10000 1 0 12:47 17.03.2020
1223 Clear 10 1028 37 10000 1.5 0 12:25 17.03.2020
1224 Clear 9 1028 39 10000 1.5 0 11:56 17.03.2020
1225 Clear 8 1029 42 10000 1 0 11:38 17.03.2020
1226 Clear 7 1029 42 10000 1 0 11:20 17.03.2020
1227 Clear 7 1029 45 10000 1.5 0 10:54 17.03.2020
1228 Clear 7 1030 52 10000 1 0 10:36 17.03.2020
1229 Clear 6 1030 52 10000 1 0 10:18 17.03.2020
1230 Clear 4 1030 59 10000 1 0 09:44 17.03.2020
1231 Clear 3 1030 59 10000 1 0 09:20 17.03.2020
1232 Clear 3 1030 59 10000 1 0 09:20 17.03.2020
1233 Clear 1 1031 69 10000 1 0 08:51 17.03.2020
1234 Clear 0 1031 52 10000 1.07 252 08:24 17.03.2020
1235 Clear -1 1031 86 10000 1 0 07:58 17.03.2020
1236 Clear -2 1031 86 10000 1 0 07:40 17.03.2020
1237 Clear -2 1031 86 10000 1 0 07:19 17.03.2020
1238 Clear -4 1031 92 8000 1.5 350 06:41 17.03.2020
1239 Clear -4 1031 92 10000 1.07 252 06:19 17.03.2020
1240 Clear -4 1031 92 10000 1.5 0 04:51 17.03.2020
1241 Clear -4 1031 92 10000 1 260 03:26 17.03.2020
1242 Clear -4 1031 79 10000 0.5 0 01:49 17.03.2020
1243 Clear -3 1031 68 10000 1 0 01:29 17.03.2020
1244 Clear -3 1031 74 10000 1.5 150 00:50 17.03.2020
1245 Clear -3 1031 68 10000 1 0 23:51 16.03.2020
1246 Clear -3 1031 68 10000 1.5 220 23:33 16.03.2020
1247 Clear -3 1031 50 10000 2.6 130 22:45 16.03.2020
1248 Clear -3 1031 50 10000 2.6 130 22:45 16.03.2020
1249 Clear -2 1031 50 10000 2.6 130 22:26 16.03.2020
1250 Clear -3 1032 68 10000 3.1 110 21:59 16.03.2020
1251 Clear -2 1031 50 10000 2.6 110 21:41 16.03.2020
1252 Clear -2 1031 50 10000 2.6 110 21:23 16.03.2020
1253 Clear -2 1032 59 10000 2.6 90 20:57 16.03.2020
1254 Clear -2 1031 55 10000 2.6 80 20:38 16.03.2020
1255 Clear -1 1031 55 10000 2.6 80 20:19 16.03.2020
1256 Clear -1 1031 51 10000 3.1 150 19:42 16.03.2020
1257 Clear 0 1031 51 10000 3.1 150 19:22 16.03.2020
1258 Clear 1 1031 41 10000 3.6 180 18:56 16.03.2020
1259 Clear 1 1031 28 10000 4.6 150 18:37 16.03.2020
1260 Clear 1 1030 35 10000 3.6 130 18:18 16.03.2020
1261 Clear 2 1030 36 10000 5.1 90 17:42 16.03.2020
1262 Clear 7 1030 36 10000 4.6 90 17:22 16.03.2020
1263 Clear 8 1030 31 10000 4.6 80 16:46 16.03.2020
1264 Clear 8 1030 31 10000 4.6 80 16:28 16.03.2020
1265 Clear 8 1030 39 10000 4.6 90 15:56 16.03.2020
1266 Clear 8 1030 36 10000 4.1 100 15:37 16.03.2020
1267 Clear 8 1030 36 10000 4.1 100 15:18 16.03.2020
1268 Clear 7 1031 33 10000 4.1 110 14:42 16.03.2020
1269 Clear 7 1031 33 10000 4.1 110 14:19 16.03.2020
1270 Clear 6 1031 45 10000 5.7 110 13:42 16.03.2020
1271 Clear 6 1031 45 10000 5.7 110 13:23 16.03.2020
1272 Clear 6 1032 48 10000 5.1 110 12:46 16.03.2020
1273 Clear 6 1032 48 10000 5.1 100 12:26 16.03.2020
1274 Clear 5 1032 51 10000 5.1 100 11:58 16.03.2020
1275 Clear 5 1032 55 10000 5.7 100 11:39 16.03.2020
1276 Clear 3 1032 55 10000 6.2 110 11:18 16.03.2020
1277 Clear 4 1032 59 10000 7.2 100 10:41 16.03.2020
1278 Clear 4 1032 59 10000 7.2 100 10:19 16.03.2020
1279 Clear 3 1032 55 10000 6.7 130 09:44 16.03.2020
1280 Clouds 2 1032 59 10000 7.2 120 09:24 16.03.2020
1281 Clouds 2 1032 69 10000 6.7 110 08:54 16.03.2020
1282 Clear 1 1032 69 10000 6.2 100 08:25 16.03.2020
1283 Clouds -3 1032 88 10000 6.7 100 07:50 16.03.2020
1284 Clouds 0 1031 88 10000 5.1 100 07:27 16.03.2020
1285 Clouds -4 1031 80 10000 4.1 110 06:54 16.03.2020
1286 Clouds -4 1030 74 10000 4.1 90 06:25 16.03.2020
1287 Clouds -4 1030 80 10000 4.6 90 05:50 16.03.2020
1288 Clouds 0 1029 96 10000 4.1 110 02:45 16.03.2020
1289 Clouds 1 1029 80 10000 3.6 90 01:20 16.03.2020
1290 Clouds 2 1028 80 10000 3.6 110 00:40 16.03.2020
1291 Clouds 2 1028 80 10000 4.6 110 23:48 15.03.2020
1292 Clouds 2 1028 98 10000 4.1 120 23:20 15.03.2020
1293 Clouds 2 1028 93 10000 4.1 130 22:43 15.03.2020
1294 Clouds 2 1028 93 10000 4.1 130 22:23 15.03.2020
1295 Clouds 2 1027 98 10000 5.1 130 21:58 15.03.2020
1296 Clouds -1 1027 98 10000 3.6 140 21:38 15.03.2020
1297 Clouds 2 1027 98 10000 3.6 140 21:18 15.03.2020
1298 Rain 2 1026 93 10000 3.1 110 20:42 15.03.2020
1299 Rain 2 1026 93 10000 3.1 110 20:21 15.03.2020
1300 Rain 2 1026 93 10000 3.1 100 19:58 15.03.2020
1301 Rain 2 1026 93 10000 3.1 100 19:40 15.03.2020
1302 Rain 2 1026 93 10000 3.1 100 19:21 15.03.2020
1303 Clouds 2 1025 93 10000 2.6 80 18:56 15.03.2020
1304 Clouds 2 1025 93 10000 4.1 110 18:37 15.03.2020
1305 Clouds 2 1025 93 10000 4.1 110 18:37 15.03.2020
1306 Rain 2 1025 93 8000 5.1 130 18:19 15.03.2020
1307 Clouds 3 1024 86 10000 2.6 120 17:41 15.03.2020
1308 Clouds 3 1024 86 10000 2.6 120 17:21 15.03.2020
1309 Clouds 3 1024 86 10000 3.1 140 16:58 15.03.2020
1310 Clouds 3 1023 93 10000 3.6 160 16:40 15.03.2020
1311 Clouds 3 1023 93 10000 3.6 160 16:21 15.03.2020
1312 Clouds 4 1023 98 10000 3.1 50 15:48 15.03.2020
1313 Clouds 1 1023 80 10000 2.6 40 15:30 15.03.2020
1314 Clouds 3 1022 86 10000 3.6 50 14:58 15.03.2020
1315 Clouds 1 1022 86 10000 3.1 50 14:38 15.03.2020
1316 Clouds 4 1022 86 10000 3.1 50 14:19 15.03.2020
1317 Clouds 4 1022 86 10000 4.1 40 13:55 15.03.2020
1318 Clouds 4 1022 86 10000 5.7 50 13:37 15.03.2020
1319 Clouds 4 1022 86 10000 5.7 50 13:18 15.03.2020
1320 Clouds 4 1022 86 10000 5.7 50 13:18 15.03.2020
1321 Rain 4 1021 86 10000 3.6 40 12:40 15.03.2020
1322 Rain 4 1021 86 10000 3.6 40 12:21 15.03.2020
1323 Rain 5 1021 86 10000 2.6 70 11:44 15.03.2020
1324 Rain 4 1021 86 10000 2.6 70 11:25 15.03.2020
1325 Rain 4 1021 86 10000 3.6 40 10:59 15.03.2020
1326 Clouds 5 1020 86 10000 1.5 310 10:39 15.03.2020
1327 Clouds 5 1020 86 10000 1.5 310 10:21 15.03.2020
1328 Clouds 5 1020 80 10000 3.6 20 09:44 15.03.2020
1329 Clouds 5 1020 80 10000 3.6 20 09:25 15.03.2020
1330 Clouds 5 1019 81 10000 1.5 20 08:59 15.03.2020
1331 Clouds 5 1019 81 10000 2.1 350 08:40 15.03.2020
1332 Clouds 3 1019 81 10000 2.1 350 08:18 15.03.2020
1333 Clouds 2 1018 86 10000 1.5 0 07:44 15.03.2020
1334 Clouds 2 1018 93 10000 1.5 330 07:18 15.03.2020
1335 Clouds 2 1018 86 10000 1 0 06:36 15.03.2020
1336 Clouds 2 1018 86 10000 2.1 220 05:46 15.03.2020
1337 Clouds 3 1018 86 10000 2.6 260 04:50 15.03.2020
1338 Clouds 3 1018 86 10000 2.6 280 04:32 15.03.2020
1339 Clouds 3 1017 86 10000 2.6 280 03:59 15.03.2020
1340 Rain 2 1017 86 10000 3.1 280 02:48 15.03.2020
1341 Rain 3 1018 86 10000 4.6 270 01:56 15.03.2020
1342 Rain 3 1017 93 8000 3.6 290 00:53 15.03.2020
1343 Rain 3 1017 93 8000 2.6 300 00:28 15.03.2020
1344 Rain 3 1017 93 8000 2.6 300 23:58 14.03.2020
1345 Rain 3 1017 93 10000 1.5 280 23:38 14.03.2020
1346 Rain 5 1017 93 10000 1.5 280 23:19 14.03.2020
1347 Rain 3 1017 93 10000 2.1 290 22:46 14.03.2020
1348 Rain 3 1017 93 10000 2.1 290 22:27 14.03.2020
1349 Rain 5 1017 93 10000 1.5 340 21:57 14.03.2020
1350 Rain 5 1017 87 8000 2.1 260 21:37 14.03.2020
1351 Rain 6 1017 87 8000 2.1 260 21:19 14.03.2020
1352 Rain 6 1017 87 8000 2.1 260 21:19 14.03.2020
1353 Rain 6 1017 93 8000 2.1 210 20:59 14.03.2020
1354 Rain 7 1017 93 10000 2.1 230 20:41 14.03.2020
1355 Rain 7 1017 93 10000 2.1 230 20:20 14.03.2020
1356 Rain 5 1017 93 6000 2.6 320 19:58 14.03.2020
1357 Rain 5 1017 87 8000 3.6 300 19:39 14.03.2020
1358 Rain 6 1016 81 10000 4.6 310 19:19 14.03.2020
1359 Clouds 5 1016 61 10000 4.1 300 18:37 14.03.2020
1360 Clouds 5 1016 61 10000 4.1 300 18:19 14.03.2020
1361 Clouds 5 1015 57 10000 2.1 300 18:19 14.03.2020
1362 Clouds 5 1015 57 10000 2.6 300 17:39 14.03.2020
1363 -273 0 0 0 0 0 17:21 14.03.2020
1364 Clouds 8 1015 50 10000 2.1 20 16:41 14.03.2020
1365 Clouds 8 1015 50 10000 2.1 20 16:23 14.03.2020
1366 Clouds 8 1015 50 10000 3.1 360 15:59 14.03.2020
1367 Clouds 9 1015 46 10000 3.6 10 15:27 14.03.2020
1368 Clouds 10 1015 75 10000 4.1 20 14:59 14.03.2020
1369 Clouds 10 1015 75 10000 3.1 40 14:37 14.03.2020
1370 Clouds 11 1015 57 10000 3.1 40 14:19 14.03.2020
1371 Clouds 10 1015 57 10000 2.6 350 13:44 14.03.2020
1372 Clouds 11 1015 64 10000 2.6 350 13:24 14.03.2020
1373 Clouds 9 1016 64 10000 3.1 350 12:58 14.03.2020
1374 Clouds 9 1016 64 10000 3.1 360 12:38 14.03.2020
1375 Clouds 10 1016 41 10000 2.6 350 12:20 14.03.2020
1376 Clouds 10 1017 43 10000 3.1 250 11:42 14.03.2020
1377 Clouds 10 1017 43 10000 3.1 250 11:24 14.03.2020
1378 Clouds 12 1017 43 10000 3.1 290 10:46 14.03.2020
1379 Clouds 12 1017 43 10000 3.1 290 10:27 14.03.2020
1380 Clouds 11 1017 50 10000 2.6 320 09:58 14.03.2020
1381 Clouds 10 1018 50 10000 3.6 290 09:40 14.03.2020
1382 Clouds 9 1018 50 10000 3.6 290 09:20 14.03.2020
1383 Clouds 8 1018 57 10000 5.1 290 08:45 14.03.2020
1384 Clouds 8 1018 57 10000 5.1 290 08:45 14.03.2020
1385 Clouds 7 1018 57 10000 5.1 290 08:23 14.03.2020
1386 Clouds 7 1017 61 10000 5.7 280 07:39 14.03.2020
1387 Clouds 7 1017 61 10000 5.7 280 07:20 14.03.2020
1388 Clouds 6 1017 65 10000 5.1 280 06:41 14.03.2020
1389 Clouds 6 1017 66 10000 4.6 280 05:56 14.03.2020
1390 Clouds 7 1016 66 10000 5.7 280 04:51 14.03.2020
1391 Clouds 8 1016 71 10000 7.2 280 03:25 14.03.2020
1392 Clouds 8 1016 76 10000 6.2 270 02:35 14.03.2020
1393 Clouds 8 1016 76 10000 5.7 280 01:27 14.03.2020
1394 Clouds 8 1015 71 10000 5.7 270 00:20 14.03.2020
1395 Clouds 9 1015 66 10000 4.1 280 23:32 13.03.2020
1396 Clear 9 1014 62 10000 4.1 290 22:57 13.03.2020
1397 Clear 9 1014 58 10000 4.6 290 22:38 13.03.2020
1398 Clear 8 1013 62 10000 5.1 280 22:19 13.03.2020
1399 Clear 8 1013 66 10000 3.6 280 21:39 13.03.2020
1400 Clear 10 1012 51 10000 2.1 0 21:18 13.03.2020
1401 Clear 9 1012 62 10000 1.87 333 20:41 13.03.2020
1402 Clear 10 1012 62 10000 1.87 333 20:22 13.03.2020
1403 Clear 10 1011 58 10000 1 0 19:51 13.03.2020
1404 Clear 11 1011 51 10000 1.5 120 19:31 13.03.2020
1405 Clear 12 1010 45 10000 2.1 270 18:59 13.03.2020
1406 Clear 12 1010 48 10000 2.1 280 18:39 13.03.2020
1407 Clear 12 1010 48 10000 2.1 280 18:21 13.03.2020
1408 Clear 13 1010 35 10000 2.1 180 17:42 13.03.2020
1409 -273 0 0 0 0 0 17:21 13.03.2020
1410 Clear 18 1010 28 10000 1 0 16:56 13.03.2020
1411 Clear 19 1010 30 10000 2.1 340 16:37 13.03.2020
1412 Clear 18 1010 30 10000 2.1 340 16:19 13.03.2020
1413 Clear 18 1010 28 10000 2.1 340 15:41 13.03.2020
1414 Clear 19 1010 28 10000 2.1 340 15:21 13.03.2020
1415 Clear 18 1011 37 10000 1 0 14:44 13.03.2020
1416 Clear 17 1011 37 10000 1 0 14:23 13.03.2020
1417 Clear 17 1011 40 10000 1.5 270 13:59 13.03.2020
1418 Clear 17 1012 40 10000 1.5 0 13:40 13.03.2020
1419 -273 0 0 0 0 0 13:21 13.03.2020
1420 Clear 18 1012 42 10000 1 0 12:56 13.03.2020
1421 Clear 18 1013 45 10000 1.5 270 12:38 13.03.2020
1422 Clear 18 1013 45 10000 1.5 270 12:19 13.03.2020
1423 Clear 17 1014 51 10000 1.5 0 11:45 13.03.2020
1424 Clear 17 1014 51 10000 1.5 0 11:26 13.03.2020
1425 Clear 14 1014 58 10000 0.5 0 10:58 13.03.2020
1426 Clear 14 1015 62 10000 1 0 10:39 13.03.2020
1427 Clear 12 1015 62 10000 1 0 10:21 13.03.2020
1428 Clear 12 1016 71 10000 0.15 64 09:44 13.03.2020
1429 Clear 12 1016 71 10000 0.15 64 09:25 13.03.2020
1430 Clear 11 1016 71 10000 0.5 0 08:48 13.03.2020
1431 Clear 7 1016 75 8000 0.15 316 08:23 13.03.2020
1432 Mist 7 1016 81 3500 0.5 0 07:58 13.03.2020
1433 Mist 6 1016 93 2100 0.91 241 07:38 13.03.2020
1434 Mist 5 1016 93 2100 0.91 241 07:19 13.03.2020
1435 Fog 4 1016 100 550 1 0 06:44 13.03.2020
1436 Fog 5 1016 100 550 1 0 06:44 13.03.2020
1437 Fog 4 1016 93 6000 1 0 05:56 13.03.2020
1438 Mist 3 1016 100 2200 0.91 241 05:37 13.03.2020
1439 Mist 5 1016 93 10000 1 40 04:38 13.03.2020
1440 Mist 5 1016 93 10000 0.5 0 03:46 13.03.2020
1441 Clear 6 1017 87 10000 0.95 217 01:48 13.03.2020
1442 Clear 6 1017 87 10000 1.5 330 01:19 13.03.2020
1443 Clear 6 1017 87 10000 1.5 120 00:56 13.03.2020
1444 Clear 7 1017 75 10000 2.6 150 00:29 13.03.2020
1445 Clear 7 1017 75 10000 2.1 200 23:59 12.03.2020
1446 Clear 7 1017 75 10000 2.1 200 23:59 12.03.2020
1447 Clear 7 1017 81 10000 1.5 140 23:28 12.03.2020
1448 Clear 7 1018 75 10000 2.1 140 22:57 12.03.2020
1449 Clear 7 1018 76 10000 3.6 130 22:39 12.03.2020
1450 Clear 7 1018 76 10000 3.6 130 22:21 12.03.2020
1451 Clear 7 1018 71 10000 2.6 140 21:45 12.03.2020
1452 Clear 7 1018 71 10000 3.1 150 21:27 12.03.2020
1453 Clear 7 1018 71 10000 1.5 0 20:57 12.03.2020
1454 Clear 7 1018 71 10000 1.5 130 20:38 12.03.2020
1455 Clear 7 1018 71 10000 1.5 130 20:19 12.03.2020
1456 Clear 8 1018 54 10000 4.1 210 19:41 12.03.2020
1457 Clear 8 1018 58 10000 3.1 200 19:20 12.03.2020
1458 Clear 9 1018 44 10000 1 0 18:44 12.03.2020
1459 Clear 9 1018 44 10000 1 0 18:24 12.03.2020
1460 Clear 11 1018 42 10000 0.5 0 17:57 12.03.2020
1461 Clear 11 1018 34 10000 1 0 17:38 12.03.2020
1462 Clear 15 1018 34 10000 1 0 17:20 12.03.2020
1463 Clear 15 1018 34 10000 2.1 290 16:55 12.03.2020
1464 Clear 16 1018 34 10000 2.1 320 16:37 12.03.2020
1465 Clear 15 1018 34 10000 2.1 320 16:18 12.03.2020
1466 Clear 15 1018 37 10000 2.1 330 15:45 12.03.2020
1467 Clear 15 1018 39 10000 1.5 0 15:26 12.03.2020
1468 Clear 14 1019 42 10000 2.1 0 14:40 12.03.2020
1469 Clear 14 1019 42 10000 2.1 0 14:21 12.03.2020
1470 Clear 14 1020 42 10000 1.5 0 13:56 12.03.2020
1471 Clear 14 1020 45 10000 2.1 280 13:36 12.03.2020
1472 Clear 14 1021 45 10000 1.5 0 13:18 12.03.2020
1473 Clear 13 1021 48 10000 1 0 12:41 12.03.2020
1474 Clear 15 1021 48 10000 1 0 12:21 12.03.2020
1475 Clear 14 1022 48 10000 1.5 350 11:57 12.03.2020
1476 Clear 14 1022 51 10000 1.5 0 11:38 12.03.2020
1477 Clear 12 1022 51 10000 1.5 0 11:19 12.03.2020
1478 Clear 11 1022 54 10000 2.1 0 10:58 12.03.2020
1479 Clear 10 1022 58 10000 0.5 0 10:40 12.03.2020
1480 Clear 11 1022 58 10000 0.5 0 10:22 12.03.2020
1481 Clear 11 1022 62 10000 1.5 300 09:46 12.03.2020
1482 Clear 10 1022 66 10000 1 0 09:25 12.03.2020
1483 Clear 8 1022 75 10000 1 0 08:44 12.03.2020
1484 Clear 7 1022 75 10000 1 0 08:20 12.03.2020
1485 Clear 6 1022 81 10000 2.6 110 07:56 12.03.2020
1486 Clear 5 1022 86 10000 2.6 90 07:38 12.03.2020
1487 Clear 4 1022 86 10000 2.6 90 07:20 12.03.2020
1488 Clear 2 1021 85 10000 1.5 80 05:48 12.03.2020
1489 Clear 2 1021 85 10000 1.5 80 05:25 12.03.2020
1490 Clear 4 1020 86 10000 1.61 268 02:41 12.03.2020
1491 Clouds 5 1021 75 10000 2.6 10 01:31 12.03.2020
1492 Clouds 4 1020 70 10000 2.6 340 00:45 12.03.2020
1493 Clouds 4 1020 75 10000 2.1 360 00:26 12.03.2020
1494 Clouds 4 1020 61 10000 2.1 350 23:47 11.03.2020
1495 Clouds 4 1020 61 10000 2.1 350 23:24 11.03.2020
1496 Clouds 4 1020 70 10000 0.5 0 22:48 11.03.2020
1497 Clouds 4 1020 70 10000 0.5 0 22:30 11.03.2020
1498 Clouds 4 1020 70 10000 1 360 21:59 11.03.2020
1499 Clouds 4 1020 70 10000 1 360 21:59 11.03.2020
1500 Clouds 4 1020 66 10000 2.1 330 21:41 11.03.2020
1501 Clouds 5 1020 66 10000 2.1 330 21:22 11.03.2020
1502 Clouds 5 1019 57 10000 2.6 30 20:58 11.03.2020
1503 Clouds 5 1019 50 10000 3.1 290 20:39 11.03.2020
1504 Clouds 6 1019 50 10000 3.1 290 20:19 11.03.2020
1505 Clouds 5 1019 57 10000 3.6 280 19:44 11.03.2020
1506 Clouds 5 1019 57 10000 3.6 280 19:25 11.03.2020
1507 Clouds 6 1018 57 10000 3.6 290 18:59 11.03.2020
1508 Clouds 5 1018 61 10000 3.1 300 18:40 11.03.2020
1509 Clouds 7 1018 61 10000 3.1 300 18:21 11.03.2020
1510 Clouds 7 1018 66 10000 3.6 300 17:58 11.03.2020
1511 Clouds 7 1017 57 10000 4.1 300 17:39 11.03.2020
1512 Clouds 7 1017 57 10000 3.6 320 17:20 11.03.2020
1513 Clouds 6 1017 57 10000 3.6 320 16:46 11.03.2020
1514 Clouds 8 1017 57 10000 3.1 310 16:23 11.03.2020
1515 Clouds 8 1017 57 10000 4.1 300 15:57 11.03.2020
1516 Clouds 9 1017 54 10000 4.6 290 15:39 11.03.2020
1517 Clouds 9 1017 54 10000 4.6 290 15:21 11.03.2020
1518 Clouds 9 1017 57 10000 6.2 310 14:41 11.03.2020
1519 Clouds 9 1017 57 10000 6.2 310 14:22 11.03.2020
1520 Clouds 7 1017 62 10000 4.6 300 13:45 11.03.2020
1521 Clouds 9 1017 62 10000 4.6 300 13:27 11.03.2020
1522 Clouds 8 1018 66 10000 4.1 290 12:58 11.03.2020
1523 Clouds 8 1018 61 10000 4.1 290 12:40 11.03.2020
1524 Clouds 7 1018 61 10000 4.6 300 12:19 11.03.2020
1525 Clouds 7 1018 61 10000 4.1 290 12:19 11.03.2020
1526 Clouds 8 1018 66 10000 5.7 310 11:42 11.03.2020
1527 Clouds 7 1018 66 10000 5.7 310 11:24 11.03.2020
1528 Clouds 5 1018 65 10000 5.7 300 10:59 11.03.2020
1529 Clouds 7 1018 65 10000 4.6 320 10:41 11.03.2020
1530 Clouds 7 1018 65 10000 4.6 320 10:18 11.03.2020
1531 Clouds 3 1018 80 10000 1 0 09:43 11.03.2020
1532 Clouds 3 1018 80 10000 1 0 09:43 11.03.2020
1533 Clouds 4 1018 80 10000 1 0 09:24 11.03.2020
1534 Clouds 3 1018 80 8000 0.5 0 08:45 11.03.2020
1535 Clouds 3 1018 80 8000 0.5 0 08:27 11.03.2020
1536 Clouds 2 1018 80 8000 1.26 260 07:58 11.03.2020
1537 Clouds 1 1018 86 8000 1.26 260 07:38 11.03.2020
1538 Clouds 1 1018 86 8000 1.26 260 07:18 11.03.2020
1539 Clouds 0 1017 86 9000 0.5 0 06:37 11.03.2020
1540 Clouds 0 1017 86 9000 3.1 330 05:34 11.03.2020
1541 Clouds 0 1016 86 10000 2.6 320 04:18 11.03.2020
1542 Clouds 0 1016 86 10000 2.1 340 01:59 11.03.2020
1543 Clouds 0 1016 90 10000 2.1 310 01:27 11.03.2020
1544 Clouds 0 1016 86 10000 3.1 310 00:45 11.03.2020
1545 Clouds 0 1016 86 10000 3.6 310 23:57 10.03.2020
1546 Clouds 0 1016 80 10000 2.6 310 23:39 10.03.2020
1547 Clouds 0 1016 80 10000 2.6 310 23:20 10.03.2020
1548 Clouds 0 1016 91 10000 3.6 290 22:38 10.03.2020
1549 Clouds 1 1016 91 10000 3.6 290 22:19 10.03.2020
1550 Clouds 0 1016 91 10000 3.6 290 22:19 10.03.2020
1551 Clouds 1 1016 91 10000 3.6 290 21:56 10.03.2020
1552 Clouds 0 1016 91 10000 5.1 300 21:38 10.03.2020
1553 Clouds 1 1016 91 10000 5.1 300 21:19 10.03.2020
1554 Clouds 0 1015 91 10000 5.1 290 20:56 10.03.2020
1555 Clouds 0 1015 91 10000 5.1 290 20:38 10.03.2020
1556 Clouds 0 1015 80 10000 4.6 290 20:18 10.03.2020
1557 Clouds 0 1015 80 10000 4.6 290 19:55 10.03.2020
1558 Clouds 0 1015 86 10000 4.6 300 19:36 10.03.2020
1559 Clouds 0 1014 86 10000 4.1 310 19:18 10.03.2020
1560 Clouds 1 1014 80 10000 5.1 300 18:42 10.03.2020
1561 Clouds 1 1014 80 10000 5.1 300 18:23 10.03.2020
1562 Rain 1 1014 80 10000 5.7 300 17:56 10.03.2020
1563 Rain 1 1013 80 10000 5.1 290 17:37 10.03.2020
1564 Rain 0 1013 86 10000 5.7 290 17:19 10.03.2020
1565 Rain 1 1013 80 10000 6.7 300 16:38 10.03.2020
1566 Rain 1 1013 80 10000 6.7 300 16:18 10.03.2020
1567 Rain 1 1012 80 10000 6.7 290 15:44 10.03.2020
1568 Rain 1 1012 80 10000 6.7 290 15:20 10.03.2020
1569 Rain 1 1012 86 10000 7.2 290 14:59 10.03.2020
1570 Rain 1 1012 86 10000 6.7 290 14:40 10.03.2020
1571 Rain 2 1012 86 10000 6.7 290 14:19 10.03.2020
1572 Rain 2 1012 86 10000 6.7 290 14:19 10.03.2020
1573 Rain 2 1012 80 10000 7.2 290 13:45 10.03.2020
1574 Rain 3 1012 80 10000 7.2 290 13:26 10.03.2020
1575 Rain 2 1012 80 10000 7.7 280 12:57 10.03.2020
1576 Rain 3 1012 86 10000 6.7 280 12:37 10.03.2020
1577 Rain 3 1012 86 10000 6.7 280 12:37 10.03.2020
1578 Rain 3 1012 86 10000 6.7 280 12:18 10.03.2020
1579 Rain 3 1012 80 10000 7.7 290 11:42 10.03.2020
1580 Rain 3 1012 80 10000 7.7 290 11:24 10.03.2020
1581 Clouds 3 1012 80 10000 7.7 280 10:58 10.03.2020
1582 Rain 3 1011 86 10000 6.7 280 10:39 10.03.2020
1583 Rain 3 1011 86 10000 6.7 280 10:19 10.03.2020
1584 Rain 3 1011 86 10000 6.2 280 09:55 10.03.2020
1585 Rain 2 1011 86 10000 5.7 280 09:36 10.03.2020
1586 Rain 2 1011 86 10000 6.2 280 09:18 10.03.2020
1587 Clouds 2 1011 86 10000 6.7 280 08:42 10.03.2020
1588 Clouds 2 1011 86 10000 6.7 280 08:24 10.03.2020
1589 Clouds 1 1010 86 10000 6.2 280 07:45 10.03.2020
1590 Clouds 1 1010 86 10000 6.2 280 07:27 10.03.2020
1591 Clouds 1 1010 86 10000 4.6 280 06:38 10.03.2020
1592 Clouds 1 1009 86 10000 5.1 280 05:55 10.03.2020
1593 Clouds 1 1009 86 10000 6.2 280 05:36 10.03.2020
1594 Clouds 1 1009 86 10000 4.6 280 04:33 10.03.2020
1595 Clouds 1 1008 93 10000 5.1 280 03:19 10.03.2020
1596 Rain 1 1009 93 10000 4.6 280 01:36 10.03.2020
1597 Rain 1 1009 93 10000 4.1 280 00:51 10.03.2020
1598 Rain 1 1009 93 10000 4.6 270 00:29 10.03.2020
1599 Rain 1 1009 93 10000 4.1 280 23:43 09.03.2020
1600 Rain 1 1009 93 10000 4.1 280 23:23 09.03.2020
1601 Rain 1 1009 93 10000 4.1 280 22:58 09.03.2020
1602 Rain 1 1009 93 10000 4.1 280 22:38 09.03.2020
1603 Rain 1 1009 93 10000 4.6 280 22:20 09.03.2020
1604 Clouds 1 1009 93 10000 5.1 280 21:45 09.03.2020
1605 Clouds 1 1009 93 10000 5.1 280 21:22 09.03.2020
1606 Clouds 1 1009 93 10000 5.1 280 21:22 09.03.2020
1607 Clouds 1 1009 93 10000 4.6 280 20:58 09.03.2020
1608 Clouds 1 1009 93 10000 5.1 280 20:40 09.03.2020
1609 Clouds 1 1009 93 10000 5.1 280 20:22 09.03.2020
1610 Clouds 2 1009 93 10000 5.7 270 19:56 09.03.2020
1611 Clouds 3 1009 86 10000 5.7 270 19:38 09.03.2020
1612 Clouds 3 1009 86 10000 5.7 270 19:18 09.03.2020
1613 Clouds 3 1009 86 10000 5.7 280 18:55 09.03.2020
1614 Clouds 3 1009 86 10000 4.1 280 18:37 09.03.2020
1615 Clouds 3 1010 86 10000 5.1 270 18:18 09.03.2020
1616 Clouds 3 1010 86 10000 5.1 270 17:55 09.03.2020
1617 Clouds 3 1009 86 10000 5.7 270 17:36 09.03.2020
1618 Clouds 3 1009 93 10000 4.1 280 17:18 09.03.2020
1619 Clouds 4 1009 86 10000 4.1 280 16:41 09.03.2020
1620 Clouds 4 1009 86 10000 4.1 280 16:22 09.03.2020
1621 Clouds 4 1009 86 10000 3.6 280 15:58 09.03.2020
1622 Clouds 3 1009 86 10000 3.6 280 15:39 09.03.2020
1623 Clouds 2 1009 86 10000 2.1 280 15:21 09.03.2020
1624 Rain 3 1009 86 10000 2.1 290 14:58 09.03.2020
1625 Rain 3 1009 86 10000 2.1 290 14:38 09.03.2020
1626 Rain 3 1010 86 9000 2.1 290 14:19 09.03.2020
1627 Rain 2 1010 93 8000 2.6 290 13:58 09.03.2020
1628 Rain 2 1010 93 8000 2.6 290 13:38 09.03.2020
1629 Rain 2 1011 93 7000 2.6 280 13:19 09.03.2020
1630 Rain 2 1011 86 7000 2.6 290 12:43 09.03.2020
1631 Rain 2 1011 86 7000 2.1 300 12:23 09.03.2020
1632 Rain 2 1012 93 6000 2.1 300 11:58 09.03.2020
1633 Rain 2 1012 93 6000 2.1 300 11:38 09.03.2020
1634 Rain 2 1012 93 6000 2.1 300 11:38 09.03.2020
1635 Rain 2 1012 93 6000 2.1 290 11:19 09.03.2020
1636 Rain 2 1012 93 7000 3.1 250 10:55 09.03.2020
1637 Rain 2 1012 93 7000 3.1 250 10:36 09.03.2020
1638 Rain 2 1012 86 7000 3.1 270 10:18 09.03.2020
1639 Rain 3 1013 93 7000 4.6 270 09:39 09.03.2020
1640 Rain 3 1013 93 7000 4.6 270 09:39 09.03.2020
1641 Rain 3 1013 93 7000 4.1 280 09:21 09.03.2020
1642 Clouds 3 1013 93 6000 5.1 270 08:44 09.03.2020
1643 Clouds 3 1013 93 7000 3.1 280 08:26 09.03.2020
1644 Rain 3 1013 93 7000 3.1 280 07:42 09.03.2020
1645 Rain 3 1013 86 8000 4.1 280 07:22 09.03.2020
1646 Rain 3 1013 86 8000 4.1 280 07:22 09.03.2020
1647 Rain 1 1013 93 7000 3.1 280 06:46 09.03.2020
1648 Rain 1 1013 86 8000 3.1 290 06:27 09.03.2020
1649 Rain 2 1013 86 10000 3.1 280 05:58 09.03.2020
1650 Rain 2 1013 86 10000 3.1 280 05:39 09.03.2020
1651 Rain 2 1014 86 10000 3.1 280 04:43 09.03.2020
1652 Rain 2 1014 86 10000 4.1 280 04:22 09.03.2020
1653 Rain 2 1014 86 10000 3.6 280 03:28 09.03.2020
1654 Rain 2 1015 93 10000 3.6 280 01:50 09.03.2020
1655 Rain 2 1015 86 10000 4.6 270 00:39 09.03.2020
1656 -273 0 0 0 0 0 00:21 09.03.2020
1657 Rain 2 1015 93 10000 4.6 270 23:52 08.03.2020
1658 Rain 2 1016 86 9000 5.1 280 23:25 08.03.2020
1659 Rain 2 1016 86 9000 4.6 280 22:58 08.03.2020
1660 Rain 2 1016 93 8000 4.6 270 22:39 08.03.2020
1661 Rain 2 1016 93 8000 4.6 270 22:20 08.03.2020
1662 Rain 2 1016 86 10000 4.1 280 21:56 08.03.2020
1663 Rain 2 1016 86 10000 4.6 280 21:38 08.03.2020
1664 Rain 2 1016 86 10000 4.6 280 21:19 08.03.2020
1665 Rain 2 1016 93 10000 4.6 270 20:40 08.03.2020
1666 Rain 2 1016 93 10000 4.6 270 20:40 08.03.2020
1667 Rain 3 1016 93 9000 5.1 280 20:21 08.03.2020
1668 Rain 3 1016 93 10000 4.6 270 19:56 08.03.2020
1669 Rain 4 1016 93 10000 4.6 270 19:37 08.03.2020
1670 Rain 4 1016 86 10000 5.1 280 19:18 08.03.2020
1671 Rain 4 1016 86 10000 5.1 280 18:42 08.03.2020
1672 Rain 4 1016 86 10000 5.1 280 18:42 08.03.2020
1673 Rain 4 1015 86 10000 4.6 280 18:24 08.03.2020
1674 Rain 4 1015 93 10000 3.6 270 17:56 08.03.2020
1675 Rain 4 1015 93 10000 3.6 270 17:38 08.03.2020
1676 Rain 6 1015 87 10000 4.1 270 17:19 08.03.2020
1677 Rain 6 1015 87 10000 4.1 270 16:46 08.03.2020
1678 Rain 6 1015 87 10000 4.6 270 16:27 08.03.2020
1679 Drizzle 5 1015 87 10000 4.6 280 15:56 08.03.2020
1680 Clouds 5 1015 87 10000 3.6 300 15:38 08.03.2020
1681 Clouds 6 1015 87 10000 3.6 300 15:19 08.03.2020
1682 Rain 6 1015 81 10000 3.1 290 14:40 08.03.2020
1683 Rain 6 1015 81 10000 3.1 290 14:21 08.03.2020
1684 Rain 6 1015 81 10000 3.1 290 14:21 08.03.2020
1685 Rain 8 1015 81 10000 3.6 270 13:57 08.03.2020
1686 Clouds 8 1015 81 10000 3.1 260 13:38 08.03.2020
1687 Clouds 7 1015 81 10000 3.1 260 13:19 08.03.2020
1688 Clouds 7 1015 81 10000 3.6 280 12:39 08.03.2020
1689 Clouds 7 1015 87 10000 3.6 290 12:20 08.03.2020
1690 Clouds 8 1015 87 10000 3.6 290 11:44 08.03.2020
1691 Clouds 7 1015 87 10000 3.1 300 11:25 08.03.2020
1692 Clouds 7 1015 87 10000 3.1 300 10:59 08.03.2020
1693 Clouds 6 1015 87 10000 5.7 300 10:41 08.03.2020
1694 Clouds 6 1015 87 10000 5.7 300 10:22 08.03.2020
1695 Clouds 5 1015 93 10000 4.1 290 09:40 08.03.2020
1696 Drizzle 5 1015 86 10000 4.1 280 09:22 08.03.2020
1697 Rain 4 1014 93 10000 5.7 290 08:49 08.03.2020
1698 Rain 5 1014 93 5000 7.7 280 08:25 08.03.2020
1699 Clouds 4 1013 86 7000 7.7 270 07:50 08.03.2020
1700 Clouds 4 1013 93 10000 3.6 270 07:28 08.03.2020
1701 Clouds 4 1012 93 10000 2.6 280 06:54 08.03.2020
1702 Clouds 4 1012 93 10000 2.6 280 06:35 08.03.2020
1703 Clouds 4 1012 93 10000 1.5 290 05:58 08.03.2020
1704 Clouds 4 1012 93 10000 2.6 290 04:50 08.03.2020
1705 Rain 4 1012 93 10000 3.1 280 03:27 08.03.2020
1706 Rain 4 1013 93 10000 4.6 270 02:27 08.03.2020
1707 Rain 5 1013 93 10000 4.1 290 01:21 08.03.2020
1708 Rain 5 1012 87 10000 2.1 280 00:42 08.03.2020
1709 Rain 5 1012 87 10000 2.1 280 00:22 08.03.2020
1710 Rain 5 1012 87 10000 2.1 290 23:43 07.03.2020
1711 Clouds 5 1012 87 10000 2.1 300 23:21 07.03.2020
1712 Clouds 4 1012 87 10000 2.6 280 22:39 07.03.2020
1713 Clouds 4 1012 87 10000 2.6 280 22:39 07.03.2020
1714 Clouds 5 1012 87 10000 2.6 280 22:20 07.03.2020
1715 Clouds 5 1012 87 10000 1.5 270 21:47 07.03.2020
1716 Clouds 5 1011 87 10000 2.1 310 21:24 07.03.2020
1717 Clouds 5 1011 87 10000 3.1 300 20:42 07.03.2020
1718 Clouds 5 1011 87 10000 2.6 290 20:23 07.03.2020
1719 Rain 5 1011 87 10000 3.1 280 19:57 07.03.2020
1720 Rain 5 1011 87 10000 3.1 280 19:38 07.03.2020
1721 Rain 5 1011 87 10000 2.6 290 19:19 07.03.2020
1722 Rain 5 1011 93 10000 2.6 280 18:41 07.03.2020
1723 Rain 6 1010 93 10000 4.1 270 18:22 07.03.2020
1724 Rain 6 1010 93 10000 5.7 260 17:43 07.03.2020
1725 Rain 6 1010 93 10000 4.6 270 17:22 07.03.2020
1726 Rain 7 1010 87 7000 5.7 280 16:59 07.03.2020
1727 Rain 7 1010 87 7000 5.7 280 16:41 07.03.2020
1728 Rain 8 1010 87 10000 6.7 270 16:22 07.03.2020
1729 Clouds 8 1009 81 10000 4.6 300 15:57 07.03.2020
1730 Clouds 9 1009 81 10000 4.6 300 15:37 07.03.2020
1731 Rain 9 1009 87 7000 6.2 280 15:19 07.03.2020
1732 Clouds 9 1009 71 10000 4.1 290 14:46 07.03.2020
1733 Clouds 8 1009 71 10000 3.6 300 14:26 07.03.2020
1734 Clouds 11 1009 76 10000 3.6 330 13:59 07.03.2020
1735 Clouds 8 1009 76 10000 3.6 330 13:39 07.03.2020
1736 Clouds 8 1010 71 10000 3.6 330 13:19 07.03.2020
1737 Rain 9 1010 66 10000 5.1 320 12:42 07.03.2020
1738 Clouds 10 1010 58 10000 2.1 40 12:20 07.03.2020
1739 Clouds 10 1010 54 10000 2.1 10 11:57 07.03.2020
1740 Clouds 9 1010 58 10000 1.5 340 11:39 07.03.2020
1741 Clouds 7 1010 58 10000 1.5 340 11:21 07.03.2020
1742 Clouds 7 1010 58 10000 1 0 10:41 07.03.2020
1743 -273 0 0 0 0 0 10:21 07.03.2020
1744 Clouds 5 1010 66 10000 1 0 09:57 07.03.2020
1745 Clouds 6 1010 75 10000 2.48 221 09:38 07.03.2020
1746 Clouds 6 1010 75 10000 2.48 221 09:18 07.03.2020
1747 Clouds 6 1009 75 10000 1.5 90 08:44 07.03.2020
1748 Clouds 6 1009 70 10000 2.6 100 08:21 07.03.2020
1749 Clouds 5 1009 70 10000 2.6 100 08:21 07.03.2020
1750 Rain 5 1009 70 10000 1.5 0 07:49 07.03.2020
1751 Clouds 3 1009 70 10000 1.5 10 07:22 07.03.2020
1752 Clouds 2 1008 70 10000 2.6 50 06:54 07.03.2020
1753 Clouds 3 1008 70 10000 2.6 50 06:29 07.03.2020
1754 Clouds 3 1008 70 10000 2.6 50 05:46 07.03.2020
1755 Clouds 2 1007 80 10000 2.1 70 04:35 07.03.2020
1756 Clear 3 1006 80 10000 2.6 260 02:46 07.03.2020
1757 Clear 3 1006 80 10000 2.6 260 02:23 07.03.2020
1758 Clouds 4 1007 75 10000 1 0 01:23 07.03.2020
1759 Clouds 4 1006 75 10000 1 0 00:37 07.03.2020
1760 Clouds 4 1006 75 10000 1 0 00:19 07.03.2020
1761 Clouds 4 1006 75 9000 1 0 23:41 06.03.2020
1762 Clouds 3 1007 75 8000 3.1 60 23:23 06.03.2020
1763 Clouds 3 1006 80 7000 2.6 340 22:47 06.03.2020
1764 Clouds 3 1006 80 7000 2.6 340 22:47 06.03.2020
1765 Clouds 4 1007 75 7000 2.6 260 22:21 06.03.2020
1766 Clouds 3 1007 75 10000 2.1 50 21:50 06.03.2020
1767 Clouds 4 1007 81 8000 1 0 21:21 06.03.2020
1768 Clouds 4 1007 75 10000 2.1 190 20:56 06.03.2020
1769 Clouds 5 1007 75 10000 2.1 190 20:36 06.03.2020
1770 Clouds 5 1007 75 10000 2.1 20 20:36 06.03.2020
1771 Clouds 5 1007 75 10000 2.1 20 20:18 06.03.2020
1772 Clouds 5 1007 70 8000 2.1 10 19:42 06.03.2020
1773 Clouds 5 1007 70 8000 2.1 20 19:23 06.03.2020
1774 Clouds 4 1006 65 10000 0.5 0 18:42 06.03.2020
1775 Clouds 6 1006 65 10000 0.5 0 18:21 06.03.2020
1776 Clouds 6 1006 65 10000 0.5 0 18:21 06.03.2020
1777 Clouds 5 1006 65 10000 1.5 150 17:57 06.03.2020
1778 Clouds 6 1006 65 10000 1.5 150 17:39 06.03.2020
1779 Clouds 8 1006 53 10000 2.1 30 17:20 06.03.2020
1780 Clouds 8 1006 53 10000 2.1 30 16:55 06.03.2020
1781 Clouds 8 1006 51 10000 1 0 16:36 06.03.2020
1782 Clouds 11 1006 51 10000 1 0 16:18 06.03.2020
1783 Clouds 11 1006 43 10000 1.5 290 15:42 06.03.2020
1784 Clouds 11 1006 46 10000 2.6 340 15:22 06.03.2020
1785 Clouds 9 1006 46 10000 2.6 30 14:41 06.03.2020
1786 Clouds 7 1006 40 10000 1.5 10 14:22 06.03.2020
1787 Clouds 7 1006 40 10000 1.64 240 13:55 06.03.2020
1788 Clouds 7 1006 40 10000 1.64 240 13:37 06.03.2020
1789 Clouds 6 1006 41 10000 1.5 250 13:18 06.03.2020
1790 Clouds 8 1007 41 10000 2.6 270 12:41 06.03.2020
1791 Clouds 8 1007 41 10000 1 0 12:21 06.03.2020
1792 Clouds 8 1007 41 10000 1.5 20 11:59 06.03.2020
1793 Clouds 7 1007 41 10000 1.5 20 11:41 06.03.2020
1794 Clouds 5 1008 60 10000 1 0 11:20 06.03.2020
1795 Clouds 4 1008 65 10000 1 0 10:42 06.03.2020
1796 Clouds 5 1009 69 8000 0.5 0 10:21 06.03.2020
1797 Clouds 5 1009 74 8000 1 0 09:59 06.03.2020
1798 Clouds 4 1009 74 8000 1 0 09:40 06.03.2020
1799 Clouds 4 1009 74 8000 1 0 09:40 06.03.2020
1800 Clouds 2 1009 86 6000 1.5 100 09:22 06.03.2020
1801 Clouds 1 1009 39 6000 1 0 08:47 06.03.2020
1802 Mist 1 1009 92 5000 1 0 08:28 06.03.2020
1803 Mist -1 1009 100 1200 1 40 07:59 06.03.2020
1804 Mist -1 1009 100 1200 1 40 07:39 06.03.2020
1805 Fog -2 1009 92 200 1.5 40 07:20 06.03.2020
1806 Mist -2 1009 92 8000 2.1 80 06:41 06.03.2020
1807 Clouds -3 1008 100 6000 1.41 229 05:52 06.03.2020
1808 Clouds -3 1008 92 8000 1.41 229 05:31 06.03.2020
1809 Clear -3 1008 100 8000 1 0 04:59 06.03.2020
1810 Clear -3 1008 92 8000 1.5 120 03:46 06.03.2020
1811 Clear -3 1009 92 7000 2.1 120 01:42 06.03.2020
1812 Clear -3 1009 100 6000 1.5 100 01:23 06.03.2020
1813 Clear -2 1009 92 7000 1 0 00:39 06.03.2020
1814 Clear -2 1009 92 7000 1 0 00:19 06.03.2020
1815 Clear -3 1009 92 8000 1.5 90 23:42 05.03.2020
1816 Clear -2 1009 92 8000 1.29 246 23:22 05.03.2020
1817 Clear -2 1009 92 8000 1.2 250 22:41 05.03.2020
1818 Clear -2 1009 100 8000 1 260 22:23 05.03.2020
1819 Clear -2 1009 83 10000 1.2 250 21:58 05.03.2020
1820 Clear -2 1009 83 10000 1.2 250 21:39 05.03.2020
1821 Clear -2 1010 83 10000 1 90 21:21 05.03.2020
1822 Clear -2 1010 83 10000 2.1 150 20:59 05.03.2020
1823 Clear -2 1010 83 10000 2.1 150 20:41 05.03.2020
1824 Clouds 0 1010 80 10000 1.5 360 20:20 05.03.2020
1825 Clouds 0 1010 80 10000 1.5 310 19:58 05.03.2020
1826 Clouds 0 1010 80 10000 1.5 310 19:39 05.03.2020
1827 Clouds 0 1010 80 10000 1.5 310 19:39 05.03.2020
1828 Clouds -1 1010 74 10000 1.5 290 19:19 05.03.2020
1829 Clouds 0 1010 69 10000 2.1 310 18:55 05.03.2020
1830 Clouds 0 1010 69 10000 2.1 310 18:36 05.03.2020
1831 Clouds 2 1010 64 10000 2.6 290 18:18 05.03.2020
1832 Clouds 2 1009 64 10000 4.1 280 17:42 05.03.2020
1833 Clouds 4 1009 64 10000 5.1 290 17:22 05.03.2020
1834 Clouds 2 1009 65 10000 5.1 290 16:58 05.03.2020
1835 Clouds 3 1009 65 10000 7.2 290 16:40 05.03.2020
1836 Clouds 3 1009 65 10000 7.2 290 16:21 05.03.2020
1837 Clouds 3 1008 65 10000 6.7 300 15:45 05.03.2020
1838 Clouds 3 1008 74 10000 6.7 300 15:24 05.03.2020
1839 Clouds 3 1008 74 10000 6.7 300 14:59 05.03.2020
1840 Clouds 2 1008 74 10000 7.7 290 14:41 05.03.2020
1841 Clouds 2 1008 74 10000 7.7 290 14:21 05.03.2020
1842 Clouds 2 1008 71 10000 7.2 290 13:56 05.03.2020
1843 Clouds 2 1008 71 10000 7.2 290 13:38 05.03.2020
1844 Clouds 5 1009 73 10000 7.2 290 13:19 05.03.2020
1845 Clouds 4 1009 75 10000 8.2 290 12:42 05.03.2020
1846 Clouds 1 1009 73 10000 7.7 300 12:21 05.03.2020
1847 Clouds 4 1009 73 10000 7.7 270 11:57 05.03.2020
1848 Clouds 4 1009 73 10000 7.7 270 11:57 05.03.2020
1849 Clouds 3 1009 73 10000 7.7 270 11:37 05.03.2020
1850 Clouds 4 1009 80 10000 6.7 280 11:19 05.03.2020
1851 Clouds 3 1009 80 10000 7.7 280 10:57 05.03.2020
1852 Clouds 4 1009 80 10000 7.7 280 10:57 05.03.2020
1853 Clouds 3 1009 80 10000 7.7 280 10:39 05.03.2020
1854 Clouds 2 1009 80 10000 6.7 280 10:21 05.03.2020
1855 Rain 2 1009 86 10000 6.2 280 09:46 05.03.2020
1856 Rain 1 1010 86 8000 5.7 280 09:28 05.03.2020
1857 Rain 0 1010 93 7000 5.1 280 08:49 05.03.2020
1858 Rain 0 1010 93 7000 5.1 280 08:49 05.03.2020
1859 Clouds 1 1010 93 4000 6.2 280 08:31 05.03.2020
1860 Clouds 0 1009 93 4000 5.7 280 07:56 05.03.2020
1861 Clouds 0 1009 93 4000 5.7 280 07:36 05.03.2020
1862 Rain 0 1009 93 9000 7.2 270 07:18 05.03.2020
1863 Rain -1 1009 93 6000 6.2 270 06:43 05.03.2020
1864 Rain 0 1009 93 6000 7.7 270 06:19 05.03.2020
1865 Rain 0 1008 86 10000 6.7 280 05:33 05.03.2020
1866 Rain 0 1008 93 7000 6.2 280 04:23 05.03.2020
1867 Rain 1 1008 86 5000 5.1 280 03:58 05.03.2020
1868 Mist 1 1008 93 4200 5.7 280 02:31 05.03.2020
1869 Mist 1 1008 93 4600 5.7 280 01:26 05.03.2020
1870 Clouds 1 1008 86 10000 4.6 280 00:44 05.03.2020
1871 Rain 1 1008 86 10000 5.7 280 23:56 04.03.2020
1872 Rain 1 1008 86 10000 5.7 280 23:56 04.03.2020
1873 Rain 1 1008 86 10000 5.7 280 23:38 04.03.2020
1874 Rain 1 1008 86 10000 5.7 280 23:20 04.03.2020
1875 Rain 1 1008 86 10000 6.2 280 22:54 04.03.2020
1876 Rain 2 1008 86 10000 6.2 280 22:36 04.03.2020
1877 Clouds 2 1008 86 10000 5.7 280 22:18 04.03.2020
1878 Clouds 2 1008 86 10000 6.2 280 21:41 04.03.2020
1879 Rain 2 1008 86 10000 5.7 280 21:21 04.03.2020
1880 Rain 2 1008 93 10000 7.7 270 20:57 04.03.2020
1881 Rain 2 1008 93 10000 7.7 270 20:39 04.03.2020
1882 Rain 3 1008 86 10000 7.7 270 20:21 04.03.2020
1883 Rain 3 1007 86 10000 7.7 270 19:42 04.03.2020
1884 Rain 4 1007 86 10000 8.2 270 19:24 04.03.2020
1885 Rain 4 1007 86 7000 7.7 280 18:57 04.03.2020
1886 Rain 3 1007 86 7000 7.7 280 18:38 04.03.2020
1887 Rain 4 1006 86 10000 7.7 280 18:20 04.03.2020
1888 Rain 3 1005 87 10000 8.2 280 17:56 04.03.2020
1889 Rain 3 1005 87 10000 8.2 280 17:38 04.03.2020
1890 Rain 6 1005 93 10000 7.2 270 17:19 04.03.2020
1891 Rain 7 1004 87 10000 7.7 280 16:44 04.03.2020
1892 Rain 7 1004 87 10000 7.7 310 16:25 04.03.2020
1893 Clouds 9 1004 76 10000 4.1 340 15:59 04.03.2020
1894 Rain 10 1003 66 10000 2.1 290 15:41 04.03.2020
1895 Rain 10 1003 66 10000 2.1 290 15:21 04.03.2020
1896 Rain 10 1003 58 10000 7.2 160 14:55 04.03.2020
1897 Rain 8 1003 58 10000 7.2 160 14:37 04.03.2020
1898 Clouds 11 1002 54 10000 6.2 130 14:18 04.03.2020
1899 Clouds 11 1003 51 10000 3.1 130 13:55 04.03.2020
1900 Clouds 12 1003 51 10000 3.1 130 13:36 04.03.2020
1901 Rain 12 1003 54 10000 2.1 180 13:18 04.03.2020
1902 Clouds 10 1003 51 10000 2.1 160 12:43 04.03.2020
1903 Clouds 10 1003 51 10000 4.6 300 12:24 04.03.2020
1904 Clouds 13 1003 48 10000 3.1 360 11:55 04.03.2020
1905 Clouds 13 1003 48 10000 3.1 360 11:37 04.03.2020
1906 Clouds 11 1004 51 10000 3.1 0 11:19 04.03.2020
1907 Clouds 11 1004 51 10000 5.7 280 10:45 04.03.2020
1908 Clouds 12 1004 51 10000 1 0 10:25 04.03.2020
1909 Clouds 10 1004 58 10000 2.6 60 09:58 04.03.2020
1910 Clouds 12 1004 58 10000 2.6 60 09:39 04.03.2020
1911 Clouds 11 1004 62 10000 2.6 90 09:19 04.03.2020
1912 Clouds 10 1004 62 10000 1 0 08:42 04.03.2020
1913 Clouds 9 1004 66 10000 1.5 50 08:24 04.03.2020
1914 Clouds 8 1004 66 10000 3.6 110 07:48 04.03.2020
1915 Clouds 9 1004 62 10000 3.6 130 07:29 04.03.2020
1916 Clouds 9 1004 58 10000 2.6 130 06:53 04.03.2020
1917 Clouds 7 1004 58 10000 5.1 180 06:26 04.03.2020
1918 Clouds 9 1004 58 10000 5.1 180 06:26 04.03.2020
1919 Clouds 8 1004 54 10000 5.1 180 05:58 04.03.2020
1920 Clouds 8 1004 54 10000 5.7 170 05:28 04.03.2020
1921 Clouds 5 1004 66 10000 1.5 10 03:54 04.03.2020
1922 Clouds 6 1004 62 10000 2.1 260 03:35 04.03.2020
1923 Clouds 6 1004 54 10000 2.1 330 02:58 04.03.2020
1924 Clouds 6 1004 54 10000 2.1 0 02:27 04.03.2020
1925 Clouds 7 1004 54 10000 3.1 120 01:56 04.03.2020
1926 Clouds 6 1004 54 10000 6.7 120 01:33 04.03.2020
1927 Clouds 7 1005 54 10000 3.1 130 00:41 04.03.2020
1928 Clouds 7 1004 54 10000 4.6 130 00:21 04.03.2020
1929 Clouds 7 1004 54 10000 6.2 130 23:42 03.03.2020
1930 Clouds 7 1005 54 10000 6.7 110 23:23 03.03.2020
1931 Clouds 8 1005 44 10000 6.2 130 22:55 03.03.2020
1932 Clouds 8 1005 44 10000 6.2 130 22:37 03.03.2020
1933 Clouds 9 1005 44 10000 7.2 160 22:18 03.03.2020
1934 Clouds 8 1005 47 10000 2.1 80 21:42 03.03.2020
1935 Clouds 6 1005 57 10000 4.1 170 21:22 03.03.2020
1936 Clouds 7 1006 58 10000 4.1 120 20:58 03.03.2020
1937 Clouds 7 1006 58 10000 4.1 120 20:39 03.03.2020
1938 Clouds 7 1006 58 10000 6.2 100 20:18 03.03.2020
1939 Clouds 7 1006 58 10000 4.6 90 19:56 03.03.2020
1940 Clouds 7 1006 58 10000 4.6 90 19:37 03.03.2020
1941 Clouds 8 1006 47 10000 3.1 80 19:18 03.03.2020
1942 Clouds 11 1006 29 10000 3.1 0 18:55 03.03.2020
1943 Clouds 11 1006 29 10000 3.1 0 18:37 03.03.2020
1944 Clouds 11 1006 29 10000 3.1 0 18:37 03.03.2020
1945 Clouds 10 1006 34 10000 6.7 220 18:18 03.03.2020
1946 Clouds 11 1006 34 10000 7.2 200 17:41 03.03.2020
1947 Clouds 12 1006 32 10000 5.1 210 17:22 03.03.2020
1948 Clouds 13 1006 32 10000 6.7 220 16:59 03.03.2020
1949 Clouds 13 1006 32 10000 6.7 220 16:38 03.03.2020
1950 Clouds 16 1006 30 10000 7.7 210 16:20 03.03.2020
1951 Clouds 16 1006 30 10000 7.7 210 16:20 03.03.2020
1952 Clouds 16 1006 28 10000 9.8 210 15:58 03.03.2020
1953 Clouds 16 1006 28 10000 9.8 210 15:58 03.03.2020
1954 Clouds 16 1006 28 10000 9.8 210 15:40 03.03.2020
1955 Clouds 16 1007 28 10000 9.8 190 15:20 03.03.2020
1956 Clouds 16 1007 26 10000 8.2 200 14:43 03.03.2020
1957 Clouds 16 1006 33 10000 7.7 210 14:20 03.03.2020
1958 Clouds 16 1007 36 10000 9.3 200 13:58 03.03.2020
1959 Clouds 17 1007 36 10000 9.3 200 13:40 03.03.2020
1960 Clouds 16 1007 36 10000 9.3 190 13:21 03.03.2020
1961 Clouds 16 1007 36 10000 9.3 190 13:21 03.03.2020
1962 Clouds 17 1007 24 10000 6.7 210 12:47 03.03.2020
1963 Clouds 16 1008 25 10000 5.7 180 12:27 03.03.2020
1964 Clouds 15 1008 39 10000 4.6 160 11:58 03.03.2020
1965 Clouds 14 1009 44 10000 3.1 70 11:37 03.03.2020
1966 Clouds 14 1009 44 10000 3.1 70 11:18 03.03.2020
1967 Clouds 13 1009 50 10000 3.6 50 10:56 03.03.2020
1968 Clouds 15 1008 27 10000 4.6 50 10:37 03.03.2020
1969 Clouds 15 1008 27 10000 4.6 50 10:18 03.03.2020
1970 Clouds 14 1009 27 10000 3.6 130 09:44 03.03.2020
1971 Clouds 13 1009 41 10000 3.6 0 09:22 03.03.2020
1972 Clouds 11 1008 50 10000 4.6 0 08:57 03.03.2020
1973 Clouds 10 1008 50 10000 4.6 0 08:39 03.03.2020
1974 Clouds 9 1008 54 10000 6.2 210 08:20 03.03.2020
1975 Clouds 9 1008 47 10000 6.7 210 07:43 03.03.2020
1976 Clouds 7 1008 53 10000 9.3 240 07:20 03.03.2020
1977 Clouds 7 1008 61 10000 1 0 06:41 03.03.2020
1978 Clouds 6 1008 70 10000 2.6 0 06:22 03.03.2020
1979 Clouds 6 1008 66 10000 1.5 0 05:47 03.03.2020
1980 Clouds 7 1008 61 10000 6.7 100 04:58 03.03.2020
1981 Clouds 6 1008 66 10000 3.6 80 03:52 03.03.2020
1982 Clouds 7 1009 53 10000 4.6 80 01:40 03.03.2020
1983 Clouds 7 1009 61 10000 2.6 120 00:48 03.03.2020
1984 Clouds 7 1009 61 10000 3.1 120 00:26 03.03.2020
1985 Clouds 7 1010 57 10000 2.6 140 23:52 02.03.2020
1986 Clouds 7 1009 57 10000 3.6 120 23:24 02.03.2020
1987 Clouds 7 1010 53 10000 6.7 70 22:58 02.03.2020
1988 Clouds 8 1010 53 10000 6.7 70 22:39 02.03.2020
1989 Clouds 8 1009 50 10000 8.2 100 22:20 02.03.2020
1990 Clouds 9 1009 47 10000 8.2 120 21:59 02.03.2020
1991 Clouds 9 1009 47 10000 8.2 120 21:39 02.03.2020
1992 Clouds 9 1009 47 10000 8.7 120 21:21 02.03.2020
1993 Clouds 10 1009 36 10000 4.1 130 20:58 02.03.2020
1994 Clouds 11 1009 36 10000 4.1 130 20:38 02.03.2020
1995 Clouds 10 1009 38 10000 6.2 130 20:20 02.03.2020
1996 Clouds 10 1009 38 10000 6.2 130 20:20 02.03.2020
1997 Clouds 11 1009 36 10000 6.2 120 19:55 02.03.2020
1998 Clouds 11 1009 36 10000 6.2 120 19:37 02.03.2020
1999 Clouds 10 1009 41 10000 2.1 30 19:18 02.03.2020
2000 Clouds 10 1009 41 10000 3.6 220 18:44 02.03.2020
2001 Clouds 11 1009 38 10000 3.1 210 18:19 02.03.2020
2002 Clouds 10 1009 38 10000 6.2 190 17:58 02.03.2020
2003 Clouds 11 1009 38 10000 6.2 190 17:40 02.03.2020
2004 Clouds 12 1009 39 10000 6.2 210 17:21 02.03.2020
2005 Clouds 12 1009 39 10000 5.7 210 16:55 02.03.2020
2006 Clouds 13 1009 39 10000 5.7 210 16:36 02.03.2020
2007 Clouds 19 1009 29 10000 7.2 230 16:18 02.03.2020
2008 Clouds 19 1009 29 10000 7.2 230 15:42 02.03.2020
2009 Clouds 19 1009 29 10000 5.1 220 15:20 02.03.2020
2010 Clouds 13 1009 34 10000 6.7 240 14:41 02.03.2020
2011 Clouds 19 1009 29 10000 6.7 240 14:20 02.03.2020
2012 Clouds 19 1009 32 10000 7.2 230 13:58 02.03.2020
2013 Clouds 19 1009 32 10000 7.2 230 13:38 02.03.2020
2014 Clouds 18 1009 36 10000 6.7 250 13:18 02.03.2020
2015 Clouds 19 1009 36 10000 4.6 240 12:43 02.03.2020
2016 Clouds 18 1009 39 10000 3.6 260 12:19 02.03.2020
2017 Clouds 17 1010 39 10000 5.1 240 11:55 02.03.2020
2018 Clouds 16 1010 38 10000 5.7 250 11:36 02.03.2020
2019 Clouds 16 1010 38 10000 5.7 250 11:18 02.03.2020
2020 Clouds 16 1010 38 10000 2.1 0 10:42 02.03.2020
2021 Clouds 16 1010 38 10000 2.1 0 10:42 02.03.2020
2022 Clouds 14 1010 47 10000 3.6 30 10:20 02.03.2020
2023 Clouds 13 1010 47 10000 3.6 50 09:56 02.03.2020
2024 Clouds 12 1010 47 10000 3.6 50 09:37 02.03.2020
2025 Clouds 12 1009 50 10000 5.1 90 09:18 02.03.2020
2026 Clouds 9 1009 57 10000 4.6 90 08:41 02.03.2020
2027 Clouds 6 1010 70 10000 2.1 150 08:19 02.03.2020
2028 Clouds 3 1009 80 10000 2.1 0 07:41 02.03.2020
2029 Clouds 1 1009 74 10000 2.6 50 06:57 02.03.2020
2030 Clouds 1 1009 74 10000 2.6 50 06:37 02.03.2020
2031 Clouds 2 1009 74 10000 2.1 0 05:52 02.03.2020
2032 Clouds 1 1009 80 10000 2.6 330 04:21 02.03.2020
2033 Clouds 1 1010 80 10000 1 0 03:20 02.03.2020
2034 Clouds 1 1011 80 10000 2.6 80 02:36 02.03.2020
2035 Clouds 2 1012 69 8000 1 0 01:42 02.03.2020
2036 Clouds 1 1012 69 8000 2.6 140 01:23 02.03.2020
2037 Clouds 2 1013 69 8000 1 0 00:23 02.03.2020
2038 Clouds 1 1013 69 10000 1 0 23:56 01.03.2020
2039 Clouds 1 1013 69 10000 1 0 23:38 01.03.2020
2040 Clouds 2 1013 69 10000 1.5 160 23:19 01.03.2020
2041 Clouds 3 1013 64 10000 3.1 90 22:42 01.03.2020
2042 Clouds 2 1013 69 10000 4.6 90 22:19 01.03.2020
2043 Clouds 2 1013 69 10000 2.6 120 21:44 01.03.2020
2044 Clouds 3 1013 64 10000 3.1 130 21:25 01.03.2020
2045 Clouds 3 1013 74 10000 3.6 90 20:59 01.03.2020
2046 Clouds 3 1013 74 10000 3.6 90 20:41 01.03.2020
2047 Clouds 4 1013 60 10000 2.1 90 20:22 01.03.2020
2048 Clouds 4 1013 60 10000 3.1 100 19:43 01.03.2020
2049 Clouds 4 1013 74 10000 4.1 90 19:24 01.03.2020
2050 Clouds 5 1013 74 10000 2.6 70 18:59 01.03.2020
2051 Clouds 5 1013 74 10000 2.6 70 18:40 01.03.2020
2052 Clouds 6 1013 49 10000 1.5 0 18:19 01.03.2020
2053 Clouds 6 1013 46 10000 2.1 10 17:57 01.03.2020
2054 Clouds 6 1013 46 10000 2.1 10 17:39 01.03.2020
2055 Clouds 6 1013 56 10000 1.5 270 17:20 01.03.2020
2056 Clouds 7 1013 43 10000 1 0 16:57 01.03.2020
2057 Clouds 8 1013 43 10000 1 0 16:38 01.03.2020
2058 Clouds 11 1013 43 10000 2.6 90 16:18 01.03.2020
2059 Clouds 11 1013 37 10000 2.6 80 15:56 01.03.2020
2060 Clouds 9 1013 37 10000 2.6 80 15:37 01.03.2020
2061 Clouds 9 1013 37 10000 2.6 80 15:37 01.03.2020
2062 Clouds 9 1014 40 10000 2.1 100 15:19 01.03.2020
2063 Clouds 7 1014 40 10000 2.1 90 14:55 01.03.2020
2064 Clouds 8 1014 40 10000 2.1 90 14:37 01.03.2020
2065 Clouds 11 1014 37 10000 2.1 30 14:18 01.03.2020
2066 Clouds 11 1014 37 10000 2.1 60 13:44 01.03.2020
2067 Clouds 10 1015 43 10000 2.1 90 13:22 01.03.2020
2068 Clouds 9 1015 45 10000 2.1 0 12:59 01.03.2020
2069 Clouds 11 1015 45 10000 2.1 0 12:41 01.03.2020
2070 Clouds 11 1016 45 10000 2.6 110 12:21 01.03.2020
2071 Clouds 11 1016 45 10000 2.6 110 12:21 01.03.2020
2072 Clouds 9 1017 56 10000 2.1 0 11:42 01.03.2020
2073 Clouds 8 1017 56 10000 1.5 0 11:23 01.03.2020
2074 Clouds 8 1017 56 10000 1.5 0 11:23 01.03.2020
2075 Clear 7 1017 60 10000 1 0 10:57 01.03.2020
2076 Clear 7 1017 60 10000 1 0 10:38 01.03.2020
2077 Clear 7 1017 65 9000 1 0 10:19 01.03.2020
2078 Clear 4 1017 74 8000 0.5 0 09:46 01.03.2020
2079 Clear 4 1017 74 8000 0.5 0 09:46 01.03.2020
2080 Clear 4 1018 74 7000 0.5 0 09:27 01.03.2020
2081 Clear 2 1018 80 6000 1 0 08:57 01.03.2020
2082 Clear 1 1018 80 6000 1 0 08:38 01.03.2020
2083 Mist 1 1018 80 5000 1 0 08:19 01.03.2020
2084 Mist 0 1018 57 5000 0.5 0 07:42 01.03.2020
2085 Mist -2 1018 86 4000 1 0 07:23 01.03.2020
2086 Mist -3 1018 92 4000 1.4 239 06:51 01.03.2020
2087 Mist -3 1018 92 5000 1 0 06:29 01.03.2020
2088 Clouds -2 1018 92 7000 1.5 270 04:19 01.03.2020
2089 Clouds -2 1018 92 7000 1.5 300 02:27 01.03.2020
2090 Clouds -2 1018 92 8000 2.1 300 01:52 01.03.2020
2091 Clouds -2 1018 92 9000 1.47 195 01:21 01.03.2020
2092 Clouds -2 1018 86 9000 0.5 150 00:42 01.03.2020
2093 Clouds -2 1019 92 8000 1.5 140 00:21 01.03.2020
2094 Clouds -1 1019 86 9000 1.5 70 23:46 29.02.2020
2095 Clouds -1 1019 92 8000 1.53 196 23:28 29.02.2020
2096 Clouds -1 1019 64 9000 0.5 0 22:42 29.02.2020
2097 Clouds -1 1019 69 10000 1.5 230 22:23 29.02.2020
2098 Clouds -1 1019 64 8000 2.1 200 21:42 29.02.2020
2099 Clouds 0 1019 74 10000 2.1 170 21:23 29.02.2020
2100 Clouds -1 1019 64 10000 1.5 170 20:43 29.02.2020
2101 Clouds -1 1019 62 10000 1.5 130 20:22 29.02.2020
2102 Clear 0 1019 74 10000 2.1 80 19:57 29.02.2020
2103 Clear 0 1019 74 10000 2.1 80 19:38 29.02.2020
2104 Clear 0 1018 69 10000 2.1 150 19:19 29.02.2020
2105 Clear 0 1018 69 9000 2.6 160 18:43 29.02.2020
2106 Clear 0 1018 64 10000 2.1 130 18:25 29.02.2020
2107 Clear 1 1018 52 10000 1.5 80 17:58 29.02.2020
2108 Clear 1 1018 52 10000 1.5 80 17:40 29.02.2020
2109 Clear 5 1018 48 10000 1.5 40 17:20 29.02.2020
2110 Clear 5 1018 48 10000 1.5 40 17:20 29.02.2020
2111 Clear 2 1018 48 10000 1.5 360 16:45 29.02.2020
2112 Clear 6 1018 48 10000 1 0 16:22 29.02.2020
2113 Clear 7 1018 48 10000 2.1 0 15:58 29.02.2020
2114 Clear 6 1018 48 10000 2.1 0 15:40 29.02.2020
2115 Clear 6 1018 48 10000 2.1 0 15:40 29.02.2020
2116 Clear 6 1018 48 10000 3.6 320 15:21 29.02.2020
2117 Clear 6 1018 48 10000 3.6 300 14:41 29.02.2020
2118 Clear 6 1018 48 10000 3.1 310 14:22 29.02.2020
2119 Clouds 6 1018 52 10000 5.1 300 13:47 29.02.2020
2120 Clouds 5 1019 56 10000 5.7 300 13:28 29.02.2020
2121 Clouds 6 1019 56 10000 6.2 290 12:59 29.02.2020
2122 Clouds 6 1019 56 10000 6.2 290 12:40 29.02.2020
2123 Clouds 6 1019 60 10000 5.1 280 12:21 29.02.2020
2124 Clouds 5 1019 60 10000 6.2 280 11:55 29.02.2020
2125 Clouds 5 1019 60 10000 6.2 280 11:37 29.02.2020
2126 Clouds 5 1020 60 10000 6.7 280 11:19 29.02.2020
2127 Clouds 4 1020 64 10000 7.2 280 10:44 29.02.2020
2128 Clouds 3 1020 64 10000 6.7 280 10:26 29.02.2020
2129 Clouds 3 1019 69 10000 6.2 290 09:47 29.02.2020
2130 Clouds 3 1019 69 10000 6.7 280 09:23 29.02.2020
2131 Clouds 2 1019 69 10000 7.2 290 08:42 29.02.2020
2132 Clouds -3 1019 69 10000 7.2 290 08:22 29.02.2020
2133 Clouds 1 1018 69 10000 7.7 290 07:56 29.02.2020
2134 Clouds 0 1018 90 10000 8.7 280 07:36 29.02.2020
2135 Clouds -3 1018 90 10000 8.7 280 07:18 29.02.2020
2136 Clouds -3 1017 90 10000 8.2 280 06:41 29.02.2020
2137 Clouds -3 1017 90 10000 8.2 270 06:22 29.02.2020
2138 Clouds -3 1016 90 10000 7.7 270 05:40 29.02.2020
2139 Clouds 1 1016 74 10000 6.7 280 04:44 29.02.2020
2140 Clouds -2 1015 74 10000 7.7 290 03:37 29.02.2020
2141 Clouds -3 1014 74 10000 7.7 270 03:18 29.02.2020
2142 Clouds 1 1014 74 10000 8.2 290 02:32 29.02.2020
2143 Clouds 1 1013 80 10000 8.7 280 00:54 29.02.2020
2144 Clouds 1 1013 80 10000 9.8 280 00:36 29.02.2020
2145 Clouds 1 1013 80 10000 8.2 280 23:42 28.02.2020
2146 Clouds 2 1012 74 10000 8.7 280 23:24 28.02.2020
2147 Rain 1 1013 86 10000 7.7 280 22:44 28.02.2020
2148 Clouds 1 1012 86 10000 7.2 280 22:24 28.02.2020
2149 Clouds 2 1012 80 10000 6.7 280 21:56 28.02.2020
2150 Clouds 2 1012 80 10000 6.7 280 21:38 28.02.2020
2151 Clouds 2 1012 80 10000 7.2 280 21:20 28.02.2020
2152 Clouds 1 1012 86 10000 8.2 270 20:39 28.02.2020
2153 Clouds 2 1011 80 10000 5.7 280 20:21 28.02.2020
2154 Clouds 2 1012 74 10000 6.7 280 19:57 28.02.2020
2155 Clouds 2 1012 74 10000 6.7 280 19:39 28.02.2020
2156 Clouds 2 1012 80 10000 6.7 280 19:20 28.02.2020
2157 Snow 1 1012 86 10000 6.7 280 18:48 28.02.2020
2158 Snow 1 1011 86 7000 6.2 280 18:29 28.02.2020
2159 Snow -2 1010 86 2500 6.2 280 17:59 28.02.2020
2160 Snow -2 1010 86 2500 6.2 280 17:40 28.02.2020
2161 Snow 1 1010 98 2700 6.2 280 17:21 28.02.2020
2162 Snow 1 1009 98 3500 3.1 270 16:44 28.02.2020
2163 Snow 1 1009 98 800 2.6 280 16:20 28.02.2020
2164 Snow 1 1008 98 2200 4.1 290 15:58 28.02.2020
2165 Snow 1 1008 98 2200 4.1 290 15:39 28.02.2020
2166 Snow 2 1008 98 3000 3.6 320 15:19 28.02.2020
2167 Rain 1 1007 98 8000 3.1 360 14:57 28.02.2020
2168 Rain 1 1007 98 8000 3.1 360 14:38 28.02.2020
2169 Clouds 5 1006 49 10000 4.6 70 14:18 28.02.2020
2170 Rain 5 1006 86 10000 6.7 80 13:41 28.02.2020
2171 Rain 5 1007 86 9000 4.1 10 13:20 28.02.2020
2172 Rain 6 1007 80 10000 4.6 10 12:56 28.02.2020
2173 Rain 6 1007 80 10000 4.6 10 12:37 28.02.2020
2174 Rain 6 1007 60 9000 3.6 360 12:19 28.02.2020
2175 Clouds 7 1008 48 10000 2.6 350 11:41 28.02.2020
2176 Clouds 6 1008 52 10000 2.6 330 11:22 28.02.2020
2177 Clouds 6 1008 52 10000 2.6 310 10:54 28.02.2020
2178 Clouds 6 1008 52 10000 2.6 310 10:54 28.02.2020
2179 Clouds 5 1008 52 10000 2.6 310 10:36 28.02.2020
2180 Clouds 6 1008 48 10000 2.6 0 10:18 28.02.2020
2181 Clouds 5 1009 60 10000 2.6 320 09:40 28.02.2020
2182 Clouds 4 1009 59 10000 2.6 310 09:20 28.02.2020
2183 Clouds 1 1009 42 10000 0.5 0 08:42 28.02.2020
2184 Clouds 0 1009 80 10000 1.5 90 08:21 28.02.2020
2185 Clouds 0 1010 80 10000 2.1 100 07:46 28.02.2020
2186 Clouds -1 1010 86 10000 2.6 120 07:26 28.02.2020
2187 Clouds -2 1010 86 10000 2.1 140 06:52 28.02.2020
2188 Clouds -2 1010 86 10000 2.1 110 06:33 28.02.2020
2189 Clouds -4 1010 86 10000 3.1 100 05:30 28.02.2020
2190 Clouds -5 1009 85 10000 2.6 140 04:31 28.02.2020
2191 Clouds -5 1009 79 10000 1 0 03:22 28.02.2020
2192 Clouds -4 1009 79 10000 1.5 170 02:34 28.02.2020
2193 Clear -4 1009 79 10000 1 0 01:48 28.02.2020
2194 Clear -1 1010 71 10000 2.6 360 00:32 28.02.2020
2195 Clouds 0 1010 71 10000 2.6 360 23:47 27.02.2020
2196 Clouds 1 1011 64 10000 3.1 360 23:23 27.02.2020
2197 Clouds 1 1011 55 10000 3.1 310 22:58 27.02.2020
2198 Clouds 2 1011 55 10000 3.1 310 22:39 27.02.2020
2199 Clouds 2 1010 51 10000 5.1 290 22:21 27.02.2020
2200 Clouds 2 1010 55 10000 4.6 290 21:42 27.02.2020
2201 Clouds 2 1010 55 10000 5.7 270 21:23 27.02.2020
2202 Clouds 2 1010 55 10000 4.6 280 20:59 27.02.2020
2203 Clouds -1 1010 55 10000 4.6 280 20:41 27.02.2020
2204 Clouds 2 1010 55 10000 3.6 290 20:21 27.02.2020
2205 Clouds 2 1009 59 10000 3.1 290 19:57 27.02.2020
2206 Clouds 2 1009 59 10000 5.1 280 19:39 27.02.2020
2207 Clouds 2 1009 59 10000 5.1 280 19:20 27.02.2020
2208 Clouds 2 1009 59 10000 6.2 290 18:54 27.02.2020
2209 Clouds 2 1009 59 10000 6.2 290 18:36 27.02.2020
2210 Clouds 2 1008 64 10000 7.7 270 18:18 27.02.2020
2211 Clouds 3 1007 64 10000 7.2 280 17:40 27.02.2020
2212 Clouds 3 1007 64 10000 7.2 280 17:20 27.02.2020
2213 Clouds 3 1007 64 10000 7.2 290 16:59 27.02.2020
2214 Clouds 3 1007 64 10000 7.2 290 16:40 27.02.2020
2215 Clouds 3 1006 64 10000 8.2 300 16:20 27.02.2020
2216 Clouds 3 1006 64 10000 7.7 300 15:59 27.02.2020
2217 Clouds 3 1006 64 10000 8.2 300 15:38 27.02.2020
2218 Clouds 3 1006 64 10000 8.2 300 15:19 27.02.2020
2219 Clouds 4 1005 69 10000 8.7 300 14:56 27.02.2020
2220 Clouds 4 1005 69 10000 8.7 300 14:37 27.02.2020
2221 Clouds 4 1004 64 10000 9.8 290 14:19 27.02.2020
2222 Snow 2 1004 67 8000 5.7 280 13:42 27.02.2020
2223 Snow 2 1004 67 8000 5.7 280 13:21 27.02.2020
2224 Snow 3 1004 80 4500 8.2 280 12:55 27.02.2020
2225 Snow 4 1004 80 4500 8.2 280 12:37 27.02.2020
2226 Rain 5 1003 86 6000 9.3 290 12:18 27.02.2020
2227 Clouds 7 1003 75 10000 6.2 310 11:41 27.02.2020
2228 Clouds 8 1002 75 10000 7.2 320 11:21 27.02.2020
2229 Clouds 8 1002 75 10000 7.2 320 11:21 27.02.2020
2230 Rain 6 1002 86 10000 6.2 310 10:44 27.02.2020
2231 Clouds 7 1002 70 10000 7.7 290 10:23 27.02.2020
2232 Clouds 6 1001 75 10000 6.2 290 09:49 27.02.2020
2233 Clouds 6 1001 70 10000 10.3 290 09:29 27.02.2020
2234 Clouds 7 1001 65 10000 8.2 210 08:58 27.02.2020
2235 Clouds 7 1001 65 10000 8.2 210 08:58 27.02.2020
2236 Clouds 8 1001 65 10000 8.2 210 08:40 27.02.2020
2237 Rain 7 1000 70 10000 4.1 260 08:22 27.02.2020
2238 Clouds 9 1000 75 10000 6.7 200 07:44 27.02.2020
2239 Clouds 9 1000 75 10000 4.6 230 07:25 27.02.2020
2240 Clouds 8 999 75 10000 1.5 250 06:46 27.02.2020
2241 Clouds 8 999 43 10000 3.1 230 05:35 27.02.2020
2242 Clouds 8 999 53 10000 6.7 210 03:38 27.02.2020
2243 Clouds 9 1000 61 10000 6.7 210 02:20 27.02.2020
2244 Clouds 10 999 67 10000 4.1 10 00:45 27.02.2020
2245 Clouds 9 999 67 10000 3.1 360 00:25 27.02.2020
2246 Clouds 9 999 67 10000 2.6 0 23:39 26.02.2020
2247 Clouds 10 999 70 10000 3.6 100 23:19 26.02.2020
2248 Clouds 11 999 38 10000 7.2 130 22:57 26.02.2020
2249 Clouds 8 999 38 10000 7.2 130 22:38 26.02.2020
2250 Clouds 8 1000 70 10000 5.1 0 22:19 26.02.2020
2251 Clouds 8 1000 41 10000 6.2 140 21:55 26.02.2020
2252 Clouds 8 1000 41 10000 6.2 140 21:36 26.02.2020
2253 Clouds 8 1000 38 10000 5.7 140 21:18 26.02.2020
2254 Clear 8 1000 41 10000 4.6 160 20:54 26.02.2020
2255 Clear 8 1000 41 10000 4.6 160 20:54 26.02.2020
2256 Clear 9 1000 41 10000 4.6 160 20:36 26.02.2020
2257 Clear 9 1000 41 10000 4.6 160 20:36 26.02.2020
2258 Clouds 9 1000 41 10000 5.1 160 20:18 26.02.2020
2259 Clouds 9 1000 41 10000 5.7 160 19:44 26.02.2020
2260 Clouds 10 1000 38 10000 5.7 150 19:20 26.02.2020
2261 Clouds 10 1000 36 10000 5.7 170 18:57 26.02.2020
2262 Clouds 10 1000 36 10000 5.7 170 18:39 26.02.2020
2263 Clouds 9 1000 38 10000 4.1 170 18:20 26.02.2020
2264 Clouds 10 999 68 10000 5.1 160 17:41 26.02.2020
2265 Clouds 11 999 29 10000 4.1 180 17:21 26.02.2020
2266 Clouds 11 999 29 10000 3.1 200 16:57 26.02.2020
2267 Clouds 12 999 29 10000 3.1 200 16:39 26.02.2020
2268 Clouds 16 999 27 10000 4.6 210 16:20 26.02.2020
2269 Clouds 12 1000 27 10000 5.1 200 15:46 26.02.2020
2270 Clouds 12 1000 25 10000 7.7 170 15:28 26.02.2020
2271 Clouds 11 1000 25 10000 5.1 220 14:56 26.02.2020
2272 Clouds 12 1000 25 10000 5.1 220 14:37 26.02.2020
2273 Clouds 18 1000 25 10000 4.1 160 14:18 26.02.2020
2274 Clouds 18 1000 27 10000 3.1 0 13:42 26.02.2020
2275 Clouds 18 1001 25 10000 3.1 180 13:20 26.02.2020
2276 Clouds 18 1001 25 10000 5.7 190 12:39 26.02.2020
2277 Clouds 18 1001 22 10000 5.1 240 12:20 26.02.2020
2278 Clouds 15 1002 33 10000 1.5 0 11:56 26.02.2020
2279 Clouds 15 1002 33 10000 1.5 0 11:56 26.02.2020
2280 Clouds 15 1002 33 10000 1.5 0 11:38 26.02.2020
2281 Clouds 13 1003 47 10000 2.1 0 11:20 26.02.2020
2282 Clouds 12 1003 50 10000 2.6 360 10:41 26.02.2020
2283 Clouds 11 1004 50 10000 2.1 40 10:41 26.02.2020
2284 Clouds 11 1004 50 10000 2.1 40 10:22 26.02.2020
2285 Clouds 9 1004 53 10000 3.1 70 09:56 26.02.2020
2286 Clouds 10 1004 53 10000 3.1 70 09:38 26.02.2020
2287 Clouds 8 1005 46 10000 1.5 100 09:18 26.02.2020
2288 Clouds 6 1005 46 10000 2.1 140 08:38 26.02.2020
2289 Clouds 4 1005 65 10000 2.1 120 08:19 26.02.2020
2290 Clouds 3 1005 69 10000 2.1 110 07:50 26.02.2020
2291 Clouds 1 1005 74 10000 1.5 100 07:29 26.02.2020
2292 Clouds 2 1005 64 10000 1.5 130 06:54 26.02.2020
2293 Clouds 2 1005 69 10000 2.6 160 06:36 26.02.2020
2294 Clouds 2 1005 69 10000 2.6 160 06:18 26.02.2020
2295 Clouds 2 1005 64 10000 2.1 100 05:43 26.02.2020
2296 Clouds 1 1005 74 10000 2.6 100 04:49 26.02.2020
2297 Clouds 3 1007 60 10000 2.1 0 02:51 26.02.2020
2298 Clouds 4 1007 52 10000 2.1 40 01:49 26.02.2020
2299 Clouds 4 1007 56 10000 3.1 70 00:51 26.02.2020
2300 Clouds 5 1007 48 10000 2.1 40 00:27 26.02.2020
2301 Clouds 5 1007 48 10000 2.1 40 00:27 26.02.2020
2302 Clouds 5 1008 48 10000 2.1 70 23:57 25.02.2020
2303 Clouds 5 1008 48 10000 2.1 70 23:38 25.02.2020
2304 Clouds 5 1008 52 10000 1.5 20 23:20 25.02.2020
2305 Clouds 5 1009 52 10000 1.5 150 22:42 25.02.2020
2306 Clouds 6 1009 45 10000 4.1 80 22:20 25.02.2020
2307 Clouds 6 1009 45 10000 5.7 90 21:58 25.02.2020
2308 Clouds 6 1009 45 10000 5.7 100 21:37 25.02.2020
2309 Clouds 6 1009 45 10000 5.7 100 21:18 25.02.2020
2310 Clouds 6 1010 42 10000 4.6 80 20:55 25.02.2020
2311 Clouds 6 1010 42 10000 4.6 80 20:36 25.02.2020
2312 Clouds 6 1010 45 10000 6.7 80 20:18 25.02.2020
2313 Clouds 6 1010 42 10000 6.7 100 19:42 25.02.2020
2314 Clouds 7 1010 39 10000 7.7 90 19:20 25.02.2020
2315 Clouds 7 1010 42 10000 6.7 80 18:58 25.02.2020
2316 Clouds 7 1010 42 10000 6.7 80 18:38 25.02.2020
2317 Clouds 8 1010 39 10000 7.2 100 18:19 25.02.2020
2318 Clouds 9 1010 30 10000 7.7 90 17:38 25.02.2020
2319 Clouds 9 1010 30 10000 7.7 90 17:20 25.02.2020
2320 Clouds 10 1010 28 10000 7.2 90 16:59 25.02.2020
2321 Clouds 10 1010 28 10000 7.2 90 16:40 25.02.2020
2322 Clouds 11 1011 26 10000 7.7 100 16:22 25.02.2020
2323 Clouds 11 1010 25 10000 6.7 110 15:59 25.02.2020
2324 Clouds 12 1010 25 10000 6.7 110 15:41 25.02.2020
2325 Clouds 12 1011 25 10000 4.6 100 15:18 25.02.2020
2326 Clouds 11 1012 25 10000 2.1 100 14:57 25.02.2020
2327 Clouds 12 1012 25 10000 2.1 100 14:37 25.02.2020
2328 Clear 11 1012 24 10000 1 0 14:18 25.02.2020
2329 Clear 11 1012 24 10000 1 0 14:18 25.02.2020
2330 Clear 12 1012 26 10000 2.1 90 13:55 25.02.2020
2331 Clear 10 1013 28 10000 2.1 0 13:37 25.02.2020
2332 Clear 13 1013 28 10000 2.1 0 13:18 25.02.2020
2333 Clear 13 1015 29 10000 2.1 120 12:41 25.02.2020
2334 Clear 13 1015 29 10000 2.1 120 12:21 25.02.2020
2335 Clear 12 1015 31 10000 2.1 0 11:57 25.02.2020
2336 Clear 12 1015 31 10000 2.1 0 11:38 25.02.2020
2337 Clear 8 1016 36 10000 2.1 0 11:19 25.02.2020
2338 Clear 9 1017 42 10000 1 0 10:59 25.02.2020
2339 Clear 9 1017 42 10000 1 0 10:59 25.02.2020
2340 Clear 7 1017 42 10000 1 0 10:40 25.02.2020
2341 Clear 8 1017 48 10000 2.1 120 10:21 25.02.2020
2342 Clear 5 1018 55 10000 2.1 110 09:41 25.02.2020
2343 Clear 4 1019 64 10000 1 0 09:21 25.02.2020
2344 Clear 2 1019 69 10000 1.5 110 08:45 25.02.2020
2345 Clear 2 1019 69 10000 1.5 110 08:45 25.02.2020
2346 Clear 1 1019 80 10000 1 0 08:27 25.02.2020
2347 Clear 0 1019 79 10000 1 0 07:56 25.02.2020
2348 Clear -1 1019 79 10000 1 0 07:36 25.02.2020
2349 Clear -2 1019 86 10000 1.5 130 07:18 25.02.2020
2350 Clear -3 1020 85 10000 1.42 250 06:27 25.02.2020
2351 Clear -3 1020 85 10000 1 0 05:24 25.02.2020
2352 Clear -2 1020 85 10000 2.1 120 02:47 25.02.2020
2353 Clouds -1 1021 74 10000 1 0 01:28 25.02.2020
2354 Clouds -2 1021 74 10000 1.5 160 00:34 25.02.2020
2355 Clouds -1 1021 60 10000 3.1 160 23:59 24.02.2020
2356 Clouds 0 1021 60 10000 3.1 160 23:39 24.02.2020
2357 Clouds -1 1021 75 10000 2.1 40 23:19 24.02.2020
2358 Clouds 0 1021 59 10000 1.5 100 22:38 24.02.2020
2359 Clouds 2 1021 48 10000 3.6 280 22:19 24.02.2020
2360 Clouds 1 1021 51 10000 3.6 280 21:55 24.02.2020
2361 Clouds 1 1021 51 10000 3.6 280 21:37 24.02.2020
2362 Clouds 2 1021 48 10000 4.6 280 21:19 24.02.2020
2363 Clouds 2 1021 45 10000 4.1 290 20:55 24.02.2020
2364 Clouds 2 1021 45 10000 4.1 290 20:55 24.02.2020
2365 Clouds 2 1021 45 10000 4.1 290 20:37 24.02.2020
2366 Clouds 3 1021 42 10000 5.1 280 20:18 24.02.2020
2367 Clouds 2 1021 45 10000 5.1 280 19:55 24.02.2020
2368 Clouds 2 1021 45 10000 5.1 280 19:37 24.02.2020
2369 Clouds 3 1020 39 10000 4.6 280 19:19 24.02.2020
2370 Clouds 3 1020 36 10000 5.7 300 18:41 24.02.2020
2371 Clouds 3 1020 39 10000 6.2 300 18:23 24.02.2020
2372 Clouds 3 1020 34 10000 6.7 290 17:57 24.02.2020
2373 Clouds 4 1020 34 10000 6.7 290 17:38 24.02.2020
2374 Clouds 9 1019 34 10000 7.7 300 17:19 24.02.2020
2375 Clouds 10 1018 29 10000 9.3 290 16:55 24.02.2020
2376 Clouds 10 1018 29 10000 9.3 290 16:36 24.02.2020
2377 Clouds 11 1018 32 10000 8.7 290 16:18 24.02.2020
2378 Clouds 11 1018 32 10000 8.7 290 16:18 24.02.2020
2379 Clouds 10 1017 37 10000 9.8 280 15:55 24.02.2020
2380 Clouds 10 1017 37 10000 9.8 280 15:37 24.02.2020
2381 Clouds 5 1017 40 10000 8.7 290 15:18 24.02.2020
2382 Clouds 7 1017 40 10000 10.8 290 14:40 24.02.2020
2383 Clouds 13 1017 46 10000 11.3 290 14:22 24.02.2020
2384 Clouds 12 1017 53 10000 11.8 280 13:58 24.02.2020
2385 Clouds 12 1017 53 10000 11.8 280 13:58 24.02.2020
2386 Clouds 12 1017 53 10000 11.8 280 13:58 24.02.2020
2387 Clouds 12 1017 50 10000 9.3 280 13:39 24.02.2020
2388 Clouds 12 1017 50 10000 9.3 280 13:21 24.02.2020
2389 Clouds 13 1017 50 10000 9.3 280 12:57 24.02.2020
2390 Clouds 12 1017 50 10000 9.8 290 12:38 24.02.2020
2391 Clouds 12 1017 50 10000 9.8 290 12:20 24.02.2020
2392 Clouds 13 1017 46 10000 8.7 280 11:46 24.02.2020
2393 Clouds 13 1016 70 10000 11.3 280 11:28 24.02.2020
2394 Clouds 13 1016 37 10000 9.8 280 10:47 24.02.2020
2395 Rain 6 1016 40 10000 3.6 0 10:29 24.02.2020
2396 Clouds 7 1016 56 10000 2.1 50 09:54 24.02.2020
2397 Clouds 4 1016 56 10000 2.1 50 09:36 24.02.2020
2398 Rain 6 1015 60 10000 1 0 09:18 24.02.2020
2399 Rain 6 1015 69 10000 3.6 240 08:46 24.02.2020
2400 Rain 2 1015 80 10000 2.1 240 08:27 24.02.2020
2401 Clouds 4 1014 80 10000 1.5 160 07:46 24.02.2020
2402 Clouds 3 1014 80 10000 1.5 140 07:27 24.02.2020
2403 Clouds 3 1014 80 10000 1.5 190 06:37 24.02.2020
2404 Clouds 3 1013 74 10000 2.1 100 06:18 24.02.2020
2405 Clouds 2 1013 86 10000 2.1 130 05:30 24.02.2020
2406 Clouds 2 1013 86 10000 0.5 0 04:25 24.02.2020
2407 Clouds 2 1015 58 10000 3.07 262 02:55 24.02.2020
2408 Clouds 2 1015 74 10000 2.6 180 01:46 24.02.2020
2409 Clouds 1 1016 86 10000 3.1 100 00:59 24.02.2020
2410 Clouds 2 1016 74 10000 2.1 160 00:28 24.02.2020
2411 Clouds 1 1017 80 8000 2.1 190 23:59 23.02.2020
2412 Clouds 1 1017 80 8000 2.1 190 23:41 23.02.2020
2413 Clouds 1 1018 80 8000 3.1 180 23:19 23.02.2020
2414 Clouds 2 1018 74 8000 2.1 60 22:56 23.02.2020
2415 Clouds 2 1018 74 8000 2.1 60 22:37 23.02.2020
2416 Clouds 2 1018 80 8000 3.6 150 22:18 23.02.2020
2417 Clouds 2 1019 80 10000 1.5 140 21:45 23.02.2020
2418 Clouds 2 1019 74 10000 2.1 60 21:20 23.02.2020
2419 Clouds 3 1019 69 8000 1 0 20:57 23.02.2020
2420 Clouds 2 1019 69 8000 1 0 20:38 23.02.2020
2421 Clouds 3 1019 60 8000 1.5 160 20:20 23.02.2020
2422 Clouds 4 1020 60 10000 0.5 0 19:56 23.02.2020
2423 Clouds 4 1020 60 10000 0.5 0 19:38 23.02.2020
2424 Clouds 4 1020 60 10000 0.5 0 19:38 23.02.2020
2425 Clouds 4 1020 60 10000 1 70 19:18 23.02.2020
2426 Clouds 5 1020 56 10000 0.5 0 18:55 23.02.2020
2427 Clouds 5 1020 56 10000 0.5 0 18:36 23.02.2020
2428 Clouds 6 1020 48 10000 1.84 254 18:18 23.02.2020
2429 Clouds 6 1020 45 10000 1.5 140 17:56 23.02.2020
2430 Clouds 6 1020 45 10000 1.5 140 17:37 23.02.2020
2431 Clouds 7 1020 43 10000 1.5 180 17:18 23.02.2020
2432 Clouds 8 1020 37 10000 2.1 160 16:42 23.02.2020
2433 Clouds 9 1020 32 10000 1 0 16:24 23.02.2020
2434 Clouds 8 1021 32 10000 1 0 15:57 23.02.2020
2435 Clouds 8 1021 32 10000 1 0 15:38 23.02.2020
2436 Clouds 8 1021 32 10000 1 0 15:20 23.02.2020
2437 Clouds 11 1021 34 10000 1 0 14:55 23.02.2020
2438 Clouds 11 1021 34 10000 1 0 14:37 23.02.2020
2439 Clouds 11 1022 34 10000 1.5 340 14:19 23.02.2020
2440 Clouds 11 1023 32 10000 1.5 350 13:56 23.02.2020
2441 Clouds 10 1023 31 10000 2.1 300 13:38 23.02.2020
2442 Clouds 10 1023 31 10000 2.1 300 13:19 23.02.2020
2443 Clouds 10 1024 34 10000 3.1 290 12:41 23.02.2020
2444 Clouds 8 1025 45 10000 3.1 280 12:21 23.02.2020
2445 Clouds 9 1025 49 10000 1.5 250 11:39 23.02.2020
2446 Clouds 7 1025 56 10000 1.5 0 11:20 23.02.2020
2447 Clouds 6 1026 60 10000 1.5 0 10:59 23.02.2020
2448 Clouds 6 1026 60 10000 1.5 0 10:41 23.02.2020
2449 Clouds 5 1026 69 10000 1 0 10:23 23.02.2020
2450 Clouds 4 1026 69 10000 1.5 220 09:56 23.02.2020
2451 Clouds 3 1026 69 10000 1.5 220 09:38 23.02.2020
2452 Clouds 0 1027 74 10000 1.5 290 09:18 23.02.2020
2453 Clouds 2 1026 35 10000 1.5 290 08:46 23.02.2020
2454 Clouds 1 1027 86 10000 1.5 250 08:25 23.02.2020
2455 Clouds 0 1027 86 10000 2.1 270 07:47 23.02.2020
2456 Clouds -1 1026 86 10000 2.6 270 07:28 23.02.2020
2457 Clouds -2 1026 86 10000 1.5 340 06:25 23.02.2020
2458 Clouds -2 1026 86 10000 1.5 220 05:22 23.02.2020
2459 Clouds -2 1026 86 10000 1.23 271 04:23 23.02.2020
2460 Clouds -3 1028 86 10000 1 0 02:50 23.02.2020
2461 Clear -2 1028 89 10000 3.1 320 01:42 23.02.2020
2462 Clear -3 1028 74 10000 3.1 310 01:20 23.02.2020
2463 Clear -3 1028 74 10000 3.6 300 00:44 23.02.2020
2464 Clouds -2 1028 69 10000 5.1 290 00:22 23.02.2020
2465 Clouds -1 1029 64 10000 5.1 280 23:43 22.02.2020
2466 Clouds -2 1029 69 10000 5.1 280 23:24 22.02.2020
2467 Clouds -1 1029 64 10000 5.1 280 22:45 22.02.2020
2468 Clouds -1 1029 64 10000 5.1 280 22:20 22.02.2020
2469 Clouds -1 1029 64 10000 4.6 280 21:46 22.02.2020
2470 Clouds -1 1029 69 10000 4.1 280 21:28 22.02.2020
2471 Clouds -2 1029 69 10000 4.6 280 20:59 22.02.2020
2472 Clouds -1 1029 69 10000 4.6 280 20:40 22.02.2020
2473 Clouds 4 1029 69 10000 4.1 280 20:21 22.02.2020
2474 Clouds 4 1029 69 10000 3.1 290 19:43 22.02.2020
2475 Clouds -1 1029 69 10000 3.6 270 19:24 22.02.2020
2476 Clouds 0 1029 65 10000 3.6 290 18:57 22.02.2020
2477 Clouds 0 1029 65 10000 3.6 290 18:37 22.02.2020
2478 Clouds -1 1029 65 10000 3.1 280 18:19 22.02.2020
2479 Clouds -1 1028 65 10000 4.1 280 17:44 22.02.2020
2480 Clouds -1 1029 65 10000 5.1 290 17:26 22.02.2020
2481 Clouds 5 1028 65 10000 4.6 290 16:59 22.02.2020
2482 Clouds 5 1028 65 10000 4.6 290 16:40 22.02.2020
2483 Clouds 5 1028 65 10000 4.1 290 16:20 22.02.2020
2484 Clouds 6 1028 56 10000 2.6 300 15:55 22.02.2020
2485 Clouds 6 1028 56 10000 2.6 300 15:55 22.02.2020
2486 Clouds 6 1028 56 10000 2.6 300 15:37 22.02.2020
2487 Clouds 6 1028 60 10000 2.1 320 15:19 22.02.2020
2488 Clouds 6 1028 56 10000 4.1 280 14:41 22.02.2020
2489 Clouds 6 1028 56 10000 3.6 290 14:21 22.02.2020
2490 Clouds 6 1028 56 10000 2.1 310 13:43 22.02.2020
2491 Clouds 6 1028 48 10000 3.1 290 13:20 22.02.2020
2492 Clouds 5 1028 56 10000 3.1 320 12:58 22.02.2020
2493 Clouds 6 1028 56 10000 3.1 320 12:39 22.02.2020
2494 Clouds 5 1028 56 10000 3.6 270 12:20 22.02.2020
2495 Clouds 6 1028 60 10000 4.1 290 11:42 22.02.2020
2496 Clouds 5 1028 69 10000 3.6 280 11:24 22.02.2020
2497 Clouds 4 1028 74 10000 4.1 280 10:42 22.02.2020
2498 Clouds 2 1028 80 10000 4.6 280 10:21 22.02.2020
2499 Clouds 2 1027 80 10000 5.7 270 09:59 22.02.2020
2500 Clouds 3 1027 80 10000 5.7 270 09:41 22.02.2020
2501 Clouds 3 1027 74 10000 5.1 280 09:22 22.02.2020
2502 Clouds 3 1026 80 10000 5.1 270 08:55 22.02.2020
2503 Clouds 2 1026 80 10000 4.6 280 08:28 22.02.2020
2504 Clouds 1 1026 80 10000 5.1 290 07:58 22.02.2020
2505 Clouds 1 1026 80 10000 5.1 290 07:38 22.02.2020
2506 Clouds -2 1025 80 10000 5.1 280 07:18 22.02.2020
2507 Clouds -2 1025 80 10000 5.1 280 06:43 22.02.2020
2508 Clouds -1 1024 74 10000 5.7 290 04:45 22.02.2020
2509 Clouds 2 1023 74 10000 4.6 290 03:52 22.02.2020
2510 Clouds 2 1023 74 10000 5.1 290 02:38 22.02.2020
2511 Clouds 2 1023 80 10000 5.7 280 01:48 22.02.2020
2512 Clouds 2 1023 80 10000 6.2 280 01:29 22.02.2020
2513 Clouds 2 1023 96 10000 4.6 280 00:48 22.02.2020
2514 Rain 2 1023 96 10000 6.2 280 00:29 22.02.2020
2515 Rain 2 1023 96 10000 5.1 280 23:53 21.02.2020
2516 Clouds 2 1024 96 10000 5.7 280 23:25 21.02.2020
2517 Clouds 3 1023 74 10000 7.2 290 22:58 21.02.2020
2518 Clouds 3 1023 74 10000 7.2 290 22:39 21.02.2020
2519 Clouds 4 1023 64 10000 5.7 290 22:21 21.02.2020
2520 Clouds 4 1023 64 10000 6.7 290 21:42 21.02.2020
2521 Clouds 3 1023 64 10000 8.2 290 21:24 21.02.2020
2522 Clouds 4 1022 69 10000 3.6 280 20:56 21.02.2020
2523 Clouds 4 1022 69 10000 3.6 280 20:38 21.02.2020
2524 Clouds 3 1022 64 10000 3.6 280 20:19 21.02.2020
2525 Clouds 4 1022 60 10000 5.1 280 19:39 21.02.2020
2526 Clouds 4 1022 60 10000 5.1 280 19:39 21.02.2020
2527 Clouds 3 1021 64 10000 5.1 280 19:19 21.02.2020
2528 Clouds 1 1021 60 10000 5.7 280 18:42 21.02.2020
2529 Clouds 0 1021 64 10000 4.1 280 18:22 21.02.2020
2530 Clouds 1 1020 52 10000 4.1 280 17:56 21.02.2020
2531 Clouds 1 1020 52 10000 4.1 280 17:36 21.02.2020
2532 Clouds 5 1020 52 10000 5.1 280 17:18 21.02.2020
2533 Clouds 6 1021 52 10000 3.1 290 16:41 21.02.2020
2534 Clouds 7 1020 52 10000 3.6 260 16:21 21.02.2020
2535 Clouds 7 1020 52 10000 3.6 280 15:57 21.02.2020
2536 Clouds 7 1021 52 10000 4.1 290 15:38 21.02.2020
2537 Clouds 7 1020 52 10000 3.6 280 15:38 21.02.2020
2538 Clouds 7 1021 52 10000 4.1 290 15:18 21.02.2020
2539 Clouds 7 1020 56 10000 3.1 290 14:42 21.02.2020
2540 Clouds 7 1020 52 10000 3.1 300 14:20 21.02.2020
2541 Clouds 6 1020 60 10000 3.1 310 13:45 21.02.2020
2542 Clouds 6 1021 60 10000 5.1 300 13:24 21.02.2020
2543 Clouds 6 1021 60 10000 3.6 300 12:56 21.02.2020
2544 Clouds 6 1021 65 10000 2.6 300 12:37 21.02.2020
2545 Clouds 6 1021 65 10000 2.6 300 12:19 21.02.2020
2546 Clouds 7 1021 60 10000 2.6 310 11:42 21.02.2020
2547 Clouds 5 1022 73 10000 3.1 270 11:23 21.02.2020
2548 Clouds 4 1022 73 10000 2.6 300 10:57 21.02.2020
2549 Clouds 4 1022 73 10000 2.6 300 10:39 21.02.2020
2550 Clouds 0 1022 73 10000 3.1 270 10:19 21.02.2020
2551 Clouds 4 1022 74 10000 3.6 280 09:57 21.02.2020
2552 Clouds 1 1022 74 10000 3.6 280 09:38 21.02.2020
2553 Clouds 1 1022 73 10000 3.6 280 09:19 21.02.2020
2554 Clouds 3 1022 80 10000 3.6 290 08:43 21.02.2020
2555 Clouds 2 1022 73 10000 3.1 290 08:22 21.02.2020
2556 Clouds 2 1022 80 10000 3.6 280 07:59 21.02.2020
2557 Clouds 2 1022 80 10000 3.6 280 07:40 21.02.2020
2558 Clouds -1 1021 80 10000 2.1 290 07:19 21.02.2020
2559 Clouds -1 1021 92 10000 3.1 280 06:52 21.02.2020
2560 Clouds -1 1021 92 10000 2.6 270 06:30 21.02.2020
2561 Clouds -1 1021 92 10000 3.1 280 05:43 21.02.2020
2562 Clouds -1 1021 95 10000 3.6 280 04:36 21.02.2020
2563 Clouds -1 1021 95 10000 3.1 290 04:18 21.02.2020
2564 Clouds -1 1021 95 10000 3.1 290 04:18 21.02.2020
2565 Clouds -2 1020 95 10000 2.6 280 03:31 21.02.2020
2566 Clouds -1 1020 95 10000 4.1 270 01:51 21.02.2020
2567 Clouds -2 1020 95 10000 3.6 270 01:24 21.02.2020
2568 Rain -1 1020 95 9000 4.1 280 00:45 21.02.2020
2569 Rain -2 1020 95 10000 5.1 270 00:22 21.02.2020
2570 Rain 1 1020 95 10000 5.7 270 23:44 20.02.2020
2571 Rain 2 1020 95 10000 4.6 270 23:23 20.02.2020
2572 Rain 2 1020 95 10000 5.1 270 22:56 20.02.2020
2573 Rain 1 1020 95 10000 5.1 270 22:37 20.02.2020
2574 Rain 1 1020 95 10000 5.1 270 22:18 20.02.2020
2575 Rain 1 1020 95 10000 5.7 270 21:55 20.02.2020
2576 Rain 1 1020 95 10000 5.7 270 21:36 20.02.2020
2577 Rain 1 1020 95 9000 5.1 280 21:18 20.02.2020
2578 Rain 2 1020 95 10000 5.1 280 20:54 20.02.2020
2579 Rain 2 1020 95 10000 5.1 280 20:54 20.02.2020
2580 Rain 2 1020 95 10000 5.1 280 20:36 20.02.2020
2581 Rain 2 1020 97 10000 6.2 280 20:18 20.02.2020
2582 Rain 2 1020 97 10000 6.2 280 20:18 20.02.2020
2583 Rain 2 1020 97 10000 5.7 280 19:42 20.02.2020
2584 Rain 3 1019 97 10000 5.7 280 19:24 20.02.2020
2585 Rain 2 1019 97 10000 5.7 280 19:24 20.02.2020
2586 Rain 3 1019 97 10000 6.7 290 18:58 20.02.2020
2587 Rain 2 1019 97 10000 6.7 290 18:37 20.02.2020
2588 Clouds 3 1019 97 10000 6.2 290 18:19 20.02.2020
2589 Clouds 3 1019 86 10000 5.7 280 17:40 20.02.2020
2590 Rain 3 1018 86 10000 5.7 280 17:22 20.02.2020
2591 Rain 3 1018 86 10000 4.6 280 16:58 20.02.2020
2592 Rain 3 1018 86 10000 4.6 280 16:39 20.02.2020
2593 Rain 3 1018 86 10000 4.1 280 16:19 20.02.2020
2594 Rain 3 1018 86 10000 4.1 290 15:56 20.02.2020
2595 Rain 3 1018 86 10000 4.1 290 15:38 20.02.2020
2596 Rain 4 1017 86 10000 4.6 280 15:19 20.02.2020
2597 Rain 4 1017 80 10000 4.6 290 14:44 20.02.2020
2598 Rain 4 1017 86 10000 4.6 290 14:25 20.02.2020
2599 Rain 4 1017 86 10000 4.6 280 13:59 20.02.2020
2600 Rain 4 1017 86 10000 4.6 280 13:41 20.02.2020
2601 Rain 4 1017 86 10000 6.2 280 13:19 20.02.2020
2602 Rain 4 1017 86 10000 6.2 280 13:19 20.02.2020
2603 Rain 4 1016 86 10000 6.2 280 12:43 20.02.2020
2604 Clouds 4 1016 86 10000 5.7 290 12:21 20.02.2020
2605 Clouds 4 1017 80 10000 6.7 290 11:59 20.02.2020
2606 Clouds 5 1017 80 10000 6.7 290 11:41 20.02.2020
2607 Clouds 5 1016 86 10000 6.2 280 11:22 20.02.2020
2608 Rain 5 1016 86 10000 6.2 280 10:57 20.02.2020
2609 Rain 5 1016 86 8000 4.6 290 10:38 20.02.2020
2610 Rain 5 1016 86 8000 4.6 290 10:20 20.02.2020
2611 Rain 5 1016 86 8000 3.6 290 09:42 20.02.2020
2612 Rain 5 1016 93 6000 3.6 290 09:23 20.02.2020
2613 Rain 5 1015 86 6000 4.1 280 08:44 20.02.2020
2614 Rain 5 1015 93 6000 2.1 290 08:25 20.02.2020
2615 Rain 4 1015 93 7000 2.6 290 07:56 20.02.2020
2616 Rain 4 1015 93 7000 2.6 290 07:38 20.02.2020
2617 Clouds 4 1014 86 8000 2.6 290 07:19 20.02.2020
2618 Clouds 4 1014 93 6000 3.6 310 06:43 20.02.2020
2619 Clouds 4 1014 93 8000 2.1 310 06:19 20.02.2020
2620 Clouds 4 1014 93 8000 1.5 330 05:42 20.02.2020
2621 Rain 5 1014 93 8000 1.5 230 04:49 20.02.2020
2622 Rain 5 1014 93 7000 0.5 0 03:47 20.02.2020
2623 Clouds 2 1014 93 7000 1 0 02:48 20.02.2020
2624 Mist 2 1014 93 5000 1 0 01:33 20.02.2020
2625 Clouds 3 1015 86 7000 1.5 310 00:47 20.02.2020
2626 Rain 3 1015 86 7000 1 310 00:25 20.02.2020
2627 Clouds 3 1015 86 8000 0.5 0 23:48 19.02.2020
2628 Clouds 6 1015 86 9000 1.5 300 23:19 19.02.2020
2629 Rain 6 1015 86 8000 0.5 0 22:43 19.02.2020
2630 Rain 6 1016 86 7000 2.1 280 22:25 19.02.2020
2631 Rain 6 1016 86 9000 2.1 280 21:59 19.02.2020
2632 Rain 6 1016 86 9000 2.1 280 21:40 19.02.2020
2633 Rain 6 1016 75 10000 2.1 280 21:19 19.02.2020
2634 Clouds 6 1016 70 10000 2.1 280 20:57 19.02.2020
2635 Clouds 6 1016 70 10000 2.1 280 20:57 19.02.2020
2636 Clouds 7 1016 65 10000 3.1 280 20:38 19.02.2020
2637 Clouds 7 1016 65 10000 3.1 280 20:38 19.02.2020
2638 Clouds 4 1016 65 10000 3.1 280 20:19 19.02.2020
2639 Clouds 4 1016 65 10000 3.6 280 19:57 19.02.2020
2640 Clouds 5 1016 65 10000 3.6 280 19:38 19.02.2020
2641 Clouds 4 1016 70 10000 3.6 280 19:19 19.02.2020
2642 Clouds 4 1016 70 10000 3.1 270 18:57 19.02.2020
2643 Clouds 5 1016 70 10000 3.1 270 18:39 19.02.2020
2644 Rain 5 1016 70 10000 2.6 280 18:21 19.02.2020
2645 Clouds 4 1016 61 10000 2.6 290 17:44 19.02.2020
2646 Clouds 9 1016 61 10000 2.6 300 17:20 19.02.2020
2647 Clouds 9 1016 57 10000 2.6 310 16:59 19.02.2020
2648 Clouds 9 1016 57 10000 2.6 310 16:41 19.02.2020
2649 Clouds 9 1016 61 10000 2.6 290 16:18 19.02.2020
2650 Clouds 9 1016 61 10000 2.6 300 15:43 19.02.2020
2651 Clouds 10 1016 61 10000 1.5 310 15:25 19.02.2020
2652 Clouds 10 1016 61 10000 2.1 300 14:58 19.02.2020
2653 Clouds 10 1016 61 10000 2.1 300 14:40 19.02.2020
2654 Clouds 10 1017 61 10000 2.1 310 14:21 19.02.2020
2655 Clouds 10 1017 61 10000 2.6 300 13:42 19.02.2020
2656 Clouds 10 1017 61 10000 2.6 300 13:22 19.02.2020
2657 Clouds 10 1018 61 10000 2.6 300 12:55 19.02.2020
2658 Clouds 10 1018 61 10000 2.6 300 12:37 19.02.2020
2659 Clouds 11 1018 61 10000 2.6 310 12:18 19.02.2020
2660 Clouds 10 1019 61 10000 3.1 290 11:38 19.02.2020
2661 Clouds 9 1019 61 10000 3.6 280 11:20 19.02.2020
2662 Clouds 8 1019 65 10000 3.6 290 10:58 19.02.2020
2663 Clouds 9 1019 65 10000 3.6 290 10:38 19.02.2020
2664 Clouds 7 1019 65 10000 3.6 300 10:20 19.02.2020
2665 Clouds 6 1020 70 10000 4.1 300 09:58 19.02.2020
2666 Clouds 7 1020 70 10000 4.1 300 09:38 19.02.2020
2667 Clouds 6 1020 75 10000 3.6 290 09:19 19.02.2020
2668 Clouds 5 1020 81 9000 2.1 320 08:46 19.02.2020
2669 Clouds 4 1020 86 6000 0.5 0 08:24 19.02.2020
2670 Mist 2 1020 93 5000 1 0 07:46 19.02.2020
2671 Mist 1 1020 93 5000 1.5 100 07:26 19.02.2020
2672 Mist 2 1020 86 5000 1.5 80 06:57 19.02.2020
2673 Clouds 2 1020 80 8000 1 0 06:34 19.02.2020
2674 Clouds 2 1021 80 10000 5.1 280 04:28 19.02.2020
2675 Clouds 3 1021 80 10000 6.2 280 03:20 19.02.2020
2676 Clouds 3 1021 75 10000 5.1 280 02:32 19.02.2020
2677 Clouds 3 1021 80 10000 5.7 270 01:25 19.02.2020
2678 Clouds 3 1021 80 10000 5.7 270 00:51 19.02.2020
2679 Clouds 3 1021 80 10000 5.7 270 00:32 19.02.2020
2680 Clouds 4 1021 81 10000 5.1 280 23:56 18.02.2020
2681 Clouds 4 1021 81 10000 5.1 280 23:37 18.02.2020
2682 Clouds 4 1021 81 10000 6.2 270 23:19 18.02.2020
2683 Clouds 4 1021 75 10000 5.7 280 22:43 18.02.2020
2684 Clouds 4 1021 81 10000 6.2 270 22:20 18.02.2020
2685 Clouds 4 1021 75 10000 6.2 280 21:58 18.02.2020
2686 Clouds 5 1021 75 10000 6.2 280 21:38 18.02.2020
2687 Clouds 5 1021 75 10000 6.2 280 21:38 18.02.2020
2688 Clouds 5 1021 75 10000 6.7 280 21:19 18.02.2020
2689 Clouds 5 1021 70 10000 6.7 280 20:58 18.02.2020
2690 Clouds 5 1021 70 10000 6.7 280 20:38 18.02.2020
2691 Clouds 6 1021 66 10000 6.7 280 20:20 18.02.2020
2692 Clouds 6 1020 66 10000 7.7 280 19:55 18.02.2020
2693 Clouds 6 1020 66 10000 7.7 280 19:36 18.02.2020
2694 Clouds 5 1020 61 10000 7.2 280 19:18 18.02.2020
2695 Clouds 6 1020 61 10000 6.7 280 18:41 18.02.2020
2696 Clouds 7 1020 61 10000 6.2 280 18:20 18.02.2020
2697 Clouds 7 1020 57 10000 7.2 290 17:57 18.02.2020
2698 Clouds 7 1020 57 10000 7.2 290 17:38 18.02.2020
2699 Clouds 8 1019 50 10000 5.7 290 17:18 18.02.2020
2700 Clouds 8 1019 47 10000 8.2 290 16:39 18.02.2020
2701 Clouds 8 1019 44 10000 7.2 290 16:20 18.02.2020
2702 Clouds 12 1018 38 10000 9.3 280 15:41 18.02.2020
2703 Clouds 13 1018 38 10000 8.7 290 15:20 18.02.2020
2704 Clouds 14 1018 33 10000 7.7 290 14:57 18.02.2020
2705 Clouds 14 1018 33 10000 7.7 290 14:39 18.02.2020
2706 Clear 14 1018 43 10000 6.2 280 14:20 18.02.2020
2707 Clear 13 1018 43 10000 5.1 280 13:42 18.02.2020
2708 Clear 12 1019 42 10000 4.6 290 13:24 18.02.2020
2709 Clear 11 1019 42 10000 5.1 290 12:59 18.02.2020
2710 Clear 12 1019 42 10000 5.1 290 12:41 18.02.2020
2711 Clear 11 1019 47 10000 1 0 12:22 18.02.2020
2712 Clear 10 1020 50 9000 1.5 10 11:55 18.02.2020
2713 Clear 9 1021 57 8000 1 0 11:37 18.02.2020
2714 Clear 10 1020 50 9000 1.5 10 11:37 18.02.2020
2715 Clear 8 1021 57 8000 1 0 11:18 18.02.2020
2716 Clear 7 1021 61 7000 1.5 0 10:41 18.02.2020
2717 Clear 8 1021 44 8000 1.5 310 10:18 18.02.2020
2718 Clear 7 1021 44 8000 1.5 310 09:56 18.02.2020
2719 Clear 6 1021 74 8000 1 0 09:37 18.02.2020
2720 Clear 6 1021 74 8000 1 0 09:19 18.02.2020
2721 Clear 5 1021 44 8000 0.5 0 08:43 18.02.2020
2722 Clouds 1 1021 80 7000 1.33 283 08:21 18.02.2020
2723 Mist 1 1021 54 5000 0.5 0 07:58 18.02.2020
2724 Mist 1 1021 54 5000 0.5 0 07:36 18.02.2020
2725 Mist 0 1021 92 5000 1 0 07:18 18.02.2020
2726 Clear 1 1021 92 7000 1.25 286 06:41 18.02.2020
2727 Clear 1 1021 92 7000 1.25 286 06:21 18.02.2020
2728 Clear 1 1021 92 7000 1 0 05:46 18.02.2020
2729 Mist 2 1021 92 5000 2.1 110 04:40 18.02.2020
2730 Mist -1 1021 100 5000 1.18 267 03:36 18.02.2020
2731 Clear -1 1021 92 6000 0.5 0 02:38 18.02.2020
2732 Clouds 0 1022 59 9000 0.5 0 01:21 18.02.2020
2733 Clouds 2 1022 86 10000 1.36 252 00:22 18.02.2020
2734 Clouds 1 1022 80 10000 1.36 252 23:57 17.02.2020
2735 Clouds 3 1022 80 10000 1.36 252 23:38 17.02.2020
2736 Clouds 3 1023 61 10000 2.1 100 23:19 17.02.2020
2737 Clouds 3 1023 61 10000 1 0 22:41 17.02.2020
2738 Clouds 3 1023 61 10000 1.5 120 22:21 17.02.2020
2739 Clouds 4 1023 61 10000 2.1 100 21:59 17.02.2020
2740 Clouds 5 1023 61 10000 2.1 100 21:38 17.02.2020
2741 Clouds 4 1023 61 10000 2.1 100 21:18 17.02.2020
2742 Clouds 4 1023 61 10000 2.1 100 21:18 17.02.2020
2743 Clouds 5 1023 61 10000 1.5 0 20:42 17.02.2020
2744 Clouds 5 1023 65 10000 0.5 0 20:21 17.02.2020
2745 Clear 5 1023 72 10000 0.5 0 20:21 17.02.2020
2746 Clouds 5 1023 72 9000 2.6 130 19:58 17.02.2020
2747 Clouds 5 1023 72 9000 2.6 130 19:38 17.02.2020
2748 Clouds 5 1023 75 6000 1 0 19:20 17.02.2020
2749 Clouds 5 1023 75 6000 1 0 19:20 17.02.2020
2750 Clouds 6 1023 70 9000 2.1 120 18:38 17.02.2020
2751 Clouds 6 1023 70 9000 2.1 120 18:38 17.02.2020
2752 Clouds 7 1023 61 9000 1.5 110 18:19 17.02.2020
2753 Clouds 8 1023 72 8000 1 0 17:58 17.02.2020
2754 Clouds 8 1023 72 8000 1 0 17:58 17.02.2020
2755 Clouds 8 1023 72 8000 1 0 17:37 17.02.2020
2756 Clear 9 1023 53 10000 1.5 170 17:19 17.02.2020
2757 Clear 8 1023 53 10000 1.5 170 17:19 17.02.2020
2758 Clear 10 1023 62 10000 0.5 100 16:55 17.02.2020
2759 Clear 10 1023 62 10000 0.5 100 16:36 17.02.2020
2760 Clear 10 1023 62 10000 1.5 90 16:18 17.02.2020
2761 Clear 11 1023 62 10000 1.5 80 15:44 17.02.2020
2762 Clear 10 1023 62 10000 1.5 80 15:26 17.02.2020
2763 Clear 10 1024 62 10000 2.1 0 14:55 17.02.2020
2764 Clear 10 1024 62 10000 2.1 0 14:37 17.02.2020
2765 Clouds 10 1024 45 10000 1 0 14:19 17.02.2020
2766 Clouds 10 1025 46 10000 1 0 13:40 17.02.2020
2767 Clouds 10 1025 43 10000 1 0 13:20 17.02.2020
2768 Clouds 10 1026 49 10000 1.5 0 12:56 17.02.2020
2769 Clouds 9 1026 52 10000 1.5 0 12:38 17.02.2020
2770 Clouds 9 1026 52 10000 1.5 0 12:19 17.02.2020
2771 Clouds 9 1027 43 10000 1 0 11:45 17.02.2020
2772 Clouds 9 1027 56 10000 1 0 11:26 17.02.2020
2773 Clear 7 1028 65 10000 1 0 10:57 17.02.2020
2774 Clear 7 1028 65 10000 1 0 10:39 17.02.2020
2775 Clear 7 1028 69 8000 1 0 10:20 17.02.2020
2776 Clear 6 1028 80 8000 1.5 160 09:56 17.02.2020
2777 Clear 5 1029 80 7000 0.22 139 09:37 17.02.2020
2778 Clear 3 1029 80 7000 0.22 139 09:18 17.02.2020
2779 Mist 1 1029 92 5000 1 0 08:42 17.02.2020
2780 Mist 1 1029 92 5000 1 0 08:23 17.02.2020
2781 Mist 0 1029 92 4500 1 100 07:57 17.02.2020
2782 Mist 0 1029 92 4500 1.5 90 07:27 17.02.2020
2783 Mist -4 1029 92 5000 1.5 110 06:56 17.02.2020
2784 Clear -1 1029 92 7000 1 0 06:37 17.02.2020
2785 Clear -2 1029 92 7000 1 0 06:18 17.02.2020
2786 Clear -1 1029 92 7000 0.71 232 05:39 17.02.2020
2787 Clear -3 1029 92 7000 1 0 03:55 17.02.2020
2788 Clear -3 1030 86 8000 2.6 270 02:37 17.02.2020
2789 Clear -1 1031 86 10000 2.6 180 00:59 17.02.2020
2790 Clear -1 1031 77 10000 3.1 190 00:25 17.02.2020
2791 Clear 0 1031 77 10000 1.5 310 23:56 16.02.2020
2792 Clear 0 1031 77 10000 1.5 310 23:36 16.02.2020
2793 Clear 0 1030 74 10000 1 0 23:18 16.02.2020
2794 Clear 1 1030 74 10000 2.1 160 22:54 16.02.2020
2795 Clear 0 1030 74 10000 2.1 160 22:36 16.02.2020
2796 Clear 1 1031 69 10000 2.6 150 22:18 16.02.2020
2797 Clear 1 1031 69 10000 2.6 150 22:18 16.02.2020
2798 Clear 1 1031 74 10000 3.1 150 21:42 16.02.2020
2799 Clear 1 1030 69 10000 3.1 150 21:24 16.02.2020
2800 Clear 1 1031 69 10000 1.5 140 20:58 16.02.2020
2801 Clear 1 1031 69 10000 1.5 140 20:40 16.02.2020
2802 Clear 1 1031 69 10000 1.5 140 20:40 16.02.2020
2803 Clear 1 1031 69 10000 1.5 140 20:40 16.02.2020
2804 Clear 1 1031 69 10000 1.5 140 20:40 16.02.2020
2805 Clear 1 1031 69 10000 1.5 140 20:40 16.02.2020
2806 Clear 2 1030 64 10000 2.6 100 20:22 16.02.2020
2807 Clear 2 1030 64 10000 3.6 100 19:59 16.02.2020
2808 Clear 2 1030 64 10000 2.6 80 19:40 16.02.2020
2809 Clear 2 1030 64 10000 2.6 80 19:19 16.02.2020
2810 Clear 2 1030 64 10000 2.6 80 19:19 16.02.2020
2811 Clear 3 1030 60 10000 2.1 170 18:58 16.02.2020
2812 Clear 3 1030 60 10000 2.1 170 18:40 16.02.2020
2813 Clear 3 1030 60 10000 3.1 0 18:21 16.02.2020
2814 Clear 3 1030 65 10000 3.1 130 17:43 16.02.2020
2815 Clear 3 1029 52 10000 3.1 120 17:20 16.02.2020
2816 -273 0 0 0 0 0 16:56 16.02.2020
2817 Clear 5 1029 45 10000 2.6 100 16:38 16.02.2020
2818 Clear 5 1029 43 10000 3.1 110 16:19 16.02.2020
2819 Clear 5 1029 43 10000 2.1 80 15:42 16.02.2020
2820 Clear 5 1029 40 10000 2.6 90 15:23 16.02.2020
2821 Clear 4 1029 43 10000 3.1 90 14:57 16.02.2020
2822 Clear 4 1030 46 10000 4.1 100 14:38 16.02.2020
2823 Clouds 10 1030 46 10000 4.1 100 14:19 16.02.2020
2824 Clouds 10 1030 46 10000 3.1 80 13:45 16.02.2020
2825 Clear 10 1030 46 10000 3.1 100 13:23 16.02.2020
2826 Clear 10 1030 49 10000 3.6 130 12:42 16.02.2020
2827 Clear 6 1030 63 10000 3.1 130 12:20 16.02.2020
2828 Clouds 7 1031 61 10000 2.1 110 11:59 16.02.2020
2829 Clouds 8 1031 61 10000 2.1 110 11:37 16.02.2020
2830 Clouds 7 1031 65 10000 2.1 100 11:18 16.02.2020
2831 Clouds 2 1032 75 10000 1.5 340 10:56 16.02.2020
2832 Clouds 3 1032 75 10000 1.5 340 10:37 16.02.2020
2833 Clouds 3 1032 75 10000 1.5 340 10:37 16.02.2020
2834 Clouds 2 1032 69 9000 1.5 350 10:19 16.02.2020
2835 Clouds 2 1032 74 8000 0.5 0 09:39 16.02.2020
2836 Clouds 0 1032 86 6000 1 0 09:21 16.02.2020
2837 Clouds 0 1032 86 6000 1 0 08:59 16.02.2020
2838 Clouds 0 1032 86 6000 1 0 08:40 16.02.2020
2839 Clear -1 1031 91 6000 1 0 08:20 16.02.2020
2840 Mist -2 1031 92 5000 1 0 07:44 16.02.2020
2841 Mist -3 1031 100 4500 0.62 154 07:25 16.02.2020
2842 Mist -3 1030 92 4000 2.1 90 06:32 16.02.2020
2843 Mist -3 1030 92 4000 2.1 90 06:32 16.02.2020
2844 Mist -3 1030 92 5000 2.1 130 04:38 16.02.2020
2845 Mist -3 1030 92 4000 1 90 03:24 16.02.2020
2846 Clear -3 1030 92 6000 1 0 02:27 16.02.2020
2847 Clouds -3 1030 92 7000 0.5 0 01:40 16.02.2020
2848 Clouds -2 1029 94 7000 1 0 01:21 16.02.2020
2849 Clouds -2 1029 94 7000 1.5 230 00:51 16.02.2020
2850 Clouds -2 1029 94 6000 1.5 260 00:28 16.02.2020
2851 Clouds -2 1029 94 6000 0.5 0 23:44 15.02.2020
2852 Clouds -2 1029 86 6000 2.1 90 23:26 15.02.2020
2853 Clouds -1 1029 94 8000 1.5 300 22:59 15.02.2020
2854 Clouds 0 1029 94 8000 1.5 300 22:40 15.02.2020
2855 Clouds 0 1029 94 8000 1 280 22:21 15.02.2020
2856 Clouds 0 1029 80 8000 1.5 0 21:56 15.02.2020
2857 Clouds 1 1029 80 8000 1.5 0 21:37 15.02.2020
2858 Clouds 1 1029 75 9000 2.1 330 21:19 15.02.2020
2859 Clouds 0 1029 75 9000 1.5 350 20:39 15.02.2020
2860 Clouds 0 1028 75 10000 1.5 300 20:39 15.02.2020
2861 Clouds 1 1028 75 10000 1.5 300 20:21 15.02.2020
2862 Clouds 1 1028 75 10000 1.5 300 20:21 15.02.2020
2863 Clouds 2 1028 70 10000 1 0 19:44 15.02.2020
2864 Clouds 1 1028 70 10000 1 0 19:22 15.02.2020
2865 Clouds 1 1028 70 10000 1.5 10 18:44 15.02.2020
2866 Clouds 1 1027 75 10000 1.5 30 18:23 15.02.2020
2867 Clouds 7 1027 65 10000 1.5 60 17:58 15.02.2020
2868 Clouds 7 1026 65 10000 1.5 90 17:38 15.02.2020
2869 Clouds 7 1026 65 10000 1.5 90 17:20 15.02.2020
2870 Clouds 3 1026 90 10000 1 0 16:43 15.02.2020
2871 Clouds 3 1026 65 10000 1 0 16:24 15.02.2020
2872 Clouds 7 1026 65 10000 1.5 310 15:58 15.02.2020
2873 Clouds 7 1026 65 10000 1.5 310 15:40 15.02.2020
2874 Clouds 7 1026 65 10000 1.5 310 15:40 15.02.2020
2875 Clouds 8 1026 90 10000 2.1 330 15:22 15.02.2020
2876 Clouds 8 1025 90 10000 1.5 290 14:45 15.02.2020
2877 Clouds 8 1025 82 10000 1.5 290 14:19 15.02.2020
2878 Clouds 7 1025 82 10000 1.5 340 13:56 15.02.2020
2879 Clouds 8 1025 82 10000 2.6 350 13:37 15.02.2020
2880 Clouds 8 1025 79 10000 2.6 350 13:19 15.02.2020
2881 Clouds 8 1025 65 10000 3.1 310 12:42 15.02.2020
2882 Clouds 7 1024 65 10000 3.6 280 12:23 15.02.2020
2883 Clouds 7 1024 65 10000 3.6 290 11:49 15.02.2020
2884 Clouds 7 1024 65 10000 3.6 290 11:49 15.02.2020
2885 Clouds 7 1024 65 10000 4.6 290 11:30 15.02.2020
2886 Clouds 6 1024 75 10000 5.1 290 10:56 15.02.2020
2887 Clouds 6 1024 75 10000 5.1 290 10:37 15.02.2020
2888 Clouds 6 1024 75 10000 5.1 290 10:37 15.02.2020
2889 Clouds 6 1024 75 10000 4.6 280 10:18 15.02.2020
2890 Clouds 6 1024 75 10000 4.6 280 09:41 15.02.2020
2891 Clouds 6 1024 81 10000 5.7 260 09:23 15.02.2020
2892 Clouds 5 1024 80 10000 5.1 270 08:44 15.02.2020
2893 Clouds 5 1024 86 10000 4.1 280 08:25 15.02.2020
2894 Clouds 4 1023 86 10000 3.1 270 07:59 15.02.2020
2895 Clouds 4 1023 86 10000 4.1 280 07:38 15.02.2020
2896 Clouds 4 1023 86 10000 4.1 280 07:18 15.02.2020
2897 Clouds 4 1022 86 10000 4.6 270 06:37 15.02.2020
2898 Clouds 4 1022 86 10000 4.6 270 05:54 15.02.2020
2899 Clouds 4 1021 86 10000 4.1 280 04:48 15.02.2020
2900 Clouds 4 1020 86 10000 4.1 280 03:43 15.02.2020
2901 Clouds 2 1020 93 10000 4.1 270 02:52 15.02.2020
2902 Clouds 2 1020 100 8000 4.1 280 02:23 15.02.2020
2903 Rain 2 1020 93 6000 3.6 280 01:41 15.02.2020
2904 Mist 4 1019 93 2800 1 330 00:43 15.02.2020
2905 Mist 4 1019 93 3000 1 0 00:24 15.02.2020
2906 Mist 2 1019 93 4000 0.5 10 23:42 14.02.2020
2907 Mist 2 1019 93 5000 1 30 23:20 14.02.2020
2908 Rain 2 1018 93 4800 1 281 22:45 14.02.2020
2909 Rain 2 1018 93 5000 1 281 22:24 14.02.2020
2910 Rain 4 1018 93 5000 1 281 21:54 14.02.2020
2911 Rain 1 1018 93 5000 0.5 340 21:36 14.02.2020
2912 Rain 1 1018 93 5000 0.5 340 21:18 14.02.2020
2913 Rain 1 1018 93 4500 1 360 20:42 14.02.2020
2914 Rain 1 1017 93 6000 1.5 290 20:19 14.02.2020
2915 Rain 1 1017 86 8000 0.5 0 19:56 14.02.2020
2916 Rain 1 1017 86 8000 0.5 0 19:38 14.02.2020
2917 Rain 1 1017 86 10000 1 0 19:18 14.02.2020
2918 Rain 1 1017 80 8000 2.1 330 18:55 14.02.2020
2919 Rain 1 1017 80 8000 2.1 330 18:55 14.02.2020
2920 Rain 2 1017 80 8000 2.1 330 18:37 14.02.2020
2921 Rain 2 1016 75 8000 1.5 360 18:18 14.02.2020
2922 Rain 2 1016 75 10000 1.5 300 17:41 14.02.2020
2923 Clouds 2 1016 75 10000 1 0 17:19 14.02.2020
2924 Clouds 3 1015 82 10000 1.5 110 16:43 14.02.2020
2925 Clouds 4 1015 82 10000 1.5 110 16:25 14.02.2020
2926 Clouds 4 1015 82 10000 2.6 80 15:59 14.02.2020
2927 Clouds 3 1015 82 10000 2.6 80 15:41 14.02.2020
2928 Clouds 3 1015 82 10000 2.1 40 15:22 14.02.2020
2929 Clouds 3 1015 56 10000 2.1 70 14:59 14.02.2020
2930 Clouds 4 1015 56 10000 2.1 70 14:41 14.02.2020
2931 Clouds 5 1015 56 10000 1 0 14:22 14.02.2020
2932 Clouds 5 1016 52 10000 2.1 90 13:58 14.02.2020
2933 Clouds 5 1016 52 10000 2.1 90 13:39 14.02.2020
2934 Clouds 5 1016 52 10000 4.1 80 13:20 14.02.2020
2935 Clouds 6 1015 52 10000 3.1 70 12:57 14.02.2020
2936 Clouds 6 1015 52 10000 3.1 70 12:38 14.02.2020
2937 Clouds 6 1016 52 10000 3.6 80 12:20 14.02.2020
2938 Clouds 6 1016 52 10000 1 0 11:57 14.02.2020
2939 Clouds 6 1016 52 10000 1 0 11:57 14.02.2020
2940 Clouds 5 1016 52 10000 1 0 11:39 14.02.2020
2941 Clouds 4 1017 52 10000 1 0 11:19 14.02.2020
2942 Clouds 5 1017 56 10000 1.5 110 10:43 14.02.2020
2943 Clouds 3 1017 69 10000 1.5 90 10:23 14.02.2020
2944 Clouds 2 1018 80 8000 1 0 09:56 14.02.2020
2945 Clouds 1 1018 80 8000 1 0 09:36 14.02.2020
2946 Clouds 1 1018 80 8000 1 0 09:36 14.02.2020
2947 Clouds 0 1018 64 7000 1.5 320 09:18 14.02.2020
2948 Clouds 0 1018 64 8000 1.5 330 08:40 14.02.2020
2949 Clouds -1 1019 66 8000 1 0 08:22 14.02.2020
2950 Clouds -1 1019 68 8000 1 0 08:22 14.02.2020
2951 Clouds -2 1019 86 7000 2.1 230 07:50 14.02.2020
2952 Clouds -3 1019 86 7000 1.5 180 07:31 14.02.2020
2953 Mist -3 1019 86 5000 2.6 140 06:48 14.02.2020
2954 Clouds -4 1019 92 6000 1.5 120 06:22 14.02.2020
2955 Clouds -3 1020 92 7000 1.44 228 05:41 14.02.2020
2956 Clouds -3 1020 92 7000 1.44 228 05:41 14.02.2020
2957 Clear -2 1020 86 8000 0.5 0 03:51 14.02.2020
2958 Clear -2 1021 79 8000 1.5 300 02:58 14.02.2020
2959 Clear -2 1021 86 7000 2.1 320 02:18 14.02.2020
2960 Clear -2 1021 86 8000 1.5 250 01:18 14.02.2020
2961 Clear -2 1022 86 8000 1.5 10 00:32 14.02.2020
2962 Clear -2 1022 86 8000 1.5 0 23:59 13.02.2020
2963 Clear -2 1022 86 8000 1.5 0 23:41 13.02.2020
2964 Clear -2 1022 80 8000 1 0 23:19 13.02.2020
2965 Clear -1 1022 63 10000 2.1 100 22:40 13.02.2020
2966 Clear -1 1022 80 10000 1.5 230 22:19 13.02.2020
2967 Clear -1 1022 80 10000 1.5 150 21:58 13.02.2020
2968 Clear -1 1022 80 10000 1.5 150 21:40 13.02.2020
2969 Clear -1 1022 63 10000 2.1 100 21:20 13.02.2020
2970 Clear -1 1023 63 10000 0.5 0 20:43 13.02.2020
2971 Clear 0 1023 55 10000 2.1 160 20:22 13.02.2020
2972 Clouds -1 1023 59 10000 2.6 140 19:58 13.02.2020
2973 Clouds 0 1023 59 10000 2.6 140 19:39 13.02.2020
2974 Clouds 0 1023 59 10000 3.6 120 19:20 13.02.2020
2975 Clouds 0 1023 59 10000 1.5 0 18:57 13.02.2020
2976 Clouds 0 1023 59 10000 1.5 0 18:39 13.02.2020
2977 Clouds 0 1023 55 10000 2.6 150 18:20 13.02.2020
2978 Clouds 0 1023 60 10000 3.1 130 17:57 13.02.2020
2979 Clouds 0 1023 60 10000 3.1 130 17:37 13.02.2020
2980 Clouds 2 1023 48 10000 2.6 120 17:18 13.02.2020
2981 Clouds 3 1023 36 10000 1.5 120 16:42 13.02.2020
2982 Clouds 2 1023 34 10000 2.1 140 16:21 13.02.2020
2983 Clouds 5 1023 29 10000 1.5 130 15:58 13.02.2020
2984 Clouds 3 1023 29 10000 1.5 130 15:39 13.02.2020
2985 Clouds 6 1023 36 10000 2.1 130 15:19 13.02.2020
2986 Clouds 5 1023 36 10000 2.1 0 14:59 13.02.2020
2987 Clouds 5 1023 36 10000 2.1 0 14:40 13.02.2020
2988 Clouds 6 1024 39 10000 1.5 0 14:21 13.02.2020
2989 Clear 5 1024 45 10000 1.5 0 13:48 13.02.2020
2990 Clear 5 1024 45 10000 1 0 13:20 13.02.2020
2991 Clear 4 1025 48 10000 1.5 0 12:58 13.02.2020
2992 Clear 7 1025 48 10000 1.5 0 12:40 13.02.2020
2993 Clear 6 1025 45 10000 1 0 12:22 13.02.2020
2994 Clear 5 1025 48 10000 1.5 330 11:55 13.02.2020
2995 Clear 5 1025 48 10000 1.5 330 11:37 13.02.2020
2996 Clear 2 1026 56 10000 1 0 11:18 13.02.2020
2997 Clear 2 1026 56 10000 0.5 0 10:41 13.02.2020
2998 Clear 2 1026 60 10000 1 0 10:22 13.02.2020
2999 Clear 1 1025 64 10000 1 0 09:44 13.02.2020
3000 Clear 0 1026 74 10000 1 0 09:23 13.02.2020
3001 Clear -1 1026 74 10000 1.5 330 08:46 13.02.2020
3002 Clouds -4 1026 75 9000 0.5 0 08:20 13.02.2020
3003 Clouds -4 1026 86 8000 1 0 07:43 13.02.2020
3004 Clouds -5 1025 92 8000 1 0 07:23 13.02.2020
3005 Clouds -5 1025 86 10000 0.5 0 06:53 13.02.2020
3006 Clouds -5 1024 92 10000 0.5 0 06:33 13.02.2020
3007 Clouds -5 1024 92 10000 1 220 05:50 13.02.2020
3008 Clouds -5 1023 86 10000 1 270 04:45 13.02.2020
3009 Clouds -5 1023 86 10000 1.5 340 04:18 13.02.2020
3010 Clouds -4 1023 83 10000 2.6 320 03:30 13.02.2020
3011 Clouds -2 1023 86 10000 0.5 0 02:56 13.02.2020
3012 Snow -4 1023 86 10000 2.1 200 02:20 13.02.2020
3013 Snow -3 1023 80 10000 1.5 280 01:41 13.02.2020
3014 Snow -3 1022 74 10000 2.6 30 00:57 13.02.2020
3015 Snow -3 1022 80 10000 1.5 10 00:27 13.02.2020
3016 Clouds 0 1022 69 10000 2.1 330 23:43 12.02.2020
3017 Clouds 0 1021 51 10000 4.6 230 23:23 12.02.2020
3018 Clouds 3 1021 55 10000 5.7 220 22:57 12.02.2020
3019 Clouds 3 1021 55 10000 5.7 220 22:39 12.02.2020
3020 Clouds 4 1021 52 10000 3.6 240 22:21 12.02.2020
3021 Clouds 3 1021 60 10000 2.1 170 21:55 12.02.2020
3022 Clouds 3 1021 60 10000 2.1 170 21:36 12.02.2020
3023 Clouds 2 1021 60 10000 2.1 320 21:18 12.02.2020
3024 Clouds 2 1021 56 10000 3.1 10 20:42 12.02.2020
3025 Clouds 2 1020 52 10000 3.1 340 20:24 12.02.2020
3026 Clouds 2 1020 45 10000 3.6 280 19:57 12.02.2020
3027 Clouds 2 1020 45 10000 3.6 280 19:38 12.02.2020
3028 Clouds 2 1019 52 10000 2.6 270 19:20 12.02.2020
3029 Clouds -1 1019 52 10000 2.1 300 18:49 12.02.2020
3030 Clouds 0 1018 56 10000 2.6 270 18:20 12.02.2020
3031 Clouds 0 1018 56 10000 2.1 220 17:58 12.02.2020
3032 Clouds 0 1018 56 10000 2.1 220 17:38 12.02.2020
3033 Clouds 0 1018 56 10000 2.1 220 17:38 12.02.2020
3034 Clouds 2 1017 45 10000 1 0 17:19 12.02.2020
3035 Clouds 2 1017 39 10000 2.1 340 16:40 12.02.2020
3036 Clouds 2 1017 42 10000 2.1 360 16:22 12.02.2020
3037 Clouds 3 1017 42 10000 2.1 350 15:58 12.02.2020
3038 Clouds 3 1017 42 10000 2.1 350 15:58 12.02.2020
3039 Clouds 4 1017 42 10000 2.1 350 15:37 12.02.2020
3040 Clouds 5 1017 39 10000 1 0 15:18 12.02.2020
3041 Clouds 4 1017 33 10000 2.1 270 14:42 12.02.2020
3042 Clouds 4 1017 42 10000 2.6 250 14:21 12.02.2020
3043 Clouds 5 1017 45 10000 2.6 290 13:58 12.02.2020
3044 Clouds 6 1017 45 10000 2.6 290 13:40 12.02.2020
3045 Clouds 5 1017 52 10000 2.6 270 13:21 12.02.2020
3046 Clouds 4 1017 56 10000 3.1 300 12:58 12.02.2020
3047 Clouds 6 1017 56 10000 3.1 300 12:38 12.02.2020
3048 Clouds 5 1018 64 10000 2.1 310 12:19 12.02.2020
3049 Clouds 4 1018 64 10000 2.6 250 11:58 12.02.2020
3050 Clouds 4 1018 64 10000 2.6 250 11:39 12.02.2020
3051 Clouds 3 1019 66 10000 2.6 330 11:20 12.02.2020
3052 Clouds 3 1018 66 10000 2.1 360 10:55 12.02.2020
3053 Clouds 3 1018 66 10000 2.1 360 10:37 12.02.2020
3054 Clouds 2 1018 80 10000 1.5 260 10:19 12.02.2020
3055 Clouds 2 1018 80 10000 1.5 260 10:19 12.02.2020
3056 Clouds 2 1018 80 10000 2.1 360 09:42 12.02.2020
3057 Clouds 2 1018 80 10000 2.1 360 09:42 12.02.2020
3058 Clouds 4 1018 86 10000 2.1 10 09:23 12.02.2020
3059 Clouds 1 1018 93 10000 1.48 222 08:58 12.02.2020
3060 Clouds 1 1018 93 10000 1.48 222 08:58 12.02.2020
3061 Clouds 1 1018 93 10000 1.48 222 08:58 12.02.2020
3062 Clouds 1 1018 93 10000 1.48 222 08:38 12.02.2020
3063 Clouds 0 1018 93 10000 1.65 206 08:19 12.02.2020
3064 Clouds 0 1018 93 10000 0.5 0 07:44 12.02.2020
3065 Clouds 0 1017 93 10000 1.5 340 07:24 12.02.2020
3066 Clouds -2 1017 93 10000 1.5 10 06:57 12.02.2020
3067 Clouds -2 1017 93 10000 1.5 10 06:57 12.02.2020
3068 Clouds -2 1017 93 10000 1.5 300 06:24 12.02.2020
3069 Clouds -2 1017 93 10000 1.5 260 05:39 12.02.2020
3070 Clouds -1 1017 93 10000 2.6 270 04:58 12.02.2020
3071 Clouds -1 1017 93 10000 2.6 270 04:40 12.02.2020
3072 Clouds -1 1016 93 10000 2.1 320 03:37 12.02.2020
3073 Clouds -1 1016 93 10000 2.1 320 03:19 12.02.2020
3074 Clouds -1 1015 98 10000 2.1 260 02:30 12.02.2020
3075 Clouds -1 1015 93 8000 2.6 240 01:58 12.02.2020
3076 Clouds -1 1015 93 10000 1.5 330 00:46 12.02.2020
3077 Clouds -1 1015 93 8000 1.5 0 00:26 12.02.2020
3078 Rain -1 1015 93 8000 2.6 360 23:57 11.02.2020
3079 Rain -1 1015 93 8000 2.6 360 23:57 11.02.2020
3080 Rain -2 1015 93 8000 2.6 360 23:39 11.02.2020
3081 Clouds -1 1014 93 10000 2.1 260 23:20 11.02.2020
3082 Clouds -1 1014 93 10000 1 0 22:55 11.02.2020
3083 Rain -1 1015 86 10000 3.1 220 22:37 11.02.2020
3084 Rain 0 1015 86 10000 3.1 220 22:18 11.02.2020
3085 Rain 1 1014 86 10000 2.6 230 21:55 11.02.2020
3086 Clouds -1 1014 86 10000 3.6 220 21:37 11.02.2020
3087 Clouds 0 1014 86 10000 3.6 220 21:18 11.02.2020
3088 Clouds 0 1014 86 10000 3.6 220 21:18 11.02.2020
3089 Clouds 0 1014 86 10000 3.1 230 20:54 11.02.2020
3090 Rain 0 1013 93 8000 3.1 250 20:36 11.02.2020
3091 Rain 2 1013 93 8000 3.1 250 20:18 11.02.2020
3092 Rain 1 1013 93 10000 2.6 240 19:42 11.02.2020
3093 Clouds 3 1013 80 8000 3.6 260 19:23 11.02.2020
3094 Rain 2 1013 98 10000 2.1 300 18:56 11.02.2020
3095 Rain 1 1013 98 10000 2.1 300 18:37 11.02.2020
3096 Rain 1 1013 98 10000 3.1 320 18:19 11.02.2020
3097 Rain 1 1012 98 10000 4.6 320 17:55 11.02.2020
3098 Clouds 0 1012 80 10000 3.6 290 17:36 11.02.2020
3099 Clouds 1 1012 80 10000 3.6 290 17:18 11.02.2020
3100 Rain 2 1011 75 10000 4.6 280 16:55 11.02.2020
3101 Rain 4 1011 75 10000 4.6 280 16:36 11.02.2020
3102 Rain 4 1010 80 9000 7.2 360 16:18 11.02.2020
3103 Rain 5 1008 81 7000 5.7 350 15:43 11.02.2020
3104 Clouds 4 1007 81 10000 1 0 15:23 11.02.2020
3105 Clouds 4 1007 87 10000 2.6 120 14:44 11.02.2020
3106 Clouds 6 1007 75 10000 2.6 150 14:20 11.02.2020
3107 Rain 6 1008 81 10000 1.5 170 13:59 11.02.2020
3108 Rain 6 1008 81 10000 1.5 170 13:40 11.02.2020
3109 Clouds 6 1008 81 10000 1 0 13:21 11.02.2020
3110 Clouds 6 1008 81 10000 1.5 100 12:57 11.02.2020
3111 Clouds 6 1008 81 10000 1.5 100 12:39 11.02.2020
3112 Clouds 8 1009 81 10000 1.5 100 12:20 11.02.2020
3113 Clouds 7 1009 80 10000 1.5 160 11:41 11.02.2020
3114 Clouds 5 1010 80 10000 1 0 11:20 11.02.2020
3115 Clouds 6 1010 80 10000 1 0 10:56 11.02.2020
3116 Clouds 6 1010 80 10000 1 0 10:37 11.02.2020
3117 Clouds 6 1011 86 10000 1 0 10:19 11.02.2020
3118 Clouds 6 1011 80 10000 1 0 09:55 11.02.2020
3119 Clouds 5 1011 93 8000 1 0 09:37 11.02.2020
3120 Clouds 4 1011 93 8000 1 0 09:18 11.02.2020
3121 Clouds 3 1011 93 6000 2.1 190 08:41 11.02.2020
3122 Clouds 3 1011 93 6000 2.1 190 08:41 11.02.2020
3123 Clouds 2 1011 93 8000 1.17 246 08:23 11.02.2020
3124 Clouds 1 1012 100 6000 2.1 20 07:48 11.02.2020
3125 Clouds 1 1011 94 8000 2.1 80 07:25 11.02.2020
3126 Rain 1 1012 93 5000 1 0 06:43 11.02.2020
3127 Rain 2 1012 86 10000 1.5 200 06:22 11.02.2020
3128 Rain 1 1012 93 10000 3.1 210 05:47 11.02.2020
3129 Rain 1 1012 93 8000 3.1 230 05:23 11.02.2020
3130 Rain 1 1012 93 9000 4.1 230 04:37 11.02.2020
3131 Rain 1 1010 80 10000 2.6 200 02:44 11.02.2020
3132 Clouds 1 1010 80 10000 3.06 311 02:23 11.02.2020
3133 Clouds 2 1011 80 10000 3.1 150 01:35 11.02.2020
3134 Clouds 2 1011 74 10000 2.6 90 00:38 11.02.2020
3135 Clouds 2 1012 74 10000 2.1 130 23:53 10.02.2020
3136 Clouds 2 1012 80 10000 2.1 80 23:33 10.02.2020
3137 Clouds 2 1012 80 10000 2.1 80 23:33 10.02.2020
3138 Clouds 1 1013 74 10000 2.6 130 22:58 10.02.2020
3139 Clouds 1 1013 74 10000 2.6 130 22:39 10.02.2020
3140 Clouds 2 1013 74 9000 1.5 210 22:20 10.02.2020
3141 Clouds 2 1014 69 10000 1 0 21:43 10.02.2020
3142 Clouds 3 1014 74 10000 2.1 170 21:25 10.02.2020
3143 Clouds 2 1014 74 8000 1.5 190 20:58 10.02.2020
3144 Clouds 1 1014 82 8000 1.5 30 20:38 10.02.2020
3145 Clouds 0 1014 86 8000 1.5 30 20:20 10.02.2020
3146 Clouds 0 1014 86 7000 2.6 140 19:58 10.02.2020
3147 Clouds 0 1014 86 7000 2.6 140 19:38 10.02.2020
3148 Clouds 0 1014 86 7000 1 0 19:19 10.02.2020
3149 Clouds 0 1014 86 6000 1 0 18:58 10.02.2020
3150 Clouds 0 1014 86 6000 1 0 18:39 10.02.2020
3151 Clouds 1 1014 80 7000 2.1 140 18:20 10.02.2020
3152 Clouds 1 1014 80 9000 1.5 80 17:57 10.02.2020
3153 Clouds 1 1014 80 9000 1.5 80 17:37 10.02.2020
3154 -273 0 0 0 0 0 17:37 10.02.2020
3155 Mist 2 1014 80 5000 2.6 110 17:19 10.02.2020
3156 Mist 2 1014 80 5000 2.6 110 17:19 10.02.2020
3157 Mist 2 1014 74 5000 2.1 90 16:58 10.02.2020
3158 Mist 2 1014 74 5000 2.1 90 16:38 10.02.2020
3159 Mist 1 1015 74 5000 1.5 90 16:19 10.02.2020
3160 Clouds 2 1015 74 6000 2.6 80 15:55 10.02.2020
3161 Clouds 2 1015 74 6000 2.6 80 15:37 10.02.2020
3162 Clouds 2 1016 64 7000 2.1 110 15:18 10.02.2020
3163 Clouds 1 1017 69 7000 2.6 130 14:41 10.02.2020
3164 Clouds 5 1017 64 7000 0.5 0 14:20 10.02.2020
3165 Clouds 5 1017 64 7000 0.5 0 14:20 10.02.2020
3166 Clouds 4 1017 74 6000 2.1 110 13:57 10.02.2020
3167 Clouds 4 1017 74 6000 2.1 110 13:39 10.02.2020
3168 Clouds 5 1018 64 7000 2.1 120 13:21 10.02.2020
3169 Clouds 4 1020 74 6000 2.1 100 12:47 10.02.2020
3170 Clouds 4 1020 69 6000 1.5 110 12:26 10.02.2020
3171 Mist 3 1021 65 4500 1.5 100 11:56 10.02.2020
3172 Mist 3 1021 65 4500 1.5 100 11:37 10.02.2020
3173 Mist 2 1022 79 5000 2.1 110 11:19 10.02.2020
3174 Mist 1 1023 79 5000 1.5 70 10:46 10.02.2020
3175 Mist 0 1023 85 4500 1 0 10:26 10.02.2020
3176 Mist -1 1023 85 4700 1 130 09:45 10.02.2020
3177 Mist -1 1024 92 3400 2.1 120 09:26 10.02.2020
3178 Mist -2 1024 92 3500 1 0 08:55 10.02.2020
3179 Mist -3 1024 92 3500 1 0 08:36 10.02.2020
3180 Mist -3 1025 92 2300 1 0 08:18 10.02.2020
3181 Mist -4 1025 92 1200 1 0 07:46 10.02.2020
3182 Mist -6 1025 92 2700 1.5 200 07:25 10.02.2020
3183 Mist -7 1026 92 1800 2.1 120 05:52 10.02.2020
3184 Fog -6 1026 92 3000 0.5 0 04:26 10.02.2020
3185 Mist -5 1026 92 2500 1 50 03:31 10.02.2020
3186 Mist -6 1027 92 2600 0.5 0 02:53 10.02.2020
3187 Mist -5 1027 100 3500 1.5 140 01:36 10.02.2020
3188 Mist -5 1028 92 3700 1.5 150 00:48 10.02.2020
3189 Mist -5 1028 92 3200 2.1 140 00:28 10.02.2020
3190 Mist -5 1029 92 2600 1.5 140 23:45 09.02.2020
3191 Mist -5 1029 92 2600 1.5 140 23:45 09.02.2020
3192 Mist -4 1029 92 3300 2.1 100 23:26 09.02.2020
3193 Mist -4 1029 92 2700 1.5 130 22:58 09.02.2020
3194 Mist -3 1029 92 4000 0.5 0 22:38 09.02.2020
3195 Mist -3 1029 92 4000 0.5 0 22:19 09.02.2020
3196 Mist -3 1029 92 4500 2.1 360 21:41 09.02.2020
3197 Mist -3 1029 92 4500 2.1 360 21:22 09.02.2020
3198 Mist -3 1029 85 4000 1 0 20:46 09.02.2020
3199 Mist -3 1029 85 5000 1.68 255 20:23 09.02.2020
3200 Mist -2 1029 86 5000 1 0 19:57 09.02.2020
3201 Mist -2 1029 86 5000 1 0 19:57 09.02.2020
3202 Mist -2 1029 86 5000 1 0 19:38 09.02.2020
3203 Mist -2 1029 79 5000 1 0 19:20 09.02.2020
3204 Clear -2 1029 79 6000 1.5 100 18:42 09.02.2020
3205 Clear -2 1029 74 8000 2.1 140 18:24 09.02.2020
3206 Clear -2 1029 74 8000 1.5 150 17:59 09.02.2020
3207 Clear -2 1029 74 8000 1.5 150 17:39 09.02.2020
3208 Clear 0 1029 83 10000 1 0 17:21 09.02.2020
3209 Clear 0 1029 83 10000 1 0 17:21 09.02.2020
3210 Clear 0 1029 83 10000 1.5 100 16:41 09.02.2020
3211 Clear 1 1029 83 10000 1.5 110 16:22 09.02.2020
3212 Clear 0 1029 83 10000 1.5 120 15:59 09.02.2020
3213 Clear 0 1029 83 10000 1.5 120 15:59 09.02.2020
3214 Clear 0 1029 83 10000 1.5 120 15:41 09.02.2020
3215 Clear 0 1029 59 10000 1.5 100 15:21 09.02.2020
3216 Clear 0 1029 83 10000 1.5 110 14:57 09.02.2020
3217 Clear 0 1029 83 10000 1.5 110 14:38 09.02.2020
3218 Clear 1 1030 67 10000 2.6 110 14:20 09.02.2020
3219 Clear 1 1030 67 10000 2.1 110 13:43 09.02.2020
3220 Clear 1 1030 68 10000 2.1 0 13:25 09.02.2020
3221 Clear 1 1031 63 10000 1.5 110 12:55 09.02.2020
3222 Clear 2 1031 63 10000 1.5 110 12:37 09.02.2020
3223 Clear 2 1031 68 10000 1.5 110 12:18 09.02.2020
3224 Clear 1 1031 73 10000 1.5 110 11:40 09.02.2020
3225 Clear 0 1031 73 10000 1.5 120 11:19 09.02.2020
3226 Clear 0 1032 73 10000 2.1 130 10:56 09.02.2020
3227 Clear 0 1032 73 10000 2.1 130 10:38 09.02.2020
3228 Clear -1 1032 73 10000 1.5 70 10:19 09.02.2020
3229 Clear -2 1031 79 10000 1 0 09:40 09.02.2020
3230 Clear -3 1031 79 10000 0.5 0 09:20 09.02.2020
3231 Clear -4 1031 79 8000 0.5 0 08:44 09.02.2020
3232 Clear -5 1031 78 8000 0.95 270 08:25 09.02.2020
3233 Clear -6 1031 92 8000 0.5 0 07:54 09.02.2020
3234 Clear -7 1031 92 8000 1.27 267 07:34 09.02.2020
3235 Clear -7 1031 92 8000 1.27 267 07:34 09.02.2020
3236 Clear -7 1031 92 8000 2.1 140 06:42 09.02.2020
3237 Clear -7 1031 92 8000 2.1 120 05:56 09.02.2020
3238 Clear -7 1031 92 8000 2.1 120 05:56 09.02.2020
3239 Clear -7 1031 92 8000 1.5 100 05:34 09.02.2020
3240 Clear -7 1030 92 8000 1 0 04:51 09.02.2020
3241 Clear -6 1030 85 10000 1.5 110 02:58 09.02.2020
3242 Clear -7 1030 85 10000 1.5 110 02:38 09.02.2020
3243 Clear -7 1030 92 10000 1.5 110 01:44 09.02.2020
3244 Clear -7 1029 92 10000 2.1 140 01:19 09.02.2020
3245 Clear -7 1030 85 10000 3.6 110 00:32 09.02.2020
3246 Clear -6 1030 85 10000 2.1 100 23:55 08.02.2020
3247 Clear -6 1030 85 10000 2.1 100 23:37 08.02.2020
3248 Clear -6 1030 79 10000 2.1 180 23:18 08.02.2020
3249 Clear -6 1030 79 10000 1.5 160 22:40 08.02.2020
3250 Clear -5 1030 73 10000 1 0 22:21 08.02.2020
3251 Clear -5 1029 68 10000 1.36 269 21:49 08.02.2020
3252 Clear -6 1029 73 10000 2.6 20 21:31 08.02.2020
3253 Clear -5 1029 68 10000 2.6 350 20:59 08.02.2020
3254 Clear -5 1028 68 10000 3.1 320 20:40 08.02.2020
3255 Clear -6 1028 68 10000 3.1 320 20:20 08.02.2020
3256 Clear -6 1028 68 10000 3.1 320 20:20 08.02.2020
3257 Clear -5 1028 68 10000 3.6 310 19:59 08.02.2020
3258 Clear -5 1028 68 10000 3.6 310 19:40 08.02.2020
3259 Clouds -6 1029 68 10000 3.1 340 19:20 08.02.2020
3260 Clear -5 1029 50 10000 3.1 300 18:57 08.02.2020
3261 Clear -5 1028 50 10000 3.1 290 18:39 08.02.2020
3262 Clear -4 1028 50 10000 3.1 290 18:19 08.02.2020
3263 Clear -4 1028 51 10000 5.1 290 17:42 08.02.2020
3264 Clear -4 1028 55 10000 3.1 300 17:20 08.02.2020
3265 Clear -4 1028 55 10000 4.1 300 16:42 08.02.2020
3266 Clear -3 1028 51 10000 3.6 320 16:23 08.02.2020
3267 Clear -1 1028 51 10000 2.6 330 15:59 08.02.2020
3268 Clear -2 1028 51 10000 2.6 330 15:39 08.02.2020
3269 Clear -2 1027 59 10000 4.1 320 15:18 08.02.2020
3270 Clear -3 1028 55 10000 4.6 310 14:45 08.02.2020
3271 Clear -3 1028 47 10000 3.6 300 14:24 08.02.2020
3272 Clouds -1 1028 55 10000 3.1 290 13:59 08.02.2020
3273 Clouds 0 1028 55 10000 3.1 290 13:40 08.02.2020
3274 Clouds 1 1028 55 10000 1.5 0 13:22 08.02.2020
3275 Clouds -1 1029 69 10000 1.5 120 12:41 08.02.2020
3276 Clouds -1 1029 74 10000 2.1 110 12:23 08.02.2020
3277 Clouds -1 1029 74 10000 3.1 140 11:56 08.02.2020
3278 Clouds -2 1029 74 10000 3.1 140 11:38 08.02.2020
3279 Clouds -2 1029 74 10000 2.6 110 11:20 08.02.2020
3280 Clouds -3 1029 79 10000 3.6 110 10:42 08.02.2020
3281 Clouds -3 1029 79 10000 3.1 100 10:22 08.02.2020
3282 Clouds -4 1029 85 10000 3.6 100 09:53 08.02.2020
3283 Clouds -5 1029 92 10000 2.1 110 09:28 08.02.2020
3284 Clouds -6 1028 92 8000 2.6 110 08:54 08.02.2020
3285 Mist -6 1028 92 3200 2.1 100 08:36 08.02.2020
3286 Mist -7 1028 92 3200 2.1 100 08:18 08.02.2020
3287 Fog -8 1028 92 150 2.6 120 07:44 08.02.2020
3288 Fog -7 1027 92 1500 2.1 130 07:19 08.02.2020
3289 Snow -9 1027 100 6000 2.1 340 06:28 08.02.2020
3290 Mist -8 1026 100 7000 1 0 05:48 08.02.2020
3291 Mist -8 1026 100 7000 1 0 05:48 08.02.2020
3292 Clouds -8 1026 92 7000 1 0 05:29 08.02.2020
3293 Clouds -8 1026 92 8000 1.5 330 04:48 08.02.2020
3294 Clouds -6 1025 86 10000 2.1 300 03:48 08.02.2020
3295 Clouds -4 1024 69 10000 5.1 280 02:51 08.02.2020
3296 Clouds -4 1024 95 10000 7.2 260 01:37 08.02.2020
3297 Clouds -4 1023 95 10000 5.1 270 01:19 08.02.2020
3298 Clouds -3 1023 74 10000 5.7 300 00:38 08.02.2020
3299 Snow -3 1023 80 10000 6.7 280 00:20 08.02.2020
3300 Snow -3 1023 86 7000 8.2 270 23:42 07.02.2020
3301 Snow -4 1023 94 2500 8.7 270 23:20 07.02.2020
3302 Snow -4 1023 94 3500 7.7 270 22:56 07.02.2020
3303 Snow -4 1023 94 3500 7.7 270 22:37 07.02.2020
3304 Snow -1 1022 80 8000 7.7 280 22:18 07.02.2020
3305 Snow -3 1022 80 8000 7.2 290 21:42 07.02.2020
3306 Snow -3 1022 80 5000 7.7 290 21:22 07.02.2020
3307 Snow -3 1022 80 5000 8.2 280 20:41 07.02.2020
3308 Snow -3 1021 86 3500 8.7 280 20:22 07.02.2020
3309 Snow -3 1021 86 3500 8.7 280 20:22 07.02.2020
3310 Snow -3 1021 80 3500 9.3 290 19:57 07.02.2020
3311 Snow -3 1021 80 3500 9.3 290 19:38 07.02.2020
3312 Snow -3 1021 80 8000 7.7 290 19:19 07.02.2020
3313 Clouds -3 1021 80 10000 7.2 280 18:46 07.02.2020
3314 Clouds -3 1021 80 10000 6.2 280 18:26 07.02.2020
3315 Clouds -3 1021 80 10000 7.2 290 17:57 07.02.2020
3316 Clouds -3 1021 80 10000 7.2 290 17:39 07.02.2020
3317 Snow -3 1020 80 10000 7.7 290 17:20 07.02.2020
3318 Clouds -3 1020 80 10000 8.7 290 16:52 07.02.2020
3319 Snow -3 1020 80 10000 8.2 280 16:24 07.02.2020
3320 Clouds -3 1020 74 10000 8.2 280 15:55 07.02.2020
3321 Clouds -1 1020 74 10000 7.7 280 15:36 07.02.2020
3322 Clouds -1 1020 74 10000 7.7 280 15:18 07.02.2020
3323 Clouds -1 1020 74 10000 7.7 290 14:42 07.02.2020
3324 Clouds -2 1020 74 10000 9.3 300 14:24 07.02.2020
3325 Clouds -1 1020 74 10000 7.2 290 13:57 07.02.2020
3326 Clouds -1 1020 74 10000 7.2 290 13:38 07.02.2020
3327 Clouds -1 1020 74 10000 7.2 290 13:20 07.02.2020
3328 Clouds -1 1020 82 10000 6.7 290 12:42 07.02.2020
3329 Clouds -2 1021 82 10000 7.7 290 12:24 07.02.2020
3330 Clouds -2 1021 82 10000 6.7 280 11:58 07.02.2020
3331 Clouds -2 1021 82 10000 6.7 280 11:39 07.02.2020
3332 Clouds -2 1021 80 10000 6.7 280 11:18 07.02.2020
3333 Clouds -2 1021 80 10000 5.7 280 10:40 07.02.2020
3334 Clouds -2 1021 86 10000 4.1 290 10:20 07.02.2020
3335 Clouds -3 1020 80 10000 4.6 280 09:46 07.02.2020
3336 Clouds -3 1020 80 10000 4.6 280 09:26 07.02.2020
3337 Clouds -3 1020 80 10000 5.7 290 08:57 07.02.2020
3338 Clouds -3 1020 80 10000 5.7 290 08:37 07.02.2020
3339 Clouds -6 1020 80 10000 5.1 280 08:19 07.02.2020
3340 Snow -5 1020 86 5000 5.1 290 07:40 07.02.2020
3341 Clouds -5 1020 86 10000 5.7 280 07:19 07.02.2020
3342 Clouds -5 1020 86 10000 5.7 290 06:43 07.02.2020
3343 Snow -6 1019 86 10000 5.1 280 06:22 07.02.2020
3344 Snow -6 1019 86 10000 4.6 280 05:43 07.02.2020
3345 Clouds -7 1020 92 10000 2.1 110 03:57 07.02.2020
3346 Clouds -9 1020 85 8000 1.5 90 02:28 07.02.2020
3347 Clouds -9 1020 92 8000 1 20 01:25 07.02.2020
3348 Clouds -10 1021 100 7000 1.5 40 00:37 07.02.2020
3349 Clouds -10 1021 85 10000 2.6 340 23:40 06.02.2020
3350 Clear -9 1020 85 10000 2.1 310 23:21 06.02.2020
3351 Clear -9 1020 79 10000 3.6 290 22:58 06.02.2020
3352 Clear -9 1020 73 10000 3.1 290 22:40 06.02.2020
3353 Clear -9 1020 73 10000 3.1 290 22:22 06.02.2020
3354 Clear -9 1020 79 10000 3.6 280 21:37 06.02.2020
3355 Clear -9 1020 79 10000 3.6 280 21:19 06.02.2020
3356 Clear -9 1020 79 10000 4.1 280 20:56 06.02.2020
3357 Clear -9 1020 79 10000 4.1 280 20:37 06.02.2020
3358 Clouds -9 1020 79 10000 4.1 270 20:18 06.02.2020
3359 Clouds -9 1020 85 10000 4.6 280 19:57 06.02.2020
3360 Clouds -8 1020 85 10000 4.6 280 19:38 06.02.2020
3361 Clouds -8 1020 79 10000 4.6 280 19:20 06.02.2020
3362 Clouds -8 1020 85 10000 5.1 280 18:44 06.02.2020
3363 Clouds -9 1019 79 10000 6.2 270 18:26 06.02.2020
3364 Clouds -9 1019 79 10000 5.1 280 17:59 06.02.2020
3365 Clouds -9 1019 79 10000 5.1 280 17:59 06.02.2020
3366 Clouds -8 1019 79 10000 5.1 280 17:41 06.02.2020
3367 Clouds -7 1019 79 10000 4.6 280 17:20 06.02.2020
3368 Clouds -7 1019 79 10000 4.6 280 17:20 06.02.2020
3369 Snow -7 1019 79 10000 4.6 280 16:43 06.02.2020
3370 Clouds -4 1019 79 10000 4.6 290 16:25 06.02.2020
3371 Clouds -4 1019 79 10000 5.1 290 15:54 06.02.2020
3372 Clouds -4 1018 74 10000 4.6 310 15:36 06.02.2020
3373 Clouds -4 1018 74 10000 4.6 310 15:18 06.02.2020
3374 Clouds -4 1018 74 10000 3.1 310 14:42 06.02.2020
3375 Clouds -4 1018 74 10000 3.1 310 14:24 06.02.2020
3376 Clouds -4 1018 74 10000 2.6 300 13:45 06.02.2020
3377 Clouds -4 1017 74 10000 2.6 310 13:26 06.02.2020
3378 Clouds -4 1017 80 10000 3.1 260 12:45 06.02.2020
3379 Clouds -4 1017 86 10000 3.1 270 12:20 06.02.2020
3380 Clouds -5 1017 86 10000 2.1 280 11:59 06.02.2020
3381 Clouds -4 1017 86 10000 2.1 280 11:41 06.02.2020
3382 Clouds -4 1017 86 10000 1 0 11:21 06.02.2020
3383 Snow -5 1017 92 5000 2.6 290 10:58 06.02.2020
3384 Snow -5 1017 92 1800 2.6 290 10:40 06.02.2020
3385 Snow -5 1017 92 1800 2.6 290 10:21 06.02.2020
3386 Snow -5 1016 92 1500 2.1 280 09:57 06.02.2020
3387 Snow -5 1016 92 1500 2.1 280 09:57 06.02.2020
3388 Snow -5 1016 92 1500 2.1 280 09:38 06.02.2020
3389 Snow -7 1016 92 1500 2.1 300 09:19 06.02.2020
3390 Snow -6 1015 92 800 2.1 290 08:43 06.02.2020
3391 Snow -6 1014 100 2500 3.1 290 08:23 06.02.2020
3392 Snow -6 1014 92 1500 3.1 300 07:52 06.02.2020
3393 Snow -6 1013 92 1300 2.6 290 07:29 06.02.2020
3394 Snow -6 1012 100 2500 2.1 290 06:47 06.02.2020
3395 Snow -4 1011 92 3000 1 310 06:18 06.02.2020
3396 Clouds -4 1010 92 10000 1 330 05:22 06.02.2020
3397 Snow -4 1008 100 6000 3.68 1 03:44 06.02.2020
3398 Snow -4 1007 92 7000 0.5 0 02:58 06.02.2020
3399 Snow -3 1006 100 2100 3.56 3 01:42 06.02.2020
3400 Snow -3 1005 100 2300 1 0 00:59 06.02.2020
3401 Snow -1 1004 100 1600 1.5 20 00:27 06.02.2020
3402 Snow 0 1004 96 2400 1 0 23:50 05.02.2020
3403 Snow 0 1003 96 3500 1 0 23:29 05.02.2020
3404 Snow 0 1002 96 6000 1 0 22:59 05.02.2020
3405 Snow 0 1002 96 6000 1 0 22:40 05.02.2020
3406 Snow 0 1001 96 3000 1 0 22:22 05.02.2020
3407 Snow 0 1001 96 1500 1 0 21:55 05.02.2020
3408 Snow 0 1001 96 1500 1 0 21:55 05.02.2020
3409 Snow 0 1001 96 1500 1 0 21:36 05.02.2020
3410 Snow 0 1000 96 1700 1 0 21:36 05.02.2020
3411 Snow 0 1000 96 1700 1 0 21:18 05.02.2020
3412 Snow 0 1000 96 1700 1 0 21:18 05.02.2020
3413 Snow 0 1000 96 2200 3.1 310 20:39 05.02.2020
3414 Snow 0 1000 96 2200 3.1 310 20:39 05.02.2020
3415 Snow 0 1000 96 2200 3.1 310 20:39 05.02.2020
3416 Snow 0 999 97 2300 3.1 310 20:20 05.02.2020
3417 Snow 0 998 97 1400 4.1 310 19:58 05.02.2020
3418 Snow 0 998 97 1400 4.1 310 19:38 05.02.2020
3419 Snow 0 998 97 1600 4.1 290 19:19 05.02.2020
3420 Snow 0 997 97 1800 4.6 280 18:55 05.02.2020
3421 Snow 0 996 97 1800 5.1 290 18:36 05.02.2020
3422 Snow 0 996 97 1800 5.1 290 18:18 05.02.2020
3423 Snow 0 995 97 2300 5.1 290 17:38 05.02.2020
3424 Snow 0 995 97 2000 6.2 280 17:38 05.02.2020
3425 Snow 0 995 94 2300 5.1 290 17:18 05.02.2020
3426 Snow 0 994 94 1900 5.1 290 16:57 05.02.2020
3427 Snow 0 994 94 1900 5.1 290 16:38 05.02.2020
3428 Snow 0 994 94 1800 4.6 290 16:19 05.02.2020
3429 Snow 0 994 94 1200 5.1 280 15:42 05.02.2020
3430 Snow 0 993 94 1200 5.1 280 15:19 05.02.2020
3431 Snow 0 993 94 1800 5.1 280 14:56 05.02.2020
3432 Snow 0 993 94 1800 5.1 280 14:37 05.02.2020
3433 Snow 1 993 86 2800 5.7 280 14:19 05.02.2020
3434 Snow 1 993 86 2100 5.7 280 13:42 05.02.2020
3435 Snow 1 993 86 2600 5.1 290 13:22 05.02.2020
3436 Snow 1 994 86 2400 5.7 290 12:44 05.02.2020
3437 Snow 1 994 80 7000 6.2 290 12:25 05.02.2020
3438 Clouds 1 994 80 10000 6.2 290 11:59 05.02.2020
3439 Clouds 1 994 80 10000 6.2 290 11:59 05.02.2020
3440 Clouds 1 994 80 10000 6.2 290 11:40 05.02.2020
3441 Clouds 1 995 80 10000 6.2 290 11:21 05.02.2020
3442 Clouds 1 995 80 10000 6.2 290 10:43 05.02.2020
3443 Clouds 1 995 80 10000 5.1 290 10:25 05.02.2020
3444 Clouds 1 995 86 10000 7.2 290 09:59 05.02.2020
3445 Clouds 1 995 86 10000 7.2 290 09:38 05.02.2020
3446 Clouds 1 996 80 10000 6.7 280 09:20 05.02.2020
3447 Snow 1 996 86 7000 5.7 280 08:45 05.02.2020
3448 Snow 1 996 86 3400 4.6 280 08:24 05.02.2020
3449 Snow 1 996 86 2800 6.2 280 07:55 05.02.2020
3450 Snow 1 996 86 5000 5.7 280 07:34 05.02.2020
3451 Clouds 1 996 86 10000 5.7 280 06:50 05.02.2020
3452 Clouds 1 996 86 10000 6.7 270 06:23 05.02.2020
3453 Snow 1 995 86 10000 6.2 280 05:58 05.02.2020
3454 Snow 1 995 86 5000 6.2 280 05:19 05.02.2020
3455 Snow 1 996 86 4000 6.7 280 04:52 05.02.2020
3456 Snow 0 996 92 1200 7.2 270 03:52 05.02.2020
3457 Snow 1 996 92 800 7.7 270 02:26 05.02.2020
3458 Snow 1 997 94 2500 8.7 280 01:46 05.02.2020
3459 Snow 1 997 94 2500 8.2 280 00:43 05.02.2020
3460 Clouds 2 997 93 10000 8.2 270 23:57 04.02.2020
3461 Clouds 2 997 93 10000 8.2 270 23:37 04.02.2020
3462 Clouds 3 997 92 10000 8.2 280 23:18 04.02.2020
3463 Rain 3 997 86 10000 10.3 280 22:54 04.02.2020
3464 Rain 3 997 86 10000 10.3 280 22:36 04.02.2020
3465 Rain 3 997 86 10000 10.3 270 22:18 04.02.2020
3466 Rain 4 997 86 8000 11.3 280 21:41 04.02.2020
3467 Rain 4 997 86 8000 11.3 280 21:41 04.02.2020
3468 Rain 4 997 86 10000 11.3 280 21:19 04.02.2020
3469 Rain 6 996 86 7000 11.8 280 20:59 04.02.2020
3470 Rain 5 996 86 7000 11.8 280 20:39 04.02.2020
3471 Rain 12 994 47 10000 2.6 0 20:20 04.02.2020
3472 Rain 12 994 47 10000 2.6 0 20:20 04.02.2020
3473 Clouds 10 994 54 10000 2.6 30 19:57 04.02.2020
3474 Clouds 10 994 54 10000 2.6 30 19:39 04.02.2020
3475 Clouds 12 994 47 10000 1.5 50 19:21 04.02.2020
3476 Clouds 10 995 53 10000 2.6 0 18:55 04.02.2020
3477 Clouds 10 995 53 10000 2.6 0 18:36 04.02.2020
3478 Clouds 11 995 50 10000 2.6 0 18:18 04.02.2020
3479 Clouds 10 996 53 10000 3.1 60 17:42 04.02.2020
3480 Clouds 11 997 53 10000 3.6 70 17:20 04.02.2020
3481 Clouds 12 997 50 10000 3.1 20 16:40 04.02.2020
3482 Clouds 12 997 47 10000 3.1 30 16:21 04.02.2020
3483 Clouds 12 996 47 10000 2.1 60 15:59 04.02.2020
3484 Clouds 11 996 47 10000 2.1 60 15:41 04.02.2020
3485 Clouds 9 998 47 10000 6.7 90 15:21 04.02.2020
3486 Clouds 9 999 47 10000 6.2 80 14:58 04.02.2020
3487 Clouds 10 999 47 10000 6.2 80 14:40 04.02.2020
3488 Clouds 12 999 44 10000 5.7 80 14:20 04.02.2020
3489 Clouds 12 1000 47 10000 3.6 60 13:42 04.02.2020
3490 Clouds 12 1002 47 10000 4.1 50 13:23 04.02.2020
3491 Clouds 12 1002 47 10000 4.1 70 12:59 04.02.2020
3492 Clouds 12 1002 47 10000 4.1 70 12:41 04.02.2020
3493 Clouds 12 1002 47 10000 4.1 70 12:41 04.02.2020
3494 Clouds 12 1004 53 10000 4.6 110 12:22 04.02.2020
3495 Clouds 11 1005 57 10000 3.1 110 11:56 04.02.2020
3496 Clouds 11 1006 57 10000 2.6 110 11:38 04.02.2020
3497 Clouds 12 1005 57 10000 3.1 110 11:38 04.02.2020
3498 Clouds 11 1006 57 10000 2.6 110 11:19 04.02.2020
3499 Clouds 11 1007 57 10000 1 0 10:46 04.02.2020
3500 Clouds 10 1008 66 10000 1 0 10:26 04.02.2020
3501 Clouds 9 1009 66 10000 2.1 180 09:57 04.02.2020
3502 Clouds 10 1009 66 10000 2.1 180 09:39 04.02.2020
3503 Clouds 10 1009 66 10000 2.1 150 09:20 04.02.2020
3504 Clouds 8 1010 70 10000 1.5 190 08:46 04.02.2020
3505 Clouds 7 1010 75 10000 2.1 240 08:27 04.02.2020
3506 Clouds 4 1011 80 10000 1 0 07:52 04.02.2020
3507 Clouds 5 1011 75 10000 2.6 340 07:25 04.02.2020
3508 Clouds 4 1012 75 10000 2.6 30 06:54 04.02.2020
3509 Clouds 5 1012 75 10000 2.6 30 06:36 04.02.2020
3510 Clouds 8 1013 70 10000 5.7 320 05:34 04.02.2020
3511 Clouds 8 1014 70 10000 3.1 330 04:27 04.02.2020
3512 Clouds 8 1014 70 10000 3.6 350 03:46 04.02.2020
3513 Clouds 9 1015 66 10000 2.1 10 03:27 04.02.2020
3514 Clouds 9 1015 66 10000 3.1 350 02:37 04.02.2020
3515 Rain 10 1015 61 10000 4.1 300 01:58 04.02.2020
3516 Rain 10 1015 61 10000 4.1 300 01:39 04.02.2020
3517 Clouds 11 1015 53 10000 5.1 290 00:52 04.02.2020
3518 Clouds 11 1015 57 10000 7.2 280 00:23 04.02.2020
3519 Clouds 11 1015 62 10000 5.7 290 23:45 03.02.2020
3520 Clouds 11 1015 66 10000 8.7 280 23:26 03.02.2020
3521 Clouds 10 1015 76 10000 9.3 270 22:54 03.02.2020
3522 Clouds 10 1015 76 10000 9.3 270 22:36 03.02.2020
3523 Drizzle 10 1015 81 10000 8.2 270 22:18 03.02.2020
3524 Clouds 10 1015 76 10000 4.6 290 21:41 03.02.2020
3525 Drizzle 11 1015 71 10000 4.6 300 21:19 03.02.2020
3526 Drizzle 11 1015 71 10000 4.6 300 21:19 03.02.2020
3527 Clouds 10 1014 71 10000 4.6 310 20:42 03.02.2020
3528 Clouds 10 1014 66 10000 4.6 300 20:20 03.02.2020
3529 Rain 10 1014 66 10000 5.1 290 19:58 03.02.2020
3530 Rain 10 1014 66 10000 5.1 290 19:40 03.02.2020
3531 Rain 11 1013 58 10000 3.6 310 19:21 03.02.2020
3532 Clouds 6 1013 62 10000 2.1 260 18:57 03.02.2020
3533 Clouds 6 1013 62 10000 2.1 260 18:38 03.02.2020
3534 Clouds 7 1013 62 10000 3.1 290 18:20 03.02.2020
3535 Clouds 7 1013 62 10000 3.1 290 18:20 03.02.2020
3536 Clouds 7 1012 58 10000 4.6 300 17:40 03.02.2020
3537 Rain 12 1013 54 10000 7.2 280 17:20 03.02.2020
3538 Clouds 11 1012 50 10000 4.1 290 16:59 03.02.2020
3539 Clouds 10 1012 50 10000 4.1 290 16:39 03.02.2020
3540 Clouds 11 1012 44 10000 4.1 290 16:20 03.02.2020
3541 Clouds 11 1012 44 10000 6.7 280 15:56 03.02.2020
3542 Clouds 11 1012 44 10000 6.7 280 15:37 03.02.2020
3543 Clouds 11 1012 44 10000 6.7 280 15:37 03.02.2020
3544 Clouds 12 1011 41 10000 7.7 280 15:19 03.02.2020
3545 Clouds 13 1011 36 10000 7.2 290 14:42 03.02.2020
3546 Clouds 13 1011 39 10000 8.2 270 14:24 03.02.2020
3547 Clouds 13 1011 39 10000 8.2 270 14:24 03.02.2020
3548 Clouds 12 1011 39 10000 7.7 280 13:57 03.02.2020
3549 Clouds 12 1012 41 10000 7.2 290 13:39 03.02.2020
3550 Clouds 12 1012 41 10000 7.2 290 13:19 03.02.2020
3551 Clouds 12 1012 44 10000 5.7 310 12:55 03.02.2020
3552 Clouds 12 1012 44 10000 5.7 310 12:36 03.02.2020
3553 Clouds 13 1012 38 10000 6.7 290 12:18 03.02.2020
3554 Clouds 13 1013 41 10000 6.7 280 11:38 03.02.2020
3555 Clouds 12 1013 41 10000 4.6 260 11:19 03.02.2020
3556 Clouds 11 1013 58 10000 3.1 340 10:57 03.02.2020
3557 Clouds 11 1013 58 10000 3.1 340 10:38 03.02.2020
3558 Clouds 11 1013 58 10000 3.1 340 10:38 03.02.2020
3559 Clouds 10 1013 66 10000 1.5 0 10:19 03.02.2020
3560 Clouds 9 1014 66 10000 1.5 200 09:39 03.02.2020
3561 Clouds 8 1014 81 10000 1 0 09:19 03.02.2020
3562 Clouds 8 1014 81 10000 1 0 09:19 03.02.2020
3563 Clouds 6 1014 86 10000 0.5 0 08:41 03.02.2020
3564 Clouds 6 1014 86 10000 0.5 0 08:41 03.02.2020
3565 Clouds 5 1014 80 10000 1.5 320 08:22 03.02.2020
3566 Clouds 2 1015 80 9000 1 0 07:43 03.02.2020
3567 Clouds 1 1015 80 9000 2.1 170 07:23 03.02.2020
3568 Clouds 1 1015 80 9000 1.5 160 06:57 03.02.2020
3569 Clouds 0 1015 80 10000 1.5 70 06:31 03.02.2020
3570 Clouds 0 1015 80 10000 1.5 110 05:55 03.02.2020
3571 Clouds 0 1015 80 9000 1 0 05:33 03.02.2020
3572 Clouds 0 1015 82 8000 1 0 04:45 03.02.2020
3573 Clouds 0 1015 82 8000 1 0 04:45 03.02.2020
3574 Mist 1 1016 82 5000 3.1 150 02:48 03.02.2020
3575 Mist 1 1016 82 5000 3.1 150 02:48 03.02.2020
3576 Clouds 1 1016 82 7000 1 0 02:27 03.02.2020
3577 Clouds 3 1016 93 8000 3.1 230 00:49 03.02.2020
3578 Clouds 2 1017 93 9000 1.5 250 00:27 03.02.2020
3579 Clouds 2 1017 93 9000 2.6 150 23:56 02.02.2020
3580 Clouds 3 1017 93 9000 2.6 150 23:36 02.02.2020
3581 Clouds 2 1017 93 8000 2.1 60 23:18 02.02.2020
3582 Clouds 4 1018 80 10000 2.1 200 22:39 02.02.2020
3583 Clouds 2 1017 86 8000 2.6 60 22:39 02.02.2020
3584 Clouds 3 1018 80 10000 2.1 200 22:21 02.02.2020
3585 Clouds 2 1018 86 8000 2.1 150 21:58 02.02.2020
3586 Clouds 2 1018 86 8000 2.1 150 21:39 02.02.2020
3587 Clouds 4 1018 80 8000 1.5 70 21:20 02.02.2020
3588 Clouds 4 1018 75 8000 2.1 200 20:57 02.02.2020
3589 Clouds 4 1018 75 8000 2.1 200 20:39 02.02.2020
3590 Clouds 4 1018 81 10000 1.28 264 20:20 02.02.2020
3591 Clouds 4 1018 81 10000 1.28 264 20:20 02.02.2020
3592 Clouds 5 1018 81 10000 1.5 130 19:57 02.02.2020
3593 Clouds 5 1018 81 10000 1.5 130 19:38 02.02.2020
3594 Clouds 5 1018 75 10000 1.5 60 19:20 02.02.2020
3595 Clouds 5 1018 75 10000 1.5 60 18:55 02.02.2020
3596 Clouds 5 1018 70 10000 2.1 300 18:36 02.02.2020
3597 Clouds 5 1018 75 10000 1.5 60 18:36 02.02.2020
3598 Clouds 5 1018 70 10000 2.1 300 18:18 02.02.2020
3599 Clouds 5 1018 70 10000 2.1 280 17:56 02.02.2020
3600 Clouds 6 1018 70 10000 2.1 280 17:37 02.02.2020
3601 Clouds 9 1018 66 10000 1.5 270 17:18 02.02.2020
3602 Clouds 10 1018 62 10000 3.1 320 16:56 02.02.2020
3603 Clouds 11 1018 58 10000 4.6 300 16:37 02.02.2020
3604 Clouds 12 1018 58 10000 4.6 300 16:18 02.02.2020
3605 Clouds 12 1018 58 10000 4.6 310 15:40 02.02.2020
3606 Clouds 12 1018 58 10000 4.6 310 15:40 02.02.2020
3607 Clouds 13 1018 54 10000 5.7 310 15:20 02.02.2020
3608 Clouds 13 1018 54 10000 5.7 310 15:20 02.02.2020
3609 Clouds 13 1018 54 10000 6.2 300 14:59 02.02.2020
3610 Clouds 13 1018 54 10000 6.2 300 14:41 02.02.2020
3611 Clouds 13 1017 54 10000 6.2 290 14:18 02.02.2020
3612 Clouds 15 1017 47 10000 5.1 290 13:58 02.02.2020
3613 Clouds 15 1017 47 10000 5.1 290 13:38 02.02.2020
3614 Clouds 14 1017 54 10000 6.2 280 13:19 02.02.2020
3615 Clouds 13 1018 54 10000 5.1 310 12:46 02.02.2020
3616 Clouds 14 1018 54 10000 6.2 310 12:23 02.02.2020
3617 Clouds 14 1018 54 10000 2.1 350 11:59 02.02.2020
3618 Clouds 14 1018 54 10000 2.1 350 11:41 02.02.2020
3619 Clouds 12 1018 58 10000 0.5 0 11:19 02.02.2020
3620 Clouds 9 1018 66 10000 1.5 300 10:56 02.02.2020
3621 Clouds 9 1018 66 10000 1.5 300 10:37 02.02.2020
3622 Clouds 9 1018 66 10000 1.5 300 10:37 02.02.2020
3623 Clouds 9 1018 66 10000 1 0 10:19 02.02.2020
3624 Clouds 8 1018 81 10000 1.5 100 09:55 02.02.2020
3625 Clouds 8 1018 81 10000 1.5 100 09:37 02.02.2020
3626 Clear 7 1018 86 10000 2.6 110 09:19 02.02.2020
3627 Clear 4 1018 86 10000 1.5 140 08:42 02.02.2020
3628 Clear 3 1018 62 10000 2.1 140 08:24 02.02.2020
3629 Clear 3 1018 62 10000 2.1 140 08:24 02.02.2020
3630 Clouds 1 1018 87 10000 2.1 110 07:46 02.02.2020
3631 Clouds 0 1018 92 7000 1.5 80 07:28 02.02.2020
3632 Clouds 0 1018 100 8000 1.5 200 06:43 02.02.2020
3633 Clouds -1 1017 100 8000 1 0 06:25 02.02.2020
3634 Clouds -1 1017 100 8000 1.5 110 05:47 02.02.2020
3635 Clouds -1 1017 100 8000 1.5 110 05:47 02.02.2020
3636 Clear 0 1017 100 7000 1 0 04:42 02.02.2020
3637 Clear 1 1017 92 6000 1 0 03:26 02.02.2020
3638 Clear 1 1017 87 6000 0.5 0 02:31 02.02.2020
3639 Clouds 1 1017 84 6000 0.5 0 01:54 02.02.2020
3640 Clear 1 1017 83 6000 1 0 01:22 02.02.2020
3641 Clear 1 1017 83 6000 0.5 0 00:43 02.02.2020
3642 Clear 2 1017 93 8000 1.5 0 00:22 02.02.2020
3643 Clear 2 1017 93 8000 0.5 0 23:46 01.02.2020
3644 Clear 2 1017 86 8000 1 110 23:21 01.02.2020
3645 Clear 3 1017 93 8000 2.1 110 22:51 01.02.2020
3646 Clear 3 1017 86 8000 1.5 180 22:20 01.02.2020
3647 Clear 3 1017 86 8000 1.5 180 22:20 01.02.2020
3648 Clear 4 1017 86 8000 1.5 170 21:57 01.02.2020
3649 Clear 4 1017 86 8000 1.5 170 21:38 01.02.2020
3650 Clear 4 1017 75 7000 2.1 170 21:18 01.02.2020
3651 Clear 4 1017 86 8000 2.1 150 20:40 01.02.2020
3652 Clear 4 1017 80 10000 1.5 130 20:20 01.02.2020
3653 Clear 6 1016 75 10000 1.11 228 19:57 01.02.2020
3654 Clear 6 1016 75 10000 1.11 228 19:38 01.02.2020
3655 Clear 8 1016 61 10000 2.6 210 19:19 01.02.2020
3656 Clear 7 1016 66 10000 2.6 210 18:57 01.02.2020
3657 Clear 7 1016 70 10000 3.1 200 18:38 01.02.2020
3658 Clear 7 1016 70 10000 3.1 200 18:20 01.02.2020
3659 Clear 8 1016 57 10000 1.5 210 17:56 01.02.2020
3660 -273 0 0 0 0 0 17:38 01.02.2020
3661 Clear 9 1016 58 10000 1 0 17:19 01.02.2020
3662 Clear 9 1016 54 10000 2.6 310 16:42 01.02.2020
3663 Clear 10 1016 47 10000 3.6 310 16:23 01.02.2020
3664 Clear 10 1016 47 10000 4.6 310 15:56 01.02.2020
3665 Clear 11 1016 47 10000 4.6 310 15:38 01.02.2020
3666 Clear 11 1016 44 10000 5.1 300 15:18 01.02.2020
3667 Clear 11 1016 44 10000 5.1 300 15:18 01.02.2020
3668 Clear 11 1016 44 10000 4.6 300 14:40 01.02.2020
3669 Clear 16 1016 44 10000 4.6 300 14:21 01.02.2020
3670 Clear 15 1017 47 10000 4.6 310 13:45 01.02.2020
3671 Clear 15 1017 47 10000 4.1 300 13:24 01.02.2020
3672 Clear 15 1017 47 10000 4.1 280 12:57 01.02.2020
3673 Clear 15 1017 47 10000 4.1 280 12:38 01.02.2020
3674 Clear 14 1017 50 10000 5.7 300 12:20 01.02.2020
3675 Clear 14 1018 47 10000 5.1 280 11:42 01.02.2020
3676 Clear 13 1018 50 10000 6.2 280 11:23 01.02.2020
3677 Clear 13 1018 50 10000 5.1 280 10:58 01.02.2020
3678 Clear 12 1019 54 10000 2.6 330 10:39 01.02.2020
3679 Clear 12 1019 54 10000 2.6 330 10:21 01.02.2020
3680 Clouds 10 1019 61 10000 1 0 09:58 01.02.2020
3681 Clouds 11 1019 70 10000 1.5 350 09:39 01.02.2020
3682 Clouds 10 1019 70 10000 1.5 350 09:20 01.02.2020
3683 Clouds 11 1018 65 10000 1.5 360 08:46 01.02.2020
3684 Clouds 5 1018 80 10000 1.5 50 07:50 01.02.2020
3685 Clouds 7 1018 65 10000 2.1 360 07:27 01.02.2020
3686 Clouds 6 1018 70 10000 4.1 310 06:56 01.02.2020
3687 Clouds 6 1018 70 10000 4.1 310 06:56 01.02.2020
3688 Clouds 7 1017 65 10000 2.6 290 06:33 01.02.2020
3689 Clouds 8 1017 65 10000 2.6 30 05:52 01.02.2020
3690 Clouds 6 1016 77 10000 3.1 330 03:56 01.02.2020
3691 Clouds 7 1016 77 10000 4.6 310 03:21 01.02.2020
3692 Clouds 6 1016 77 10000 4.6 310 02:46 01.02.2020
3693 Clouds 6 1016 77 10000 3.6 340 02:27 01.02.2020
3694 Clouds 7 1016 66 10000 3.1 330 01:54 01.02.2020
3695 Clouds 7 1015 66 10000 3.6 320 01:31 01.02.2020
3696 Clouds 6 1015 60 10000 4.1 320 00:30 01.02.2020
3697 Clouds 6 1015 60 10000 4.6 320 23:43 31.01.2020
3698 Clouds 6 1015 56 10000 5.1 300 23:20 31.01.2020
3699 Clouds 6 1015 56 10000 5.7 310 22:59 31.01.2020
3700 Clouds 6 1015 56 10000 5.7 310 22:40 31.01.2020
3701 Clouds 6 1015 60 10000 4.1 350 22:22 31.01.2020
3702 Clouds 6 1015 60 10000 4.1 340 21:56 31.01.2020
3703 Clouds 6 1015 60 10000 4.1 340 21:38 31.01.2020
3704 Clouds 4 1015 60 10000 4.6 320 21:19 31.01.2020
3705 Clouds 4 1015 60 10000 4.6 360 20:56 31.01.2020
3706 Clouds 4 1015 60 10000 4.6 360 20:37 31.01.2020
3707 Clouds 4 1014 56 10000 4.6 350 20:19 31.01.2020
3708 Clouds 3 1014 56 10000 4.1 360 19:56 31.01.2020
3709 Clouds 3 1014 56 10000 4.1 360 19:37 31.01.2020
3710 Clouds 5 1014 56 10000 3.6 360 19:18 31.01.2020
3711 Clouds 3 1014 56 10000 4.1 350 18:41 31.01.2020
3712 Clouds 4 1014 49 10000 3.6 350 18:23 31.01.2020
3713 Clouds 5 1014 42 10000 4.6 310 17:54 31.01.2020
3714 Clouds 5 1014 42 10000 4.6 310 17:36 31.01.2020
3715 Clouds 5 1014 42 10000 4.6 310 17:36 31.01.2020
3716 Clouds 6 1014 37 10000 4.1 300 17:18 31.01.2020
3717 Clouds 7 1014 34 10000 4.1 290 16:54 31.01.2020
3718 Clouds 7 1014 34 10000 4.1 290 16:54 31.01.2020
3719 Clouds 7 1014 37 10000 3.6 320 16:36 31.01.2020
3720 Clouds 7 1014 37 10000 3.6 320 16:18 31.01.2020
3721 Clouds 7 1014 40 10000 3.6 320 15:41 31.01.2020
3722 Clouds 10 1014 43 10000 4.1 340 15:20 31.01.2020
3723 Clouds 10 1014 43 10000 4.1 340 15:20 31.01.2020
3724 Clouds 10 1014 39 10000 4.1 340 14:45 31.01.2020
3725 Clouds 11 1014 34 10000 4.6 340 14:26 31.01.2020
3726 Clouds 10 1015 37 10000 4.6 320 13:59 31.01.2020
3727 Clouds 10 1015 37 10000 4.6 320 13:38 31.01.2020
3728 Clouds 9 1015 42 10000 0.5 0 13:20 31.01.2020
3729 Clouds 8 1016 45 10000 1.5 0 12:45 31.01.2020
3730 Clouds 6 1016 52 10000 2.1 140 12:24 31.01.2020
3731 Clouds 9 1017 52 10000 1 0 11:56 31.01.2020
3732 Clouds 7 1017 52 10000 1 0 11:37 31.01.2020
3733 Clouds 4 1017 55 10000 1 0 11:19 31.01.2020
3734 Clouds 3 1018 55 10000 1.5 230 10:44 31.01.2020
3735 Clouds 3 1018 55 10000 1.5 230 10:44 31.01.2020
3736 Clouds 2 1018 59 10000 1 0 10:23 31.01.2020
3737 Clouds 1 1018 64 10000 1.5 150 09:59 31.01.2020
3738 Clouds 4 1018 64 10000 1.5 150 09:41 31.01.2020
3739 Clouds 2 1019 35 10000 0.5 0 09:21 31.01.2020
3740 Clouds 2 1019 80 10000 1.5 80 08:54 31.01.2020
3741 Clouds 2 1019 80 10000 1.5 80 08:54 31.01.2020
3742 Clouds 1 1019 50 10000 2.1 0 08:28 31.01.2020
3743 Clouds -3 1019 85 8000 2.1 210 07:59 31.01.2020
3744 Clouds -3 1019 85 8000 2.1 210 07:40 31.01.2020
3745 Clouds -4 1019 85 10000 1 170 07:18 31.01.2020
3746 Clouds -4 1018 85 10000 1.5 130 06:27 31.01.2020
3747 Clouds -4 1019 85 10000 2.1 100 05:53 31.01.2020
3748 Clouds -4 1019 92 10000 2.34 275 05:18 31.01.2020
3749 Clouds -1 1019 79 8000 2.1 260 03:29 31.01.2020
3750 Clear -1 1019 79 10000 2.1 250 01:40 31.01.2020
3751 Clear -2 1019 86 10000 2.1 230 00:47 31.01.2020
3752 Clear -3 1019 86 10000 1.5 260 00:28 31.01.2020
3753 Clear -2 1020 80 10000 3.1 240 23:58 30.01.2020
3754 Clear -2 1020 86 10000 2.1 200 23:26 30.01.2020
3755 Clear -1 1020 86 10000 2.1 320 22:58 30.01.2020
3756 Clear -1 1020 86 10000 2.1 320 22:38 30.01.2020
3757 Clear 0 1020 80 10000 1 0 22:19 30.01.2020
3758 Clear -1 1020 80 10000 3.1 320 21:57 30.01.2020
3759 Clear 1 1020 69 10000 2.6 320 21:39 30.01.2020
3760 Clear 1 1020 69 10000 2.6 320 21:18 30.01.2020
3761 Clear 1 1020 69 10000 2.6 320 21:18 30.01.2020
3762 Clear 2 1020 59 10000 4.1 290 20:42 30.01.2020
3763 Clear 2 1020 59 10000 5.1 290 20:22 30.01.2020
3764 Clouds 2 1020 64 10000 7.7 280 19:58 30.01.2020
3765 Clouds 2 1020 64 10000 7.7 280 19:40 30.01.2020
3766 Clouds 2 1020 64 10000 7.2 280 19:19 30.01.2020
3767 Clouds 3 1020 55 10000 5.7 280 18:42 30.01.2020
3768 Clouds 3 1019 59 10000 6.7 280 18:23 30.01.2020
3769 Clouds 3 1019 59 10000 5.7 280 17:58 30.01.2020
3770 Clouds 3 1019 59 10000 5.7 280 17:39 30.01.2020
3771 Clouds 3 1019 59 10000 6.2 280 17:19 30.01.2020
3772 Clouds 3 1018 55 10000 6.7 290 16:58 30.01.2020
3773 Clouds 4 1018 55 10000 6.7 290 16:38 30.01.2020
3774 Clouds 4 1018 55 10000 7.2 290 16:20 30.01.2020
3775 Clouds 5 1018 52 10000 8.7 280 15:44 30.01.2020
3776 Clouds 5 1018 52 10000 7.7 280 15:20 30.01.2020
3777 Clouds 5 1017 52 10000 8.2 280 14:50 30.01.2020
3778 Clouds 6 1017 56 10000 8.7 280 14:27 30.01.2020
3779 Clouds 5 1017 56 10000 9.3 290 13:58 30.01.2020
3780 Clouds 5 1017 56 10000 9.3 290 13:38 30.01.2020
3781 Clouds 5 1017 56 10000 8.7 290 13:20 30.01.2020
3782 Clouds 5 1018 56 10000 8.2 290 12:43 30.01.2020
3783 Clouds 3 1018 74 10000 7.2 280 12:24 30.01.2020
3784 Clouds 3 1018 74 10000 6.7 280 11:58 30.01.2020
3785 Clouds 3 1018 74 10000 6.7 280 11:40 30.01.2020
3786 Snow 3 1018 80 8000 6.2 280 11:21 30.01.2020
3787 Clouds 4 1018 69 10000 5.7 290 10:42 30.01.2020
3788 Clouds 4 1018 74 10000 5.1 300 10:24 30.01.2020
3789 Clouds 4 1018 74 10000 3.1 320 09:49 30.01.2020
3790 Clouds 4 1018 74 10000 3.1 320 09:49 30.01.2020
3791 Clouds 3 1017 80 10000 4.6 310 09:30 30.01.2020
3792 Clouds 3 1017 80 10000 3.1 310 08:59 30.01.2020
3793 Clouds 3 1017 80 10000 3.1 310 08:41 30.01.2020
3794 Clouds 1 1016 86 10000 3.1 320 08:20 30.01.2020
3795 Clouds 1 1016 87 10000 3.1 320 07:49 30.01.2020
3796 Clouds 1 1016 87 10000 2.1 320 07:29 30.01.2020
3797 Clouds 1 1015 80 10000 2.1 330 06:47 30.01.2020
3798 Clouds 2 1015 74 10000 2.1 10 06:29 30.01.2020
3799 Clouds 2 1014 74 10000 4.1 290 05:44 30.01.2020
3800 Clouds 2 1014 80 10000 6.7 280 05:22 30.01.2020
3801 Clouds 2 1014 86 10000 6.7 280 03:55 30.01.2020
3802 Clouds 2 1014 86 10000 6.7 280 03:36 30.01.2020
3803 Clouds 3 1014 86 10000 3.6 300 02:42 30.01.2020
3804 Clouds 3 1012 86 10000 4.1 300 00:43 30.01.2020
3805 Clouds 3 1012 86 10000 3.6 300 00:21 30.01.2020
3806 Clouds 3 1012 86 10000 4.6 280 23:46 29.01.2020
3807 Clouds 3 1012 93 8000 3.6 260 23:22 29.01.2020
3808 Rain 3 1012 93 5000 3.1 290 22:57 29.01.2020
3809 Rain 3 1012 93 5000 3.1 290 22:38 29.01.2020
3810 Clouds 2 1011 93 6000 1.5 340 22:19 29.01.2020
3811 Clouds 2 1010 93 8000 0.5 0 21:58 29.01.2020
3812 Clouds 2 1010 93 8000 0.5 0 21:38 29.01.2020
3813 Clouds 2 1010 90 8000 2.1 280 21:19 29.01.2020
3814 Clouds 1 1010 90 8000 1.5 180 20:57 29.01.2020
3815 Clouds 1 1010 90 8000 1.5 180 20:38 29.01.2020
3816 Clouds 1 1010 90 8000 1.5 180 20:38 29.01.2020
3817 Clouds 1 1010 82 10000 1.5 120 20:19 29.01.2020
3818 Clouds 1 1010 82 10000 1.5 120 20:19 29.01.2020
3819 Clouds 1 1010 82 10000 1.5 60 19:55 29.01.2020
3820 Clouds 1 1010 82 10000 1.5 60 19:37 29.01.2020
3821 Clouds 1 1010 82 10000 1.5 60 19:37 29.01.2020
3822 Clouds 2 1010 93 10000 2.1 100 19:18 29.01.2020
3823 Clouds 0 1010 82 10000 1.5 170 18:43 29.01.2020
3824 Clouds 1 1010 86 10000 1.5 200 18:19 29.01.2020
3825 Clouds 1 1010 86 8000 2.1 160 17:55 29.01.2020
3826 Clouds 1 1010 80 10000 1 160 17:37 29.01.2020
3827 Clouds 4 1010 80 10000 1 160 17:18 29.01.2020
3828 Clouds 5 1010 75 10000 1.5 80 16:40 29.01.2020
3829 Clouds 5 1010 75 10000 1.16 285 16:22 29.01.2020
3830 Clouds 6 1010 70 10000 0.5 10 15:40 29.01.2020
3831 Clouds 6 1010 70 10000 1 0 15:22 29.01.2020
3832 Clouds 6 1010 70 10000 1 0 14:58 29.01.2020
3833 Clouds 6 1010 70 10000 1 0 14:58 29.01.2020
3834 Clouds 6 1010 70 10000 1 0 14:40 29.01.2020
3835 Clouds 6 1010 70 10000 2.1 280 14:18 29.01.2020
3836 Clouds 6 1010 70 10000 2.1 310 13:41 29.01.2020
3837 Clouds 6 1010 75 10000 2.6 330 13:22 29.01.2020
3838 Clouds 6 1010 75 10000 2.6 330 13:22 29.01.2020
3839 Clouds 6 1011 75 10000 3.1 310 12:56 29.01.2020
3840 Clouds 6 1011 75 10000 3.1 310 12:38 29.01.2020
3841 Clouds 6 1011 80 10000 4.1 300 12:20 29.01.2020
3842 Clouds 5 1011 86 10000 5.7 300 11:47 29.01.2020
3843 Clouds 4 1011 86 10000 5.7 290 11:25 29.01.2020
3844 Clouds 4 1011 86 10000 6.7 300 10:59 29.01.2020
3845 Clouds 3 1011 93 10000 3.6 320 10:40 29.01.2020
3846 Clouds 3 1011 93 10000 3.6 320 10:20 29.01.2020
3847 Rain 3 1011 86 8000 8.7 280 09:40 29.01.2020
3848 Rain 1 1011 86 8000 8.7 280 09:22 29.01.2020
3849 Rain 3 1011 86 8000 8.7 280 09:22 29.01.2020
3850 Rain 2 1010 86 3000 9.3 290 08:58 29.01.2020
3851 Rain 2 1010 86 3000 9.3 290 08:39 29.01.2020
3852 Rain 6 1007 61 7000 3.6 0 08:20 29.01.2020
3853 Clouds 5 1006 65 10000 4.6 110 07:45 29.01.2020
3854 Clouds 3 1006 65 10000 3.1 120 07:25 29.01.2020
3855 Clouds 2 1005 70 10000 3.1 0 06:55 29.01.2020
3856 Clouds 3 1005 65 10000 5.7 20 06:37 29.01.2020
3857 Clouds 3 1005 65 10000 5.7 20 06:18 29.01.2020
3858 Clouds 3 1005 61 10000 2.6 30 05:44 29.01.2020
3859 Clouds 3 1005 61 10000 3.1 0 05:25 29.01.2020
3860 Clouds 3 1005 65 10000 3.6 0 04:37 29.01.2020
3861 Clouds 2 1007 70 10000 4.1 40 02:50 29.01.2020
3862 Clouds 2 1008 83 10000 3.6 90 02:18 29.01.2020
3863 Clouds 2 1009 70 10000 3.1 50 00:43 29.01.2020
3864 Clouds 2 1009 75 10000 3.6 30 00:24 29.01.2020
3865 Clouds 1 1010 82 10000 3.1 50 23:58 28.01.2020
3866 Clouds 2 1010 82 10000 3.1 50 23:37 28.01.2020
3867 Clouds 0 1010 80 10000 2.1 90 23:18 28.01.2020
3868 Clouds 1 1010 79 10000 3.6 60 22:40 28.01.2020
3869 Clouds 1 1010 74 10000 3.1 80 22:21 28.01.2020
3870 Clouds 1 1010 80 10000 2.6 120 21:42 28.01.2020
3871 Clouds 1 1010 80 10000 2.6 120 21:42 28.01.2020
3872 Clouds 1 1010 80 10000 3.1 110 21:22 28.01.2020
3873 Clouds 2 1011 74 10000 3.6 90 20:58 28.01.2020
3874 Clouds 2 1011 74 10000 3.6 90 20:39 28.01.2020
3875 Clouds 2 1011 74 10000 3.6 90 20:39 28.01.2020
3876 Clouds 2 1011 75 8000 3.1 100 20:21 28.01.2020
3877 Clouds 3 1011 75 10000 1 0 19:39 28.01.2020
3878 Clouds 3 1011 75 10000 1 0 19:20 28.01.2020
3879 Clouds 3 1011 75 10000 2.1 100 18:58 28.01.2020
3880 Clouds 3 1011 75 10000 2.1 100 18:58 28.01.2020
3881 Clouds 3 1011 75 10000 2.1 100 18:39 28.01.2020
3882 Clouds 3 1011 65 10000 2.1 90 18:21 28.01.2020
3883 Clouds 3 1011 75 10000 2.1 310 17:57 28.01.2020
3884 Clouds 4 1011 53 10000 3.6 290 17:37 28.01.2020
3885 Clouds 9 1011 53 10000 3.6 290 17:19 28.01.2020
3886 Clouds 9 1011 53 10000 3.6 290 17:19 28.01.2020
3887 Clouds 9 1011 53 10000 3.6 290 17:19 28.01.2020
3888 Clouds 10 1012 53 10000 2.1 310 16:46 28.01.2020
3889 Clouds 10 1011 53 10000 3.1 320 16:27 28.01.2020
3890 Clouds 11 1011 53 10000 3.1 310 15:59 28.01.2020
3891 Clouds 11 1011 53 10000 3.1 310 15:41 28.01.2020
3892 Clouds 11 1011 50 10000 3.6 310 15:18 28.01.2020
3893 Clouds 12 1011 66 10000 2.6 320 14:45 28.01.2020
3894 Clouds 10 1012 53 10000 2.6 340 14:20 28.01.2020
3895 Clouds 12 1012 46 10000 5.7 270 13:57 28.01.2020
3896 Clouds 12 1012 46 10000 5.7 270 13:38 28.01.2020
3897 Clouds 11 1012 56 10000 4.6 280 13:19 28.01.2020
3898 Clouds 12 1013 53 10000 2.6 320 12:42 28.01.2020
3899 Clouds 11 1013 61 10000 2.6 300 12:22 28.01.2020
3900 Clouds 10 1014 61 10000 3.1 310 11:48 28.01.2020
3901 Clouds 8 1014 65 10000 3.1 240 11:23 28.01.2020
3902 Clouds 6 1015 75 10000 2.1 240 10:56 28.01.2020
3903 Clouds 6 1015 75 10000 2.1 240 10:56 28.01.2020
3904 Clouds 6 1015 75 10000 2.1 240 10:38 28.01.2020
3905 Clouds 5 1015 80 10000 2.6 250 10:18 28.01.2020
3906 Clouds 6 1015 80 10000 2.6 260 09:42 28.01.2020
3907 Clouds 5 1015 80 10000 2.1 270 09:21 28.01.2020
3908 Clouds 4 1015 86 8000 1.5 280 08:47 28.01.2020
3909 Clouds 3 1015 93 8000 1 0 08:27 28.01.2020
3910 Clouds 3 1015 92 8000 3.1 270 07:57 28.01.2020
3911 Clouds 2 1015 92 8000 2.6 200 07:36 28.01.2020
3912 Clouds 1 1015 92 8000 1.5 190 06:49 28.01.2020
3913 Clouds 2 1015 93 8000 2.1 320 06:25 28.01.2020
3914 Clouds 2 1015 93 8000 3.6 340 05:42 28.01.2020
3915 Clouds 2 1015 93 8000 2.6 20 05:24 28.01.2020
3916 Clouds 4 1015 86 10000 4.6 300 03:51 28.01.2020
3917 Clouds 4 1015 86 10000 3.6 300 02:55 28.01.2020
3918 Clouds 4 1015 86 10000 4.1 300 02:25 28.01.2020
3919 Clouds 5 1015 80 10000 4.6 300 01:56 28.01.2020
3920 Clouds 4 1015 86 10000 4.1 320 01:22 28.01.2020
3921 Clouds 5 1016 80 10000 5.1 300 00:45 28.01.2020
3922 Clouds 2 1016 80 10000 5.1 290 00:23 28.01.2020
3923 Clouds 2 1016 80 10000 4.6 300 23:44 27.01.2020
3924 Clouds 5 1016 80 10000 5.7 290 23:20 27.01.2020
3925 Clouds 5 1016 80 10000 5.7 280 22:45 27.01.2020
3926 Clouds 5 1016 86 10000 4.6 280 22:21 27.01.2020
3927 Clouds 5 1016 86 10000 4.1 280 21:58 27.01.2020
3928 Clouds 2 1016 86 10000 4.1 280 21:39 27.01.2020
3929 Clouds 2 1016 86 10000 4.6 280 21:19 27.01.2020
3930 Clouds 2 1016 86 10000 4.6 280 21:19 27.01.2020
3931 Clouds 3 1016 81 10000 4.1 280 20:57 27.01.2020
3932 Clouds 3 1016 81 10000 4.1 280 20:38 27.01.2020
3933 Clouds 6 1015 81 10000 4.6 280 20:19 27.01.2020
3934 Clouds 6 1015 87 10000 4.6 290 19:56 27.01.2020
3935 Clouds 6 1015 87 10000 4.6 290 19:38 27.01.2020
3936 Clouds 6 1015 87 10000 4.1 290 19:19 27.01.2020
3937 Clouds 6 1015 87 10000 5.1 290 18:39 27.01.2020
3938 Clouds 7 1015 81 10000 4.6 300 18:21 27.01.2020
3939 Clouds 7 1015 87 7000 3.6 280 17:58 27.01.2020
3940 Mist 6 1014 93 3000 2.1 260 17:38 27.01.2020
3941 Mist 6 1014 93 3000 2.1 260 17:19 27.01.2020
3942 Mist 6 1014 93 3000 2.1 260 16:55 27.01.2020
3943 Mist 7 1014 93 3000 2.1 260 16:36 27.01.2020
3944 Mist 7 1014 93 3000 2.1 260 16:36 27.01.2020
3945 Rain 7 1015 93 3500 1.5 280 16:18 27.01.2020
3946 Rain 6 1015 93 3000 2.1 270 15:41 27.01.2020
3947 Rain 7 1014 81 4500 2.6 290 15:19 27.01.2020
3948 Mist 7 1014 87 5000 2.6 280 14:56 27.01.2020
3949 Mist 7 1014 87 5000 2.6 280 14:37 27.01.2020
3950 Mist 7 1014 87 5000 2.6 280 14:37 27.01.2020
3951 Mist 9 1014 81 5000 3.1 270 14:19 27.01.2020
3952 Mist 7 1014 81 5000 2.6 290 13:42 27.01.2020
3953 Mist 6 1014 87 4000 2.1 310 13:22 27.01.2020
3954 Mist 9 1015 87 5000 2.1 280 12:56 27.01.2020
3955 Mist 9 1015 87 4500 2.6 290 12:38 27.01.2020
3956 Mist 8 1015 87 4500 2.6 290 12:20 27.01.2020
3957 Rain 7 1015 87 5000 1 0 11:42 27.01.2020
3958 Rain 5 1016 86 5000 1 0 11:21 27.01.2020
3959 Rain 7 1016 86 4500 1 0 10:55 27.01.2020
3960 Rain 6 1016 86 4500 1 0 10:36 27.01.2020
3961 Rain 6 1016 93 3500 1 0 10:18 27.01.2020
3962 Rain 5 1016 93 3000 1.5 10 09:39 27.01.2020
3963 Rain 4 1016 93 2500 1.5 40 09:19 27.01.2020
3964 Rain 3 1017 93 2500 1.5 320 08:47 27.01.2020
3965 Rain 1 1017 93 4000 1 0 08:23 27.01.2020
3966 Rain 1 1017 93 4500 1 0 07:55 27.01.2020
3967 Rain 1 1017 90 6000 0.5 0 07:36 27.01.2020
3968 Clouds 1 1017 90 7000 1 0 06:55 27.01.2020
3969 Rain 1 1017 90 8000 1.5 130 06:27 27.01.2020
3970 Clouds 1 1017 90 7000 3.1 340 05:37 27.01.2020
3971 Clouds 1 1017 90 10000 1.5 360 05:37 27.01.2020
3972 Clouds 0 1017 86 9000 2.1 140 04:20 27.01.2020
3973 Clouds 0 1018 80 7000 2.1 140 03:23 27.01.2020
3974 Clouds 1 1019 90 7000 1.5 140 01:32 27.01.2020
3975 Clouds 1 1019 88 6000 2.1 180 00:59 27.01.2020
3976 Clouds 2 1019 88 6000 2.1 180 00:37 27.01.2020
3977 Clouds 2 1020 88 8000 0.5 0 00:19 27.01.2020
3978 Clouds 2 1020 88 8000 0.5 0 23:41 26.01.2020
3979 Clouds 2 1020 87 7000 1 0 23:19 26.01.2020
3980 Clouds 3 1020 75 7000 1.38 156 22:55 26.01.2020
3981 Clouds 3 1020 75 7000 1.38 156 22:37 26.01.2020
3982 Clouds 3 1021 75 8000 2.6 210 22:18 26.01.2020
3983 Mist 3 1020 87 5000 1 0 21:56 26.01.2020
3984 Mist 4 1020 87 5000 1 0 21:38 26.01.2020
3985 Clouds 3 1021 87 8000 1 0 21:19 26.01.2020
3986 Clouds 3 1021 87 8000 1 0 20:55 26.01.2020
3987 Clouds 3 1021 87 8000 1 0 20:36 26.01.2020
3988 Clouds 3 1021 85 7000 0.5 0 20:18 26.01.2020
3989 Clouds 3 1020 85 8000 2.1 150 19:56 26.01.2020
3990 Clouds 3 1020 85 8000 2.1 150 19:36 26.01.2020
3991 Clouds 4 1021 85 8000 2.6 110 19:18 26.01.2020
3992 Clouds 4 1021 85 7000 1 100 18:40 26.01.2020
3993 Clouds 4 1021 85 8000 2.1 130 18:22 26.01.2020
3994 Clouds 4 1021 85 10000 3.1 100 17:58 26.01.2020
3995 Clouds 4 1021 85 10000 3.1 100 17:38 26.01.2020
3996 Clouds 5 1021 77 8000 2.6 90 17:19 26.01.2020
3997 Clouds 5 1021 77 8000 3.1 160 16:58 26.01.2020
3998 Clouds 5 1021 77 8000 3.1 160 16:39 26.01.2020
3999 Clouds 9 1021 77 8000 2.6 150 16:20 26.01.2020
4000 Clouds 9 1021 77 8000 2.6 150 16:20 26.01.2020
4001 Clouds 11 1021 50 10000 2.1 160 15:55 26.01.2020
4002 Clouds 6 1022 46 10000 1 0 15:36 26.01.2020
4003 Clouds -2 1016 75 0 0.45 269 15:18 26.01.2020
4004 Clouds -2 1016 75 0 0.45 282 14:39 26.01.2020
4005 Clouds 9 1022 60 0 0.64 307 14:19 26.01.2020
4006 Clouds 9 1022 60 0 0.64 307 13:42 26.01.2020
4007 Clouds 9 1022 60 0 0.22 259 13:20 26.01.2020
4008 Clouds 9 1022 60 0 0.22 259 12:57 26.01.2020
4009 Clouds 9 1022 60 0 0.22 259 12:38 26.01.2020
4010 Clouds 9 1022 60 0 0.22 259 12:20 26.01.2020
4011 Clouds 9 1022 60 0 0.22 259 11:57 26.01.2020
4012 Clouds 9 1022 60 0 0.22 259 11:37 26.01.2020
4013 Clouds 2 1025 80 8000 1 0 11:18 26.01.2020
4014 Clouds 2 1025 80 8000 1 0 10:56 26.01.2020
4015 Clouds 2 1025 80 8000 1 0 10:38 26.01.2020
4016 Clouds 2 1025 80 8000 1 0 10:19 26.01.2020
4017 Clouds 2 1025 80 8000 1 0 10:19 26.01.2020
4018 Clouds 5 1025 86 7000 0.5 0 09:56 26.01.2020
4019 Clouds 5 1025 80 7000 0.72 268 09:37 26.01.2020
4020 Clouds 4 1025 80 7000 0.72 268 09:19 26.01.2020
4021 Clouds 1 1025 69 7000 1.5 50 08:41 26.01.2020
4022 Clouds -1 1025 92 6000 1 0 08:22 26.01.2020
4023 Clouds -2 1025 92 6000 1.33 254 07:50 26.01.2020
4024 Clouds -2 1025 92 7000 1 0 07:27 26.01.2020
4025 Clouds -3 1024 92 7000 1.33 254 06:55 26.01.2020
4026 Clouds -3 1024 92 6000 2.1 120 06:25 26.01.2020
4027 Clouds -3 1024 92 6000 1.33 254 05:29 26.01.2020
4028 Clouds -4 1024 92 6000 1.67 258 03:57 26.01.2020
4029 Clouds -3 1024 92 6000 1.5 120 02:38 26.01.2020
4030 Mist -3 1024 92 5000 2.28 256 01:45 26.01.2020
4031 Clouds -3 1024 92 6000 1.5 170 01:22 26.01.2020
4032 Clouds -3 1024 92 7000 1.5 140 00:42 26.01.2020
4033 Clouds -2 1024 86 7000 2.1 120 00:24 26.01.2020
4034 Clouds -2 1022 81 0 1.88 263 23:39 25.01.2020
4035 Clear -2 1017 73 0 3.13 256 23:21 25.01.2020
4036 Clear -2 1023 80 0 2.25 255 22:56 25.01.2020
4037 Clear -2 1023 79 0 2.25 255 22:36 25.01.2020
4038 Clear -2 1023 79 0 2.25 255 22:18 25.01.2020
4039 Clear -2 1023 78 0 2.25 255 21:41 25.01.2020
4040 Clear -2 1023 76 0 2.25 255 21:23 25.01.2020
4041 Clear 1 1026 87 0 2.25 255 20:56 25.01.2020
4042 Clear 1 1026 87 0 2.25 255 20:38 25.01.2020
4043 Clouds 1 1025 80 0 1.9 246 20:20 25.01.2020
4044 Clouds 1 1025 80 0 1.9 246 19:44 25.01.2020
4045 Clouds -1 1017 56 0 3.58 287 19:20 25.01.2020
4046 Clouds -1 1023 68 0 1.98 244 18:57 25.01.2020
4047 Clouds -1 1023 65 0 1.98 244 18:39 25.01.2020
4048 Clouds 0 1023 63 0 1.9 246 18:20 25.01.2020
4049 Clouds 1 1022 58 0 1.9 246 17:42 25.01.2020
4050 Clouds 3 1022 56 0 1.72 270 17:23 25.01.2020
4051 Clouds 4 1022 51 0 1.72 270 16:58 25.01.2020
4052 Clouds 5 1022 48 0 1.66 271 16:39 25.01.2020
4053 Clouds 2 1018 30 0 0.89 208 16:19 25.01.2020
4054 Clouds 3 1018 29 0 0.89 218 15:47 25.01.2020
4055 Clouds 3 1018 28 0 0.89 224 15:25 25.01.2020
4056 Clouds 3 1018 31 0 1.34 246 14:59 25.01.2020
4057 Clouds 3 1018 27 0 1.34 252 14:40 25.01.2020
4058 Clear 3 1018 31 0 1.34 260 14:18 25.01.2020
4059 Clear 3 1018 31 0 1.34 259 13:42 25.01.2020
4060 Clear 3 1018 31 0 1.34 259 13:42 25.01.2020
4061 Clouds 4 1018 28 0 1.34 283 13:23 25.01.2020
4062 Clouds 7 1025 51 7000 1 0 12:45 25.01.2020
4063 Clouds 8 1025 51 7000 1 0 12:26 25.01.2020
4064 Clouds 7 1025 51 7000 1 0 11:45 25.01.2020
4065 Clouds 3 1026 55 8000 1 0 11:22 25.01.2020
4066 Clear 3 1026 59 7000 0.5 0 10:59 25.01.2020
4067 Clear 3 1026 59 7000 0.5 0 10:40 25.01.2020
4068 Clear 2 1026 64 6000 1 0 10:20 25.01.2020
4069 Clear 2 1026 74 6000 1 0 09:41 25.01.2020
4070 Mist 0 1026 79 5000 1.5 90 09:22 25.01.2020
4071 Mist -1 1026 85 4500 1 0 08:44 25.01.2020
4072 Mist -3 1026 85 4500 1 0 08:26 25.01.2020
4073 Mist -5 1026 92 4200 1.67 269 07:50 25.01.2020
4074 Clear -5 1026 92 6000 1.5 130 06:52 25.01.2020
4075 Clear -5 1026 92 6000 1.5 130 06:51 25.01.2020
4076 Clear -5 1026 92 7000 2.6 110 06:28 25.01.2020
4077 Clear -5 1026 85 8000 1.5 110 05:46 25.01.2020
4078 Clear -5 1026 92 6000 0.5 0 04:50 25.01.2020
4079 Clear -5 1026 92 7000 1.89 262 03:51 25.01.2020
4080 Clear -5 1026 92 7000 1.89 262 02:57 25.01.2020
4081 Clear -5 1026 85 6000 1.5 110 02:18 25.01.2020
4082 Clear -5 1026 92 8000 2.6 150 01:37 25.01.2020
4083 Clear -4 1027 92 7000 1 60 00:44 25.01.2020
4084 Clear -4 1027 92 8000 1.96 263 00:25 25.01.2020
4085 Clear -3 1027 85 8000 1 0 23:57 24.01.2020
4086 Clear -3 1027 85 8000 1 0 23:38 24.01.2020
4087 Clear -3 1027 85 8000 1.5 120 23:20 24.01.2020
4088 Clear -2 1027 79 7000 1.5 150 22:42 24.01.2020
4089 Clear -3 1027 85 8000 1 0 22:24 24.01.2020
4090 Mist -2 1028 85 5000 1.5 130 21:43 24.01.2020
4091 Mist -1 1028 79 5000 1.5 150 21:20 24.01.2020
4092 Mist -1 1028 79 5000 1.5 150 21:20 24.01.2020
4093 Clear -2 1028 85 6000 1 0 20:56 24.01.2020
4094 Mist -2 1028 79 5000 2.1 160 20:38 24.01.2020
4095 Mist -2 1028 79 5000 2.1 160 20:19 24.01.2020
4096 Clear -2 1028 79 6000 1.5 160 19:55 24.01.2020
4097 Clear -2 1028 79 6000 1.5 160 19:37 24.01.2020
4098 Clear -1 1028 73 8000 1.5 0 19:19 24.01.2020
4099 Clear -1 1028 73 8000 1 0 18:43 24.01.2020
4100 Clear -1 1028 73 8000 1 0 18:43 24.01.2020
4101 Clear 0 1028 63 8000 1.92 250 18:23 24.01.2020
4102 Clear 1 1028 67 10000 1 0 17:46 24.01.2020
4103 Clear 2 1027 51 10000 1 0 17:23 24.01.2020
4104 Clear 3 1027 47 10000 1 0 16:58 24.01.2020
4105 Clear 3 1027 47 10000 1 0 16:39 24.01.2020
4106 Clear 4 1028 48 10000 1 160 16:19 24.01.2020
4107 Clear 4 1028 44 10000 0.5 0 15:42 24.01.2020
4108 Clear 4 1028 44 10000 1.26 252 15:22 24.01.2020
4109 Clear 4 1028 44 10000 1.26 252 14:55 24.01.2020
4110 Clear 4 1029 51 10000 1 0 14:37 24.01.2020
4111 Clear 4 1029 51 10000 1 0 14:19 24.01.2020
4112 Clear 4 1029 51 9000 1 0 13:41 24.01.2020
4113 Clear 3 1029 51 8000 1 0 13:22 24.01.2020
4114 Clear 4 1030 55 8000 1.5 260 12:43 24.01.2020
4115 Clear 4 1030 59 8000 1 0 12:21 24.01.2020
4116 Clear 3 1031 36 8000 0.5 0 11:45 24.01.2020
4117 Clear 1 1031 74 7000 1.5 160 11:19 24.01.2020
4118 Clear 1 1031 74 7000 1.5 160 11:19 24.01.2020
4119 Clear 1 1031 74 7000 1.5 160 11:19 24.01.2020
4120 Clear 1 1032 79 6000 1.5 100 10:58 24.01.2020
4121 Clear 0 1032 79 6000 1.5 100 10:40 24.01.2020
4122 Mist 0 1032 85 5000 1 0 10:19 24.01.2020
4123 Mist -2 1032 79 5000 0.5 0 09:41 24.01.2020
4124 Mist -3 1032 85 4200 1.22 267 09:23 24.01.2020
4125 Mist -8 1032 92 4000 0.5 0 08:41 24.01.2020
4126 Mist -8 1032 92 4000 0.5 0 08:41 24.01.2020
4127 Mist -7 1032 92 3000 1 0 08:21 24.01.2020
4128 Mist -10 1032 92 4000 2.6 70 07:58 24.01.2020
4129 Mist -9 1032 92 4000 2.6 70 07:37 24.01.2020
4130 Mist -7 1032 92 5000 1.5 120 06:54 24.01.2020
4131 Mist -7 1032 92 5000 1.5 241 06:33 24.01.2020
4132 Mist -10 1032 92 5000 1.5 280 05:59 24.01.2020
4133 Clear -7 1032 85 6000 1.5 350 05:18 24.01.2020
4134 Clear -6 1033 92 6000 2.1 140 02:54 24.01.2020
4135 Clear -7 1033 92 6000 1 0 02:27 24.01.2020
4136 Mist -7 1033 92 5000 1.5 120 01:53 24.01.2020
4137 Mist -6 1033 85 5000 2.1 70 01:33 24.01.2020
4138 Mist -5 1033 92 5000 3.1 160 00:31 24.01.2020
4139 Mist -5 1033 92 5000 2.6 160 23:56 23.01.2020
4140 Mist -5 1033 92 5000 2.1 80 23:37 23.01.2020
4141 Mist -5 1033 92 5000 2.1 80 23:18 23.01.2020
4142 Mist -5 1033 85 5000 2.1 120 22:39 23.01.2020
4143 Clear -5 1033 92 6000 1.5 90 22:19 23.01.2020
4144 Clear -5 1033 79 7000 2.1 70 21:58 23.01.2020
4145 Clear -5 1033 79 7000 2.1 70 21:58 23.01.2020
4146 Clear -4 1033 85 7000 0.73 314 21:39 23.01.2020
4147 Clear -4 1033 85 7000 0.73 314 21:20 23.01.2020
4148 Clear -4 1033 79 8000 1.5 50 20:59 23.01.2020
4149 Clear -4 1032 79 9000 2.1 290 20:39 23.01.2020
4150 Clear -4 1032 79 9000 2.1 290 20:20 23.01.2020
4151 Clear -3 1032 73 9000 4.6 280 19:56 23.01.2020
4152 Clear -3 1032 79 9000 5.1 270 19:38 23.01.2020
4153 Clear -4 1032 79 9000 5.1 270 19:19 23.01.2020
4154 Clear -3 1032 74 9000 4.6 260 18:43 23.01.2020
4155 Clear -3 1032 74 9000 5.1 270 18:21 23.01.2020
4156 Clear -2 1031 68 10000 4.1 270 17:59 23.01.2020
4157 Clear -2 1031 68 10000 4.1 270 17:40 23.01.2020
4158 Clear -2 1031 65 10000 4.6 280 17:20 23.01.2020
4159 Clear -2 1031 68 10000 5.7 280 16:56 23.01.2020
4160 Clear -2 1031 68 10000 5.7 280 16:37 23.01.2020
4161 Clear -1 1031 59 10000 5.1 280 16:18 23.01.2020
4162 Clear 0 1031 59 10000 5.7 290 15:55 23.01.2020
4163 Clear -1 1031 55 10000 5.7 280 15:37 23.01.2020
4164 Clear 0 1031 55 10000 5.7 280 15:18 23.01.2020
4165 Clear -1 1031 55 10000 6.2 280 14:55 23.01.2020
4166 Clear -1 1031 55 10000 6.2 280 14:55 23.01.2020
4167 Clear 2 1031 55 10000 6.2 280 14:37 23.01.2020
4168 Clear 2 1031 55 10000 6.2 280 14:18 23.01.2020
4169 Clear 3 1030 51 10000 7.2 270 13:39 23.01.2020
4170 Clear 3 1030 51 10000 7.2 270 13:39 23.01.2020
4171 Clear 2 1031 55 10000 6.7 280 13:20 23.01.2020
4172 Clear 4 1031 55 10000 7.7 280 12:47 23.01.2020
4173 Clear 4 1031 59 10000 7.2 280 12:25 23.01.2020
4174 Clear 3 1031 59 10000 8.7 280 11:59 23.01.2020
4175 Clear 3 1031 59 10000 8.7 280 11:39 23.01.2020
4176 Clear 2 1031 59 10000 8.2 280 11:19 23.01.2020
4177 Clear 2 1031 59 10000 8.2 280 11:19 23.01.2020
4178 Clouds 2 1031 64 10000 7.7 280 10:45 23.01.2020
4179 Clouds 1 1031 64 10000 7.7 280 10:23 23.01.2020
4180 Clouds 1 1031 64 10000 6.7 280 09:59 23.01.2020
4181 Clouds 2 1030 69 10000 6.2 280 09:37 23.01.2020
4182 Clouds 2 1030 69 10000 6.2 280 09:19 23.01.2020
4183 Clouds 0 1030 64 10000 5.1 280 08:41 23.01.2020
4184 Clouds -1 1030 74 10000 5.1 270 08:22 23.01.2020
4185 Clouds -1 1029 68 10000 5.7 280 07:45 23.01.2020
4186 Clouds -1 1029 68 10000 5.7 290 07:26 23.01.2020
4187 Clouds -1 1028 68 10000 4.6 280 06:53 23.01.2020
4188 Clouds 0 1027 65 10000 6.2 280 06:23 23.01.2020
4189 Clouds 0 1027 65 10000 6.7 290 05:57 23.01.2020
4190 Clouds 2 1026 55 10000 7.7 290 04:24 23.01.2020
4191 Clouds 3 1024 38 10000 9.8 280 02:34 23.01.2020
4192 Clear 3 1024 38 10000 7.7 280 01:41 23.01.2020
4193 Clear -5 1024 73 6000 1 0 00:28 23.01.2020
4194 Clear -5 1024 73 6000 2.6 230 23:48 22.01.2020
4195 Clear -5 1024 79 6000 1.5 190 23:30 22.01.2020
4196 Clear -5 1024 79 6000 2.1 150 22:59 22.01.2020
4197 Clear -5 1024 79 6000 2.1 150 22:41 22.01.2020
4198 Clear -5 1024 79 6000 2.1 150 22:41 22.01.2020
4199 Clear -4 1024 68 6000 1.5 30 22:22 22.01.2020
4200 Clear -4 1024 68 6000 1.5 0 21:40 22.01.2020
4201 Mist -4 1024 68 4900 1 0 21:22 22.01.2020
4202 Clear -3 1024 73 6000 1 0 20:57 22.01.2020
4203 Clear -3 1024 73 6000 1 0 20:57 22.01.2020
4204 Clear -3 1024 73 6000 1 0 20:38 22.01.2020
4205 Clear -1 1024 58 7000 0.5 0 20:38 22.01.2020
4206 Clear -1 1024 58 7000 0.5 0 20:20 22.01.2020
4207 Clear -1 1025 58 8000 2.1 220 19:56 22.01.2020
4208 Clear 1 1025 43 7000 2.6 260 19:38 22.01.2020
4209 Clear 1 1025 43 7000 2.6 260 19:18 22.01.2020
4210 Clear 1 1025 43 7000 2.6 260 19:18 22.01.2020
4211 Clear 2 1025 37 7000 3.1 230 18:56 22.01.2020
4212 Clear 2 1025 40 8000 1 0 18:38 22.01.2020
4213 Clear 3 1025 40 8000 1 0 18:19 22.01.2020
4214 Clear 2 1025 43 8000 2.1 290 17:41 22.01.2020
4215 Clear 3 1025 34 8000 1.5 210 17:21 22.01.2020
4216 Clear 4 1026 27 10000 2.1 240 16:58 22.01.2020
4217 Clear 4 1026 27 10000 2.1 240 16:40 22.01.2020
4218 Clear 5 1026 28 10000 1 0 16:21 22.01.2020
4219 Clear 7 1026 36 10000 2.1 220 15:56 22.01.2020
4220 Clear 8 1027 36 10000 3.1 0 15:38 22.01.2020
4221 Clear 8 1027 36 10000 3.1 0 15:19 22.01.2020
4222 Clear 7 1027 39 10000 1.5 210 14:40 22.01.2020
4223 Clear 7 1027 39 10000 1.5 210 14:40 22.01.2020
4224 Clear 7 1027 39 10000 1.5 210 14:40 22.01.2020
4225 Clear 7 1028 41 10000 1.5 190 14:21 22.01.2020
4226 Clear 6 1028 44 10000 1.5 170 13:59 22.01.2020
4227 Clear 5 1028 44 10000 1.5 170 13:38 22.01.2020
4228 Clear 4 1028 48 10000 1 0 13:19 22.01.2020
4229 Clear 6 1029 48 10000 1 0 12:57 22.01.2020
4230 Clear 6 1029 48 10000 1 0 12:39 22.01.2020
4231 Clear 5 1030 51 9000 1.5 0 12:19 22.01.2020
4232 Clear 4 1030 59 8000 1 0 11:58 22.01.2020
4233 Clear 3 1030 59 8000 1 0 11:39 22.01.2020
4234 Clear 2 1031 30 8000 1.5 300 11:19 22.01.2020
4235 Clear 2 1031 30 8000 1.5 300 11:19 22.01.2020
4236 Clear 1 1032 74 8000 1.5 310 10:54 22.01.2020
4237 Clear 1 1032 74 8000 1.5 310 10:36 22.01.2020
4238 Clear 0 1032 74 8000 2.1 280 10:18 22.01.2020
4239 Clear -2 1033 79 9000 2.1 300 09:41 22.01.2020
4240 Clear -2 1033 85 8000 2.1 290 09:23 22.01.2020
4241 Mist -2 1033 85 3500 1.98 273 08:56 22.01.2020
4242 Mist -3 1033 85 3500 1.98 273 08:37 22.01.2020
4243 Mist -4 1033 85 3000 1.5 130 08:19 22.01.2020
4244 Mist -4 1033 85 3000 1.5 130 08:19 22.01.2020
4245 Mist -7 1033 92 3500 1.5 140 07:44 22.01.2020
4246 Mist -7 1033 92 3000 1 0 07:26 22.01.2020
4247 Mist -7 1034 85 4500 0.5 0 06:37 22.01.2020
4248 Clouds -6 1034 85 6000 1.5 340 06:18 22.01.2020
4249 Clouds -6 1034 92 6000 2.1 350 04:27 22.01.2020
4250 Clear -6 1034 92 7000 1.5 300 03:27 22.01.2020
4251 Clouds -5 1035 85 7000 2.1 280 02:48 22.01.2020
4252 Clear -4 1036 85 8000 2.6 300 00:48 22.01.2020
4253 Clear -4 1036 85 8000 2.1 290 00:28 22.01.2020
4254 Clear -4 1037 85 8000 4.1 290 23:59 21.01.2020
4255 Clear -4 1037 85 8000 4.1 290 23:37 21.01.2020
4256 Clear -4 1037 85 8000 3.6 290 23:19 21.01.2020
4257 Clear -3 1037 79 8000 3.6 280 22:42 21.01.2020
4258 Clear -3 1037 79 8000 4.1 290 22:23 21.01.2020
4259 Clear -4 1037 85 8000 5.7 280 21:58 21.01.2020
4260 Clear -4 1037 85 8000 5.7 280 21:39 21.01.2020
4261 Clear -4 1037 85 8000 3.6 280 21:20 21.01.2020
4262 Clear -4 1037 85 8000 3.6 280 20:57 21.01.2020
4263 Clear -4 1037 85 8000 3.6 280 20:57 21.01.2020
4264 Clear -4 1037 85 8000 3.6 280 20:39 21.01.2020
4265 Clouds -3 1038 79 8000 4.1 280 20:20 21.01.2020
4266 Clouds -2 1038 79 8000 4.6 280 19:57 21.01.2020
4267 Clouds -2 1038 79 8000 4.6 280 19:39 21.01.2020
4268 Clouds -2 1038 79 8000 5.1 280 19:20 21.01.2020
4269 Clouds -2 1038 79 8000 5.1 280 19:20 21.01.2020
4270 Clouds -2 1038 79 8000 5.7 270 18:55 21.01.2020
4271 Clouds -3 1038 79 8000 5.7 270 18:37 21.01.2020
4272 Clouds -2 1038 79 8000 4.1 280 18:18 21.01.2020
4273 Clouds -2 1038 74 8000 4.6 270 17:45 21.01.2020
4274 Clouds -1 1038 74 8000 4.6 280 17:20 21.01.2020
4275 Clouds -1 1038 68 8000 4.1 280 16:59 21.01.2020
4276 Clouds 0 1038 58 10000 5.1 280 16:37 21.01.2020
4277 Clouds 0 1038 58 10000 5.1 280 16:37 21.01.2020
4278 Clouds -1 1038 68 8000 4.1 280 16:37 21.01.2020
4279 Clouds 0 1038 58 10000 5.1 280 16:19 21.01.2020
4280 Clouds 1 1038 59 10000 5.1 290 15:54 21.01.2020
4281 Clouds 1 1038 59 10000 5.1 290 15:36 21.01.2020
4282 Clouds 2 1037 59 10000 6.2 290 15:18 21.01.2020
4283 Clouds 3 1038 55 10000 6.2 290 14:38 21.01.2020
4284 Clouds 3 1038 55 10000 6.2 290 14:38 21.01.2020
4285 Clouds 2 1038 59 10000 5.7 290 14:19 21.01.2020
4286 Clouds 2 1039 59 10000 5.7 290 13:40 21.01.2020
4287 Clouds 3 1039 55 10000 6.7 280 13:19 21.01.2020
4288 Clouds 2 1039 59 10000 6.2 280 12:44 21.01.2020
4289 Clouds 2 1040 59 10000 6.2 290 12:25 21.01.2020
4290 Clouds 1 1040 40 10000 6.7 280 11:57 21.01.2020
4291 Clouds 0 1040 40 10000 6.7 280 11:39 21.01.2020
4292 Clouds 1 1041 47 10000 6.7 280 11:21 21.01.2020
4293 Clouds 0 1041 68 8000 6.7 280 10:55 21.01.2020
4294 Clouds 0 1041 68 8000 6.7 280 10:37 21.01.2020
4295 Clouds 0 1041 74 8000 3.1 310 10:18 21.01.2020
4296 Clouds -2 1041 79 6000 2.1 300 09:41 21.01.2020
4297 Mist -3 1041 85 5000 1 0 09:22 21.01.2020
4298 Mist -5 1041 85 4000 1.6 307 08:49 21.01.2020
4299 Mist -6 1041 85 4300 1 0 08:29 21.01.2020
4300 Mist -8 1041 85 5000 1 100 07:59 21.01.2020
4301 Mist -8 1041 85 5000 1 100 07:39 21.01.2020
4302 Mist -8 1041 85 2700 1 80 07:21 21.01.2020
4303 Mist -8 1041 92 5000 1.53 307 06:48 21.01.2020
4304 Mist -8 1041 92 5000 1.53 307 06:26 21.01.2020
4305 Mist -8 1041 92 5000 1.5 350 05:42 21.01.2020
4306 Mist -8 1041 92 5000 1.41 309 04:39 21.01.2020
4307 Mist -7 1042 92 5000 0.5 60 02:56 21.01.2020
4308 Mist -6 1042 92 5000 1 10 01:51 21.01.2020
4309 Clear -6 1042 92 7000 1 330 00:57 21.01.2020
4310 Clear -5 1042 85 7000 2.1 360 00:35 21.01.2020
4311 Clear -4 1042 85 8000 3.1 290 23:57 20.01.2020
4312 Clear -4 1042 85 8000 3.1 290 23:37 20.01.2020
4313 Clear -4 1042 79 8000 3.1 280 23:18 20.01.2020
4314 Clear -4 1042 79 8000 3.1 280 23:18 20.01.2020
4315 Clear -4 1042 79 8000 3.1 280 22:56 20.01.2020
4316 Clear -4 1042 79 8000 3.1 280 22:37 20.01.2020
4317 Clear -4 1042 79 8000 4.1 270 22:18 20.01.2020
4318 Clear -4 1042 85 8000 3.6 280 21:57 20.01.2020
4319 Clear -4 1042 85 8000 3.6 280 21:36 20.01.2020
4320 Clear -4 1042 79 7000 4.6 270 21:18 20.01.2020
4321 Clear -4 1042 85 7000 4.1 270 20:55 20.01.2020
4322 Clear -4 1042 85 7000 4.1 270 20:36 20.01.2020
4323 Clear -4 1041 85 8000 4.1 270 20:18 20.01.2020
4324 Clear -3 1041 79 7000 3.6 280 19:56 20.01.2020
4325 Clear -4 1041 85 7000 3.6 280 19:37 20.01.2020
4326 Clear -4 1041 85 7000 3.6 280 19:18 20.01.2020
4327 Clear -3 1041 79 7000 4.1 280 18:42 20.01.2020
4328 Clear -2 1041 74 9000 5.1 280 18:21 20.01.2020
4329 Clear -1 1040 68 9000 4.6 290 17:39 20.01.2020
4330 Clear -1 1040 68 9000 5.1 280 17:19 20.01.2020
4331 Clear -1 1040 68 9000 4.6 280 16:58 20.01.2020
4332 Clear -1 1040 68 9000 4.6 280 16:37 20.01.2020
4333 Clouds 0 1039 69 10000 5.1 280 16:18 20.01.2020
4334 Clouds 1 1039 55 10000 4.6 290 15:41 20.01.2020
4335 Clouds 2 1039 47 10000 3.6 310 15:22 20.01.2020
4336 Clouds 2 1039 47 10000 2.1 300 14:59 20.01.2020
4337 Clouds 2 1039 47 10000 2.1 300 14:41 20.01.2020
4338 Clouds 2 1039 51 10000 4.1 320 14:21 20.01.2020
4339 Clouds 1 1039 55 10000 3.1 290 13:57 20.01.2020
4340 Clouds 1 1039 55 10000 3.1 290 13:38 20.01.2020
4341 Clouds 1 1039 50 10000 3.6 290 13:20 20.01.2020
4342 Clouds 1 1039 55 10000 3.6 300 12:44 20.01.2020
4343 Clouds 1 1039 55 10000 3.1 300 12:25 20.01.2020
4344 Clouds 1 1039 55 10000 3.1 300 12:25 20.01.2020
4345 Clouds 1 1039 55 10000 3.1 300 11:56 20.01.2020
4346 Clouds 1 1039 56 10000 2.6 320 11:37 20.01.2020
4347 Clouds 1 1039 67 10000 2.6 320 11:18 20.01.2020
4348 Clouds 0 1038 67 10000 2.6 320 10:46 20.01.2020
4349 Clouds 0 1038 67 10000 2.6 330 10:21 20.01.2020
4350 Clouds 0 1038 67 10000 2.6 330 09:42 20.01.2020
4351 Clouds 0 1038 67 10000 2.1 20 09:24 20.01.2020
4352 Clouds 0 1037 67 10000 2.1 340 08:56 20.01.2020
4353 Clouds 0 1037 67 10000 1.5 20 08:34 20.01.2020
4354 Clouds -1 1037 68 10000 1.5 310 07:59 20.01.2020
4355 Clouds -1 1037 68 10000 1.5 310 07:41 20.01.2020
4356 Clouds -1 1036 74 10000 2.1 300 07:21 20.01.2020
4357 Clouds -1 1036 74 10000 2.6 310 06:44 20.01.2020
4358 Clouds -1 1035 68 10000 2.6 330 06:22 20.01.2020
4359 Clouds 0 1035 92 10000 2.6 320 05:38 20.01.2020
4360 Clouds -1 1035 68 10000 2.1 330 05:19 20.01.2020
4361 Clouds -1 1035 68 10000 3.1 360 04:23 20.01.2020
4362 Clouds -1 1033 68 10000 2.1 10 01:59 20.01.2020
4363 Clouds -1 1033 68 10000 2.1 10 01:40 20.01.2020
4364 Clouds -1 1033 68 10000 2.1 360 01:18 20.01.2020
4365 Clouds -1 1033 68 10000 2.1 360 00:42 20.01.2020
4366 Clouds -1 1032 74 10000 1.5 340 00:20 20.01.2020
4367 Clouds 0 1032 89 10000 1.5 360 23:38 19.01.2020
4368 Clouds 0 1032 88 10000 1 0 23:19 19.01.2020
4369 Clouds -1 1032 74 10000 2.1 90 22:56 19.01.2020
4370 Clouds -1 1032 74 10000 2.1 90 22:37 19.01.2020
4371 Clouds -1 1031 74 10000 2.1 90 22:19 19.01.2020
4372 Clouds -1 1031 74 10000 1 90 21:56 19.01.2020
4373 Clouds -1 1031 74 10000 1 90 21:38 19.01.2020
4374 Clouds -1 1030 74 10000 2.1 90 21:19 19.01.2020
4375 Clouds 0 1030 88 10000 1.5 80 20:56 19.01.2020
4376 Clouds 0 1030 90 10000 2.1 70 20:38 19.01.2020
4377 Clouds 0 1030 89 10000 2.1 70 20:19 19.01.2020
4378 Clouds 0 1029 89 10000 3.1 70 19:55 19.01.2020
4379 Clouds 0 1029 89 10000 3.1 70 19:37 19.01.2020
4380 Clouds 0 1029 89 10000 3.6 60 19:19 19.01.2020
4381 Clouds 0 1029 89 10000 4.1 50 18:55 19.01.2020
4382 -273 0 0 0 0 0 18:37 19.01.2020
4383 Clouds 0 1028 89 10000 3.1 60 18:19 19.01.2020
4384 Clouds 0 1028 89 10000 3.1 70 17:57 19.01.2020
4385 Clouds 0 1028 89 10000 3.1 70 17:38 19.01.2020
4386 Clouds 0 1027 76 10000 1.86 19 17:19 19.01.2020
4387 Clouds 0 1026 76 10000 1 0 16:57 19.01.2020
4388 Clouds 0 1026 76 10000 1 0 16:57 19.01.2020
4389 Clouds 0 1026 76 10000 0.5 0 16:37 19.01.2020
4390 Clouds 0 1026 76 10000 0.5 0 16:37 19.01.2020
4391 Clouds 0 1026 76 10000 0.5 0 16:37 19.01.2020
4392 Clouds 0 1026 76 10000 0.5 0 16:19 19.01.2020
4393 Clouds 0 1026 76 10000 2.1 360 15:55 19.01.2020
4394 Clouds 0 1026 76 10000 2.1 360 15:55 19.01.2020
4395 Clouds 1 1025 59 10000 2.6 360 15:36 19.01.2020
4396 Clouds 1 1025 59 10000 2.6 360 15:18 19.01.2020
4397 Clouds 1 1025 64 10000 2.1 50 14:41 19.01.2020
4398 Clouds 1 1025 64 10000 2.1 50 14:41 19.01.2020
4399 Clouds 1 1025 64 10000 2.6 40 14:21 19.01.2020
4400 Clouds 1 1025 59 10000 2.6 70 13:59 19.01.2020
4401 Clouds 1 1025 59 10000 2.6 70 13:40 19.01.2020
4402 Clouds 1 1025 59 10000 3.1 90 13:22 19.01.2020
4403 Clouds 2 1025 59 10000 2.1 100 12:59 19.01.2020
4404 Clouds 1 1025 59 10000 2.1 100 12:41 19.01.2020
4405 Clouds 1 1025 59 10000 1.5 0 12:21 19.01.2020
4406 Clouds 1 1025 59 10000 1.5 90 11:57 19.01.2020
4407 Clouds 1 1025 59 10000 1.5 90 11:38 19.01.2020
4408 Clouds 1 1025 59 10000 3.1 100 11:18 19.01.2020
4409 Clouds 0 1025 74 10000 3.6 120 10:40 19.01.2020
4410 Clouds 0 1025 74 10000 3.1 100 10:21 19.01.2020
4411 Clouds 0 1024 74 10000 2.1 140 09:57 19.01.2020
4412 Clouds 0 1024 74 10000 2.1 140 09:38 19.01.2020
4413 Clouds 0 1024 74 10000 2.1 160 09:20 19.01.2020
4414 Clouds 0 1024 74 9000 1.5 150 08:55 19.01.2020
4415 Clouds 0 1024 86 6000 1.5 10 08:33 19.01.2020
4416 Clouds 0 1023 89 8000 1 20 07:55 19.01.2020
4417 Clouds 0 1023 89 8000 1 0 07:29 19.01.2020
4418 Clouds -1 1023 80 8000 0.5 0 06:55 19.01.2020
4419 Clouds 0 1023 89 9000 1.5 320 06:22 19.01.2020
4420 Clouds 0 1023 89 10000 3.1 100 03:58 19.01.2020
4421 Clouds 0 1023 89 10000 3.1 110 02:34 19.01.2020
4422 Clouds 0 1024 89 10000 3.6 110 01:42 19.01.2020
4423 Clouds 0 1024 90 10000 3.1 120 01:20 19.01.2020
4424 Clouds 0 1024 90 10000 2.6 130 00:44 19.01.2020
4425 Clouds 0 1023 90 10000 3.6 130 00:20 19.01.2020
4426 Clouds 0 1023 90 10000 4.1 130 23:45 18.01.2020
4427 Clouds 1 1023 69 10000 3.6 140 23:25 18.01.2020
4428 Clouds 1 1024 69 10000 4.6 130 22:58 18.01.2020
4429 Clouds 1 1024 69 10000 4.6 130 22:40 18.01.2020
4430 Clouds 1 1024 69 10000 5.1 130 22:21 18.01.2020
4431 Clouds 1 1024 69 10000 5.7 130 21:58 18.01.2020
4432 Clouds 1 1024 69 10000 5.7 130 21:38 18.01.2020
4433 Clouds 1 1024 69 10000 6.2 130 21:20 18.01.2020
4434 Clouds 1 1024 69 10000 6.2 130 21:20 18.01.2020
4435 Clouds 1 1024 69 10000 6.7 130 20:55 18.01.2020
4436 Clouds 1 1024 69 10000 6.7 130 20:36 18.01.2020
4437 Clouds 0 1024 94 10000 6.7 130 20:18 18.01.2020
4438 Clouds 0 1024 94 10000 6.7 130 19:42 18.01.2020
4439 Clouds 0 1024 94 10000 6.7 130 19:24 18.01.2020
4440 Clouds 0 1024 94 10000 6.7 130 18:43 18.01.2020
4441 Clouds 0 1024 94 10000 7.2 120 18:24 18.01.2020
4442 Clouds 0 1024 94 10000 5.1 130 17:57 18.01.2020
4443 Clouds 0 1024 94 10000 5.1 130 17:39 18.01.2020
4444 Clouds 0 1024 84 10000 6.2 120 17:19 18.01.2020
4445 Clouds 0 1024 84 10000 6.2 120 16:55 18.01.2020
4446 Clouds 0 1024 84 10000 6.2 120 16:37 18.01.2020
4447 Clouds 0 1024 84 10000 7.2 110 16:19 18.01.2020
4448 Clouds 1 1024 64 10000 8.7 110 15:42 18.01.2020
4449 Clouds 1 1024 69 10000 7.7 110 15:24 18.01.2020
4450 Clouds 1 1025 69 10000 8.2 110 14:57 18.01.2020
4451 Clouds 1 1025 69 10000 8.2 110 14:39 18.01.2020
4452 Clouds 1 1025 69 10000 8.7 110 14:18 18.01.2020
4453 Clouds 1 1025 69 10000 9.8 110 13:44 18.01.2020
4454 Clouds 1 1025 64 10000 9.3 110 13:26 18.01.2020
4455 Clouds 1 1026 69 10000 9.3 110 12:58 18.01.2020
4456 Clouds 1 1026 69 10000 9.3 120 12:39 18.01.2020
4457 Clouds 1 1026 69 10000 9.3 120 12:20 18.01.2020
4458 Clouds 1 1026 69 10000 9.8 110 11:44 18.01.2020
4459 Clouds 1 1026 69 10000 9.8 110 11:22 18.01.2020
4460 Clouds 1 1027 69 10000 8.7 120 10:57 18.01.2020
4461 Clouds 1 1027 69 10000 8.7 120 10:38 18.01.2020
4462 Clouds 1 1027 69 10000 8.7 110 10:20 18.01.2020
4463 Clouds 0 1027 65 10000 9.3 120 09:46 18.01.2020
4464 Clouds 0 1027 65 10000 8.2 120 09:28 18.01.2020
4465 Clouds -1 1027 86 10000 7.2 110 08:56 18.01.2020
4466 Clouds -1 1027 86 10000 7.2 110 08:38 18.01.2020
4467 Clouds -1 1027 86 10000 6.2 130 08:19 18.01.2020
4468 Clouds -1 1027 86 10000 5.7 120 07:47 18.01.2020
4469 Clouds -1 1027 86 10000 4.6 100 07:29 18.01.2020
4470 Clouds -1 1027 86 10000 4.6 100 06:47 18.01.2020
4471 Clouds -1 1027 86 10000 4.1 110 05:59 18.01.2020
4472 Clouds -1 1027 86 10000 4.1 110 05:19 18.01.2020
4473 Clouds -1 1028 86 10000 5.1 100 02:53 18.01.2020
4474 Clouds -1 1028 86 10000 5.7 100 01:52 18.01.2020
4475 Clouds -1 1028 86 10000 6.2 90 01:29 18.01.2020
4476 Clouds -1 1028 92 10000 5.7 100 00:36 18.01.2020
4477 Clouds -1 1028 92 10000 5.7 100 00:18 18.01.2020
4478 Clouds -1 1028 92 10000 6.2 100 23:40 17.01.2020
4479 Clouds -1 1028 92 10000 6.2 120 23:19 17.01.2020
4480 Clouds -1 1028 92 10000 4.6 130 22:44 17.01.2020
4481 Clouds -1 1028 92 10000 4.6 130 22:21 17.01.2020
4482 Clouds -1 1028 100 10000 5.1 120 21:58 17.01.2020
4483 Clouds -1 1028 100 10000 5.1 120 21:58 17.01.2020
4484 Clouds -1 1028 100 10000 5.1 120 21:40 17.01.2020
4485 Clouds 0 1028 100 10000 5.1 120 21:22 17.01.2020
4486 Clouds 0 1028 100 8000 5.1 120 20:57 17.01.2020
4487 Clouds 0 1028 100 8000 5.7 120 20:37 17.01.2020
4488 Clouds 0 1028 100 8000 5.7 120 20:19 17.01.2020
4489 Clouds 0 1029 90 8000 4.6 110 19:54 17.01.2020
4490 Clouds 0 1029 90 8000 4.6 110 19:36 17.01.2020
4491 Mist -1 1029 100 3300 3.6 100 19:18 17.01.2020
4492 Mist -1 1029 100 3300 3.6 100 19:18 17.01.2020
4493 Fog -2 1029 100 400 2.6 100 18:44 17.01.2020
4494 Fog 0 1028 92 300 1.5 150 18:26 17.01.2020
4495 Fog 0 1028 100 250 1 0 17:56 17.01.2020
4496 Fog 0 1028 100 250 1 0 17:38 17.01.2020
4497 Fog 0 1028 77 450 1.5 90 17:20 17.01.2020
4498 Mist 0 1028 77 1600 2.1 70 16:42 17.01.2020
4499 Mist 0 1027 77 1300 2.1 70 16:20 17.01.2020
4500 Mist 0 1027 77 1200 2.1 120 15:48 17.01.2020
4501 Fog 1 1027 77 500 3.1 130 15:27 17.01.2020
4502 Fog 0 1027 77 800 1 0 14:56 17.01.2020
4503 Fog 1 1027 77 800 1 0 14:38 17.01.2020
4504 Mist 1 1027 54 1100 1.5 20 14:20 17.01.2020
4505 Mist 1 1027 54 1300 2.08 56 13:39 17.01.2020
4506 Mist 2 1027 53 1400 1 0 13:21 17.01.2020
4507 Mist 2 1027 53 1400 1 0 13:21 17.01.2020
4508 Mist 2 1028 100 1400 1 0 12:45 17.01.2020
4509 Mist 2 1028 92 1300 1 0 12:23 17.01.2020
4510 Mist 1 1028 100 1300 0.5 0 11:41 17.01.2020
4511 Fog 0 1028 92 800 1 0 11:19 17.01.2020
4512 Fog 0 1029 92 450 1 0 10:54 17.01.2020
4513 Fog 0 1029 92 450 1 0 10:36 17.01.2020
4514 Fog -1 1029 100 350 1.72 56 10:18 17.01.2020
4515 Fog -2 1029 100 300 1 0 09:41 17.01.2020
4516 Fog -2 1029 100 350 1 0 09:20 17.01.2020
4517 Fog -2 1029 92 300 1 0 08:55 17.01.2020
4518 Fog -4 1029 100 300 1 0 08:36 17.01.2020
4519 Fog -4 1029 100 300 1 0 08:18 17.01.2020
4520 Fog -5 1029 100 400 0.5 0 07:42 17.01.2020
4521 Fog -5 1029 100 400 1.02 25 07:24 17.01.2020
4522 Fog -5 1029 100 450 1 0 06:43 17.01.2020
4523 Fog -4 1029 92 400 1 0 05:59 17.01.2020
4524 Clear -5 1026 92 0 0.99 21 03:44 17.01.2020
4525 Fog -4 1029 92 350 1 0 02:55 17.01.2020
4526 Fog -4 1029 92 350 1 0 02:28 17.01.2020
4527 Clear -4 1025 94 0 0.88 20 01:32 17.01.2020
4528 Clear -4 1026 93 0 0.99 6 00:55 17.01.2020
4529 Fog -3 1029 92 300 0.99 6 00:28 17.01.2020
4530 Fog -3 1029 92 300 0.99 6 23:50 16.01.2020
4531 Fog -3 1029 92 300 0.99 6 23:26 16.01.2020
4532 Fog -3 1029 92 300 1 0 22:58 16.01.2020
4533 Fog -3 1029 92 300 1 0 22:40 16.01.2020
4534 Fog -2 1029 92 350 1.5 10 22:21 16.01.2020
4535 Fog -2 1029 100 300 1 350 21:55 16.01.2020
4536 Fog -2 1029 100 300 1 350 21:37 16.01.2020
4537 Fog -2 1029 100 300 1 0 21:18 16.01.2020
4538 Fog -2 1029 100 350 1.5 320 20:56 16.01.2020
4539 Fog -2 1029 100 350 1.5 320 20:37 16.01.2020
4540 Fog -2 1029 100 300 2.1 320 20:18 16.01.2020
4541 Fog -1 1029 100 300 0.5 0 19:41 16.01.2020
4542 Fog -1 1029 100 350 1 0 19:23 16.01.2020
4543 Fog -1 1028 100 350 0.5 0 18:58 16.01.2020
4544 Fog -1 1028 100 350 0.5 0 18:39 16.01.2020
4545 Fog -1 1028 100 350 1 0 18:21 16.01.2020
4546 Fog -1 1028 100 350 0.5 0 17:59 16.01.2020
4547 Fog 0 1028 100 450 1 0 17:41 16.01.2020
4548 Fog 0 1028 100 350 0.5 0 17:41 16.01.2020
4549 Fog 0 1028 100 450 1 0 17:21 16.01.2020
4550 Fog 2 1028 92 450 1 0 16:56 16.01.2020
4551 Fog 2 1028 92 450 1 0 16:36 16.01.2020
4552 Fog 2 1028 92 450 1 0 16:18 16.01.2020
4553 Fog -1 1028 92 550 0.5 0 15:42 16.01.2020
4554 Fog -1 1028 92 500 0.5 0 15:21 16.01.2020
4555 Fog -1 1028 92 750 1 0 14:45 16.01.2020
4556 Fog -2 1028 100 700 1 0 14:24 16.01.2020
4557 Fog -2 1028 100 750 1 0 13:56 16.01.2020
4558 Fog -2 1028 100 750 1 0 13:37 16.01.2020
4559 Fog -2 1028 100 650 1.38 56 13:37 16.01.2020
4560 Fog -2 1028 100 650 1.37 57 13:19 16.01.2020
4561 Fog 4 1029 100 600 1 0 12:43 16.01.2020
4562 Fog 3 1029 100 650 0.5 0 12:25 16.01.2020
4563 Fog 2 1029 92 500 1 0 11:43 16.01.2020
4564 Fog 2 1029 92 400 1 0 11:25 16.01.2020
4565 Fog 0 1030 92 400 1.03 65 10:59 16.01.2020
4566 Fog -2 1030 92 400 1.03 65 10:38 16.01.2020
4567 Fog -2 1030 100 400 1 0 10:20 16.01.2020
4568 Fog -3 1030 100 350 1.5 330 09:56 16.01.2020
4569 Fog -3 1030 100 350 1.5 330 09:37 16.01.2020
4570 Fog -2 1030 92 400 1 0 09:19 16.01.2020
4571 Fog -2 1030 92 400 0.5 0 08:48 16.01.2020
4572 Fog -3 1030 100 400 0.5 0 08:29 16.01.2020
4573 Fog -4 1030 100 550 0.54 128 07:44 16.01.2020
4574 Fog -4 1030 100 650 1 0 07:25 16.01.2020
4575 Fog -4 1030 100 800 1.5 70 06:59 16.01.2020
4576 Fog -4 1030 100 800 1.5 70 06:37 16.01.2020
4577 Fog -3 1030 92 650 0.5 0 05:56 16.01.2020
4578 Fog -3 1030 92 650 0.5 0 05:56 16.01.2020
4579 Fog -3 1029 92 700 0.54 128 05:31 16.01.2020
4580 Fog -3 1029 92 650 0.5 0 04:37 16.01.2020
4581 Fog -4 1030 100 550 0.5 0 03:28 16.01.2020
4582 Fog -4 1030 100 550 0.59 144 02:29 16.01.2020
4583 Fog -4 1030 100 450 1 0 00:45 16.01.2020
4584 Fog -3 1030 100 500 1 0 00:24 16.01.2020
4585 Fog -3 1030 100 550 1 0 23:48 15.01.2020
4586 Fog -3 1030 100 450 0.6 150 23:22 15.01.2020
4587 Fog -2 1030 92 450 1 0 22:57 15.01.2020
4588 Fog -2 1030 92 450 1 0 22:39 15.01.2020
4589 Fog -2 1031 92 450 0.5 0 22:19 15.01.2020
4590 Fog -2 1031 100 500 1 0 21:57 15.01.2020
4591 Fog -2 1031 100 500 1 0 21:37 15.01.2020
4592 Fog -2 1031 100 450 1 0 21:19 15.01.2020
4593 Fog -2 1031 100 450 1 80 20:56 15.01.2020
4594 Fog -2 1031 100 450 1 80 20:38 15.01.2020
4595 Fog -2 1031 100 400 1 0 20:19 15.01.2020
4596 Fog -2 1031 100 450 1.5 100 19:54 15.01.2020
4597 Fog -1 1031 100 450 1.5 100 19:36 15.01.2020
4598 Fog -1 1031 100 400 1 0 19:18 15.01.2020
4599 Fog -1 1031 100 400 1 0 19:18 15.01.2020
4600 Fog -1 1030 100 350 0.5 0 18:56 15.01.2020
4601 Fog -1 1030 100 350 0.5 0 18:37 15.01.2020
4602 Fog -1 1030 100 350 0.5 0 18:37 15.01.2020
4603 Fog 0 1030 92 350 1 0 18:19 15.01.2020
4604 Fog 0 1030 92 400 1 0 17:55 15.01.2020
4605 Fog 1 1030 92 400 1 0 17:36 15.01.2020
4606 Fog 1 1030 100 350 1 0 17:18 15.01.2020
4607 Fog 2 1029 100 350 1 0 16:39 15.01.2020
4608 Fog -1 1029 100 300 0.5 0 16:21 15.01.2020
4609 Fog -1 1029 100 300 0.5 0 16:21 15.01.2020
4610 Fog -1 1029 100 350 1.19 107 15:44 15.01.2020
4611 Fog -1 1029 100 400 0.5 0 15:22 15.01.2020
4612 Fog -1 1029 100 400 1 0 14:59 15.01.2020
4613 Fog -1 1029 100 400 1 0 14:41 15.01.2020
4614 Fog -1 1029 100 550 1.5 230 14:18 15.01.2020
4615 Fog -1 1029 100 500 1 0 13:46 15.01.2020
4616 Fog -1 1029 100 600 0.5 0 13:26 15.01.2020
4617 Fog 8 1030 100 600 0.5 0 12:58 15.01.2020
4618 Fog 8 1030 100 600 0.5 0 12:39 15.01.2020
4619 Fog 8 1030 92 750 0.5 0 12:19 15.01.2020
4620 Fog 2 1030 92 750 1 0 11:56 15.01.2020
4621 Fog 2 1030 92 750 1 0 11:36 15.01.2020
4622 Fog 2 1030 92 900 0.5 0 11:18 15.01.2020
4623 Fog 2 1031 100 600 1 0 10:41 15.01.2020
4624 Fog 2 1031 100 550 1.5 0 10:23 15.01.2020
4625 Fog -2 1031 100 400 1 0 09:42 15.01.2020
4626 Fog -2 1031 100 400 1.5 60 09:22 15.01.2020
4627 Fog -2 1030 100 400 1.5 30 08:55 15.01.2020
4628 Fog -2 1030 100 400 0.75 80 08:37 15.01.2020
4629 Fog -4 1030 100 400 0.07 258 08:19 15.01.2020
4630 Fog -5 1030 100 450 1.5 60 07:43 15.01.2020
4631 Fog -5 1030 100 500 0.5 0 07:24 15.01.2020
4632 Fog -5 1030 100 550 1 0 06:44 15.01.2020
4633 Fog -5 1029 100 450 0.5 0 05:57 15.01.2020
4634 Fog -4 1029 92 400 0.44 298 03:56 15.01.2020
4635 Fog -4 1029 100 300 1 300 02:28 15.01.2020
4636 Fog -3 1028 100 250 1.5 240 01:22 15.01.2020
4637 Fog -2 1029 92 300 0.5 0 00:44 15.01.2020
4638 Fog -2 1028 92 300 1 350 00:25 15.01.2020
4639 Fog -3 1028 100 250 0.56 221 23:47 14.01.2020
4640 Fog -3 1028 100 250 0.56 221 23:29 14.01.2020
4641 Fog -2 1028 92 300 0.69 285 22:58 14.01.2020
4642 Fog -3 1028 92 300 0.69 285 22:40 14.01.2020
4643 Fog -3 1028 100 250 1 0 22:19 14.01.2020
4644 Fog -3 1028 100 300 1.5 130 21:58 14.01.2020
4645 Fog -2 1028 92 300 1.5 110 21:39 14.01.2020
4646 Fog -2 1028 92 300 1.5 110 21:19 14.01.2020
4647 Fog -2 1028 92 250 1.5 100 20:56 14.01.2020
4648 Fog -1 1028 92 250 1.5 100 20:38 14.01.2020
4649 Fog -2 1027 100 250 2.1 90 20:18 14.01.2020
4650 Fog 0 1027 100 250 2.1 90 19:55 14.01.2020
4651 Fog 0 1027 100 250 2.1 90 19:37 14.01.2020
4652 Mist 1 1027 100 3500 1.5 130 19:18 14.01.2020
4653 Mist 1 1027 100 3500 1.5 130 19:18 14.01.2020
4654 Mist 1 1026 85 5000 1.5 140 18:41 14.01.2020
4655 Mist 1 1026 85 5000 1.5 140 18:20 14.01.2020
4656 Mist 1 1026 85 5000 1.5 140 17:56 14.01.2020
4657 Mist 1 1026 85 5000 1.5 140 17:36 14.01.2020
4658 Mist 2 1026 83 5000 2.6 130 17:18 14.01.2020
4659 Mist 3 1026 86 4500 2.6 120 16:42 14.01.2020
4660 Mist 5 1025 83 5000 3.1 110 16:22 14.01.2020
4661 Mist 3 1025 83 5000 2.6 110 15:56 14.01.2020
4662 Mist 4 1025 80 5000 3.6 100 15:38 14.01.2020
4663 Mist 4 1025 80 5000 3.6 100 15:19 14.01.2020
4664 Mist 4 1025 80 4700 2.6 80 14:43 14.01.2020
4665 Mist 4 1025 80 4000 2.6 90 14:20 14.01.2020
4666 Mist 4 1025 80 4000 1.5 120 13:55 14.01.2020
4667 Mist 7 1025 80 4000 1.5 120 13:37 14.01.2020
4668 Mist 7 1025 60 4000 0.5 0 13:18 14.01.2020
4669 Mist 8 1026 60 4000 1 0 12:41 14.01.2020
4670 Mist 7 1026 60 4300 2.1 310 12:20 14.01.2020
4671 Mist 7 1026 60 4200 0.5 0 11:43 14.01.2020
4672 Mist 6 1026 60 4200 0.5 0 11:25 14.01.2020
4673 Mist 5 1026 64 5000 1.5 10 10:59 14.01.2020
4674 Mist 4 1026 64 5000 1.5 10 10:40 14.01.2020
4675 Mist 3 1026 64 4500 1 0 10:20 14.01.2020
4676 Mist 3 1026 64 5000 1.5 360 09:58 14.01.2020
4677 Mist 2 1026 64 5000 1.5 360 09:40 14.01.2020
4678 Mist 2 1026 64 5000 1.5 360 09:20 14.01.2020
4679 Mist 1 1026 64 5000 1.5 350 08:48 14.01.2020
4680 Mist 1 1026 64 5000 0.61 286 08:25 14.01.2020
4681 Mist 1 1026 85 5000 2.1 310 07:53 14.01.2020
4682 Mist 1 1026 85 5000 0.9 257 07:33 14.01.2020
4683 Clouds 1 1025 85 6000 1.5 350 06:54 14.01.2020
4684 Clouds 1 1025 85 6000 1.5 360 06:27 14.01.2020
4685 Clouds 1 1025 85 7000 1 330 05:25 14.01.2020
4686 Mist 1 1025 87 5000 1 140 03:52 14.01.2020
4687 Mist 2 1025 93 5000 1.02 252 02:42 14.01.2020
4688 Mist 2 1025 93 5000 1.06 259 01:53 14.01.2020
4689 Mist 2 1025 93 5000 1 360 00:51 14.01.2020
4690 Mist 2 1025 93 5000 1.5 360 00:32 14.01.2020
4691 Mist 2 1025 93 5000 2.1 350 23:54 13.01.2020
4692 Mist 2 1025 93 5000 2.1 350 23:54 13.01.2020
4693 Mist 2 1025 93 5000 2.1 350 23:36 13.01.2020
4694 Mist 2 1026 93 5000 1.5 330 23:18 13.01.2020
4695 Clouds 2 1026 93 6000 2.1 340 22:41 13.01.2020
4696 Clouds 2 1026 93 7000 2.1 330 22:21 13.01.2020
4697 Clouds 2 1026 93 7000 2.6 330 21:56 13.01.2020
4698 Clouds 2 1026 93 7000 2.6 330 21:38 13.01.2020
4699 Clouds 2 1025 93 7000 2.1 320 21:18 13.01.2020
4700 Clouds 3 1025 86 6000 1 0 20:57 13.01.2020
4701 Clouds 3 1025 86 6000 1 0 20:38 13.01.2020
4702 Clouds 3 1025 86 7000 1 0 20:20 13.01.2020
4703 Mist 3 1026 86 5000 1 0 19:57 13.01.2020
4704 Mist 3 1026 86 5000 1 0 19:38 13.01.2020
4705 Mist 3 1026 86 5000 1.5 150 19:18 13.01.2020
4706 Mist 3 1026 86 5000 1.5 0 18:56 13.01.2020
4707 Mist 3 1026 86 5000 1.5 0 18:56 13.01.2020
4708 Mist 3 1026 86 5000 1.5 0 18:37 13.01.2020
4709 Mist 3 1026 86 5000 1.5 0 18:37 13.01.2020
4710 Mist 3 1026 86 5000 1.5 170 18:18 13.01.2020
4711 Clouds 3 1025 86 7000 1 0 17:40 13.01.2020
4712 Clouds 3 1025 86 7000 1 0 17:40 13.01.2020
4713 Clouds 3 1025 86 7000 1.5 140 17:22 13.01.2020
4714 Mist 3 1025 86 5000 1.5 150 16:56 13.01.2020
4715 Mist 3 1025 86 5000 1.5 150 16:37 13.01.2020
4716 Clear 4 1023 85 0 1.79 346 16:19 13.01.2020
4717 Clear 4 1023 83 0 1.34 344 15:43 13.01.2020
4718 Clear 2 1025 89 0 0.63 264 15:22 13.01.2020
4719 Clear 2 1025 89 0 0.63 264 15:22 13.01.2020
4720 Clear 5 1023 78 0 2.24 3 14:57 13.01.2020
4721 Clear 6 1023 76 0 1.79 318 14:37 13.01.2020
4722 Clear 6 1023 76 0 1.79 318 14:37 13.01.2020
4723 Clear 6 1023 75 0 1.34 286 14:18 13.01.2020
4724 Clear 7 1024 72 0 1.34 9 13:41 13.01.2020
4725 Clear 7 1024 73 0 1.34 357 13:22 13.01.2020
4726 Clouds 5 1027 86 7000 1.5 320 12:58 13.01.2020
4727 Clouds 5 1027 86 7000 1.5 320 12:40 13.01.2020
4728 Clouds 5 1027 86 7000 1.5 320 12:21 13.01.2020
4729 Clouds 5 1027 86 7000 1.5 320 11:56 13.01.2020
4730 Clouds 5 1027 86 7000 1.5 320 11:36 13.01.2020
4731 Clouds 5 1028 86 8000 1 0 11:18 13.01.2020
4732 Clouds 5 1028 86 8000 1 0 11:18 13.01.2020
4733 Clouds 5 1028 86 8000 1 0 11:18 13.01.2020
4734 Clouds 4 1028 86 6000 1 0 10:55 13.01.2020
4735 Clouds 4 1028 86 6000 1 0 10:36 13.01.2020
4736 Mist 4 1028 86 5000 1.5 350 10:18 13.01.2020
4737 Mist 3 1028 93 4500 1.5 360 09:40 13.01.2020
4738 Mist 3 1028 93 4500 1.5 360 09:40 13.01.2020
4739 Mist 2 1028 93 1700 1 300 09:22 13.01.2020
4740 Mist 2 1028 93 1600 1 10 08:41 13.01.2020
4741 Mist 2 1028 93 1500 1 0 08:21 13.01.2020
4742 Mist 2 1027 100 1600 1 0 07:52 13.01.2020
4743 Mist 1 1028 100 2500 1 40 07:33 13.01.2020
4744 Mist 1 1028 100 4000 0.5 20 06:44 13.01.2020
4745 Mist 1 1027 100 3700 1 0 06:22 13.01.2020
4746 Mist 1 1028 100 4800 1 0 05:36 13.01.2020
4747 Mist 1 1028 100 4000 1.21 277 03:57 13.01.2020
4748 Mist 0 1028 95 5000 1.21 277 03:25 13.01.2020
4749 Mist 0 1029 95 4300 1.21 277 02:47 13.01.2020
4750 Mist 0 1029 95 5000 1.21 277 02:28 13.01.2020
4751 Mist 1 1029 97 4000 1.01 170 01:21 13.01.2020
4752 Mist 1 1029 100 4100 1 0 00:41 13.01.2020
4753 Mist 1 1029 100 3200 2.1 110 00:22 13.01.2020
4754 Mist 1 1029 100 2600 1.5 100 23:44 12.01.2020
4755 Mist 1 1029 93 2800 1.5 140 23:24 12.01.2020
4756 Mist 1 1029 98 2500 1 0 22:58 12.01.2020
4757 Mist 1 1029 98 2500 1 0 22:40 12.01.2020
4758 Mist 1 1029 98 2300 0.5 0 22:21 12.01.2020
4759 Mist 1 1029 98 2400 0.71 122 21:56 12.01.2020
4760 Mist 1 1029 98 2800 1.5 240 21:38 12.01.2020
4761 Mist 1 1029 98 2800 1.5 240 21:38 12.01.2020
4762 Mist 1 1029 98 2800 1.5 240 21:19 12.01.2020
4763 Mist 1 1029 93 3000 1.5 90 20:56 12.01.2020
4764 Mist 1 1029 93 3000 1.5 90 20:37 12.01.2020
4765 Mist 1 1028 93 5000 2.1 100 20:19 12.01.2020
4766 Mist 1 1028 93 5000 2.1 100 20:19 12.01.2020
4767 Clouds 2 1028 86 6000 2.1 110 19:55 12.01.2020
4768 Clouds 2 1028 86 6000 2.1 110 19:37 12.01.2020
4769 Clouds 2 1028 86 7000 3.1 100 19:18 12.01.2020
4770 Clouds 3 1029 86 7000 3.1 110 18:57 12.01.2020
4771 Clouds 4 1029 86 8000 3.1 130 18:38 12.01.2020
4772 Clouds 4 1029 86 8000 3.1 130 18:20 12.01.2020
4773 Clouds 4 1028 86 8000 3.1 120 17:42 12.01.2020
4774 Clouds 4 1028 86 8000 3.1 110 17:23 12.01.2020
4775 Clouds 4 1028 86 7000 2.1 110 16:59 12.01.2020
4776 Clouds 4 1028 86 7000 2.1 110 16:39 12.01.2020
4777 Clouds 4 1028 86 7000 2.1 150 16:20 12.01.2020
4778 Clouds 4 1028 80 6000 2.1 130 15:56 12.01.2020
4779 Clouds 4 1028 80 6000 2.1 130 15:38 12.01.2020
4780 Clouds 5 1028 80 6000 2.6 120 15:20 12.01.2020
4781 Clouds 5 1028 80 7000 2.1 120 14:42 12.01.2020
4782 Clouds 5 1028 80 6000 2.1 130 14:23 12.01.2020
4783 Mist 5 1028 80 5000 1 0 13:57 12.01.2020
4784 Mist 5 1028 80 5000 1 0 13:39 12.01.2020
4785 Mist 4 1028 86 5000 1.5 140 13:20 12.01.2020
4786 Mist 5 1028 86 4000 1 0 12:56 12.01.2020
4787 Mist 4 1028 86 4000 1 0 12:37 12.01.2020
4788 Mist 4 1028 86 4000 1 0 12:19 12.01.2020
4789 Mist 4 1029 93 3500 1.5 60 11:42 12.01.2020
4790 Mist 3 1029 86 2700 2.1 70 11:22 12.01.2020
4791 Snow 3 1029 93 2500 2.6 110 10:56 12.01.2020
4792 Snow 3 1029 100 1800 2.6 130 10:37 12.01.2020
4793 Snow 2 1029 100 1800 2.6 130 10:19 12.01.2020
4794 Snow 2 1029 98 900 3.1 130 09:42 12.01.2020
4795 Snow 2 1028 98 1000 2.6 130 09:22 12.01.2020
4796 Snow 1 1028 98 1200 1.5 100 08:48 12.01.2020
4797 Snow 1 1028 98 2100 2.1 90 08:24 12.01.2020
4798 Snow 1 1027 98 2300 2.1 100 07:47 12.01.2020
4799 Snow 1 1027 86 3000 1.5 110 07:26 12.01.2020
4800 Snow 1 1027 86 3000 1.5 110 07:26 12.01.2020
4801 Snow 1 1027 98 5000 2.6 130 06:54 12.01.2020
4802 Snow 1 1027 98 5000 2.1 150 06:36 12.01.2020
4803 Clouds 1 1027 98 6000 1.5 110 05:50 12.01.2020
4804 Snow 1 1026 98 7000 1.5 100 04:54 12.01.2020
4805 Clouds 2 1026 98 7000 4.6 270 03:35 12.01.2020
4806 Clouds 2 1026 98 7000 5.1 280 02:43 12.01.2020
4807 Clouds 2 1026 98 7000 5.7 270 02:24 12.01.2020
4808 Clouds 2 1026 98 7000 5.1 280 01:31 12.01.2020
4809 Clouds 2 1026 98 7000 5.7 280 00:46 12.01.2020
4810 Clouds 2 1025 98 7000 5.7 280 00:22 12.01.2020
4811 Snow 2 1025 80 7000 6.2 260 23:56 11.01.2020
4812 Snow 2 1025 80 7000 6.2 260 23:37 11.01.2020
4813 Snow 2 1025 86 7000 5.1 270 23:18 11.01.2020
4814 Snow 2 1026 80 7000 3.6 280 22:56 11.01.2020
4815 Snow 2 1026 80 7000 3.6 280 22:37 11.01.2020
4816 Snow 2 1026 80 7000 3.1 280 22:18 11.01.2020
4817 Snow 3 1026 74 8000 3.6 280 21:43 11.01.2020
4818 Snow 3 1026 98 8000 4.6 280 21:19 11.01.2020
4819 Snow 4 1025 69 8000 3.6 290 20:56 11.01.2020
4820 Snow 4 1025 69 8000 3.6 290 20:37 11.01.2020
4821 Snow 4 1025 69 8000 4.1 280 20:19 11.01.2020
4822 Snow 4 1025 89 8000 4.1 280 19:55 11.01.2020
4823 Snow 4 1025 89 8000 4.1 280 19:55 11.01.2020
4824 Snow 4 1025 89 8000 4.1 280 19:36 11.01.2020
4825 Clouds 4 1025 89 10000 5.1 280 19:18 11.01.2020
4826 Clouds 4 1025 89 10000 5.1 280 18:54 11.01.2020
4827 Clouds 4 1025 89 10000 5.1 280 18:36 11.01.2020
4828 Snow 5 1025 89 8000 6.2 280 18:18 11.01.2020
4829 Clouds 5 1024 89 8000 6.2 280 17:54 11.01.2020
4830 Clouds 5 1024 89 8000 6.2 280 17:36 11.01.2020
4831 Clouds 5 1024 84 10000 4.6 270 17:18 11.01.2020
4832 Clouds 5 1024 65 10000 5.1 280 16:41 11.01.2020
4833 Clouds 5 1024 65 8000 6.2 280 16:22 11.01.2020
4834 Clouds 5 1024 65 8000 6.2 280 16:22 11.01.2020
4835 Clouds 5 1024 65 8000 6.2 280 15:42 11.01.2020
4836 Clouds 6 1024 60 8000 6.2 290 15:24 11.01.2020
4837 Clouds 6 1023 60 8000 7.7 290 14:58 11.01.2020
4838 Clouds 6 1023 60 8000 7.7 290 14:40 11.01.2020
4839 -273 0 0 0 0 0 14:22 11.01.2020
4840 Clouds 6 1023 60 8000 5.1 280 13:55 11.01.2020
4841 Clouds 6 1023 60 8000 5.1 280 13:55 11.01.2020
4842 Clouds 7 1023 56 8000 5.1 280 13:36 11.01.2020
4843 Clouds 7 1023 56 8000 5.1 280 13:18 11.01.2020
4844 Clouds 7 1023 56 8000 6.2 280 12:42 11.01.2020
4845 Clouds 7 1024 52 8000 5.7 280 12:23 11.01.2020
4846 Clouds 8 1024 52 8000 5.7 280 11:48 11.01.2020
4847 Clouds 7 1024 56 8000 5.7 280 11:27 11.01.2020
4848 Clouds 6 1024 60 8000 2.6 300 10:55 11.01.2020
4849 Clouds 7 1024 60 8000 2.6 300 10:36 11.01.2020
4850 Clouds 7 1024 60 8000 2.6 300 10:36 11.01.2020
4851 Clouds 6 1025 69 6000 2.1 330 10:18 11.01.2020
4852 Mist 4 1025 74 5000 1 0 09:39 11.01.2020
4853 Clouds 3 1025 57 7000 0.5 0 09:20 11.01.2020
4854 Clouds 3 1025 57 7000 0.5 0 09:20 11.01.2020
4855 Mist 2 1025 86 5000 1 0 08:42 11.01.2020
4856 Clouds 1 1024 92 6000 2.1 90 08:22 11.01.2020
4857 Clouds -2 1024 92 6000 1 0 07:44 11.01.2020
4858 Mist -3 1024 92 4700 2.1 80 07:25 11.01.2020
4859 Clouds -3 1024 92 6000 0.5 0 06:51 11.01.2020
4860 Clouds -4 1024 100 6000 0.5 0 05:48 11.01.2020
4861 Mist -4 1024 85 5000 1 0 04:47 11.01.2020
4862 Mist -4 1023 92 5000 1.33 284 04:28 11.01.2020
4863 Mist -4 1024 92 5000 1.33 284 02:49 11.01.2020
4864 Mist -4 1024 92 5000 1 0 02:27 11.01.2020
4865 Mist -3 1023 92 5000 1.5 80 01:43 11.01.2020
4866 Mist -3 1023 86 5000 1 0 01:19 11.01.2020
4867 Mist -2 1023 86 4000 1 0 00:40 11.01.2020
4868 Mist -2 1023 86 3800 1.5 160 23:59 10.01.2020
4869 Mist -2 1023 86 3800 1.5 160 23:40 10.01.2020
4870 Mist -2 1023 86 5000 1.07 263 23:22 10.01.2020
4871 Mist -2 1023 86 4200 1.07 263 22:58 10.01.2020
4872 Mist -2 1023 86 4200 1.07 263 22:40 10.01.2020
4873 Mist -1 1023 86 4000 1 0 22:20 10.01.2020
4874 Mist -1 1023 80 5000 1.5 220 21:56 10.01.2020
4875 Mist -1 1023 80 5000 1.5 220 21:36 10.01.2020
4876 Mist 0 1023 81 5000 1.5 180 21:18 10.01.2020
4877 Mist 0 1022 80 5000 0.5 0 20:43 10.01.2020
4878 Mist 0 1023 81 5000 2.1 170 20:43 10.01.2020
4879 Mist -1 1022 80 5000 0.5 0 20:24 10.01.2020
4880 Smoke 0 1022 76 6000 1.04 263 19:58 10.01.2020
4881 Clear 1 1022 76 7000 0.5 0 19:38 10.01.2020
4882 Clear 1 1022 76 7000 0.5 0 19:19 10.01.2020
4883 Clear 1 1022 64 7000 0.5 0 18:43 10.01.2020
4884 Clear 2 1022 59 8000 1.04 263 18:19 10.01.2020
4885 Clear 3 1022 55 10000 1 150 17:57 10.01.2020
4886 Clear 3 1022 55 10000 1 150 17:39 10.01.2020
4887 Clear 4 1021 51 10000 1 0 17:20 10.01.2020
4888 Clear 5 1021 45 10000 1 100 16:56 10.01.2020
4889 Clear 6 1021 42 10000 1.5 90 16:37 10.01.2020
4890 Clear 7 1021 42 10000 1.5 90 16:19 10.01.2020
4891 Clear 9 1021 39 10000 1 80 15:56 10.01.2020
4892 Clear 9 1021 39 10000 1 80 15:36 10.01.2020
4893 Clear 9 1021 36 10000 1 0 15:18 10.01.2020
4894 Clear 9 1021 36 10000 0.5 0 14:54 10.01.2020
4895 Clear 9 1021 36 10000 1 0 14:36 10.01.2020
4896 Clear 9 1021 36 10000 1 0 14:18 10.01.2020
4897 Clear 9 1021 36 10000 1 0 13:41 10.01.2020
4898 Clear 8 1021 39 10000 1 0 13:23 10.01.2020
4899 Clear 7 1022 42 10000 1.5 0 12:58 10.01.2020
4900 Clear 7 1022 42 10000 1 0 12:38 10.01.2020
4901 Clear 7 1022 42 10000 1 0 12:19 10.01.2020
4902 Clear 6 1023 45 8000 0.5 0 11:55 10.01.2020
4903 Clear 10 1023 45 8000 0.5 0 11:37 10.01.2020
4904 Clear 4 1023 55 8000 1 0 11:18 10.01.2020
4905 Clear 8 1024 55 7000 0.5 0 10:42 10.01.2020
4906 Clear 6 1024 64 7000 0.5 0 10:24 10.01.2020
4907 Clear 4 1024 69 7000 1 0 09:56 10.01.2020
4908 Clear 4 1024 69 7000 1 0 09:56 10.01.2020
4909 Clear 3 1024 80 7000 1 0 09:37 10.01.2020
4910 Clear 3 1024 80 7000 1 0 09:19 10.01.2020
4911 Clear 1 1024 74 7000 1 0 08:41 10.01.2020
4912 Clouds -1 1024 79 6000 1.5 140 08:23 10.01.2020
4913 Clouds -4 1024 92 6000 1 170 07:45 10.01.2020
4914 Clouds -4 1024 92 6000 0.5 0 07:26 10.01.2020
4915 Clouds -5 1023 92 6000 1.5 90 06:46 10.01.2020
4916 Clouds -4 1023 86 8000 1.5 110 06:26 10.01.2020
4917 Clouds -4 1023 86 8000 1 0 05:48 10.01.2020
4918 Mist -4 1024 92 5000 1 240 03:37 10.01.2020
4919 Clear -4 1024 92 6000 1.05 272 03:18 10.01.2020
4920 Clear -4 1024 92 6000 1 70 02:39 10.01.2020
4921 Clouds -4 1024 92 6000 1.5 150 01:38 10.01.2020
4922 Clouds -4 1024 92 6000 1.5 150 01:19 10.01.2020
4923 Clouds -3 1024 86 7000 1.5 160 00:39 10.01.2020
4924 Clouds -3 1024 86 8000 1 110 23:58 09.01.2020
4925 Clouds -3 1024 86 8000 1 110 23:38 09.01.2020
4926 Clouds -3 1025 86 6000 1.5 80 23:20 09.01.2020
4927 Mist -2 1025 79 5000 1.5 80 22:57 09.01.2020
4928 Mist -2 1025 79 5000 1.5 80 22:37 09.01.2020
4929 Clouds -2 1025 79 6000 2.1 160 22:19 09.01.2020
4930 Clouds -2 1025 86 8000 1.5 130 21:56 09.01.2020
4931 Clouds -1 1025 86 8000 1.5 130 21:37 09.01.2020
4932 Clouds -1 1025 86 8000 1.5 130 21:37 09.01.2020
4933 Clouds -1 1025 86 8000 1.5 130 21:37 09.01.2020
4934 Clouds -1 1025 79 8000 1.5 150 21:18 09.01.2020
4935 Clouds -1 1025 79 10000 1.12 269 20:56 09.01.2020
4936 Clouds -1 1025 79 10000 1.12 269 20:38 09.01.2020
4937 Clouds 0 1025 74 10000 1 40 20:19 09.01.2020
4938 Clouds 0 1025 74 10000 1 40 20:19 09.01.2020
4939 Clouds -1 1025 74 10000 1 300 19:55 09.01.2020
4940 Clouds 0 1025 56 10000 1.5 260 19:36 09.01.2020
4941 Clouds 0 1025 56 10000 1.5 260 19:18 09.01.2020
4942 Clouds 0 1025 56 8000 1.5 310 18:54 09.01.2020
4943 Clouds 0 1025 74 8000 0.5 0 18:36 09.01.2020
4944 Clouds 0 1025 74 8000 0.5 0 18:18 09.01.2020
4945 Clouds 0 1025 74 8000 0.5 0 18:18 09.01.2020
4946 Clouds 0 1025 56 7000 1 0 17:40 09.01.2020
4947 Clouds 1 1025 61 7000 1 0 17:18 09.01.2020
4948 Clouds 1 1025 61 7000 1 0 17:18 09.01.2020
4949 Clouds 2 1025 59 8000 0.5 0 16:47 09.01.2020
4950 Clouds 2 1025 55 8000 1.5 130 16:22 09.01.2020
4951 Clouds 4 1025 48 10000 2.1 160 15:44 09.01.2020
4952 Clouds 4 1025 48 10000 2.1 160 15:25 09.01.2020
4953 Clouds 4 1025 48 10000 1.5 150 14:59 09.01.2020
4954 Clouds 4 1025 51 10000 1 0 14:41 09.01.2020
4955 Clouds 4 1025 51 10000 1 0 14:19 09.01.2020
4956 Clouds 3 1025 51 10000 0.5 0 13:56 09.01.2020
4957 Clouds 3 1025 51 10000 1 0 13:38 09.01.2020
4958 Clouds 3 1025 51 10000 1 0 13:19 09.01.2020
4959 Clouds 4 1026 55 9000 1 0 12:56 09.01.2020
4960 Clouds 3 1026 46 8000 2.6 280 12:38 09.01.2020
4961 Clouds 3 1027 46 8000 2.6 260 12:18 09.01.2020
4962 Clouds 1 1028 74 8000 2.1 290 11:42 09.01.2020
4963 Clouds 1 1028 74 8000 2.1 290 11:24 09.01.2020
4964 Clouds 1 1028 74 8000 2.1 290 11:24 09.01.2020
4965 Clouds 1 1028 74 8000 2.1 290 11:24 09.01.2020
4966 Clouds 1 1028 68 8000 1.5 250 10:58 09.01.2020
4967 Clouds 0 1028 79 8000 1 0 10:40 09.01.2020
4968 Clouds 0 1028 79 8000 1 0 10:21 09.01.2020
4969 Mist -2 1029 79 5000 1.5 130 09:47 09.01.2020
4970 Mist -2 1029 79 5000 1.5 130 09:25 09.01.2020
4971 Mist -4 1029 85 5000 1 0 08:58 09.01.2020
4972 Mist -5 1029 92 5000 1.5 110 08:39 09.01.2020
4973 Mist -5 1029 92 5000 1.5 110 08:20 09.01.2020
4974 Mist -5 1029 92 5000 1.5 110 08:20 09.01.2020
4975 Mist -8 1029 92 5000 2.1 30 07:47 09.01.2020
4976 Mist -8 1029 92 5000 0.5 0 07:28 09.01.2020
4977 Clear -9 1029 85 7000 2.1 120 06:40 09.01.2020
4978 Clear -9 1029 85 7000 2.1 120 06:22 09.01.2020
4979 Clear -9 1029 92 7000 2.1 80 05:51 09.01.2020
4980 Clear -9 1028 85 7000 1.5 80 05:18 09.01.2020
4981 Clear -9 1028 85 6000 1 220 04:38 09.01.2020
4982 Clear -8 1029 85 7000 0.5 310 03:27 09.01.2020
4983 Clear -8 1029 85 7000 1.5 350 02:46 09.01.2020
4984 Clear -7 1030 85 8000 1 0 01:42 09.01.2020
4985 Clear -7 1030 79 8000 1.5 240 00:57 09.01.2020
4986 Clear -7 1030 85 7000 1 0 00:37 09.01.2020
4987 Clear -7 1030 85 7000 1 0 00:19 09.01.2020
4988 Clear -6 1030 85 6000 1.5 100 23:39 08.01.2020
4989 Clouds -6 1030 85 6000 1.5 100 23:20 08.01.2020
4990 Clouds -5 1030 73 9000 1 0 22:40 08.01.2020
4991 Clouds -5 1030 73 9000 1 0 22:21 08.01.2020
4992 Clouds -5 1030 73 10000 3.1 280 21:58 08.01.2020
4993 Clouds -4 1030 73 10000 3.6 280 21:40 08.01.2020
4994 Clouds -4 1030 73 10000 3.6 280 21:40 08.01.2020
4995 Clouds -3 1030 73 10000 3.6 280 21:20 08.01.2020
4996 Clouds -4 1030 73 10000 4.6 270 20:59 08.01.2020
4997 Clouds -3 1031 68 10000 3.6 280 20:40 08.01.2020
4998 Clear -4 1031 68 10000 3.6 280 20:20 08.01.2020
4999 Clear -4 1031 68 10000 3.6 280 20:20 08.01.2020
5000 Clear -3 1030 68 10000 3.6 280 19:57 08.01.2020
5001 Clear -2 1030 68 10000 4.6 280 19:38 08.01.2020
5002 Clear -2 1030 68 10000 4.6 280 19:19 08.01.2020
5003 Clear -2 1030 63 10000 4.6 280 18:57 08.01.2020
5004 Clear -2 1030 63 10000 4.1 270 18:38 08.01.2020
5005 Clear -2 1030 63 10000 4.1 270 18:18 08.01.2020
5006 Clear -1 1029 58 10000 3.1 290 17:56 08.01.2020
5007 Clear -1 1029 58 10000 3.1 290 17:56 08.01.2020
5008 Clear -1 1029 58 10000 4.6 280 17:37 08.01.2020
5009 Clear 0 1029 47 10000 4.1 290 17:18 08.01.2020
5010 Clear 0 1029 47 10000 4.1 290 16:54 08.01.2020
5011 Clear 1 1029 47 10000 4.1 300 16:36 08.01.2020
5012 Clear 1 1029 47 10000 4.1 300 16:18 08.01.2020
5013 Clear 3 1029 40 10000 3.1 290 15:41 08.01.2020
5014 Clear 3 1029 40 10000 3.1 290 15:21 08.01.2020
5015 Clear 3 1028 40 10000 2.6 290 14:57 08.01.2020
5016 Clear 3 1028 37 10000 2.6 270 14:39 08.01.2020
5017 Clear 3 1028 37 10000 2.6 270 14:20 08.01.2020
5018 Clear 3 1029 40 10000 3.1 290 13:40 08.01.2020
5019 Clear 3 1029 40 10000 3.1 290 13:40 08.01.2020
5020 Clear 3 1029 40 10000 3.1 290 13:19 08.01.2020
5021 Clear 3 1029 47 10000 3.6 290 12:42 08.01.2020
5022 Clear 3 1029 47 10000 3.6 290 12:19 08.01.2020
5023 Clear 2 1030 42 10000 3.1 280 11:55 08.01.2020
5024 Clear 2 1030 42 10000 3.1 280 11:55 08.01.2020
5025 Clear 1 1030 68 10000 3.6 300 11:37 08.01.2020
5026 Clear 0 1030 68 10000 2.6 300 11:19 08.01.2020
5027 Clear 0 1030 68 10000 2.6 300 10:55 08.01.2020
5028 Clear -1 1030 73 10000 3.1 280 10:37 08.01.2020
5029 Clear -1 1030 79 8000 2.6 290 10:18 08.01.2020
5030 Clear -3 1030 92 6000 2.6 290 09:41 08.01.2020
5031 Clear -3 1030 92 6000 2.6 290 09:19 08.01.2020
5032 Mist -3 1030 85 5000 2.1 310 08:56 08.01.2020
5033 Mist -6 1030 85 3000 1.31 354 08:37 08.01.2020
5034 Mist -6 1030 85 3000 1.24 317 08:19 08.01.2020
5035 Clear -8 1030 85 6000 1.5 220 07:48 08.01.2020
5036 Clear -9 1029 92 6000 1 130 07:29 08.01.2020
5037 Clouds -9 1029 92 8000 1.5 70 06:45 08.01.2020
5038 Clouds -8 1029 92 8000 1.5 70 06:19 08.01.2020
5039 Clear -9 1028 85 6000 1.24 317 05:41 08.01.2020
5040 Clear -9 1028 85 6000 1.24 317 05:41 08.01.2020
5041 Clear -9 1028 92 7000 1 0 04:56 08.01.2020
5042 Clear -9 1028 92 7000 1.01 327 04:24 08.01.2020
5043 Clear -8 1028 85 6000 1 80 02:45 08.01.2020
5044 Clear -8 1028 85 6000 1 80 02:21 08.01.2020
5045 Clear -8 1028 92 8000 2.1 290 01:42 08.01.2020
5046 Clear -8 1028 92 7000 1.5 240 00:59 08.01.2020
5047 Clear -7 1028 85 8000 1 0 00:27 08.01.2020
5048 Clear -6 1028 85 7000 1.5 330 23:47 07.01.2020
5049 Clear -6 1028 85 7000 1.5 330 23:47 07.01.2020
5050 Clear -6 1027 92 7000 1.5 330 23:22 07.01.2020
5051 Clear -6 1027 79 8000 1.5 240 22:58 07.01.2020
5052 Clear -6 1027 85 10000 2.1 310 22:39 07.01.2020
5053 Clear -6 1027 85 10000 2.1 310 22:20 07.01.2020
5054 Clear -5 1027 79 10000 1 0 21:55 07.01.2020
5055 Clear -5 1027 79 10000 2.6 290 21:37 07.01.2020
5056 Clear -5 1026 79 10000 3.1 290 21:19 07.01.2020
5057 Clear -5 1027 79 10000 2.6 290 21:19 07.01.2020
5058 Clear -5 1026 79 10000 2.1 270 20:42 07.01.2020
5059 Clear -5 1026 79 10000 2.1 270 20:24 07.01.2020
5060 Clear -5 1026 79 8000 2.6 280 19:59 07.01.2020
5061 Clear -4 1026 79 8000 3.6 280 19:38 07.01.2020
5062 Clear -4 1026 79 8000 3.6 280 19:19 07.01.2020
5063 Clear -4 1026 79 10000 3.6 280 18:58 07.01.2020
5064 Clear -3 1026 73 10000 3.1 280 18:39 07.01.2020
5065 Clear -3 1026 73 10000 3.1 280 18:18 07.01.2020
5066 Clear -3 1026 73 10000 3.1 280 18:18 07.01.2020
5067 Clear -2 1026 68 10000 2.6 290 17:58 07.01.2020
5068 Clear -2 1025 68 10000 3.1 300 17:38 07.01.2020
5069 Clear -2 1025 68 10000 3.1 300 17:20 07.01.2020
5070 Clear -1 1025 68 10000 2.6 300 16:55 07.01.2020
5071 Clear -1 1025 62 10000 2.1 280 16:37 07.01.2020
5072 Clear 1 1025 55 10000 2.1 280 16:18 07.01.2020
5073 Clear 1 1024 50 10000 2.6 290 15:43 07.01.2020
5074 Clear 1 1024 50 10000 2.6 290 15:24 07.01.2020
5075 Clear 1 1024 50 10000 2.6 290 15:24 07.01.2020
5076 Clear 1 1024 50 10000 2.6 290 15:24 07.01.2020
5077 Clear 1 1024 55 10000 2.1 270 14:59 07.01.2020
5078 Clear 2 1024 51 10000 1 0 14:41 07.01.2020
5079 Clear 2 1024 51 10000 1 0 14:22 07.01.2020
5080 Clear 1 1024 55 10000 2.6 300 13:56 07.01.2020
5081 Clear 1 1024 50 10000 2.6 0 13:37 07.01.2020
5082 Clear 1 1024 50 10000 2.6 0 13:18 07.01.2020
5083 Clouds 2 1025 51 10000 3.1 290 12:40 07.01.2020
5084 Clouds 2 1025 51 10000 3.1 290 12:40 07.01.2020
5085 Clouds 2 1025 51 10000 3.1 290 12:19 07.01.2020
5086 Clouds 1 1025 51 10000 3.6 300 11:43 07.01.2020
5087 Clouds 0 1025 51 10000 3.6 300 11:23 07.01.2020
5088 Clouds -1 1025 63 10000 3.1 310 10:58 07.01.2020
5089 Clouds -2 1026 74 10000 4.1 290 10:39 07.01.2020
5090 Clouds -2 1026 74 10000 4.1 290 10:21 07.01.2020
5091 Clouds -1 1026 73 10000 4.6 280 09:55 07.01.2020
5092 Clouds -1 1026 73 10000 4.1 280 09:37 07.01.2020
5093 Clouds -2 1026 73 10000 4.1 280 09:19 07.01.2020
5094 Clouds -3 1026 85 10000 4.6 280 08:41 07.01.2020
5095 Clouds -5 1026 85 10000 4.6 280 08:18 07.01.2020
5096 Clouds -5 1025 85 10000 5.1 270 07:49 07.01.2020
5097 Clouds -5 1025 85 10000 4.1 270 07:23 07.01.2020
5098 Clouds -5 1025 85 10000 5.7 270 06:50 07.01.2020
5099 Clouds -5 1025 85 10000 4.1 270 06:30 07.01.2020
5100 Clouds -5 1025 79 10000 4.6 280 05:41 07.01.2020
5101 Clouds -5 1025 79 10000 3.1 290 03:51 07.01.2020
5102 Clouds -5 1025 79 10000 3.6 310 03:25 07.01.2020
5103 Clouds -5 1025 74 10000 3.6 300 02:20 07.01.2020
5104 Clouds -4 1025 68 10000 3.6 340 01:40 07.01.2020
5105 Clouds -3 1025 74 10000 3.1 350 00:59 07.01.2020
5106 Clouds -3 1025 74 10000 1.5 10 00:21 07.01.2020
5107 Clouds -3 1025 74 10000 1.5 10 23:57 06.01.2020
5108 Clouds -3 1025 74 10000 2.6 20 23:38 06.01.2020
5109 Clouds -3 1025 74 10000 2.6 20 23:20 06.01.2020
5110 Clouds -2 1026 74 10000 1.5 310 22:44 06.01.2020
5111 Clouds -2 1026 74 10000 1.5 310 22:44 06.01.2020
5112 Clouds -2 1026 74 10000 1.5 310 22:25 06.01.2020
5113 Clouds -2 1026 74 10000 2.1 330 21:59 06.01.2020
5114 Clouds -2 1026 74 10000 2.1 360 21:40 06.01.2020
5115 Clouds -2 1026 74 10000 2.1 360 21:20 06.01.2020
5116 Clouds -2 1026 68 10000 1.5 330 20:57 06.01.2020
5117 Clouds -2 1026 74 10000 2.1 270 20:39 06.01.2020
5118 Clouds -2 1026 74 10000 2.1 270 20:20 06.01.2020
5119 Clouds -2 1026 80 10000 2.1 210 19:57 06.01.2020
5120 Clouds -2 1026 86 10000 1 0 19:38 06.01.2020
5121 Clouds -2 1026 86 10000 1 0 19:20 06.01.2020
5122 Snow -2 1026 86 10000 1 0 18:48 06.01.2020
5123 Snow -2 1026 74 10000 1 0 18:48 06.01.2020
5124 Snow -2 1026 86 10000 1 0 18:23 06.01.2020
5125 Snow -2 1026 86 4000 1 0 17:59 06.01.2020
5126 Snow -2 1025 92 4500 1 0 17:38 06.01.2020
5127 Snow -2 1025 92 4500 1 0 17:19 06.01.2020
5128 Snow -1 1025 74 10000 3.1 50 16:46 06.01.2020
5129 Snow -1 1025 74 10000 3.1 50 16:46 06.01.2020
5130 Snow -1 1025 74 10000 3.1 50 16:27 06.01.2020
5131 Snow -1 1025 74 5000 3.1 20 15:59 06.01.2020
5132 Snow 0 1025 86 7000 3.6 40 15:41 06.01.2020
5133 Snow 0 1025 86 7000 3.6 40 15:20 06.01.2020
5134 Clouds 0 1025 86 10000 4.6 70 14:58 06.01.2020
5135 Clouds 0 1025 86 10000 4.1 50 14:40 06.01.2020
5136 Clouds 1 1025 74 10000 4.1 50 14:20 06.01.2020
5137 Snow 1 1025 74 6000 3.1 30 13:55 06.01.2020
5138 Snow 1 1025 74 6000 3.1 30 13:55 06.01.2020
5139 Clouds 1 1025 73 10000 4.6 60 13:37 06.01.2020
5140 Clouds 0 1025 73 10000 4.6 60 13:19 06.01.2020
5141 Snow 1 1025 74 10000 5.7 40 12:42 06.01.2020
5142 Snow -1 1025 74 10000 5.7 40 12:20 06.01.2020
5143 Clouds 0 1025 73 10000 3.6 40 11:57 06.01.2020
5144 Rain 0 1025 73 10000 5.1 40 11:39 06.01.2020
5145 Rain 0 1025 76 10000 5.1 40 11:20 06.01.2020
5146 Clouds 0 1026 76 10000 6.2 30 10:45 06.01.2020
5147 Clouds 0 1026 76 10000 6.2 30 10:45 06.01.2020
5148 Clouds 0 1026 76 10000 6.2 30 10:27 06.01.2020
5149 Clouds 0 1026 76 10000 2.1 360 09:59 06.01.2020
5150 Clouds 0 1025 63 10000 2.1 300 09:37 06.01.2020
5151 Clouds -1 1025 68 10000 2.1 300 09:19 06.01.2020
5152 Clouds -1 1025 74 10000 2.6 280 08:43 06.01.2020
5153 Clouds -2 1025 74 10000 2.6 280 08:24 06.01.2020
5154 Clouds -3 1025 74 10000 3.1 270 07:48 06.01.2020
5155 Clouds -3 1024 79 10000 4.1 280 07:26 06.01.2020
5156 Clouds -3 1024 79 10000 3.6 290 06:45 06.01.2020
5157 Clouds -3 1024 79 10000 3.6 290 06:18 06.01.2020
5158 Clouds -2 1024 74 10000 4.1 290 05:40 06.01.2020
5159 Clouds -2 1023 74 10000 2.6 300 04:30 06.01.2020
5160 Clouds -1 1024 68 10000 2.6 290 03:58 06.01.2020
5161 Clouds -1 1023 74 10000 3.1 280 02:40 06.01.2020
5162 Clouds -1 1023 74 10000 3.1 280 02:21 06.01.2020
5163 Clouds -1 1023 68 10000 3.1 290 01:41 06.01.2020
5164 Clouds -1 1023 68 10000 3.1 290 01:20 06.01.2020
5165 Clouds 0 1023 92 10000 5.1 310 00:40 06.01.2020
5166 Clouds 0 1023 92 10000 5.1 310 00:19 06.01.2020
5167 Clouds 0 1023 92 10000 5.1 310 00:19 06.01.2020
5168 Clouds 0 1022 92 10000 4.6 280 23:41 05.01.2020
5169 Clouds -1 1022 91 10000 4.1 280 23:21 05.01.2020
5170 Clouds -1 1022 91 10000 4.1 280 22:55 05.01.2020
5171 Clouds -1 1022 91 10000 3.6 290 22:37 05.01.2020
5172 Clouds -1 1022 91 10000 3.6 290 22:18 05.01.2020
5173 Clouds 0 1021 91 10000 5.1 290 21:41 05.01.2020
5174 Clouds 0 1021 91 10000 5.1 290 21:21 05.01.2020
5175 Clouds 0 1021 91 10000 4.6 290 20:58 05.01.2020
5176 Clouds 0 1021 91 10000 5.1 300 20:39 05.01.2020
5177 Clouds 0 1021 93 10000 5.1 300 20:20 05.01.2020
5178 Clouds 0 1020 94 10000 4.6 280 19:59 05.01.2020
5179 Snow 0 1020 94 10000 5.7 280 19:39 05.01.2020
5180 Snow 0 1020 94 10000 5.7 280 19:20 05.01.2020
5181 Clouds -1 1020 86 10000 5.7 280 18:56 05.01.2020
5182 Snow 0 1019 94 10000 5.7 280 18:38 05.01.2020
5183 Clouds 0 1019 94 10000 6.2 280 18:19 05.01.2020
5184 Clouds 0 1019 94 10000 6.2 280 17:58 05.01.2020
5185 Clouds 0 1018 94 10000 5.7 280 17:39 05.01.2020
5186 Clouds 0 1018 83 10000 5.7 280 17:20 05.01.2020
5187 Clouds 0 1018 83 10000 5.7 280 16:57 05.01.2020
5188 Clouds 0 1018 83 10000 5.7 280 16:57 05.01.2020
5189 Clouds 0 1018 83 10000 5.1 280 16:38 05.01.2020
5190 Clouds 0 1018 83 10000 5.1 280 16:19 05.01.2020
5191 Snow 1 1017 74 7000 6.7 280 15:39 05.01.2020
5192 Snow 1 1017 74 7000 6.7 280 15:39 05.01.2020
5193 Snow 1 1017 74 7000 6.7 280 15:20 05.01.2020
5194 Snow 1 1017 74 8000 6.7 300 14:56 05.01.2020
5195 Clouds 2 1016 64 10000 8.2 290 14:38 05.01.2020
5196 Clouds 2 1016 64 10000 8.2 290 14:20 05.01.2020
5197 Clouds 2 1016 64 10000 7.7 280 13:56 05.01.2020
5198 Clouds 3 1016 69 10000 7.7 280 13:38 05.01.2020
5199 Clouds 2 1016 69 10000 7.2 280 13:19 05.01.2020
5200 Clouds 2 1016 69 10000 7.2 280 12:55 05.01.2020
5201 Clouds 2 1015 69 10000 8.2 280 12:37 05.01.2020
5202 Clouds 2 1015 69 10000 8.2 280 12:19 05.01.2020
5203 Clouds 2 1016 59 10000 6.7 290 11:44 05.01.2020
5204 Clouds 2 1016 59 10000 6.7 290 11:20 05.01.2020
5205 Clouds 2 1016 59 10000 6.7 290 11:20 05.01.2020
5206 Snow 2 1016 69 10000 7.7 280 10:58 05.01.2020
5207 Rain 2 1017 74 10000 6.7 290 10:40 05.01.2020
5208 Rain 2 1017 74 10000 6.7 290 10:19 05.01.2020
5209 Clouds 2 1017 74 10000 6.7 280 09:42 05.01.2020
5210 Clouds 2 1017 74 10000 6.7 280 09:22 05.01.2020
5211 Clouds 2 1017 74 10000 6.7 280 08:51 05.01.2020
5212 Clouds 2 1017 74 10000 6.7 280 08:32 05.01.2020
5213 Clouds 2 1017 74 10000 6.2 290 07:59 05.01.2020
5214 Clouds 1 1017 69 10000 4.6 290 07:39 05.01.2020
5215 Clouds 1 1017 69 10000 4.6 290 07:20 05.01.2020
5216 Clouds 1 1017 74 10000 5.1 280 06:21 05.01.2020
5217 Clouds 2 1016 74 10000 6.7 280 05:34 05.01.2020
5218 Clouds 2 1016 74 10000 6.7 280 05:34 05.01.2020
5219 Clouds 3 1016 74 10000 6.2 280 04:48 05.01.2020
5220 Clouds 3 1016 74 10000 5.7 290 04:18 05.01.2020
5221 Drizzle 3 1017 87 10000 5.1 280 04:18 05.01.2020
5222 Clouds 3 1017 87 10000 4.6 280 02:50 05.01.2020
5223 Clouds 3 1017 87 10000 5.1 270 02:32 05.01.2020
5224 Clouds 3 1017 94 10000 4.1 280 01:49 05.01.2020
5225 Clouds 3 1017 94 10000 3.1 270 01:19 05.01.2020
5226 Clouds 3 1018 93 10000 4.6 270 00:55 05.01.2020
5227 Clouds 3 1018 93 10000 4.6 280 00:36 05.01.2020
5228 Clouds 3 1018 93 10000 4.6 270 00:18 05.01.2020
5229 Clouds 4 1018 93 10000 3.6 280 23:40 04.01.2020
5230 Clouds 4 1018 85 10000 3.6 280 23:20 04.01.2020
5231 Clouds 4 1018 85 10000 6.2 280 22:40 04.01.2020
5232 Clouds 4 1018 85 10000 6.2 280 22:22 04.01.2020
5233 Clouds 4 1018 85 10000 6.2 280 22:22 04.01.2020
5234 Clouds 4 1018 85 10000 6.7 280 21:58 04.01.2020
5235 Clouds 4 1019 85 10000 6.2 280 21:40 04.01.2020
5236 Clouds 4 1019 85 10000 6.2 280 21:21 04.01.2020
5237 Clouds 4 1018 85 10000 6.7 290 20:59 04.01.2020
5238 Clouds 4 1018 65 10000 4.6 290 20:40 04.01.2020
5239 Clouds 5 1018 65 10000 4.6 290 20:22 04.01.2020
5240 Clouds 4 1018 69 10000 4.6 280 19:57 04.01.2020
5241 Clouds 4 1018 64 10000 6.2 280 19:38 04.01.2020
5242 Clouds 4 1018 64 10000 6.2 280 19:20 04.01.2020
5243 Clouds 4 1019 60 10000 6.2 280 18:56 04.01.2020
5244 Clouds 4 1018 55 10000 6.7 280 18:37 04.01.2020
5245 Clouds 4 1018 55 10000 6.7 280 18:19 04.01.2020
5246 Clouds 5 1018 48 10000 6.2 280 17:41 04.01.2020
5247 Clouds 5 1018 48 10000 6.2 280 17:23 04.01.2020
5248 Clouds 5 1018 48 10000 6.2 290 16:58 04.01.2020
5249 Clouds 5 1018 45 10000 5.1 280 16:39 04.01.2020
5250 Clouds 5 1018 45 10000 5.1 280 16:21 04.01.2020
5251 Clouds 6 1018 41 10000 6.2 280 15:55 04.01.2020
5252 Clouds 7 1018 36 10000 5.1 290 15:37 04.01.2020
5253 Clouds 7 1018 36 10000 5.1 290 15:18 04.01.2020
5254 Clouds 8 1018 31 10000 4.1 280 14:42 04.01.2020
5255 Clouds 8 1018 31 10000 4.1 280 14:20 04.01.2020
5256 Clouds 8 1018 31 10000 6.2 300 13:59 04.01.2020
5257 Clouds 9 1018 26 10000 5.1 300 13:38 04.01.2020
5258 Clouds 9 1018 26 10000 5.1 300 13:19 04.01.2020
5259 Clouds 8 1019 31 10000 1.5 220 12:57 04.01.2020
5260 Clouds 8 1019 44 8000 1.5 250 12:39 04.01.2020
5261 Clouds 8 1019 44 8000 1.5 250 12:39 04.01.2020
5262 Clouds 7 1020 55 8000 1 0 12:18 04.01.2020
5263 Clouds 8 1019 44 8000 1.5 250 12:18 04.01.2020
5264 Clouds 7 1020 55 8000 1 0 11:56 04.01.2020
5265 Clouds 6 1020 59 8000 1 0 11:37 04.01.2020
5266 Clear 2 1020 59 8000 1 0 11:18 04.01.2020
5267 Clear 5 1021 80 6000 1.5 190 10:40 04.01.2020
5268 Clear -1 1021 80 6000 1.5 190 10:21 04.01.2020
5269 Clear 2 1021 85 6000 1.5 90 09:47 04.01.2020
5270 Clear 2 1021 85 6000 1.5 90 09:26 04.01.2020
5271 Clear -1 1021 85 6000 0.5 0 08:49 04.01.2020
5272 Mist -2 1021 92 5000 0.5 0 08:29 04.01.2020
5273 Mist -5 1021 92 3500 1 220 07:57 04.01.2020
5274 Mist -6 1021 92 4000 1 180 07:39 04.01.2020
5275 Mist -7 1021 92 5000 0.5 0 06:44 04.01.2020
5276 Mist -6 1021 92 3600 2.1 272 05:59 04.01.2020
5277 Mist -6 1021 100 2800 2.11 273 04:52 04.01.2020
5278 Mist -6 1021 92 3000 2.11 273 04:31 04.01.2020
5279 Mist -6 1022 92 4000 2.11 273 03:30 04.01.2020
5280 Mist -5 1022 92 5000 0.5 0 02:52 04.01.2020
5281 Mist -4 1022 92 5000 0.5 0 02:18 04.01.2020
5282 Mist -4 1022 92 5000 0.5 0 01:45 04.01.2020
5283 Mist -4 1022 92 5000 1 130 01:27 04.01.2020
5284 Mist -4 1023 92 5000 2.1 120 00:29 04.01.2020
5285 Mist -4 1023 92 5000 2.6 140 23:59 03.01.2020
5286 Mist -4 1023 92 5000 2.6 140 23:59 03.01.2020
5287 Mist -3 1023 92 5000 2.1 100 23:37 03.01.2020
5288 Mist -3 1023 92 5000 2.1 100 23:18 03.01.2020
5289 Mist -2 1023 92 5000 1 0 22:40 03.01.2020
5290 Mist -1 1023 85 5000 1 0 22:19 03.01.2020
5291 Mist -3 1023 85 5000 1 0 21:57 03.01.2020
5292 Mist -2 1023 86 4300 2.6 150 21:38 03.01.2020
5293 Mist -2 1023 86 4300 2.6 150 21:19 03.01.2020
5294 Mist -2 1023 86 4500 2.6 150 20:55 03.01.2020
5295 Mist -2 1023 86 5000 1.5 150 20:37 03.01.2020
5296 Mist -2 1023 86 5000 1.5 150 20:18 03.01.2020
5297 Mist -2 1024 85 4800 2.6 110 19:54 03.01.2020
5298 Mist -2 1024 86 5000 1 0 19:36 03.01.2020
5299 Mist -1 1024 86 5000 1 0 19:18 03.01.2020
5300 Mist -1 1024 86 5000 0.5 0 18:39 03.01.2020
5301 Mist -1 1024 86 5000 0.5 0 18:39 03.01.2020
5302 Mist 0 1024 86 5000 0.5 0 18:20 03.01.2020
5303 Clouds 1 1024 69 8000 1.5 170 17:42 03.01.2020
5304 Clouds 1 1024 69 8000 1.5 170 17:22 03.01.2020
5305 Clouds 2 1023 69 10000 0.5 0 16:59 03.01.2020
5306 Clouds 2 1024 64 10000 1 100 16:40 03.01.2020
5307 Clouds 2 1024 64 10000 1 100 16:21 03.01.2020
5308 Clouds 6 1024 52 10000 0.5 0 15:42 03.01.2020
5309 Clouds 5 1024 52 10000 1.3 295 15:19 03.01.2020
5310 Clouds 6 1024 60 10000 1.3 295 14:40 03.01.2020
5311 Clear 6 1024 60 10000 1.18 345 14:21 03.01.2020
5312 Clear 6 1024 60 10000 1 0 13:59 03.01.2020
5313 Clear 4 1025 55 10000 1 0 13:40 03.01.2020
5314 Clear 4 1025 55 10000 1 0 13:22 03.01.2020
5315 Clear 6 1025 64 10000 1.5 330 12:41 03.01.2020
5316 Clear 5 1025 64 10000 1.5 330 12:22 03.01.2020
5317 Clear 4 1026 69 10000 1.5 310 11:57 03.01.2020
5318 Clear 4 1026 69 10000 1.5 310 11:57 03.01.2020
5319 Clear 3 1026 40 10000 1 0 11:39 03.01.2020
5320 Clear 3 1027 80 10000 1.5 310 10:59 03.01.2020
5321 Clear 2 1027 79 8000 1 0 10:40 03.01.2020
5322 Clear 1 1027 79 8000 1 0 10:22 03.01.2020
5323 Clear 0 1028 79 7000 1.19 311 09:55 03.01.2020
5324 Clear -1 1028 92 8000 1 0 09:37 03.01.2020
5325 Clear -1 1028 92 8000 1 0 09:19 03.01.2020
5326 Mist -3 1028 92 5000 1 0 08:45 03.01.2020
5327 Mist -3 1028 92 5000 1 0 08:23 03.01.2020
5328 Mist -5 1028 92 5000 1 0 07:56 03.01.2020
5329 Mist -5 1028 92 5000 1 0 07:37 03.01.2020
5330 Mist -5 1028 92 5000 1 0 07:18 03.01.2020
5331 Clear -5 1027 85 6000 2.1 100 06:42 03.01.2020
5332 Clear -5 1027 85 6000 2.1 100 06:22 03.01.2020
5333 Mist -6 1027 92 5000 1 0 04:59 03.01.2020
5334 Mist -5 1028 92 4000 1.23 299 03:38 03.01.2020
5335 Mist -5 1028 92 5000 1 150 02:53 03.01.2020
5336 Mist -4 1028 92 5000 1.5 250 01:51 03.01.2020
5337 Mist -4 1028 92 4300 1.24 294 01:31 03.01.2020
5338 Mist -4 1029 92 3300 1 0 00:40 03.01.2020
5339 Mist -3 1029 92 3300 1 0 00:20 03.01.2020
5340 Clouds -3 1029 92 7000 1.5 240 23:39 02.01.2020
5341 Clouds -4 1029 92 7000 1.5 240 23:20 02.01.2020
5342 Clouds -4 1029 92 7000 1 0 22:58 02.01.2020
5343 Clouds -4 1029 92 7000 0.5 0 22:40 02.01.2020
5344 Clouds -4 1029 92 7000 0.5 0 22:19 02.01.2020
5345 Clouds -3 1029 92 7000 1.25 284 21:55 02.01.2020
5346 Clouds -3 1029 86 7000 3.1 350 21:37 02.01.2020
5347 Clouds -3 1029 86 7000 3.1 350 21:18 02.01.2020
5348 Clouds -2 1029 79 8000 2.1 360 20:56 02.01.2020
5349 Clouds -2 1029 79 10000 2.6 280 20:37 02.01.2020
5350 Clear -2 1029 79 10000 2.6 280 20:18 02.01.2020
5351 Clear -1 1029 80 10000 2.6 270 19:54 02.01.2020
5352 Clear -1 1029 78 10000 3.1 280 19:36 02.01.2020
5353 Clear 0 1029 78 10000 3.1 280 19:18 02.01.2020
5354 Clear -1 1029 80 10000 4.6 270 18:42 02.01.2020
5355 Clear -1 1029 80 10000 4.6 270 18:23 02.01.2020
5356 Clear -1 1029 80 10000 4.1 280 17:58 02.01.2020
5357 Clear -1 1029 80 10000 4.6 280 17:38 02.01.2020
5358 Clear -1 1029 80 10000 4.6 280 17:19 02.01.2020
5359 Clear 0 1029 78 10000 4.6 280 16:58 02.01.2020
5360 Clear 1 1029 69 10000 3.6 280 16:40 02.01.2020
5361 Clear 1 1029 69 10000 3.6 280 16:20 02.01.2020
5362 Clear 2 1029 59 10000 4.6 280 15:57 02.01.2020
5363 Clear 3 1029 55 10000 5.7 270 15:39 02.01.2020
5364 Clear 3 1029 55 10000 5.7 270 15:19 02.01.2020
5365 Clear 3 1029 55 10000 5.7 270 14:55 02.01.2020
5366 Clear 3 1029 55 10000 5.7 270 14:55 02.01.2020
5367 Clear 3 1029 55 10000 5.7 270 14:36 02.01.2020
5368 Clear 3 1029 55 10000 5.7 270 14:18 02.01.2020
5369 Clouds 3 1029 59 10000 5.1 270 13:47 02.01.2020
5370 Clouds 3 1029 59 10000 5.1 270 13:29 02.01.2020
5371 Clouds 4 1030 59 10000 3.1 290 12:45 02.01.2020
5372 Clouds 4 1030 59 10000 3.1 290 12:25 02.01.2020
5373 Clouds 3 1031 64 10000 4.1 280 11:44 02.01.2020
5374 Clouds 2 1031 64 10000 4.1 280 11:26 02.01.2020
5375 Clouds 3 1031 64 10000 4.1 280 11:26 02.01.2020
5376 Clouds 0 1031 65 10000 3.6 280 10:58 02.01.2020
5377 Clouds 0 1031 65 10000 3.1 290 10:39 02.01.2020
5378 Clear -2 1031 86 10000 2.6 300 10:19 02.01.2020
5379 Clear -1 1031 86 8000 2.6 330 09:42 02.01.2020
5380 Clear 0 1031 86 8000 2.6 330 09:24 02.01.2020
5381 Clouds -2 1031 85 8000 2.1 60 08:45 02.01.2020
5382 Clouds -2 1031 85 8000 2.1 60 08:45 02.01.2020
5383 Clouds -5 1031 85 8000 2.1 60 08:27 02.01.2020
5384 Clouds -4 1031 85 7000 2.1 260 07:50 02.01.2020
5385 Clouds -5 1031 92 10000 1.5 320 07:30 02.01.2020
5386 Clouds -5 1031 92 7000 1.5 300 06:45 02.01.2020
5387 Clouds -7 1031 92 7000 1.5 300 06:26 02.01.2020
5388 Clouds -5 1031 92 6000 1 110 04:53 02.01.2020
5389 Clouds -4 1031 92 7000 2.1 100 04:30 02.01.2020
5390 Clear -5 1031 92 8000 0.5 0 02:32 02.01.2020
5391 Clear -4 1031 86 8000 2.1 0 01:58 02.01.2020
5392 Clear -3 1030 86 10000 2.6 280 01:32 02.01.2020
5393 Clear -4 1030 86 10000 3.6 270 00:53 02.01.2020
5394 Clear -4 1030 92 10000 4.6 270 00:33 02.01.2020
5395 Clear -3 1030 86 10000 4.6 280 23:49 01.01.2020
5396 Clear -2 1030 86 10000 4.1 280 23:26 01.01.2020
5397 Clear -2 1030 86 10000 3.6 280 22:55 01.01.2020
5398 Clear -2 1030 86 10000 4.1 280 22:37 01.01.2020
5399 Clear -3 1030 86 10000 4.1 280 22:18 01.01.2020
5400 Clear -2 1030 86 10000 4.6 270 21:42 01.01.2020
5401 Clear -2 1030 86 10000 4.6 270 21:21 01.01.2020
5402 Clear -2 1030 86 10000 4.6 280 20:59 01.01.2020
5403 Clear -1 1030 80 10000 4.1 280 20:39 01.01.2020
5404 Clouds -1 1030 80 10000 4.1 280 20:20 01.01.2020
5405 Clouds -2 1030 80 10000 4.6 280 19:58 01.01.2020
5406 Clouds -2 1029 80 9000 4.6 270 19:39 01.01.2020
5407 Clouds -1 1029 80 9000 4.6 270 19:20 01.01.2020
5408 Clouds -1 1029 80 9000 4.6 270 18:57 01.01.2020
5409 Clouds 0 1029 92 10000 5.7 270 18:39 01.01.2020
5410 Clouds 0 1029 92 10000 5.7 270 18:20 01.01.2020
5411 Clouds 0 1029 92 10000 5.7 270 17:59 01.01.2020
5412 Clouds 0 1028 92 10000 5.7 270 17:40 01.01.2020
5413 Clear 1 1028 88 10000 5.7 270 17:20 01.01.2020
5414 Clear 1 1028 69 10000 5.1 280 16:58 01.01.2020
5415 Clear 2 1028 64 10000 5.7 280 16:38 01.01.2020
5416 Clear 2 1028 64 10000 5.7 280 16:38 01.01.2020
5417 Clear 2 1028 64 10000 5.7 280 16:19 01.01.2020
5418 Clear 2 1027 59 10000 6.2 280 15:57 01.01.2020
5419 Clear 2 1027 59 10000 6.2 280 15:57 01.01.2020
5420 Clear 3 1027 55 10000 6.2 280 15:37 01.01.2020
5421 Clear 3 1027 55 10000 6.2 280 15:19 01.01.2020
5422 Clear 3 1027 55 10000 7.7 270 14:55 01.01.2020
5423 Clear 3 1027 55 10000 6.7 280 14:37 01.01.2020
5424 Clear 3 1027 55 10000 6.7 280 14:19 01.01.2020
5425 Clear 3 1027 55 10000 7.7 270 13:55 01.01.2020
5426 Clear 3 1027 55 10000 7.7 270 13:55 01.01.2020
5427 Clear 3 1027 55 10000 6.2 290 13:36 01.01.2020
5428 Clear 3 1027 55 10000 6.2 290 13:18 01.01.2020
5429 Clear 3 1027 64 10000 7.7 270 12:40 01.01.2020
5430 Clear 3 1027 64 10000 7.7 270 12:19 01.01.2020
5431 Clear 3 1028 64 10000 8.2 280 11:57 01.01.2020
5432 Clear 3 1028 64 10000 8.7 270 11:38 01.01.2020
5433 Clear 2 1028 64 10000 8.7 270 11:19 01.01.2020
5434 Clear 2 1028 64 10000 6.2 290 10:55 01.01.2020
5435 Clear 2 1028 69 10000 7.2 280 10:36 01.01.2020
5436 Clear 2 1028 69 10000 7.2 280 10:18 01.01.2020
5437 Clear 1 1028 64 10000 7.2 270 09:40 01.01.2020
5438 Clear 1 1028 64 10000 7.2 270 09:20 01.01.2020
5439 Clear 0 1027 64 10000 6.7 280 08:57 01.01.2020
5440 Clear 0 1027 80 10000 6.7 280 08:37 01.01.2020
5441 Clouds -1 1027 80 10000 6.7 280 08:19 01.01.2020
5442 Clouds -1 1026 80 10000 6.7 280 07:56 01.01.2020
5443 Clouds -1 1026 80 10000 6.7 280 07:38 01.01.2020
5444 Clouds -1 1026 80 10000 7.2 280 06:50 01.01.2020
5445 Clouds -1 1026 80 10000 7.7 270 06:32 01.01.2020
5446 Clouds -1 1025 80 10000 7.2 270 05:46 01.01.2020
5447 Clouds 1 1024 59 10000 6.2 280 03:48 01.01.2020
5448 Clouds 1 1024 55 10000 5.1 280 03:28 01.01.2020
5449 Clouds 1 1024 50 10000 5.1 280 02:59 01.01.2020
5450 Clouds 2 1024 47 10000 8.2 280 02:41 01.01.2020
5451 Clouds 2 1024 47 10000 8.2 280 02:21 01.01.2020
5452 Clouds 2 1023 43 10000 7.7 280 01:39 01.01.2020
5453 Clouds 2 1023 43 10000 7.7 280 01:39 01.01.2020
5454 Clouds 2 1023 43 10000 7.7 280 01:21 01.01.2020
5455 Clouds 0 1023 60 10000 3.1 310 00:44 01.01.2020
5456 Clouds 0 1023 60 10000 3.1 310 00:26 01.01.2020
5457 Clouds 1 1023 60 10000 1 0 23:42 31.12.2019
5458 Clouds 1 1023 51 10000 1 0 23:22 31.12.2019
5459 Clouds 1 1024 55 10000 2.6 320 22:59 31.12.2019
5460 Clouds 1 1024 55 10000 2.6 300 22:39 31.12.2019
5461 Clouds 1 1024 55 10000 2.6 300 22:20 31.12.2019
5462 Clouds 1 1024 55 10000 3.6 310 21:59 31.12.2019
5463 Clouds 1 1024 55 10000 3.6 310 21:59 31.12.2019
5464 Clouds 1 1024 55 10000 4.6 300 21:40 31.12.2019
5465 Clouds 1 1024 55 10000 4.6 300 21:40 31.12.2019
5466 Clouds 1 1024 55 10000 4.6 300 21:22 31.12.2019
5467 Clouds 1 1024 51 10000 4.1 320 20:57 31.12.2019
5468 Clouds 1 1024 55 10000 2.1 310 20:37 31.12.2019
5469 Clouds 1 1024 55 10000 2.1 310 20:19 31.12.2019
5470 Clouds 1 1025 59 10000 4.1 310 19:55 31.12.2019
5471 Clouds 1 1025 59 10000 2.6 290 19:36 31.12.2019
5472 Clouds 1 1025 59 10000 2.6 290 19:18 31.12.2019
5473 Clouds 1 1025 59 10000 4.6 310 18:54 31.12.2019
5474 Clouds 0 1025 59 10000 3.6 310 18:36 31.12.2019
5475 Clouds 0 1025 49 10000 2.6 300 18:18 31.12.2019
5476 Clouds 0 1025 59 10000 3.6 310 18:18 31.12.2019
5477 Clouds 0 1025 49 10000 2.6 300 17:54 31.12.2019
5478 Clouds -1 1025 74 8000 1 0 17:36 31.12.2019
5479 Clouds -1 1025 74 8000 1 0 17:18 31.12.2019
5480 Clouds -1 1025 79 8000 1 0 16:54 31.12.2019
5481 Clouds -1 1025 79 7000 1 130 16:36 31.12.2019
5482 Clouds -1 1025 79 7000 1 130 16:18 31.12.2019
5483 Clouds -1 1025 74 8000 2.1 130 16:18 31.12.2019
5484 Clouds -1 1025 74 8000 2.1 130 15:54 31.12.2019
5485 Clouds -1 1025 74 9000 2.1 120 15:36 31.12.2019
5486 Clouds -1 1025 74 9000 2.1 120 15:36 31.12.2019
5487 Clouds 0 1025 74 9000 2.1 120 15:18 31.12.2019
5488 Clouds 0 1026 74 10000 1 0 14:54 31.12.2019
5489 Clouds 0 1026 74 10000 1.5 100 14:36 31.12.2019
5490 Clear 1 1026 74 10000 1.5 100 14:18 31.12.2019
5491 Clear 1 1026 74 10000 1.5 50 13:54 31.12.2019
5492 Clouds 0 1026 74 10000 2.1 0 13:36 31.12.2019
5493 Clouds 0 1026 74 10000 2.1 0 13:18 31.12.2019
5494 Clouds -1 1028 79 10000 2.6 310 12:40 31.12.2019
5495 Clouds 0 1028 79 10000 2.6 310 12:20 31.12.2019
5496 Clouds -1 1028 79 10000 2.1 310 11:57 31.12.2019
5497 Clouds -2 1029 85 10000 2.6 310 11:39 31.12.2019
5498 Clouds -2 1029 85 10000 2.6 310 11:20 31.12.2019
5499 Clouds -2 1029 85 8000 2.6 310 10:58 31.12.2019
5500 Clouds -3 1029 85 7000 3.1 310 10:38 31.12.2019
5501 Clouds -3 1029 85 7000 3.1 310 10:38 31.12.2019
5502 Clouds -3 1029 85 7000 3.1 310 10:20 31.12.2019
5503 Clouds -4 1030 85 8000 2.6 310 09:59 31.12.2019
5504 Clouds -4 1030 85 7000 2.6 320 09:39 31.12.2019
5505 Clouds -4 1030 85 7000 2.6 320 09:21 31.12.2019
5506 Clouds -5 1030 92 7000 2.1 290 08:57 31.12.2019
5507 Clouds -5 1030 92 8000 2.1 330 08:39 31.12.2019
5508 Clouds -6 1030 92 8000 2.1 330 08:19 31.12.2019
5509 Clouds -7 1030 85 7000 2.6 300 07:43 31.12.2019
5510 Clouds -7 1030 85 7000 2.6 300 07:21 31.12.2019
5511 Clouds -7 1030 85 8000 3.1 300 06:50 31.12.2019
5512 Clouds -6 1030 85 10000 2.6 310 05:57 31.12.2019
5513 Clouds -6 1030 85 10000 4.6 280 04:29 31.12.2019
5514 Clouds -6 1031 85 10000 4.6 270 03:38 31.12.2019
5515 Clouds -6 1031 85 10000 5.7 280 02:55 31.12.2019
5516 Clouds -5 1031 85 10000 5.1 280 02:18 31.12.2019
5517 Clouds -5 1031 85 10000 5.1 280 01:42 31.12.2019
5518 Clouds -5 1031 85 10000 5.1 280 01:23 31.12.2019
5519 Clear -5 1031 85 10000 4.6 280 00:46 31.12.2019
5520 Clear -5 1031 85 10000 4.6 280 00:22 31.12.2019
5521 Clear -5 1031 92 10000 4.1 280 23:56 30.12.2019
5522 Clear -5 1031 92 10000 4.1 280 23:38 30.12.2019
5523 Clear -5 1031 92 10000 4.1 280 23:20 30.12.2019
5524 Clear -5 1032 85 10000 4.6 290 22:57 30.12.2019
5525 Clear -4 1032 79 10000 4.1 280 22:38 30.12.2019
5526 Clear -4 1031 79 10000 3.6 300 22:19 30.12.2019
5527 Clear -4 1031 79 10000 3.6 300 21:56 30.12.2019
5528 Clear -4 1031 85 8000 2.6 310 21:38 30.12.2019
5529 Clear -4 1031 85 8000 2.6 310 21:18 30.12.2019
5530 Clouds -4 1032 79 10000 2.1 320 20:56 30.12.2019
5531 Clear -4 1032 73 8000 2.1 300 20:38 30.12.2019
5532 Clouds -4 1032 73 8000 2.1 300 20:19 30.12.2019
5533 Clouds -4 1032 79 8000 2.6 310 19:56 30.12.2019
5534 Clouds -3 1032 74 10000 3.1 300 19:37 30.12.2019
5535 Clouds -3 1032 74 10000 3.1 300 19:37 30.12.2019
5536 Clouds -3 1032 74 10000 3.1 300 19:19 30.12.2019
5537 Clouds -3 1031 74 10000 3.1 290 18:56 30.12.2019
5538 Clouds -2 1031 74 10000 4.6 320 18:37 30.12.2019
5539 Clouds -2 1031 74 10000 4.6 320 18:19 30.12.2019
5540 Clouds -2 1031 68 10000 4.6 340 17:54 30.12.2019
5541 Clouds -1 1031 68 10000 3.6 350 17:36 30.12.2019
5542 Clouds -1 1031 68 10000 3.6 350 17:18 30.12.2019
5543 Clouds -2 1031 74 10000 3.6 340 16:41 30.12.2019
5544 Clouds -2 1031 74 10000 3.6 340 16:41 30.12.2019
5545 Clouds -2 1031 74 10000 3.6 340 16:21 30.12.2019
5546 Clouds -1 1031 74 10000 3.6 350 15:58 30.12.2019
5547 Clouds -1 1031 74 10000 3.1 360 15:40 30.12.2019
5548 Clouds -1 1031 74 10000 3.1 360 15:20 30.12.2019
5549 Clouds -1 1031 74 10000 3.1 360 15:20 30.12.2019
5550 Clouds -1 1031 74 10000 3.1 360 15:20 30.12.2019
5551 Clouds 0 1031 83 10000 3.1 350 14:56 30.12.2019
5552 Clouds 0 1031 83 10000 4.1 360 14:38 30.12.2019
5553 Clouds 1 1031 68 10000 4.1 360 14:18 30.12.2019
5554 Clouds 1 1030 64 10000 4.6 360 13:42 30.12.2019
5555 Clouds 1 1030 64 10000 4.6 360 13:24 30.12.2019
5556 Clouds 1 1030 69 10000 4.6 10 12:59 30.12.2019
5557 Clouds 1 1030 64 10000 4.1 10 12:41 30.12.2019
5558 Clouds 1 1030 64 10000 4.1 10 12:19 30.12.2019
5559 Clouds 1 1031 64 10000 3.6 360 11:56 30.12.2019
5560 Clouds 0 1031 69 10000 4.1 50 11:38 30.12.2019
5561 Clouds 0 1031 72 10000 3.1 40 11:18 30.12.2019
5562 Clouds 0 1031 72 10000 5.1 50 10:43 30.12.2019
5563 Clouds 0 1031 72 10000 5.1 50 10:20 30.12.2019
5564 Clouds 0 1031 72 10000 3.1 60 09:55 30.12.2019
5565 Clouds 0 1031 72 10000 3.1 60 09:55 30.12.2019
5566 Clouds 0 1031 72 10000 1.5 0 09:37 30.12.2019
5567 Clouds -1 1031 72 10000 1.5 0 09:18 30.12.2019
5568 Clouds -2 1031 74 10000 2.6 360 08:46 30.12.2019
5569 Clouds -2 1030 74 10000 1.5 20 08:23 30.12.2019
5570 Clouds -3 1030 74 10000 2.6 60 07:53 30.12.2019
5571 Clouds -3 1030 74 10000 4.1 40 07:32 30.12.2019
5572 Snow -3 1029 74 10000 4.1 40 06:39 30.12.2019
5573 Snow -3 1028 74 10000 3.1 60 04:32 30.12.2019
5574 Snow -2 1028 74 10000 4.1 20 03:51 30.12.2019
5575 Snow -2 1028 74 10000 2.1 20 02:47 30.12.2019
5576 Snow -2 1028 74 10000 1.5 30 02:27 30.12.2019
5577 Snow -2 1028 80 10000 2.6 40 01:39 30.12.2019
5578 Snow -2 1028 80 10000 2.6 40 01:19 30.12.2019
5579 Snow -2 1028 86 7000 3.6 280 00:42 30.12.2019
5580 Snow -3 1028 92 6000 3.1 280 23:58 29.12.2019
5581 Snow -3 1028 92 3000 2.6 280 23:37 29.12.2019
5582 Snow -3 1028 92 3000 2.6 280 23:19 29.12.2019
5583 Snow -3 1028 92 4500 3.1 270 22:41 29.12.2019
5584 Snow -3 1028 92 4500 3.1 270 22:22 29.12.2019
5585 Snow -2 1027 86 3000 3.1 280 21:56 29.12.2019
5586 Snow -2 1027 86 3000 3.1 280 21:56 29.12.2019
5587 Snow -2 1027 86 6000 3.1 290 21:38 29.12.2019
5588 Snow -2 1027 86 6000 3.1 290 21:19 29.12.2019
5589 Snow -2 1027 86 5000 4.6 310 20:55 29.12.2019
5590 Snow -2 1027 92 6000 2.6 290 20:37 29.12.2019
5591 Snow -2 1027 92 6000 2.6 290 20:18 29.12.2019
5592 Snow -2 1026 86 8000 4.6 270 19:56 29.12.2019
5593 Snow -2 1026 86 8000 4.6 270 19:37 29.12.2019
5594 Snow -2 1026 86 8000 4.6 270 19:19 29.12.2019
5595 Snow -2 1026 86 10000 4.1 270 18:55 29.12.2019
5596 Snow -2 1026 86 10000 4.1 270 18:55 29.12.2019
5597 Clouds -2 1026 92 10000 3.1 270 18:37 29.12.2019
5598 Clouds -2 1025 86 10000 3.6 280 18:18 29.12.2019
5599 Clouds -2 1025 86 10000 3.6 280 17:56 29.12.2019
5600 Snow -2 1025 86 6000 4.1 270 17:37 29.12.2019
5601 Snow -2 1025 86 6000 4.1 270 17:37 29.12.2019
5602 Snow -2 1025 86 6000 4.1 270 17:37 29.12.2019
5603 Snow -2 1025 86 8000 4.1 270 17:19 29.12.2019
5604 Snow -2 1025 86 8000 4.1 270 16:55 29.12.2019
5605 Snow -2 1025 86 2400 5.1 290 16:36 29.12.2019
5606 Snow -2 1025 86 2400 5.1 290 16:36 29.12.2019
5607 Snow -2 1025 86 2400 5.1 290 16:18 29.12.2019
5608 Snow -1 1025 74 10000 4.6 290 15:55 29.12.2019
5609 Snow -1 1025 74 10000 4.6 290 15:37 29.12.2019
5610 Snow -1 1025 74 10000 4.6 290 15:18 29.12.2019
5611 Snow -1 1024 74 10000 4.6 290 14:55 29.12.2019
5612 Snow -1 1024 74 10000 5.1 290 14:37 29.12.2019
5613 Snow -1 1024 74 10000 5.1 290 14:18 29.12.2019
5614 Snow -1 1024 74 10000 5.7 280 13:40 29.12.2019
5615 Snow -1 1024 74 10000 5.7 280 13:40 29.12.2019
5616 Snow -1 1024 74 10000 5.7 280 13:22 29.12.2019
5617 Clouds 0 1024 80 10000 5.7 280 12:58 29.12.2019
5618 Clouds -1 1024 80 10000 5.7 280 12:40 29.12.2019
5619 Clouds 0 1024 80 10000 5.7 280 12:22 29.12.2019
5620 Clouds 0 1024 80 10000 5.7 280 12:22 29.12.2019
5621 Clouds -1 1025 80 10000 6.2 290 11:43 29.12.2019
5622 Clouds -1 1025 80 10000 6.2 290 11:23 29.12.2019
5623 Clouds -1 1025 74 10000 7.2 280 11:00 29.12.2019
5624 Clouds 0 1025 80 10000 5.7 280 10:41 29.12.2019
5625 Clouds -1 1025 80 10000 5.7 280 10:19 29.12.2019
5626 Snow -1 1025 80 10000 5.7 280 09:47 29.12.2019
5627 Snow -1 1025 80 10000 5.7 280 09:28 29.12.2019
5628 Snow -1 1024 86 7000 5.7 280 08:59 29.12.2019
5629 Snow -2 1024 86 8000 5.7 280 08:41 29.12.2019
5630 Snow -2 1024 86 8000 5.7 280 08:23 29.12.2019
5631 Snow -2 1024 86 8000 5.1 290 07:45 29.12.2019
5632 Snow -2 1024 86 8000 4.6 290 07:26 29.12.2019
5633 Snow -2 1024 92 6000 5.1 280 06:42 29.12.2019
5634 Snow -3 1023 86 10000 5.7 270 06:19 29.12.2019
5635 Snow -2 1023 80 10000 4.6 280 05:44 29.12.2019
5636 Clouds -2 1023 86 10000 4.6 270 04:33 29.12.2019
5637 Clouds -2 1023 86 10000 4.6 280 03:36 29.12.2019
5638 Clouds -2 1023 86 10000 5.1 270 02:30 29.12.2019
5639 Clouds -2 1023 80 10000 4.6 280 01:52 29.12.2019
5640 Clouds -2 1023 86 10000 4.6 280 01:29 29.12.2019
5641 Clouds -2 1023 79 10000 4.6 280 00:47 29.12.2019
5642 Clouds -2 1023 79 10000 4.6 280 00:25 29.12.2019
5643 Clouds -2 1023 79 10000 5.1 280 23:55 28.12.2019
5644 Clouds -2 1023 74 10000 5.1 270 23:37 28.12.2019
5645 Clouds -2 1023 74 10000 5.1 270 23:18 28.12.2019
5646 Clouds -2 1023 80 10000 5.1 280 22:37 28.12.2019
5647 Clouds -2 1023 80 10000 5.1 280 22:18 28.12.2019
5648 Clouds -1 1022 80 10000 4.1 280 21:56 28.12.2019
5649 Clouds -1 1022 80 10000 4.1 280 21:56 28.12.2019
5650 Clouds -1 1022 80 10000 4.1 280 21:37 28.12.2019
5651 Clouds -1 1022 80 10000 4.1 280 21:19 28.12.2019
5652 Clouds -1 1022 80 10000 4.1 280 20:42 28.12.2019
5653 Clouds -1 1022 80 10000 4.1 280 20:23 28.12.2019
5654 Clouds 0 1021 91 10000 3.6 280 19:59 28.12.2019
5655 Clouds 0 1021 91 10000 3.6 280 19:41 28.12.2019
5656 Clouds 0 1021 91 10000 3.6 280 19:23 28.12.2019
5657 Snow 0 1021 91 10000 4.6 270 18:59 28.12.2019
5658 Snow -1 1021 91 10000 4.6 280 18:40 28.12.2019
5659 Snow -1 1021 91 10000 4.6 280 18:20 28.12.2019
5660 Snow -1 1020 92 5000 5.1 290 17:57 28.12.2019
5661 Snow -1 1020 91 3000 4.6 350 17:38 28.12.2019
5662 Snow 0 1020 81 3000 4.6 350 17:19 28.12.2019
5663 Clouds 0 1019 74 10000 5.1 290 16:47 28.12.2019
5664 Clouds 1 1019 69 10000 4.1 300 16:26 28.12.2019
5665 Clouds 1 1019 74 10000 3.6 280 15:57 28.12.2019
5666 Clouds 1 1019 69 10000 1.5 340 15:39 28.12.2019
5667 Clouds 2 1019 69 10000 1.5 340 15:19 28.12.2019
5668 Clouds 3 1018 55 10000 4.6 330 14:44 28.12.2019
5669 Clouds 3 1018 55 10000 4.6 330 14:24 28.12.2019
5670 Clouds 3 1018 55 10000 4.6 330 14:24 28.12.2019
5671 Clouds 2 1018 55 10000 4.1 320 13:57 28.12.2019
5672 Clouds 2 1018 59 10000 3.6 320 13:38 28.12.2019
5673 Clouds 2 1018 59 10000 3.6 320 13:19 28.12.2019
5674 Clouds 2 1018 59 10000 3.6 320 13:19 28.12.2019
5675 Clouds 2 1018 69 10000 4.1 300 12:43 28.12.2019
5676 Clouds 1 1018 69 10000 4.1 300 12:24 28.12.2019
5677 Clouds 2 1018 64 10000 3.6 320 11:57 28.12.2019
5678 Clouds 2 1019 69 10000 3.6 300 11:38 28.12.2019
5679 Clouds 2 1019 69 10000 3.6 300 11:20 28.12.2019
5680 Clouds 2 1019 80 10000 4.1 300 10:44 28.12.2019
5681 Clouds 1 1019 80 10000 4.1 300 10:22 28.12.2019
5682 Snow 2 1019 80 8000 4.1 290 09:58 28.12.2019
5683 Clouds 2 1019 80 10000 3.1 280 09:40 28.12.2019
5684 Clouds 1 1019 80 10000 3.1 280 09:20 28.12.2019
5685 Snow 1 1019 75 8000 3.6 280 08:44 28.12.2019
5686 Snow 0 1019 75 8000 3.6 280 08:26 28.12.2019
5687 Clouds 0 1018 91 10000 4.1 270 07:55 28.12.2019
5688 Clouds 0 1018 91 10000 3.1 270 07:31 28.12.2019
5689 Clouds 0 1018 91 10000 3.6 270 06:41 28.12.2019
5690 Clouds 0 1018 88 10000 3.1 290 04:51 28.12.2019
5691 Clouds 0 1019 74 10000 3.6 290 03:47 28.12.2019
5692 Snow 1 1019 74 10000 4.6 290 02:48 28.12.2019
5693 Clouds 1 1019 74 10000 4.1 280 01:59 28.12.2019
5694 Clouds 1 1019 74 10000 4.6 280 01:30 28.12.2019
5695 Clouds 1 1019 74 10000 5.7 280 00:58 28.12.2019
5696 Clouds 1 1019 74 10000 5.1 280 00:38 28.12.2019
5697 Clouds 1 1019 74 10000 5.1 280 00:19 28.12.2019
5698 Clouds 1 1019 74 10000 4.6 280 23:43 27.12.2019
5699 Clouds 1 1019 74 10000 4.6 280 23:20 27.12.2019
5700 Clouds 1 1019 74 10000 4.6 280 22:57 27.12.2019
5701 Clouds 1 1019 74 10000 4.6 280 22:38 27.12.2019
5702 Clouds 1 1019 74 10000 4.6 280 22:20 27.12.2019
5703 Clouds 1 1019 74 10000 5.1 280 21:55 27.12.2019
5704 Clouds 1 1019 69 10000 5.7 280 21:36 27.12.2019
5705 Clouds 2 1019 69 10000 5.7 280 21:18 27.12.2019
5706 Clouds 2 1019 69 10000 6.2 280 20:41 27.12.2019
5707 Clouds 2 1019 69 10000 5.7 280 20:22 27.12.2019
5708 Clouds 2 1019 69 10000 5.1 280 19:43 27.12.2019
5709 Clouds 2 1019 69 10000 6.2 280 19:21 27.12.2019
5710 Clouds 2 1019 69 10000 6.2 280 18:59 27.12.2019
5711 Clouds 2 1019 64 10000 5.7 280 18:39 27.12.2019
5712 Clouds 2 1019 64 10000 5.7 280 18:20 27.12.2019
5713 Clouds 2 1019 59 10000 5.1 290 17:57 27.12.2019
5714 Clouds 2 1018 64 10000 5.7 290 17:39 27.12.2019
5715 Clouds 2 1018 64 10000 5.7 290 17:19 27.12.2019
5716 Clouds 2 1018 59 10000 5.1 290 16:58 27.12.2019
5717 Clouds 3 1018 59 10000 5.7 290 16:38 27.12.2019
5718 Clouds 3 1018 59 10000 5.7 290 16:19 27.12.2019
5719 Clouds 3 1018 59 10000 5.7 290 16:19 27.12.2019
5720 Clouds 3 1018 59 10000 5.7 290 15:43 27.12.2019
5721 Clouds 3 1018 59 10000 5.7 290 15:22 27.12.2019
5722 Clouds 3 1018 59 10000 5.1 300 14:57 27.12.2019
5723 Clouds 4 1018 51 10000 6.2 290 14:39 27.12.2019
5724 Clouds 4 1018 51 10000 6.2 290 14:20 27.12.2019
5725 Clouds 4 1018 51 10000 7.2 290 13:48 27.12.2019
5726 Clouds 4 1018 51 10000 6.2 290 13:25 27.12.2019
5727 Clouds 4 1018 51 10000 6.2 290 13:25 27.12.2019
5728 Clouds 4 1018 55 10000 6.7 300 12:58 27.12.2019
5729 Clouds 4 1018 60 10000 6.7 280 12:39 27.12.2019
5730 Clouds 5 1018 60 10000 6.7 280 12:21 27.12.2019
5731 Clouds 4 1019 55 10000 6.2 300 11:44 27.12.2019
5732 Clouds 4 1019 55 10000 6.2 300 11:24 27.12.2019
5733 Clouds 3 1020 64 10000 6.2 290 10:55 27.12.2019
5734 Clouds 4 1020 64 10000 6.2 300 10:37 27.12.2019
5735 Clouds 3 1020 64 10000 6.2 300 10:19 27.12.2019
5736 Clouds 2 1020 74 10000 5.7 280 09:42 27.12.2019
5737 Clouds 2 1020 74 10000 5.7 280 09:21 27.12.2019
5738 Clouds 2 1020 74 10000 5.7 290 08:55 27.12.2019
5739 Clouds 2 1020 74 10000 5.7 280 08:35 27.12.2019
5740 Clouds 2 1019 74 10000 4.6 280 07:50 27.12.2019
5741 Clouds 2 1019 74 10000 4.1 290 07:31 27.12.2019
5742 Clouds 2 1019 74 10000 5.7 280 06:36 27.12.2019
5743 Clouds 2 1019 74 10000 4.6 280 04:59 27.12.2019
5744 Clouds 2 1020 74 10000 3.6 290 02:53 27.12.2019
5745 Clouds 2 1020 74 10000 5.1 280 01:59 27.12.2019
5746 Clouds 2 1019 74 10000 6.2 280 01:24 27.12.2019
5747 Clouds 2 1019 74 10000 5.1 280 00:54 27.12.2019
5748 Clouds 2 1019 80 10000 5.7 280 00:35 27.12.2019
5749 Clouds 2 1019 74 10000 6.2 290 23:59 26.12.2019
5750 Clouds 2 1019 80 10000 6.2 280 23:41 26.12.2019
5751 Clouds 2 1019 80 10000 6.2 280 23:21 26.12.2019
5752 Clouds 3 1019 88 10000 5.7 290 22:45 26.12.2019
5753 Clouds 3 1019 88 10000 5.7 290 22:22 26.12.2019
5754 Clouds 3 1018 88 10000 6.7 280 21:58 26.12.2019
5755 Clouds 3 1018 88 10000 6.2 290 21:38 26.12.2019
5756 Clouds 3 1018 88 10000 6.2 290 21:38 26.12.2019
5757 Clouds 3 1018 88 10000 6.2 290 21:20 26.12.2019
5758 Clouds 3 1018 88 10000 6.2 280 20:45 26.12.2019
5759 Clouds 3 1018 85 10000 6.2 290 20:23 26.12.2019
5760 Clouds 3 1018 94 10000 5.7 290 19:58 26.12.2019
5761 Clouds 3 1018 94 10000 6.7 290 19:39 26.12.2019
5762 Clouds 3 1018 94 10000 6.7 290 19:20 26.12.2019
5763 Clouds 3 1018 94 10000 6.2 280 18:57 26.12.2019
5764 Clouds 3 1018 94 10000 5.7 290 18:38 26.12.2019
5765 Clouds 3 1018 94 10000 5.7 290 18:19 26.12.2019
5766 Clouds 3 1018 94 10000 5.7 290 18:19 26.12.2019
5767 Clouds 3 1017 94 10000 6.2 290 17:42 26.12.2019
5768 Clouds 3 1017 91 10000 6.2 290 17:22 26.12.2019
5769 Clouds 3 1017 91 10000 6.7 290 16:54 26.12.2019
5770 Clouds 3 1017 91 10000 6.2 290 16:36 26.12.2019
5771 Clouds 3 1017 91 10000 6.2 290 16:36 26.12.2019
5772 Clouds 3 1017 91 10000 6.2 290 16:18 26.12.2019
5773 Clouds 4 1016 91 10000 6.2 300 15:41 26.12.2019
5774 Clouds 4 1016 91 10000 6.2 300 15:20 26.12.2019
5775 Rain 4 1016 80 10000 8.2 290 14:54 26.12.2019
5776 Clouds 4 1016 80 10000 7.7 290 14:36 26.12.2019
5777 Clouds 4 1016 80 10000 7.7 290 14:36 26.12.2019
5778 Clouds 4 1016 80 10000 7.7 290 14:18 26.12.2019
5779 Rain 4 1015 80 10000 7.7 290 13:42 26.12.2019
5780 Rain 4 1015 86 10000 8.2 290 13:19 26.12.2019
5781 Rain 5 1015 86 10000 8.2 290 12:56 26.12.2019
5782 Rain 5 1015 80 10000 7.2 290 12:37 26.12.2019
5783 Rain 5 1015 80 10000 7.2 290 12:18 26.12.2019
5784 Clouds 5 1015 80 10000 6.2 290 11:43 26.12.2019
5785 Clouds 5 1015 80 10000 6.2 290 11:23 26.12.2019
5786 Rain 5 1015 80 8000 3.1 290 10:57 26.12.2019
5787 Rain 5 1015 80 8000 3.1 290 10:57 26.12.2019
5788 Rain 5 1015 80 8000 4.1 290 10:39 26.12.2019
5789 Rain 5 1015 80 8000 4.1 290 10:18 26.12.2019
5790 Rain 5 1014 86 10000 3.1 290 09:42 26.12.2019
5791 Rain 5 1014 86 10000 3.1 290 09:24 26.12.2019
5792 Rain 4 1014 80 10000 5.1 280 08:40 26.12.2019
5793 Rain 4 1014 80 10000 5.1 280 08:40 26.12.2019
5794 Rain 4 1014 80 10000 5.1 280 08:22 26.12.2019
5795 Rain 4 1013 80 10000 5.1 280 07:50 26.12.2019
5796 Rain 3 1013 80 10000 4.6 280 07:26 26.12.2019
5797 Clouds 4 1012 80 10000 4.6 280 06:44 26.12.2019
5798 Clouds 4 1012 80 10000 4.6 280 06:25 26.12.2019
5799 Clouds 4 1012 80 10000 2.6 300 05:43 26.12.2019
5800 Clouds 4 1012 80 10000 2.6 300 05:43 26.12.2019
5801 Clouds 4 1012 80 10000 3.6 300 04:38 26.12.2019
5802 Clouds 4 1012 80 10000 4.1 290 03:46 26.12.2019
5803 Clouds 4 1012 86 10000 4.6 280 02:49 26.12.2019
5804 Clouds 4 1012 86 10000 4.6 280 02:31 26.12.2019
5805 Rain 4 1011 86 10000 3.6 280 01:44 26.12.2019
5806 Rain 4 1011 86 10000 3.6 280 01:26 26.12.2019
5807 Clouds 4 1011 86 10000 3.6 280 00:47 26.12.2019
5808 Rain 4 1011 86 10000 2.6 290 00:23 26.12.2019
5809 Rain 4 1011 86 10000 3.1 290 23:58 25.12.2019
5810 Clouds 4 1011 80 10000 3.6 280 23:37 25.12.2019
5811 Clouds 3 1011 80 10000 3.6 290 23:19 25.12.2019
5812 Clouds 4 1011 80 10000 3.6 290 22:56 25.12.2019
5813 Clouds 4 1011 80 10000 4.1 280 22:37 25.12.2019
5814 Clouds 4 1011 80 10000 4.1 280 22:18 25.12.2019
5815 Clouds 4 1011 80 10000 4.1 280 22:18 25.12.2019
5816 Clouds 4 1011 80 10000 3.6 280 21:55 25.12.2019
5817 Clouds 4 1011 80 10000 3.6 280 21:55 25.12.2019
5818 Clouds 4 1011 80 10000 3.6 280 21:37 25.12.2019
5819 Clouds 4 1011 80 10000 3.6 280 21:18 25.12.2019
5820 Clouds 3 1011 86 10000 3.1 290 20:40 25.12.2019
5821 Clouds 3 1011 86 10000 3.1 290 20:21 25.12.2019
5822 Clouds 3 1011 86 10000 3.6 290 19:59 25.12.2019
5823 Clouds 3 1011 86 10000 4.1 280 19:40 25.12.2019
5824 Clouds 4 1011 86 10000 4.1 280 19:21 25.12.2019
5825 Clouds 4 1010 80 10000 6.2 280 18:40 25.12.2019
5826 Clouds 4 1010 80 10000 5.1 290 18:21 25.12.2019
5827 Clouds 4 1010 80 10000 5.1 290 18:21 25.12.2019
5828 Clouds 4 1010 80 10000 5.1 290 17:57 25.12.2019
5829 Clouds 4 1010 80 10000 6.2 280 17:39 25.12.2019
5830 Clouds 4 1010 80 10000 6.2 280 17:18 25.12.2019
5831 Clouds 4 1009 80 10000 6.2 280 16:39 25.12.2019
5832 Clouds 4 1009 80 10000 6.2 280 16:20 25.12.2019
5833 Clouds 4 1009 80 10000 7.2 280 15:59 25.12.2019
5834 Clouds 4 1009 89 10000 7.7 280 15:40 25.12.2019
5835 Clouds 5 1009 89 10000 7.7 280 15:21 25.12.2019
5836 Clouds 5 1009 89 10000 7.2 280 14:59 25.12.2019
5837 Clouds 5 1009 75 10000 7.2 280 14:40 25.12.2019
5838 Clouds 5 1009 75 10000 7.2 280 14:22 25.12.2019
5839 Clouds 5 1009 75 10000 5.7 290 13:57 25.12.2019
5840 Clouds 5 1009 75 10000 5.7 290 13:57 25.12.2019
5841 Clouds 5 1009 83 10000 6.2 290 13:39 25.12.2019
5842 Clouds 5 1009 84 10000 6.2 290 13:19 25.12.2019
5843 Clouds 5 1009 84 10000 6.7 280 12:43 25.12.2019
5844 Clouds 5 1009 84 10000 6.7 280 12:21 25.12.2019
5845 Clouds 5 1009 84 10000 6.2 290 11:57 25.12.2019
5846 Clouds 5 1009 84 10000 4.6 290 11:39 25.12.2019
5847 Clouds 4 1009 80 10000 4.6 290 11:18 25.12.2019
5848 Clouds 4 1009 80 10000 6.7 290 10:38 25.12.2019
5849 Clouds 4 1009 80 10000 6.7 290 10:20 25.12.2019
5850 Clouds 4 1010 80 10000 5.7 290 09:51 25.12.2019
5851 Rain 4 1010 80 10000 5.7 290 09:32 25.12.2019
5852 Rain 4 1009 80 10000 6.7 280 08:51 25.12.2019
5853 Rain 3 1009 80 10000 6.7 270 08:31 25.12.2019
5854 Rain 3 1009 95 10000 6.7 280 07:52 25.12.2019
5855 Rain 3 1009 95 8000 6.2 280 07:34 25.12.2019
5856 Rain 3 1009 95 10000 6.2 280 06:52 25.12.2019
5857 Clouds 4 1008 69 10000 5.7 290 06:23 25.12.2019
5858 Clouds 4 1008 69 10000 6.7 280 05:18 25.12.2019
5859 Clouds 4 1008 90 10000 6.2 290 04:39 25.12.2019
5860 Clouds 4 1008 90 10000 6.2 290 04:20 25.12.2019
5861 Clouds 4 1008 69 10000 6.2 280 03:42 25.12.2019
5862 Clouds 4 1008 69 10000 6.7 290 02:54 25.12.2019
5863 Clouds 5 1009 90 10000 5.7 290 02:27 25.12.2019
5864 Clouds 4 1009 80 10000 5.7 280 01:25 25.12.2019
5865 Clouds 4 1009 80 10000 6.2 290 00:54 25.12.2019
5866 Clouds 4 1009 80 10000 6.2 290 00:54 25.12.2019
5867 Clouds 4 1009 80 10000 5.1 290 00:32 25.12.2019
5868 Clouds 5 1009 75 10000 4.6 290 23:57 24.12.2019
5869 Clouds 4 1009 80 10000 4.6 290 23:38 24.12.2019
5870 Clouds 4 1009 80 10000 4.6 290 23:20 24.12.2019
5871 Clouds 4 1009 80 10000 6.2 280 22:41 24.12.2019
5872 Clouds 4 1009 80 10000 6.2 280 22:41 24.12.2019
5873 Clouds 4 1009 80 10000 6.2 280 22:21 24.12.2019
5874 Clouds 4 1009 80 10000 5.7 290 21:44 24.12.2019
5875 Clouds 4 1009 80 10000 5.7 290 21:23 24.12.2019
5876 Clouds 4 1009 80 10000 5.1 290 20:59 24.12.2019
5877 Clouds 4 1009 80 10000 4.6 290 20:40 24.12.2019
5878 Clouds 4 1009 80 10000 4.6 290 20:19 24.12.2019
5879 Clouds 4 1009 80 10000 5.1 280 19:44 24.12.2019
5880 Clouds 4 1009 80 10000 5.1 280 19:20 24.12.2019
5881 Clouds 4 1008 80 10000 7.7 280 18:44 24.12.2019
5882 Clouds 4 1008 80 10000 7.7 280 18:44 24.12.2019
5883 Clouds 4 1008 80 10000 7.7 280 18:25 24.12.2019
5884 Clouds 4 1008 80 10000 6.7 290 17:59 24.12.2019
5885 Clouds 4 1008 95 10000 7.2 290 17:38 24.12.2019
5886 Clouds 4 1008 96 10000 7.2 290 17:20 24.12.2019
5887 Clouds 4 1008 96 10000 8.2 290 16:55 24.12.2019
5888 Clouds 4 1007 96 10000 8.2 290 16:37 24.12.2019
5889 Clouds 4 1007 96 10000 9.3 290 16:19 24.12.2019
5890 Clouds 4 1007 96 10000 9.3 290 15:55 24.12.2019
5891 Clouds 4 1007 96 10000 8.2 290 15:36 24.12.2019
5892 Clouds 4 1007 96 10000 8.2 290 15:18 24.12.2019
5893 Clouds 4 1007 96 10000 8.2 280 14:55 24.12.2019
5894 Clouds 5 1006 96 10000 7.7 280 14:37 24.12.2019
5895 Clouds 5 1006 93 10000 7.7 280 14:19 24.12.2019
5896 Clouds 5 1006 75 10000 9.3 290 13:55 24.12.2019
5897 Clouds 5 1006 75 10000 9.8 290 13:37 24.12.2019
5898 Clouds 5 1006 75 10000 9.8 290 13:18 24.12.2019
5899 Clouds 5 1006 75 10000 9.3 290 12:55 24.12.2019
5900 Clouds 5 1005 80 10000 8.7 290 12:36 24.12.2019
5901 Clouds 5 1005 80 10000 8.7 290 12:18 24.12.2019
5902 Clouds 5 1005 75 10000 8.2 280 11:54 24.12.2019
5903 Clouds 5 1005 80 10000 8.7 290 11:36 24.12.2019
5904 Clouds 5 1005 80 10000 8.7 290 11:36 24.12.2019
5905 Clouds 5 1005 80 10000 8.7 290 11:18 24.12.2019
5906 Clouds 5 1005 80 10000 8.2 280 10:55 24.12.2019
5907 Clouds 5 1005 80 10000 8.2 280 10:36 24.12.2019
5908 Clouds 5 1005 80 10000 8.2 280 10:18 24.12.2019
5909 Clouds 5 1005 80 10000 8.2 280 09:54 24.12.2019
5910 Rain 4 1004 86 10000 7.7 280 09:36 24.12.2019
5911 Rain 4 1004 86 10000 7.7 280 09:18 24.12.2019
5912 Rain 4 1003 86 10000 7.7 280 08:42 24.12.2019
5913 Rain 4 1003 86 10000 7.7 280 08:19 24.12.2019
5914 Rain 3 1002 86 10000 7.2 280 07:45 24.12.2019
5915 Rain 3 1002 86 10000 7.2 280 07:23 24.12.2019
5916 Rain 3 1001 80 10000 7.7 280 06:41 24.12.2019
5917 Rain 3 1001 80 10000 7.7 280 06:22 24.12.2019
5918 Rain 3 1001 86 10000 7.7 280 05:56 24.12.2019
5919 Rain 3 1001 86 10000 7.7 280 05:56 24.12.2019
5920 Rain 3 1001 86 10000 7.7 280 05:20 24.12.2019
5921 Rain 4 1000 80 10000 7.2 280 04:22 24.12.2019
5922 Rain 4 999 80 10000 7.7 280 03:50 24.12.2019
5923 Rain 5 999 96 10000 7.7 290 02:37 24.12.2019
5924 Rain 5 999 93 10000 7.7 290 02:18 24.12.2019
5925 Rain 5 998 75 10000 6.2 290 01:42 24.12.2019
5926 Rain 5 998 75 10000 6.2 290 01:42 24.12.2019
5927 Clouds 5 998 75 10000 6.7 290 01:19 24.12.2019
5928 Clouds 5 998 75 10000 7.7 280 00:40 24.12.2019
5929 Clouds 5 998 75 10000 7.7 280 00:20 24.12.2019
5930 Clouds 5 998 70 10000 8.2 280 23:43 23.12.2019
5931 Clouds 6 998 70 10000 8.2 280 23:24 23.12.2019
5932 Clouds 5 998 70 10000 7.2 280 22:58 23.12.2019
5933 Clouds 5 997 70 10000 7.2 280 22:38 23.12.2019
5934 Clouds 5 997 70 10000 7.2 280 22:20 23.12.2019
5935 Clouds 5 997 70 10000 6.2 280 21:57 23.12.2019
5936 Clouds 5 997 70 10000 5.7 290 21:37 23.12.2019
5937 Clouds 6 997 70 10000 5.7 290 21:19 23.12.2019
5938 Clouds 6 997 65 10000 6.2 280 20:59 23.12.2019
5939 Rain 6 997 75 10000 5.1 290 20:41 23.12.2019
5940 Rain 6 997 75 10000 5.1 290 20:19 23.12.2019
5941 Clouds 6 997 70 10000 5.7 300 19:59 23.12.2019
5942 Clouds 6 997 65 10000 6.2 290 19:40 23.12.2019
5943 Clouds 6 997 65 10000 6.2 290 19:40 23.12.2019
5944 Clouds 6 997 65 10000 6.2 290 19:22 23.12.2019
5945 Clouds 6 997 65 10000 4.6 290 18:58 23.12.2019
5946 Clouds 5 997 75 10000 4.6 310 18:39 23.12.2019
5947 Clouds 5 997 75 10000 4.6 310 18:21 23.12.2019
5948 Clouds 6 997 65 10000 3.6 290 17:59 23.12.2019
5949 Clouds 6 996 65 10000 3.6 300 17:40 23.12.2019
5950 Clouds 6 996 65 10000 3.6 300 17:19 23.12.2019
5951 Clouds 5 996 70 10000 3.6 300 16:57 23.12.2019
5952 Clouds 5 996 75 10000 4.1 300 16:39 23.12.2019
5953 Clouds 6 996 75 10000 4.1 300 16:19 23.12.2019
5954 Clouds 6 996 75 10000 4.1 300 16:19 23.12.2019
5955 Clouds 6 996 75 10000 5.7 300 15:57 23.12.2019
5956 Clouds 6 996 75 10000 5.7 300 15:57 23.12.2019
5957 Clouds 6 995 75 10000 5.7 290 15:37 23.12.2019
5958 Clouds 6 995 75 10000 8.2 280 15:19 23.12.2019
5959 Clouds 6 995 75 10000 8.2 280 14:56 23.12.2019
5960 Clouds 6 995 75 10000 6.7 290 14:38 23.12.2019
5961 Clouds 6 995 75 10000 6.7 290 14:18 23.12.2019
5962 Clouds 6 995 75 10000 5.7 300 13:56 23.12.2019
5963 Clouds 6 994 75 10000 7.7 290 13:37 23.12.2019
5964 Drizzle 6 994 81 10000 8.7 280 13:19 23.12.2019
5965 Rain 7 994 81 10000 7.2 280 12:42 23.12.2019
5966 Rain 7 994 81 10000 7.2 280 12:21 23.12.2019
5967 Clouds 7 994 81 10000 8.7 290 11:59 23.12.2019
5968 Clouds 7 994 81 10000 8.7 290 11:59 23.12.2019
5969 Drizzle 9 993 81 10000 10.3 290 11:41 23.12.2019
5970 Drizzle 9 993 81 10000 10.3 290 11:22 23.12.2019
5971 Clouds 11 992 57 10000 6.7 260 10:55 23.12.2019
5972 Clouds 11 992 62 10000 2.1 0 10:37 23.12.2019
5973 Clouds 11 992 62 10000 2.1 0 10:37 23.12.2019
5974 Clouds 11 992 62 10000 2.1 0 10:18 23.12.2019
5975 Clouds 11 992 76 10000 2.1 200 09:54 23.12.2019
5976 Clouds 11 992 87 10000 3.6 170 09:36 23.12.2019
5977 Clouds 10 992 87 10000 1 0 09:18 23.12.2019
5978 Clouds 9 992 81 10000 3.1 40 08:41 23.12.2019
5979 Clouds 8 992 81 10000 3.1 40 08:22 23.12.2019
5980 Clouds 8 992 81 10000 2.6 40 07:56 23.12.2019
5981 Drizzle 7 992 81 10000 3.6 60 07:37 23.12.2019
5982 Drizzle 7 992 81 10000 3.6 60 07:18 23.12.2019
5983 Rain 6 991 87 10000 4.1 50 06:32 23.12.2019
5984 Clouds 6 992 81 10000 3.1 50 05:56 23.12.2019
5985 Clouds 5 991 87 10000 2.6 130 05:33 23.12.2019
5986 Clouds 6 991 87 10000 1 0 04:40 23.12.2019
5987 Clouds 5 991 87 10000 3.1 100 03:36 23.12.2019
5988 Clouds 7 991 75 10000 1.5 40 02:43 23.12.2019
5989 Clouds 7 991 75 10000 1.5 40 02:19 23.12.2019
5990 Clouds 8 992 81 10000 3.6 50 01:45 23.12.2019
5991 Clouds 7 992 87 10000 2.1 130 01:27 23.12.2019
5992 Clouds 7 992 87 10000 2.6 160 00:45 23.12.2019
5993 Clouds 8 992 70 10000 2.1 300 00:24 23.12.2019
5994 Clouds 8 992 70 10000 2.1 300 00:24 23.12.2019
5995 Clouds 8 992 87 10000 3.6 40 23:40 22.12.2019
5996 Rain 8 992 87 10000 3.1 330 23:22 22.12.2019
5997 Rain 8 992 87 10000 3.1 330 22:58 22.12.2019
5998 Rain 9 992 81 10000 1.5 30 22:40 22.12.2019
5999 Rain 9 992 81 10000 1.5 30 22:22 22.12.2019
6000 Rain 10 992 71 10000 5.1 100 21:59 22.12.2019
6001 Rain 10 992 76 10000 6.2 170 21:40 22.12.2019
6002 Rain 10 992 76 10000 6.2 170 21:21 22.12.2019
6003 Rain 10 992 76 10000 6.2 170 21:21 22.12.2019
6004 Rain 10 993 87 10000 4.1 180 20:58 22.12.2019
6005 Clouds 11 993 58 10000 2.6 120 20:39 22.12.2019
6006 Rain 10 994 87 8000 2.1 0 20:19 22.12.2019
6007 Rain 10 994 87 8000 2.1 0 19:57 22.12.2019
6008 Rain 10 994 87 8000 2.1 0 19:57 22.12.2019
6009 Rain 11 994 93 5000 1.5 320 19:38 22.12.2019
6010 Rain 9 994 93 5000 1.5 320 19:19 22.12.2019
6011 Rain 10 993 81 5000 2.1 340 18:42 22.12.2019
6012 Rain 10 993 81 5000 2.1 340 18:23 22.12.2019
6013 Rain 10 993 81 8000 2.1 80 17:56 22.12.2019
6014 Rain 11 993 76 5000 3.1 270 17:38 22.12.2019
6015 Rain 11 993 76 5000 3.1 270 17:19 22.12.2019
6016 Clouds 11 993 71 8000 1 0 16:57 22.12.2019
6017 Clouds 11 993 71 10000 1 0 16:38 22.12.2019
6018 Clouds 13 994 66 10000 2.6 150 16:20 22.12.2019
6019 Clouds 13 994 66 10000 2.6 150 15:56 22.12.2019
6020 Clouds 13 993 66 10000 3.6 110 15:37 22.12.2019
6021 Clouds 13 993 66 10000 3.6 110 15:19 22.12.2019
6022 Clouds 13 994 62 10000 5.7 110 14:55 22.12.2019
6023 Clouds 13 995 62 10000 4.1 110 14:36 22.12.2019
6024 Clouds 12 995 62 10000 4.1 110 14:18 22.12.2019
6025 Clouds 12 996 62 10000 6.7 100 13:55 22.12.2019
6026 Clouds 12 997 66 10000 2.6 0 13:36 22.12.2019
6027 Clouds 11 998 66 10000 6.7 100 13:18 22.12.2019
6028 Clouds 11 998 66 10000 6.7 100 12:55 22.12.2019
6029 Clouds 11 997 66 10000 9.8 90 12:37 22.12.2019
6030 Clouds 11 997 66 10000 9.8 90 12:18 22.12.2019
6031 Clouds 11 999 62 10000 8.7 100 11:39 22.12.2019
6032 Clouds 11 999 62 10000 8.7 100 11:21 22.12.2019
6033 Clouds 12 1000 58 10000 5.1 100 10:59 22.12.2019
6034 Clouds 11 1000 62 10000 3.1 100 10:40 22.12.2019
6035 Clouds 11 1000 66 10000 5.7 100 10:21 22.12.2019
6036 Clouds 11 1000 66 10000 5.7 100 09:59 22.12.2019
6037 Clouds 8 1000 71 10000 6.2 60 09:40 22.12.2019
6038 Clouds 7 1000 71 10000 6.2 60 09:21 22.12.2019
6039 Clouds 7 1001 71 10000 5.1 70 08:59 22.12.2019
6040 Clouds 9 1001 76 10000 4.6 70 08:37 22.12.2019
6041 Clouds 6 1001 70 10000 4.6 60 08:18 22.12.2019
6042 Clouds 5 1002 70 10000 6.2 50 07:38 22.12.2019
6043 Clouds 6 1002 70 10000 6.2 50 07:19 22.12.2019
6044 Clouds 7 1002 62 10000 4.6 110 06:40 22.12.2019
6045 Clouds 6 1001 62 10000 4.6 0 05:53 22.12.2019
6046 Clouds 6 1001 62 10000 6.2 0 05:21 22.12.2019
6047 Clouds 8 1002 51 10000 4.1 0 04:28 22.12.2019
6048 Clouds 8 1002 62 10000 2.6 0 03:45 22.12.2019
6049 Clouds 9 1003 58 10000 5.1 360 02:38 22.12.2019
6050 Clouds 9 1003 58 10000 5.1 360 02:38 22.12.2019
6051 Clouds 8 1002 62 10000 5.1 80 01:37 22.12.2019
6052 Clouds 8 1002 62 10000 5.1 80 01:18 22.12.2019
6053 Clouds 9 1002 62 10000 4.1 30 00:45 22.12.2019
6054 Clouds 8 1002 62 10000 4.1 30 00:21 22.12.2019
6055 Clouds 10 1004 50 10000 2.6 0 23:42 21.12.2019
6056 Clouds 10 1004 50 10000 2.6 0 23:24 21.12.2019
6057 Clouds 10 1004 58 10000 3.1 110 22:59 21.12.2019
6058 Clouds 10 1004 50 10000 3.6 10 22:40 21.12.2019
6059 Clouds 10 1004 50 10000 3.6 10 22:19 21.12.2019
6060 Clouds 10 1002 47 10000 14.4 220 21:56 21.12.2019
6061 Clouds 11 1002 44 10000 14.4 220 21:37 21.12.2019
6062 Clouds 11 1002 44 10000 14.4 220 21:19 21.12.2019
6063 Clouds 11 1004 47 10000 13.4 220 20:58 21.12.2019
6064 Clouds 10 1004 50 10000 11.3 240 20:39 21.12.2019
6065 Clouds 10 1004 50 10000 11.3 240 20:21 21.12.2019
6066 Clouds 10 1004 47 10000 12.3 230 19:57 21.12.2019
6067 Clouds 10 1005 54 10000 4.6 0 19:39 21.12.2019
6068 Clouds 9 1005 54 10000 4.6 0 19:19 21.12.2019
6069 Clouds 7 1005 70 10000 2.6 80 18:42 21.12.2019
6070 Clouds 6 1005 70 10000 2.6 80 18:24 21.12.2019
6071 Clouds 7 1006 66 10000 5.7 50 17:57 21.12.2019
6072 Clouds 8 1006 62 10000 3.6 10 17:39 21.12.2019
6073 Clouds 7 1006 62 10000 3.6 10 17:21 21.12.2019
6074 Clouds 8 1006 66 10000 4.6 90 16:57 21.12.2019
6075 Clouds 8 1006 66 10000 4.6 90 16:57 21.12.2019
6076 Clouds 8 1006 66 10000 4.1 30 16:39 21.12.2019
6077 Clouds 7 1006 66 10000 4.1 30 16:18 21.12.2019
6078 Clouds 7 1006 66 10000 4.1 50 15:56 21.12.2019
6079 Clouds 8 1006 71 10000 3.1 360 15:37 21.12.2019
6080 Clouds 8 1006 71 10000 3.1 360 15:19 21.12.2019
6081 Clouds 8 1007 71 10000 3.1 30 14:44 21.12.2019
6082 Clouds 8 1007 71 10000 3.1 30 14:25 21.12.2019
6083 Clouds 10 1008 76 10000 3.6 50 13:59 21.12.2019
6084 Clouds 10 1009 76 10000 1.5 60 13:40 21.12.2019
6085 Clouds 10 1009 76 10000 1.5 60 13:20 21.12.2019
6086 Clouds 10 1009 71 10000 2.1 0 13:20 21.12.2019
6087 Clouds 10 1009 71 10000 2.1 0 12:57 21.12.2019
6088 Clouds 8 1010 81 7000 2.6 140 12:39 21.12.2019
6089 Clouds 8 1010 81 7000 2.6 140 12:21 21.12.2019
6090 Clouds 8 1010 81 10000 2.1 0 11:57 21.12.2019
6091 Clouds 7 1011 87 10000 2.1 110 11:39 21.12.2019
6092 Clouds 5 1011 87 10000 2.1 110 11:20 21.12.2019
6093 Clouds 5 1012 87 7000 1 0 10:41 21.12.2019
6094 Clouds 5 1012 87 7000 1 0 10:23 21.12.2019
6095 Clouds 5 1012 87 7000 1 0 10:23 21.12.2019
6096 Clouds 5 1013 86 6000 1 0 09:58 21.12.2019
6097 Clouds 4 1013 93 6000 1.14 212 09:40 21.12.2019
6098 Clouds 4 1013 93 6000 1.14 212 09:20 21.12.2019
6099 Clouds 5 1013 86 8000 1.5 40 08:52 21.12.2019
6100 Clouds 4 1013 86 8000 2.1 210 08:27 21.12.2019
6101 Clouds 2 1013 86 10000 2.1 200 07:58 21.12.2019
6102 Clouds 2 1013 86 10000 1.5 150 07:40 21.12.2019
6103 Clouds 2 1013 86 10000 1.5 150 07:21 21.12.2019
6104 Clouds 1 1013 86 10000 2.6 120 06:41 21.12.2019
6105 Clouds 1 1013 86 10000 2.6 120 06:23 21.12.2019
6106 Clouds 1 1014 93 10000 2.6 140 05:37 21.12.2019
6107 Clouds 0 1014 93 8000 2.6 100 04:55 21.12.2019
6108 Clouds 2 1014 86 10000 0.5 0 03:56 21.12.2019
6109 Clouds 0 1014 86 8000 2.1 130 02:25 21.12.2019
6110 Clouds 1 1014 89 10000 1 0 01:48 21.12.2019
6111 Clear 1 1014 86 10000 2.1 0 01:25 21.12.2019
6112 Clouds 2 1015 80 10000 2.1 170 00:45 21.12.2019
6113 Clouds 2 1015 80 10000 2.1 170 00:26 21.12.2019
6114 Clouds 2 1015 80 10000 1.5 140 23:39 20.12.2019
6115 Clouds 2 1015 80 10000 1.5 140 23:21 20.12.2019
6116 Clouds 2 1015 86 8000 2.6 110 22:59 20.12.2019
6117 Clouds 2 1015 86 8000 2.6 110 22:59 20.12.2019
6118 Clouds 2 1016 86 8000 3.1 160 22:39 20.12.2019
6119 Clouds 2 1016 86 8000 2.1 140 22:18 20.12.2019
6120 Clouds 3 1015 87 8000 2.6 0 21:41 20.12.2019
6121 Clouds 3 1015 87 8000 2.6 0 21:21 20.12.2019
6122 Clouds 3 1016 86 8000 3.6 100 20:59 20.12.2019
6123 Clouds 3 1016 80 8000 3.1 110 20:38 20.12.2019
6124 Clouds 3 1016 80 8000 3.1 110 20:19 20.12.2019
6125 Rain 5 1016 81 8000 1.5 0 19:43 20.12.2019
6126 Rain 5 1016 81 8000 1.5 0 19:21 20.12.2019
6127 Clouds 5 1016 81 7000 2.6 90 18:58 20.12.2019
6128 Clouds 6 1016 75 8000 2.1 0 18:40 20.12.2019
6129 Clouds 5 1016 75 8000 2.1 0 18:21 20.12.2019
6130 Clouds 5 1016 75 8000 2.1 0 18:21 20.12.2019
6131 Clouds 5 1016 81 7000 1.5 0 17:57 20.12.2019
6132 Clouds 6 1016 81 7000 2.1 0 17:39 20.12.2019
6133 Clouds 6 1016 81 7000 2.1 0 17:20 20.12.2019
6134 Clouds 6 1016 80 7000 1.5 170 16:56 20.12.2019
6135 Clouds 7 1016 75 8000 1.5 310 16:37 20.12.2019
6136 Clouds 7 1016 75 8000 1.5 310 16:19 20.12.2019
6137 Clouds 8 1017 70 10000 1.5 330 15:54 20.12.2019
6138 Clouds 8 1017 70 10000 1.5 330 15:54 20.12.2019
6139 Clouds 9 1017 70 10000 1.5 90 15:36 20.12.2019
6140 Clouds 9 1017 70 10000 1.5 90 15:36 20.12.2019
6141 Clouds 9 1017 70 10000 1.5 90 15:18 20.12.2019
6142 Clouds 10 1017 70 10000 2.1 0 14:42 20.12.2019
6143 Clouds 11 1017 65 10000 1 0 14:23 20.12.2019
6144 Clouds 11 1018 65 10000 1 0 13:56 20.12.2019
6145 Clouds 11 1018 65 10000 1 0 13:37 20.12.2019
6146 Clouds 11 1018 65 10000 0.5 0 13:18 20.12.2019
6147 Clouds 11 1018 65 10000 0.5 0 13:18 20.12.2019
6148 Clouds 11 1019 70 10000 1 0 12:55 20.12.2019
6149 Clouds 10 1019 70 10000 1 0 12:36 20.12.2019
6150 Clouds 10 1019 70 10000 1 0 12:18 20.12.2019
6151 Clouds 9 1020 75 8000 1 0 11:56 20.12.2019
6152 Clouds 9 1020 75 8000 1 0 11:37 20.12.2019
6153 Clouds 8 1020 75 7000 0.5 0 11:18 20.12.2019
6154 Mist 7 1021 86 4500 1 0 10:54 20.12.2019
6155 Mist 5 1021 93 3500 1.02 219 10:36 20.12.2019
6156 Mist 4 1021 93 3500 1.02 219 10:18 20.12.2019
6157 Mist 1 1021 100 2000 1.5 110 09:41 20.12.2019
6158 Mist 2 1022 51 1600 2.1 110 09:21 20.12.2019
6159 Mist 2 1022 51 1600 2.1 110 09:21 20.12.2019
6160 Mist 0 1022 51 1200 1 0 08:44 20.12.2019
6161 Mist 0 1022 100 1000 2.6 120 08:26 20.12.2019
6162 Fog 0 1022 92 900 2.1 110 07:59 20.12.2019
6163 Fog 0 1022 92 900 2.1 110 07:41 20.12.2019
6164 Fog 0 1022 100 900 1 0 07:20 20.12.2019
6165 Fog 0 1022 58 800 1 0 06:52 20.12.2019
6166 Fog 0 1022 100 250 1 0 06:33 20.12.2019
6167 Fog -1 1022 92 500 1 0 05:56 20.12.2019
6168 Fog 0 1022 92 500 1 0 05:37 20.12.2019
6169 Fog 0 1022 92 150 1.5 110 04:33 20.12.2019
6170 Fog 0 1023 100 150 1.5 120 03:31 20.12.2019
6171 Fog -1 1023 100 150 1 0 02:44 20.12.2019
6172 Fog 0 1024 92 150 0.93 210 01:54 20.12.2019
6173 Fog 0 1024 100 150 0.93 210 01:33 20.12.2019
6174 Fog 0 1024 100 100 1 0 00:48 20.12.2019
6175 Fog 0 1024 57 150 0.5 0 00:29 20.12.2019
6176 Fog 1 1024 100 500 1 50 23:54 19.12.2019
6177 Fog 1 1025 100 750 1 240 23:36 19.12.2019
6178 Fog 1 1025 100 750 1 240 23:18 19.12.2019
6179 Mist 1 1025 59 1100 1 220 22:37 19.12.2019
6180 Fog 1 1025 59 600 1 0 22:19 19.12.2019
6181 Fog 2 1025 59 800 1.01 212 21:55 19.12.2019
6182 Mist 1 1025 100 1300 1.5 40 21:37 19.12.2019
6183 Mist 1 1025 100 1300 1.5 40 21:18 19.12.2019
6184 Mist 2 1025 93 1300 1.5 40 20:55 19.12.2019
6185 Mist 2 1025 93 2000 1.5 220 20:36 19.12.2019
6186 Mist 2 1025 93 2000 1.5 220 20:18 19.12.2019
6187 Mist 2 1025 93 2700 1 0 19:56 19.12.2019
6188 Mist 2 1026 93 2000 1 0 19:37 19.12.2019
6189 Mist 2 1026 93 2000 1 0 19:19 19.12.2019
6190 Mist 3 1026 93 3400 1.5 350 18:41 19.12.2019
6191 Mist 4 1025 93 4000 1.5 320 18:22 19.12.2019
6192 Mist 4 1025 86 5000 1 0 17:57 19.12.2019
6193 Mist 4 1025 86 5000 1 0 17:39 19.12.2019
6194 Mist 5 1025 80 5000 2.1 140 17:19 19.12.2019
6195 Mist 5 1025 86 5000 2.1 120 16:57 19.12.2019
6196 Mist 6 1026 81 5000 1.5 100 16:39 19.12.2019
6197 Mist 6 1026 81 5000 1.5 100 16:21 19.12.2019
6198 Clouds 8 1026 70 6000 1 0 15:59 19.12.2019
6199 Clouds 9 1026 70 6000 1 0 15:39 19.12.2019
6200 Clouds 9 1026 70 6000 1.5 100 15:20 19.12.2019
6201 Clouds 9 1026 66 7000 1 0 14:59 19.12.2019
6202 Clouds 10 1026 66 7000 1 0 14:40 19.12.2019
6203 Clouds 11 1026 70 6000 1 0 14:19 19.12.2019
6204 Mist 11 1026 70 5000 1 0 13:56 19.12.2019
6205 Mist 12 1026 70 5000 1 0 13:37 19.12.2019
6206 Mist 11 1027 65 4800 1 0 13:18 19.12.2019
6207 Mist 11 1027 70 5000 1.5 30 12:54 19.12.2019
6208 Mist 10 1028 75 5000 1 0 12:36 19.12.2019
6209 Mist 10 1028 75 5000 1 0 12:18 19.12.2019
6210 Mist 10 1028 75 5000 1 0 12:18 19.12.2019
6211 Mist 4 1028 86 4700 1.5 290 11:42 19.12.2019
6212 Mist 6 1029 100 2600 1.5 300 11:20 19.12.2019
6213 Mist 5 1029 100 1900 1 0 10:59 19.12.2019
6214 Mist 5 1029 100 1900 1 0 10:39 19.12.2019
6215 Fog 4 1029 34 650 0.13 59 10:20 19.12.2019
6216 Fog -1 1029 100 550 0.13 59 09:57 19.12.2019
6217 Fog -1 1029 100 550 0.13 59 09:38 19.12.2019
6218 Fog -2 1029 100 150 0.5 0 09:19 19.12.2019
6219 Fog -2 1029 92 200 0.13 59 08:55 19.12.2019
6220 Fog -2 1029 92 200 0.13 59 08:37 19.12.2019
6221 Fog -1 1029 100 100 1 0 08:18 19.12.2019
6222 Fog -2 1029 92 200 0.95 249 07:54 19.12.2019
6223 Fog -3 1029 92 150 0.95 249 07:36 19.12.2019
6224 Fog -3 1029 92 150 0.95 249 07:18 19.12.2019
6225 Fog -3 1028 92 200 0.5 0 06:42 19.12.2019
6226 Fog -3 1028 100 150 0.95 249 06:23 19.12.2019
6227 Fog -2 1028 92 200 1 0 05:42 19.12.2019
6228 Fog -3 1028 92 150 0.5 0 05:20 19.12.2019
6229 Fog -2 1028 92 150 1 110 03:54 19.12.2019
6230 Fog -1 1028 100 100 0.5 0 02:29 19.12.2019
6231 Mist 0 1028 92 1100 1.5 250 01:26 19.12.2019
6232 Mist 0 1028 100 3000 1.59 257 00:58 19.12.2019
6233 Mist 0 1028 100 3000 1.59 257 00:39 19.12.2019
6234 Mist 0 1028 92 1400 1.5 60 00:19 19.12.2019
6235 Mist 0 1028 92 1400 1.5 60 00:19 19.12.2019
6236 Fog 0 1028 100 800 0.5 0 23:44 18.12.2019
6237 Mist 0 1028 47 2000 1 0 23:19 18.12.2019
6238 Mist 1 1028 47 2600 1.5 140 22:57 18.12.2019
6239 Mist 1 1028 47 2600 1.5 140 22:38 18.12.2019
6240 Mist 1 1028 47 2000 1.5 0 22:20 18.12.2019
6241 Mist 1 1028 47 1500 1.5 130 21:58 18.12.2019
6242 Mist 1 1028 47 1500 1.5 130 21:39 18.12.2019
6243 Mist 1 1028 47 1500 1.5 130 21:39 18.12.2019
6244 Mist 1 1028 47 1300 1 0 21:20 18.12.2019
6245 Mist 1 1027 47 1100 1.5 70 20:56 18.12.2019
6246 Mist 1 1027 47 1100 1.5 70 20:38 18.12.2019
6247 Mist 2 1027 100 1700 1.46 252 20:19 18.12.2019
6248 Mist 2 1027 93 1500 1 0 19:56 18.12.2019
6249 Mist 3 1027 93 1500 1 0 19:37 18.12.2019
6250 Mist 2 1027 93 1800 1.46 252 19:18 18.12.2019
6251 Mist 3 1027 86 2100 1 0 18:45 18.12.2019
6252 Mist 2 1027 44 4400 1.46 252 18:25 18.12.2019
6253 Mist 3 1026 93 4000 0.5 0 17:58 18.12.2019
6254 Mist 4 1026 93 4000 0.5 0 17:40 18.12.2019
6255 Mist 5 1026 86 4500 1 0 17:20 18.12.2019
6256 Mist 6 1026 80 5000 1.4 254 16:58 18.12.2019
6257 Mist 6 1026 80 5000 1.4 254 16:40 18.12.2019
6258 Mist 6 1026 80 5000 1.4 254 16:40 18.12.2019
6259 Clouds 7 1026 75 6000 1.5 290 16:21 18.12.2019
6260 Clouds 9 1026 65 8000 1.4 254 15:56 18.12.2019
6261 Clouds 10 1026 61 10000 1.4 254 15:38 18.12.2019
6262 Clouds 10 1026 61 10000 1.4 254 15:20 18.12.2019
6263 Clouds 9 1025 66 7000 1 0 14:43 18.12.2019
6264 Clear 13 1025 66 7000 1 0 14:22 18.12.2019
6265 Clear 13 1026 66 7000 1 0 13:58 18.12.2019
6266 Clear 12 1026 70 7000 1.5 0 13:39 18.12.2019
6267 Clear 14 1026 70 7000 1.5 0 13:21 18.12.2019
6268 Clear 13 1026 70 6000 0.5 0 12:59 18.12.2019
6269 Mist 12 1027 75 5000 0.5 0 12:39 18.12.2019
6270 Mist 12 1027 75 5000 0.5 0 12:20 18.12.2019
6271 Mist 10 1027 100 5000 1 0 11:56 18.12.2019
6272 Mist 8 1027 100 3500 1 0 11:38 18.12.2019
6273 Mist 8 1027 100 3500 1 0 11:38 18.12.2019
6274 Mist 8 1027 100 3500 1 0 11:19 18.12.2019
6275 Fog 6 1028 36 500 0.5 0 10:57 18.12.2019
6276 Fog 6 1028 36 500 0.5 0 10:57 18.12.2019
6277 Fog 4 1028 100 600 1 0 10:38 18.12.2019
6278 Fog 2 1028 100 250 1 0 10:20 18.12.2019
6279 Fog -2 1028 100 250 1 0 09:52 18.12.2019
6280 Fog -3 1028 100 200 1.58 263 09:19 18.12.2019
6281 Fog -3 1028 92 200 1.58 263 08:41 18.12.2019
6282 Fog -3 1028 92 200 1.58 263 08:41 18.12.2019
6283 Fog -3 1028 92 200 1.58 263 08:23 18.12.2019
6284 Fog -1 1028 92 400 1 0 07:55 18.12.2019
6285 Fog -3 1027 100 300 1.5 320 07:36 18.12.2019
6286 Fog -3 1027 100 300 1.5 320 07:18 18.12.2019
6287 Fog -4 1027 100 450 1.5 110 06:49 18.12.2019
6288 Fog -3 1027 100 300 2.1 110 06:22 18.12.2019
6289 Fog -3 1027 92 200 1.83 256 05:22 18.12.2019
6290 Fog -3 1026 100 300 1 0 03:31 18.12.2019
6291 Fog -2 1026 100 250 0.5 0 02:38 18.12.2019
6292 Fog -2 1026 100 250 0.5 0 02:19 18.12.2019
6293 Fog -1 1026 92 350 0.5 0 01:42 18.12.2019
6294 Fog -1 1026 92 350 0.5 0 01:22 18.12.2019
6295 Fog -1 1026 92 350 0.5 0 01:22 18.12.2019
6296 Fog -1 1026 100 600 1 0 00:41 18.12.2019
6297 Fog -1 1026 100 600 1 0 00:23 18.12.2019
6298 Fog -1 1026 92 250 1 0 23:57 17.12.2019
6299 Fog 0 1026 100 550 1.5 110 23:38 17.12.2019
6300 Fog 0 1026 100 800 1 0 23:19 17.12.2019
6301 Fog 0 1026 100 800 1 0 22:56 17.12.2019
6302 Fog 0 1026 100 900 1 0 22:38 17.12.2019
6303 Fog 0 1026 100 900 1 0 22:18 17.12.2019
6304 Mist 0 1026 100 1400 1 170 21:55 17.12.2019
6305 Mist 0 1026 51 2500 1 150 21:37 17.12.2019
6306 Mist 0 1026 51 2500 1 150 21:19 17.12.2019
6307 Mist 0 1026 51 3300 1.5 170 20:56 17.12.2019
6308 Mist 0 1025 51 3800 1.5 130 20:37 17.12.2019
6309 Mist 1 1025 46 4400 2.1 130 20:18 17.12.2019
6310 Mist 2 1025 46 3400 2.6 100 19:54 17.12.2019
6311 Mist 2 1025 46 3400 2.6 100 19:36 17.12.2019
6312 Mist 2 1025 46 3400 2.6 100 19:18 17.12.2019
6313 Mist 3 1025 93 3100 1 0 18:41 17.12.2019
6314 Mist 3 1025 86 7000 1 0 18:21 17.12.2019
6315 Mist 4 1025 86 7000 1 0 17:58 17.12.2019
6316 Clear 4 1024 86 7000 1.5 270 17:40 17.12.2019
6317 Clear 5 1024 86 7000 1.5 270 17:19 17.12.2019
6318 Clear 6 1024 75 10000 1 20 16:56 17.12.2019
6319 Clear 7 1024 75 10000 1.43 248 16:37 17.12.2019
6320 Clear 7 1024 75 10000 1.43 248 16:19 17.12.2019
6321 Clear 9 1024 61 10000 1 90 15:55 17.12.2019
6322 Clear 10 1024 61 10000 1 90 15:37 17.12.2019
6323 Clear 11 1024 61 10000 1 90 15:18 17.12.2019
6324 Clear 12 1024 61 10000 1.5 90 14:55 17.12.2019
6325 Clear 11 1024 57 10000 1 0 14:36 17.12.2019
6326 Clear 14 1024 57 10000 1 0 14:18 17.12.2019
6327 Clear 14 1024 61 10000 1.5 300 13:55 17.12.2019
6328 Clear 13 1024 61 9000 1.08 259 13:37 17.12.2019
6329 Clear 12 1024 70 9000 0.5 0 13:18 17.12.2019
6330 Clear 11 1024 75 9000 1 0 12:40 17.12.2019
6331 Clear 11 1024 75 9000 1 0 12:19 17.12.2019
6332 Clear 10 1025 80 8000 1.5 0 11:59 17.12.2019
6333 Mist 8 1025 93 5000 1 0 11:37 17.12.2019
6334 Mist 8 1025 93 5000 1 0 11:37 17.12.2019
6335 Mist 8 1025 93 5000 1 0 11:19 17.12.2019
6336 Mist 6 1026 100 1100 0.5 0 10:59 17.12.2019
6337 Fog 4 1026 100 550 0.5 0 10:40 17.12.2019
6338 Fog 4 1026 100 550 0.5 0 10:21 17.12.2019
6339 Fog 2 1026 100 300 1.35 266 09:59 17.12.2019
6340 Fog -2 1026 92 200 1.35 266 09:40 17.12.2019
6341 Fog -3 1026 100 200 1 0 09:19 17.12.2019
6342 Fog -3 1026 100 200 1 0 08:55 17.12.2019
6343 Fog -4 1026 100 100 1.35 266 08:37 17.12.2019
6344 Fog -2 1026 100 100 1.65 254 08:19 17.12.2019
6345 Fog -3 1025 100 200 1.65 254 07:45 17.12.2019
6346 Fog -4 1025 100 200 1.65 254 07:24 17.12.2019
6347 Fog -4 1025 92 200 0.5 0 06:55 17.12.2019
6348 Fog -3 1025 92 350 1.5 340 06:32 17.12.2019
6349 Fog -3 1025 100 600 1 0 05:52 17.12.2019
6350 Fog -4 1025 100 500 0.5 340 05:34 17.12.2019
6351 Fog -3 1025 100 350 1 310 04:25 17.12.2019
6352 Mist -1 1025 92 4500 1.68 254 02:33 17.12.2019
6353 Mist -1 1025 92 4500 1.68 254 02:33 17.12.2019
6354 Mist -1 1025 100 3000 1.71 254 01:50 17.12.2019
6355 Mist -1 1025 100 2300 2.6 140 00:56 17.12.2019
6356 Mist -1 1025 92 1200 2.6 150 00:36 17.12.2019
6357 Fog 0 1025 92 250 2.1 130 00:18 17.12.2019
6358 Fog 0 1025 100 900 1.5 70 23:40 16.12.2019
6359 Fog 0 1025 100 900 1.5 70 23:19 16.12.2019
6360 Mist 0 1025 75 1500 1.78 245 22:55 16.12.2019
6361 Mist 0 1025 75 2000 1 260 22:37 16.12.2019
6362 Mist 0 1025 75 2000 1 260 22:19 16.12.2019
6363 Mist 0 1025 75 1800 1.5 270 21:54 16.12.2019
6364 Clear 1 1025 75 6000 1 0 21:36 16.12.2019
6365 Clear 1 1025 75 6000 1 0 21:36 16.12.2019
6366 Clear 1 1025 75 6000 1 0 21:36 16.12.2019
6367 Clear 1 1025 75 6000 1 0 21:18 16.12.2019
6368 Mist 1 1025 75 2600 1.5 150 20:56 16.12.2019
6369 Clouds 1 1024 75 7000 1 0 20:37 16.12.2019
6370 Clouds 1 1024 65 7000 1 0 20:18 16.12.2019
6371 Clouds 2 1025 65 7000 0.5 0 19:55 16.12.2019
6372 Clear 2 1025 93 8000 1 0 19:36 16.12.2019
6373 Clear 2 1025 93 8000 1 0 19:18 16.12.2019
6374 Clear 3 1024 93 8000 1 0 18:54 16.12.2019
6375 Clouds 3 1024 86 8000 1 0 18:36 16.12.2019
6376 Clouds 3 1024 86 8000 1 0 18:18 16.12.2019
6377 Mist 4 1024 80 5000 1 0 17:55 16.12.2019
6378 Clear 5 1024 80 10000 1.53 241 17:37 16.12.2019
6379 Clear 5 1024 81 10000 1.26 243 17:18 16.12.2019
6380 Clear 6 1024 81 10000 1.26 243 16:54 16.12.2019
6381 Clear 6 1024 75 10000 1 330 16:36 16.12.2019
6382 Clear 7 1024 75 10000 1 330 16:18 16.12.2019
6383 Clear 9 1023 61 10000 1.26 243 15:54 16.12.2019
6384 Clear 11 1024 57 10000 1 90 15:36 16.12.2019
6385 Clear 11 1024 57 10000 1 0 15:18 16.12.2019
6386 Clear 11 1024 57 10000 1 0 14:54 16.12.2019
6387 Clear 11 1024 57 10000 1 0 14:54 16.12.2019
6388 Clear 11 1024 57 10000 0.5 0 14:36 16.12.2019
6389 Clear 11 1024 57 10000 0.5 0 14:18 16.12.2019
6390 Clear 10 1024 61 10000 1 0 13:38 16.12.2019
6391 Clear 12 1024 61 10000 1 0 13:20 16.12.2019
6392 Clear 12 1025 61 10000 1.5 110 12:58 16.12.2019
6393 Clear 11 1025 65 10000 1 0 12:40 16.12.2019
6394 Clear 11 1025 65 10000 1 0 12:20 16.12.2019
6395 Clear 9 1025 70 8000 1.5 0 11:59 16.12.2019
6396 Clear 8 1026 86 7000 1.5 0 11:41 16.12.2019
6397 Clear 7 1026 86 7000 1.5 0 11:21 16.12.2019
6398 Clear 6 1026 93 7000 1 0 10:58 16.12.2019
6399 Mist 5 1027 93 4000 1.5 50 10:40 16.12.2019
6400 Mist 4 1027 93 4000 1.5 50 10:20 16.12.2019
6401 Fog 0 1027 53 600 1 0 09:46 16.12.2019
6402 Fog 0 1027 53 600 1 0 09:28 16.12.2019
6403 Fog -2 1026 100 350 1 300 08:58 16.12.2019
6404 Fog -3 1026 100 350 1 0 08:38 16.12.2019
6405 Fog -2 1026 100 350 1 0 08:18 16.12.2019
6406 Fog -3 1026 100 250 1 0 07:47 16.12.2019
6407 Fog -3 1026 100 250 1 0 07:28 16.12.2019
6408 Fog -3 1025 100 250 1 0 06:45 16.12.2019
6409 Fog -3 1025 100 250 1 0 06:26 16.12.2019
6410 Fog -3 1025 92 150 1.5 60 05:52 16.12.2019
6411 Fog -3 1025 92 200 1.84 242 05:33 16.12.2019
6412 Fog -3 1024 92 150 1 0 04:22 16.12.2019
6413 Fog -1 1024 92 3000 0.5 0 02:36 16.12.2019
6414 Mist -1 1024 100 1300 1.45 242 01:45 16.12.2019
6415 Mist 0 1023 100 2800 1 0 00:43 16.12.2019
6416 Mist 0 1023 100 2800 1 0 00:25 16.12.2019
6417 Mist 0 1023 100 4000 0.5 0 23:59 15.12.2019
6418 Mist 0 1023 100 4000 0.5 0 23:59 15.12.2019
6419 Mist 0 1023 63 3000 1 0 23:39 15.12.2019
6420 Mist 0 1023 70 3000 1 0 23:20 15.12.2019
6421 Mist 0 1023 70 4000 1.5 270 22:56 15.12.2019
6422 Mist 0 1023 70 4000 1.5 270 22:56 15.12.2019
6423 Mist 0 1023 70 4000 0.5 0 22:37 15.12.2019
6424 Mist 0 1023 70 5000 1.5 220 22:18 15.12.2019
6425 Mist 0 1023 70 5000 1.5 220 21:56 15.12.2019
6426 Mist 0 1023 70 5000 1.5 220 21:56 15.12.2019
6427 Mist 1 1023 70 5000 1.5 110 21:37 15.12.2019
6428 Mist 1 1023 70 5000 1.5 110 21:37 15.12.2019
6429 Mist 1 1023 70 5000 1.5 110 21:19 15.12.2019
6430 Clear 2 1022 93 6000 2.1 160 20:56 15.12.2019
6431 Clear 1 1023 86 6000 1 0 20:37 15.12.2019
6432 Clear 1 1023 86 6000 1 0 20:18 15.12.2019
6433 Clear 2 1022 75 6000 2.1 210 19:56 15.12.2019
6434 Clouds 3 1022 86 6000 1.5 190 19:38 15.12.2019
6435 Clouds 3 1022 86 6000 1.5 190 19:18 15.12.2019
6436 Clear 4 1022 80 7000 0.5 0 18:55 15.12.2019
6437 Clear 3 1022 86 7000 1 0 18:37 15.12.2019
6438 Clouds 4 1021 80 8000 2.6 150 18:18 15.12.2019
6439 Clear 4 1021 80 8000 2.6 150 17:56 15.12.2019
6440 Clear 5 1021 75 10000 3.1 200 17:36 15.12.2019
6441 Clouds 5 1020 75 10000 1.5 170 17:18 15.12.2019
6442 Clear 5 1020 75 10000 1.5 170 17:18 15.12.2019
6443 Clear 5 1020 75 10000 1.5 170 17:18 15.12.2019
6444 Clear 7 1020 61 10000 1.31 251 16:43 15.12.2019
6445 Clouds 8 1020 61 10000 1.3 243 16:23 15.12.2019
6446 Clear 9 1020 53 10000 0.5 0 15:58 15.12.2019
6447 Clear 9 1020 50 10000 1 0 15:39 15.12.2019
6448 Clear 11 1020 50 10000 1 0 15:20 15.12.2019
6449 Clear 12 1020 50 10000 0.5 0 14:57 15.12.2019
6450 Clouds 11 1019 53 10000 1.3 243 14:38 15.12.2019
6451 Clouds 11 1019 53 10000 0.37 192 14:19 15.12.2019
6452 Clouds 11 1019 53 10000 1 0 13:59 15.12.2019
6453 Clouds 10 1019 61 10000 0.5 0 13:39 15.12.2019
6454 Clouds 10 1019 61 10000 0.5 0 13:20 15.12.2019
6455 Clouds 12 1020 61 10000 1 0 12:57 15.12.2019
6456 Clouds 12 1020 61 10000 1 0 12:57 15.12.2019
6457 Clouds 12 1020 66 10000 1 0 12:39 15.12.2019
6458 Clouds 12 1020 66 10000 1 0 12:21 15.12.2019
6459 Clouds 11 1020 70 10000 0.5 0 11:59 15.12.2019
6460 Clouds 11 1020 75 10000 1 0 11:38 15.12.2019
6461 Clouds 11 1020 75 10000 1 0 11:38 15.12.2019
6462 Clouds 10 1020 75 10000 1 0 11:19 15.12.2019
6463 Clouds 9 1020 75 10000 1 0 10:56 15.12.2019
6464 Clouds 9 1020 81 10000 2.1 110 10:37 15.12.2019
6465 Clouds 8 1020 81 10000 2.1 110 10:19 15.12.2019
6466 Clouds 7 1020 93 8000 2.6 130 09:57 15.12.2019
6467 Mist 6 1019 93 5000 3.1 100 09:37 15.12.2019
6468 Mist 5 1019 93 5000 3.1 100 09:19 15.12.2019
6469 Clouds 3 1019 64 8000 1.5 130 08:42 15.12.2019
6470 Clouds 3 1019 90 8000 1.5 130 08:22 15.12.2019
6471 Clouds 2 1019 90 8000 1 0 07:57 15.12.2019
6472 Clouds 2 1018 90 8000 0.92 317 07:37 15.12.2019
6473 Clouds 2 1018 93 8000 1 0 06:57 15.12.2019
6474 Clouds 2 1017 90 7000 1 0 06:23 15.12.2019
6475 Clouds 3 1016 93 10000 2.6 310 05:39 15.12.2019
6476 Clouds 3 1016 93 10000 3.1 310 05:19 15.12.2019
6477 Clouds 4 1015 93 10000 3.1 310 03:56 15.12.2019
6478 Clouds 6 1013 81 10000 5.1 270 02:35 15.12.2019
6479 Clouds 7 1013 81 10000 5.1 290 01:55 15.12.2019
6480 Clouds 7 1012 75 10000 2.6 290 01:37 15.12.2019
6481 Clouds 7 1012 75 10000 2.6 290 01:18 15.12.2019
6482 Clouds 7 1012 87 8000 0.5 0 00:42 15.12.2019
6483 Clouds 7 1012 87 8000 0.5 0 00:23 15.12.2019
6484 Clouds 6 1011 93 8000 2.1 320 23:40 14.12.2019
6485 Clouds 6 1011 93 8000 2.1 320 23:21 14.12.2019
6486 Clouds 6 1011 93 8000 2.6 280 22:58 14.12.2019
6487 Mist 6 1010 93 4500 2.1 310 22:40 14.12.2019
6488 Mist 6 1010 93 4500 2.1 310 22:21 14.12.2019
6489 Mist 6 1009 93 4300 1.5 80 21:56 14.12.2019
6490 Mist 6 1009 93 4500 1.5 260 21:38 14.12.2019
6491 Mist 6 1009 93 4500 1.5 260 21:19 14.12.2019
6492 Mist 6 1008 93 4900 1.5 270 20:57 14.12.2019
6493 Mist 7 1008 87 5000 1.5 290 20:38 14.12.2019
6494 Mist 7 1008 87 5000 1.5 290 20:19 14.12.2019
6495 Clouds 7 1007 93 6000 2.6 270 19:55 14.12.2019
6496 Clouds 7 1006 93 6000 1.5 350 19:36 14.12.2019
6497 Clouds 7 1006 93 6000 1.5 350 19:18 14.12.2019
6498 Clouds 7 1006 93 8000 2.1 70 18:55 14.12.2019
6499 Clouds 7 1005 93 9000 3.6 140 18:36 14.12.2019
6500 Clouds 7 1005 93 9000 3.6 140 18:18 14.12.2019
6501 Clouds 7 1005 93 9000 3.6 140 18:18 14.12.2019
6502 Clouds 8 1004 87 10000 1.5 20 17:42 14.12.2019
6503 Clouds 8 1004 87 10000 1.5 20 17:22 14.12.2019
6504 Clouds 8 1003 87 10000 2.1 40 16:55 14.12.2019
6505 Clouds 8 1003 87 10000 2.1 70 16:37 14.12.2019
6506 Clouds 8 1003 87 10000 2.1 70 16:18 14.12.2019
6507 Clouds 8 1002 81 10000 2.6 60 15:41 14.12.2019
6508 Clouds 8 1002 81 10000 2.6 60 15:20 14.12.2019
6509 Clouds 8 1002 87 10000 2.6 80 14:57 14.12.2019
6510 Clouds 8 1001 76 10000 2.6 140 14:38 14.12.2019
6511 Clouds 8 1000 76 10000 4.6 160 14:19 14.12.2019
6512 Clouds 8 1000 76 10000 4.1 170 13:45 14.12.2019
6513 Clouds 8 1000 76 10000 4.1 170 13:20 14.12.2019
6514 Clouds 7 999 75 10000 3.6 160 12:58 14.12.2019
6515 Clouds 7 999 81 10000 3.1 140 12:40 14.12.2019
6516 Clouds 7 999 81 10000 3.1 140 12:21 14.12.2019
6517 Clouds 7 999 81 10000 4.1 150 11:58 14.12.2019
6518 Clouds 7 999 81 10000 6.2 140 11:39 14.12.2019
6519 Clouds 7 999 81 10000 6.2 140 11:19 14.12.2019
6520 Clouds 6 999 81 10000 6.2 140 10:57 14.12.2019
6521 Clouds 6 998 81 10000 5.7 130 10:39 14.12.2019
6522 Clouds 6 998 81 10000 5.7 130 10:20 14.12.2019
6523 Clouds 6 998 81 10000 5.1 120 09:55 14.12.2019
6524 Clouds 6 998 87 10000 3.1 120 09:37 14.12.2019
6525 Clouds 5 998 87 10000 3.1 120 09:18 14.12.2019
6526 Clouds 5 997 81 10000 4.6 120 08:42 14.12.2019
6527 Clouds 5 997 86 10000 6.2 100 08:19 14.12.2019
6528 Clouds 5 996 86 10000 5.7 90 07:43 14.12.2019
6529 Clouds 5 996 86 10000 6.2 110 07:23 14.12.2019
6530 Clouds 5 996 86 10000 6.2 110 06:55 14.12.2019
6531 Clouds 5 996 81 10000 6.2 110 06:36 14.12.2019
6532 Clouds 5 995 86 10000 5.7 100 05:56 14.12.2019
6533 Clouds 5 995 86 10000 5.7 100 05:56 14.12.2019
6534 Clouds 5 995 86 10000 5.1 110 04:35 14.12.2019
6535 Clouds 4 996 93 10000 3.6 150 02:25 14.12.2019
6536 Clouds 4 996 93 10000 2.1 160 01:46 14.12.2019
6537 Clouds 3 996 100 10000 3.6 130 01:28 14.12.2019
6538 Clouds 4 997 93 9000 3.1 120 00:44 14.12.2019
6539 Clouds 4 997 93 9000 3.1 120 00:24 14.12.2019
6540 Clouds 3 997 93 9000 2.6 70 23:43 13.12.2019
6541 Clouds 3 997 93 9000 2.6 70 23:22 13.12.2019
6542 Clouds 3 997 93 9000 1.5 120 22:59 13.12.2019
6543 Clouds 4 997 86 10000 2.6 90 22:40 13.12.2019
6544 Clouds 4 997 86 10000 2.6 90 22:19 13.12.2019
6545 Clouds 4 997 86 10000 3.1 110 21:55 13.12.2019
6546 Clouds 4 998 93 10000 5.1 100 21:36 13.12.2019
6547 Clouds 4 998 93 10000 5.1 100 21:18 13.12.2019
6548 Clouds 5 998 86 10000 5.1 90 20:40 13.12.2019
6549 Clouds 5 998 86 10000 5.1 90 20:21 13.12.2019
6550 Clouds 5 998 86 10000 4.1 70 19:57 13.12.2019
6551 Clouds 5 999 86 10000 4.1 70 19:39 13.12.2019
6552 Clouds 5 999 86 10000 4.1 70 19:20 13.12.2019
6553 Clouds 6 998 87 10000 6.2 100 18:56 13.12.2019
6554 Clouds 6 998 87 10000 6.2 100 18:38 13.12.2019
6555 Clouds 6 998 87 10000 5.1 80 18:18 13.12.2019
6556 Clouds 6 998 87 10000 5.1 80 18:18 13.12.2019
6557 Clouds 6 998 81 10000 5.7 100 17:41 13.12.2019
6558 Clouds 6 998 81 10000 5.1 110 17:19 13.12.2019
6559 Clouds 7 999 70 10000 4.6 100 16:58 13.12.2019
6560 Clouds 7 999 70 10000 4.6 100 16:39 13.12.2019
6561 Clouds 7 999 70 10000 4.6 100 16:39 13.12.2019
6562 Clouds 7 999 81 10000 2.6 70 16:20 13.12.2019
6563 Clouds 8 999 70 10000 2.1 50 15:43 13.12.2019
6564 Clouds 8 999 70 10000 3.6 90 15:22 13.12.2019
6565 Clouds 8 999 76 10000 4.1 100 14:58 13.12.2019
6566 Clouds 8 999 76 10000 4.1 100 14:39 13.12.2019
6567 Clouds 8 999 76 10000 6.2 100 14:20 13.12.2019
6568 Clouds 8 999 70 10000 5.7 100 13:45 13.12.2019
6569 Clouds 8 999 70 10000 5.7 100 13:27 13.12.2019
6570 Clouds 8 1000 70 10000 3.1 90 12:59 13.12.2019
6571 Clouds 8 1000 70 10000 3.1 90 12:41 13.12.2019
6572 Clouds 8 1000 70 10000 3.1 100 12:19 13.12.2019
6573 Clouds 8 1000 71 10000 1 0 11:45 13.12.2019
6574 Clouds 8 1001 70 10000 1.5 90 11:27 13.12.2019
6575 Clouds 9 1001 71 10000 2.1 0 10:58 13.12.2019
6576 Clouds 9 1001 71 10000 2.1 0 10:40 13.12.2019
6577 Clouds 8 1002 81 10000 2.1 100 10:21 13.12.2019
6578 Clouds 7 1002 81 10000 2.1 80 09:43 13.12.2019
6579 Clouds 7 1002 87 8000 3.1 90 09:22 13.12.2019
6580 Clouds 6 1002 93 7000 1.5 80 08:55 13.12.2019
6581 Clouds 6 1002 93 7000 1.5 80 08:37 13.12.2019
6582 Mist 5 1002 93 4700 0.5 0 08:19 13.12.2019
6583 Mist 5 1002 100 4000 2.1 40 07:43 13.12.2019
6584 Mist 5 1002 100 4500 1.5 80 07:19 13.12.2019
6585 Mist 5 1002 100 7000 0.5 0 06:46 13.12.2019
6586 Clouds 5 1002 100 8000 0.5 0 06:27 13.12.2019
6587 Clouds 5 1002 93 7000 1 0 05:41 13.12.2019
6588 Clouds 4 1002 100 7000 1.01 143 05:20 13.12.2019
6589 Clouds 5 1002 93 8000 2.6 60 04:29 13.12.2019
6590 Mist 3 1003 100 5000 1.5 150 02:57 13.12.2019
6591 Mist 5 1003 100 5000 1 0 02:30 13.12.2019
6592 Clouds 5 1003 100 6000 1 0 01:38 13.12.2019
6593 Clouds 6 1004 100 8000 3.1 80 00:51 13.12.2019
6594 Clouds 6 1004 93 8000 2.1 90 00:28 13.12.2019
6595 Clouds 6 1004 93 7000 2.1 110 23:44 12.12.2019
6596 Clouds 6 1005 100 7000 1.5 150 23:26 12.12.2019
6597 Clouds 6 1005 100 7000 1.5 140 22:57 12.12.2019
6598 Clouds 6 1005 100 7000 1.5 140 22:39 12.12.2019
6599 Clouds 6 1005 100 7000 1.5 140 22:39 12.12.2019
6600 Clouds 6 1005 100 6000 3.1 120 22:21 12.12.2019
6601 Clouds 6 1005 100 6000 3.1 120 22:21 12.12.2019
6602 Rain 6 1005 100 8000 3.6 110 21:56 12.12.2019
6603 Rain 6 1005 100 8000 3.6 110 21:37 12.12.2019
6604 Rain 6 1005 100 10000 5.1 120 21:19 12.12.2019
6605 Rain 6 1005 100 8000 4.6 120 20:59 12.12.2019
6606 Rain 6 1005 100 8000 4.6 120 20:40 12.12.2019
6607 Rain 6 1005 100 7000 5.1 100 20:21 12.12.2019
6608 Rain 7 1005 93 7000 5.1 110 19:56 12.12.2019
6609 Rain 7 1005 93 7000 5.1 110 19:37 12.12.2019
6610 Clouds 6 1006 100 10000 4.1 110 19:18 12.12.2019
6611 Clouds 7 1006 93 10000 2.6 130 18:56 12.12.2019
6612 Clouds 6 1006 93 8000 3.6 110 18:37 12.12.2019
6613 Clouds 7 1006 93 10000 2.6 130 18:37 12.12.2019
6614 Clouds 6 1006 93 8000 3.6 110 18:19 12.12.2019
6615 Clouds 6 1006 100 6000 4.1 100 17:56 12.12.2019
6616 Clouds 6 1006 100 6000 4.1 100 17:38 12.12.2019
6617 Clouds 6 1006 100 6000 4.1 100 17:38 12.12.2019
6618 Rain 6 1006 93 7000 3.6 110 17:19 12.12.2019
6619 Rain 6 1006 100 8000 2.1 120 16:54 12.12.2019
6620 Rain 6 1006 100 8000 2.1 90 16:36 12.12.2019
6621 Rain 6 1006 100 8000 2.1 90 16:18 12.12.2019
6622 Rain 7 1006 87 8000 2.6 140 15:42 12.12.2019
6623 Clouds 7 1006 87 8000 2.6 130 15:20 12.12.2019
6624 Clouds 7 1006 87 8000 2.6 130 15:20 12.12.2019
6625 Clouds 7 1006 87 10000 2.6 140 14:57 12.12.2019
6626 Clouds 7 1006 87 10000 2.6 140 14:57 12.12.2019
6627 Clouds 7 1006 87 10000 2.6 140 14:37 12.12.2019
6628 Rain 7 1006 87 8000 2.6 150 14:19 12.12.2019
6629 Rain 7 1006 87 7000 2.1 130 13:55 12.12.2019
6630 Rain 7 1006 87 8000 2.6 130 13:36 12.12.2019
6631 Rain 7 1006 87 8000 2.6 130 13:18 12.12.2019
6632 Clouds 7 1007 87 10000 2.6 100 12:42 12.12.2019
6633 Clouds 7 1007 87 10000 1.5 80 12:23 12.12.2019
6634 Clouds 6 1007 93 8000 1 90 11:59 12.12.2019
6635 Clouds 6 1007 93 8000 1 90 11:40 12.12.2019
6636 Clouds 6 1008 93 8000 1.5 90 11:22 12.12.2019
6637 Clouds 6 1008 93 8000 3.1 110 10:59 12.12.2019
6638 Clouds 6 1008 93 8000 3.1 110 10:40 12.12.2019
6639 Clouds 6 1008 93 8000 2.6 120 10:22 12.12.2019
6640 Clouds 6 1008 93 6000 3.1 110 09:56 12.12.2019
6641 Mist 6 1008 93 5000 2.1 120 09:38 12.12.2019
6642 Mist 6 1008 93 5000 2.1 120 09:20 12.12.2019
6643 Mist 6 1008 93 5000 2.6 120 08:47 12.12.2019
6644 Drizzle 5 1008 100 3500 2.1 130 08:28 12.12.2019
6645 Drizzle 5 1008 93 3700 2.1 130 07:55 12.12.2019
6646 Drizzle 5 1008 93 3700 2.1 130 07:36 12.12.2019
6647 Drizzle 5 1008 93 4000 3.1 110 07:18 12.12.2019
6648 Clouds 5 1008 93 6000 3.6 110 06:41 12.12.2019
6649 Clouds 5 1008 93 8000 3.1 120 06:21 12.12.2019
6650 Clouds 5 1008 93 8000 3.1 120 05:27 12.12.2019
6651 Clouds 5 1008 100 10000 3.6 130 04:46 12.12.2019
6652 Clouds 5 1009 93 7000 3.6 130 02:42 12.12.2019
6653 Clouds 5 1010 93 8000 2.6 140 02:24 12.12.2019
6654 Clouds 5 1010 93 7000 2.6 140 01:58 12.12.2019
6655 Mist 5 1010 93 5000 3.1 140 01:35 12.12.2019
6656 Mist 5 1010 93 5000 3.1 120 00:49 12.12.2019
6657 Mist 5 1011 93 5000 3.1 120 00:22 12.12.2019
6658 Clouds 5 1011 93 6000 1 0 23:58 11.12.2019
6659 Clouds 5 1011 93 7000 2.1 120 23:36 11.12.2019
6660 Clouds 5 1011 93 7000 2.1 120 23:18 11.12.2019
6661 Mist 2 1011 100 5000 3.1 140 22:55 11.12.2019
6662 Mist 5 1012 100 5000 2.6 130 22:36 11.12.2019
6663 Mist 3 1012 100 5000 2.6 130 22:18 11.12.2019
6664 Rain 3 1012 100 6000 1.5 100 21:39 11.12.2019
6665 Rain 3 1012 100 6000 1.5 100 21:39 11.12.2019
6666 Rain 3 1012 100 7000 2.1 80 21:20 11.12.2019
6667 Rain 3 1012 100 7000 2.1 80 21:20 11.12.2019
6668 Rain 4 1012 93 7000 2.6 120 20:58 11.12.2019
6669 Rain 5 1012 93 7000 2.6 120 20:40 11.12.2019
6670 Rain 5 1012 93 6000 2.1 150 20:20 11.12.2019
6671 Rain 5 1012 93 6000 2.1 140 19:59 11.12.2019
6672 Rain 5 1012 93 6000 2.1 140 19:40 11.12.2019
6673 Rain 5 1012 86 8000 2.1 120 19:21 11.12.2019
6674 Rain 4 1013 93 7000 2.1 100 18:58 11.12.2019
6675 Rain 4 1013 93 7000 2.1 100 18:39 11.12.2019
6676 Rain 4 1013 86 6000 2.6 100 18:18 11.12.2019
6677 Rain 4 1013 86 10000 1.5 60 17:55 11.12.2019
6678 Rain 4 1013 86 10000 0.5 0 17:37 11.12.2019
6679 Rain 4 1013 86 10000 0.5 0 17:18 11.12.2019
6680 Rain 5 1013 80 10000 1 0 16:55 11.12.2019
6681 Clouds 5 1013 80 10000 1.5 50 16:36 11.12.2019
6682 Clouds 5 1013 80 10000 1.5 50 16:18 11.12.2019
6683 Drizzle 5 1013 80 10000 1.5 70 15:54 11.12.2019
6684 Clouds 5 1013 75 10000 2.1 60 15:36 11.12.2019
6685 Clouds 5 1013 75 10000 2.1 60 15:18 11.12.2019
6686 Clouds 5 1013 75 10000 1 0 14:54 11.12.2019
6687 Clouds 5 1013 75 10000 1 0 14:36 11.12.2019
6688 Clouds 5 1013 75 10000 1 0 14:36 11.12.2019
6689 Clouds 6 1013 75 10000 1 0 14:18 11.12.2019
6690 Clouds 6 1013 75 10000 1 0 13:41 11.12.2019
6691 Clouds 6 1013 81 10000 1.5 80 13:21 11.12.2019
6692 Clouds 6 1014 75 10000 2.1 100 12:57 11.12.2019
6693 Clouds 5 1014 75 10000 2.1 100 12:38 11.12.2019
6694 Clouds 5 1014 75 10000 2.1 100 12:38 11.12.2019
6695 Clouds 5 1014 80 10000 1.5 70 12:20 11.12.2019
6696 Clouds 4 1014 80 10000 2.1 110 11:57 11.12.2019
6697 Clouds 4 1014 80 10000 2.1 110 11:38 11.12.2019
6698 Clouds 4 1015 80 10000 3.66 68 11:18 11.12.2019
6699 Clouds 4 1015 80 10000 3.66 68 11:18 11.12.2019
6700 Clouds 4 1015 80 10000 1 210 10:56 11.12.2019
6701 Clouds 3 1015 80 10000 1 210 10:38 11.12.2019
6702 Clouds 3 1015 86 10000 1.5 130 10:19 11.12.2019
6703 Clouds 2 1016 86 10000 2.1 100 09:41 11.12.2019
6704 Clouds 2 1016 93 10000 2.6 100 09:21 11.12.2019
6705 Clouds 1 1016 100 6000 2.1 80 08:58 11.12.2019
6706 Clouds 1 1016 100 6000 2.1 80 08:38 11.12.2019
6707 Mist 1 1015 100 4500 1.5 90 08:19 11.12.2019
6708 Mist 0 1015 94 5000 3.21 48 07:55 11.12.2019
6709 Mist 0 1015 94 3700 3.21 48 07:37 11.12.2019
6710 Mist 0 1015 94 3700 3.21 48 07:18 11.12.2019
6711 Mist 0 1015 94 3700 3.21 48 07:18 11.12.2019
6712 Mist 0 1015 94 5000 1 150 06:43 11.12.2019
6713 Mist 0 1015 94 4000 1 120 06:22 11.12.2019
6714 Mist 0 1015 94 4500 1.5 90 05:41 11.12.2019
6715 Mist 0 1015 96 4000 1 0 05:19 11.12.2019
6716 Mist 0 1015 96 3000 1.5 90 04:27 11.12.2019
6717 Mist 0 1015 96 2700 1.5 70 02:49 11.12.2019
6718 Mist 0 1016 97 3000 0.5 0 01:25 11.12.2019
6719 Mist 0 1016 97 2500 1.76 67 00:47 11.12.2019
6720 Mist 0 1016 97 2000 1.76 67 00:21 11.12.2019
6721 Mist 0 1016 97 1800 1.5 310 23:49 10.12.2019
6722 Fog 0 1016 100 750 1.76 67 23:30 10.12.2019
6723 Fog 0 1016 100 550 1 0 22:58 10.12.2019
6724 Fog 0 1016 100 550 1 0 22:40 10.12.2019
6725 Fog 0 1016 100 550 1 0 22:40 10.12.2019
6726 Fog 0 1015 100 500 0.5 0 22:22 10.12.2019
6727 Fog 0 1015 100 500 1 0 21:56 10.12.2019
6728 Fog 0 1015 100 500 1 0 21:38 10.12.2019
6729 Fog 0 1015 100 500 1 0 21:38 10.12.2019
6730 Fog 0 1015 100 550 0.5 0 21:19 10.12.2019
6731 Fog 0 1015 100 500 0.5 0 20:57 10.12.2019
6732 Fog 0 1015 100 500 0.5 0 20:37 10.12.2019
6733 Fog 0 1014 100 450 1 0 20:19 10.12.2019
6734 Fog 0 1014 100 550 1.5 130 19:55 10.12.2019
6735 Fog 1 1014 100 550 1.5 130 19:37 10.12.2019
6736 Fog 1 1014 100 450 1.5 110 19:18 10.12.2019
6737 Fog 1 1014 100 400 2.1 90 18:40 10.12.2019
6738 Fog 1 1013 91 350 1.5 130 18:20 10.12.2019
6739 Fog 2 1013 91 350 1.5 120 17:58 10.12.2019
6740 Fog 2 1013 91 350 1.5 120 17:39 10.12.2019
6741 Fog 2 1013 85